<?xml version="1.0" encoding="UTF-8" standalone="no" ?>
<gpx xmlns="http://www.topografix.com/GPX/1/1" xmlns:xsi="http://www.w3.org/2001/XMLSchema-instance" xsi:schemaLocation="http://www.topografix.com/GPX/1/1 http://www.topografix.com/GPX/1/1/gpx.xsd" version="1.1" creator="VisuGPX - https://www.visugpx.com">
  <metadata>
    <name>Sortie VTT du jeudi 14 mai 2012 (sans Chris)</name>
    <desc><![CDATA[Il pleuvait hier mercredi, aujourd\\\'hui Chris n\\\'est pas là et j\\\'enregistre le parcours avec mon smartphone.
Temps couvert au départ mais ça se dégage. Parcours intéressant avec un seul passage boueux. temperature 15 ° environ.]]></desc>
  </metadata>
  <trk>
    <name><![CDATA[14/06/2012 9:19]]></name>
    <desc><![CDATA[]]></desc>
    <trkseg>
      <trkpt lat="47.68621" lon="6.04592">
        <ele>275.8</ele>
        <time>2012-06-14T07:19:49.000Z</time>
      </trkpt>
      <trkpt lat="47.68621" lon="6.04592">
        <ele>275.8</ele>
        <time>2012-06-14T07:19:49.000Z</time>
      </trkpt>
      <trkpt lat="47.68621" lon="6.04592">
        <ele>275.8</ele>
        <time>2012-06-14T07:19:52.000Z</time>
      </trkpt>
      <trkpt lat="47.68627" lon="6.04578">
        <ele>275</ele>
        <time>2012-06-14T07:20:22.000Z</time>
      </trkpt>
      <trkpt lat="47.68624" lon="6.0457">
        <ele>279.6</ele>
        <time>2012-06-14T07:20:46.000Z</time>
      </trkpt>
      <trkpt lat="47.68621" lon="6.04575">
        <ele>280.7</ele>
        <time>2012-06-14T07:20:52.000Z</time>
      </trkpt>
      <trkpt lat="47.68616" lon="6.0458">
        <ele>281.5</ele>
        <time>2012-06-14T07:20:56.000Z</time>
      </trkpt>
      <trkpt lat="47.68614" lon="6.04586">
        <ele>281</ele>
        <time>2012-06-14T07:20:59.000Z</time>
      </trkpt>
      <trkpt lat="47.68618" lon="6.04579">
        <ele>281.6</ele>
        <time>2012-06-14T07:21:04.000Z</time>
      </trkpt>
      <trkpt lat="47.68619" lon="6.04571">
        <ele>279.8</ele>
        <time>2012-06-14T07:21:07.000Z</time>
      </trkpt>
      <trkpt lat="47.68619" lon="6.04571">
        <ele>279.8</ele>
        <time>2012-06-14T07:21:07.000Z</time>
      </trkpt>
      <trkpt lat="47.68619" lon="6.04571">
        <ele>279.8</ele>
        <time>2012-06-14T07:21:17.000Z</time>
      </trkpt>
      <trkpt lat="47.68623" lon="6.04562">
        <ele>277.5</ele>
        <time>2012-06-14T07:21:19.000Z</time>
      </trkpt>
      <trkpt lat="47.68627" lon="6.04556">
        <ele>276.8</ele>
        <time>2012-06-14T07:21:24.000Z</time>
      </trkpt>
      <trkpt lat="47.68626" lon="6.04547">
        <ele>278.2</ele>
        <time>2012-06-14T07:21:59.000Z</time>
      </trkpt>
      <trkpt lat="47.68622" lon="6.0454">
        <ele>278.9</ele>
        <time>2012-06-14T07:22:01.000Z</time>
      </trkpt>
      <trkpt lat="47.68616" lon="6.04533">
        <ele>279.9</ele>
        <time>2012-06-14T07:22:03.000Z</time>
      </trkpt>
      <trkpt lat="47.68609" lon="6.04525">
        <ele>280.6</ele>
        <time>2012-06-14T07:22:05.000Z</time>
      </trkpt>
      <trkpt lat="47.68605" lon="6.04521">
        <ele>280.9</ele>
        <time>2012-06-14T07:22:06.000Z</time>
      </trkpt>
      <trkpt lat="47.686" lon="6.04516">
        <ele>281.2</ele>
        <time>2012-06-14T07:22:07.000Z</time>
      </trkpt>
      <trkpt lat="47.68596" lon="6.04512">
        <ele>281.3</ele>
        <time>2012-06-14T07:22:08.000Z</time>
      </trkpt>
      <trkpt lat="47.68592" lon="6.04506">
        <ele>281.4</ele>
        <time>2012-06-14T07:22:09.000Z</time>
      </trkpt>
      <trkpt lat="47.68588" lon="6.045">
        <ele>281.5</ele>
        <time>2012-06-14T07:22:10.000Z</time>
      </trkpt>
      <trkpt lat="47.68582" lon="6.04494">
        <ele>281.5</ele>
        <time>2012-06-14T07:22:11.000Z</time>
      </trkpt>
      <trkpt lat="47.68576" lon="6.04489">
        <ele>281.6</ele>
        <time>2012-06-14T07:22:12.000Z</time>
      </trkpt>
      <trkpt lat="47.68572" lon="6.04485">
        <ele>281.6</ele>
        <time>2012-06-14T07:22:13.000Z</time>
      </trkpt>
      <trkpt lat="47.68567" lon="6.04482">
        <ele>281.5</ele>
        <time>2012-06-14T07:22:14.000Z</time>
      </trkpt>
      <trkpt lat="47.68562" lon="6.04478">
        <ele>281.4</ele>
        <time>2012-06-14T07:22:15.000Z</time>
      </trkpt>
      <trkpt lat="47.68557" lon="6.04474">
        <ele>281.6</ele>
        <time>2012-06-14T07:22:16.000Z</time>
      </trkpt>
      <trkpt lat="47.68552" lon="6.0447">
        <ele>281.7</ele>
        <time>2012-06-14T07:22:17.000Z</time>
      </trkpt>
      <trkpt lat="47.68547" lon="6.04466">
        <ele>281.8</ele>
        <time>2012-06-14T07:22:18.000Z</time>
      </trkpt>
      <trkpt lat="47.68542" lon="6.04462">
        <ele>281.9</ele>
        <time>2012-06-14T07:22:19.000Z</time>
      </trkpt>
      <trkpt lat="47.68536" lon="6.04459">
        <ele>282.1</ele>
        <time>2012-06-14T07:22:20.000Z</time>
      </trkpt>
      <trkpt lat="47.68529" lon="6.04454">
        <ele>282.3</ele>
        <time>2012-06-14T07:22:21.000Z</time>
      </trkpt>
      <trkpt lat="47.68522" lon="6.0445">
        <ele>282.4</ele>
        <time>2012-06-14T07:22:22.000Z</time>
      </trkpt>
      <trkpt lat="47.68516" lon="6.04445">
        <ele>282.4</ele>
        <time>2012-06-14T07:22:23.000Z</time>
      </trkpt>
      <trkpt lat="47.68509" lon="6.04441">
        <ele>282.4</ele>
        <time>2012-06-14T07:22:24.000Z</time>
      </trkpt>
      <trkpt lat="47.68502" lon="6.04438">
        <ele>282.4</ele>
        <time>2012-06-14T07:22:25.000Z</time>
      </trkpt>
      <trkpt lat="47.68494" lon="6.04436">
        <ele>282.5</ele>
        <time>2012-06-14T07:22:26.000Z</time>
      </trkpt>
      <trkpt lat="47.68486" lon="6.04434">
        <ele>282.5</ele>
        <time>2012-06-14T07:22:27.000Z</time>
      </trkpt>
      <trkpt lat="47.68478" lon="6.04433">
        <ele>282.6</ele>
        <time>2012-06-14T07:22:28.000Z</time>
      </trkpt>
      <trkpt lat="47.68471" lon="6.04432">
        <ele>282.8</ele>
        <time>2012-06-14T07:22:29.000Z</time>
      </trkpt>
      <trkpt lat="47.68463" lon="6.04432">
        <ele>282.9</ele>
        <time>2012-06-14T07:22:30.000Z</time>
      </trkpt>
      <trkpt lat="47.68456" lon="6.0443">
        <ele>282.9</ele>
        <time>2012-06-14T07:22:31.000Z</time>
      </trkpt>
      <trkpt lat="47.68448" lon="6.0443">
        <ele>283</ele>
        <time>2012-06-14T07:22:32.000Z</time>
      </trkpt>
      <trkpt lat="47.68441" lon="6.04429">
        <ele>283.1</ele>
        <time>2012-06-14T07:22:33.000Z</time>
      </trkpt>
      <trkpt lat="47.68434" lon="6.04429">
        <ele>283</ele>
        <time>2012-06-14T07:22:34.000Z</time>
      </trkpt>
      <trkpt lat="47.68428" lon="6.04429">
        <ele>283</ele>
        <time>2012-06-14T07:22:35.000Z</time>
      </trkpt>
      <trkpt lat="47.68421" lon="6.04429">
        <ele>282.9</ele>
        <time>2012-06-14T07:22:36.000Z</time>
      </trkpt>
      <trkpt lat="47.68415" lon="6.0443">
        <ele>282.8</ele>
        <time>2012-06-14T07:22:37.000Z</time>
      </trkpt>
      <trkpt lat="47.68408" lon="6.0443">
        <ele>282.8</ele>
        <time>2012-06-14T07:22:38.000Z</time>
      </trkpt>
      <trkpt lat="47.68403" lon="6.04428">
        <ele>283.1</ele>
        <time>2012-06-14T07:22:39.000Z</time>
      </trkpt>
      <trkpt lat="47.68398" lon="6.04425">
        <ele>283.2</ele>
        <time>2012-06-14T07:22:40.000Z</time>
      </trkpt>
      <trkpt lat="47.68392" lon="6.04424">
        <ele>283.1</ele>
        <time>2012-06-14T07:22:41.000Z</time>
      </trkpt>
      <trkpt lat="47.68385" lon="6.04419">
        <ele>283</ele>
        <time>2012-06-14T07:22:43.000Z</time>
      </trkpt>
      <trkpt lat="47.68383" lon="6.04407">
        <ele>283</ele>
        <time>2012-06-14T07:22:46.000Z</time>
      </trkpt>
      <trkpt lat="47.68383" lon="6.04399">
        <ele>283</ele>
        <time>2012-06-14T07:22:47.000Z</time>
      </trkpt>
      <trkpt lat="47.68384" lon="6.04391">
        <ele>283</ele>
        <time>2012-06-14T07:22:48.000Z</time>
      </trkpt>
      <trkpt lat="47.68384" lon="6.04383">
        <ele>283</ele>
        <time>2012-06-14T07:22:49.000Z</time>
      </trkpt>
      <trkpt lat="47.68385" lon="6.04375">
        <ele>283</ele>
        <time>2012-06-14T07:22:50.000Z</time>
      </trkpt>
      <trkpt lat="47.68385" lon="6.04367">
        <ele>283</ele>
        <time>2012-06-14T07:22:51.000Z</time>
      </trkpt>
      <trkpt lat="47.68386" lon="6.04358">
        <ele>283</ele>
        <time>2012-06-14T07:22:52.000Z</time>
      </trkpt>
      <trkpt lat="47.68386" lon="6.0435">
        <ele>283</ele>
        <time>2012-06-14T07:22:53.000Z</time>
      </trkpt>
      <trkpt lat="47.68387" lon="6.04343">
        <ele>283</ele>
        <time>2012-06-14T07:22:54.000Z</time>
      </trkpt>
      <trkpt lat="47.68387" lon="6.04334">
        <ele>283</ele>
        <time>2012-06-14T07:22:55.000Z</time>
      </trkpt>
      <trkpt lat="47.68387" lon="6.04326">
        <ele>283.1</ele>
        <time>2012-06-14T07:22:56.000Z</time>
      </trkpt>
      <trkpt lat="47.68387" lon="6.04319">
        <ele>283.2</ele>
        <time>2012-06-14T07:22:57.000Z</time>
      </trkpt>
      <trkpt lat="47.68387" lon="6.04311">
        <ele>283.1</ele>
        <time>2012-06-14T07:22:58.000Z</time>
      </trkpt>
      <trkpt lat="47.68387" lon="6.04303">
        <ele>283.1</ele>
        <time>2012-06-14T07:22:59.000Z</time>
      </trkpt>
      <trkpt lat="47.68388" lon="6.04296">
        <ele>283</ele>
        <time>2012-06-14T07:23:00.000Z</time>
      </trkpt>
      <trkpt lat="47.68388" lon="6.04284">
        <ele>282.7</ele>
        <time>2012-06-14T07:23:02.000Z</time>
      </trkpt>
      <trkpt lat="47.68388" lon="6.04276">
        <ele>282.5</ele>
        <time>2012-06-14T07:23:04.000Z</time>
      </trkpt>
      <trkpt lat="47.68388" lon="6.04269">
        <ele>282.2</ele>
        <time>2012-06-14T07:23:06.000Z</time>
      </trkpt>
      <trkpt lat="47.68386" lon="6.04262">
        <ele>281.8</ele>
        <time>2012-06-14T07:23:08.000Z</time>
      </trkpt>
      <trkpt lat="47.68385" lon="6.04254">
        <ele>280.9</ele>
        <time>2012-06-14T07:23:11.000Z</time>
      </trkpt>
      <trkpt lat="47.68382" lon="6.04246">
        <ele>280.4</ele>
        <time>2012-06-14T07:23:14.000Z</time>
      </trkpt>
      <trkpt lat="47.68377" lon="6.04242">
        <ele>280.1</ele>
        <time>2012-06-14T07:23:16.000Z</time>
      </trkpt>
      <trkpt lat="47.68374" lon="6.04235">
        <ele>279.7</ele>
        <time>2012-06-14T07:23:18.000Z</time>
      </trkpt>
      <trkpt lat="47.6837" lon="6.04229">
        <ele>279.6</ele>
        <time>2012-06-14T07:23:20.000Z</time>
      </trkpt>
      <trkpt lat="47.68366" lon="6.04222">
        <ele>279.2</ele>
        <time>2012-06-14T07:23:22.000Z</time>
      </trkpt>
      <trkpt lat="47.68364" lon="6.04214">
        <ele>279.1</ele>
        <time>2012-06-14T07:23:24.000Z</time>
      </trkpt>
      <trkpt lat="47.68362" lon="6.04206">
        <ele>279</ele>
        <time>2012-06-14T07:23:26.000Z</time>
      </trkpt>
      <trkpt lat="47.68361" lon="6.04197">
        <ele>278.9</ele>
        <time>2012-06-14T07:23:28.000Z</time>
      </trkpt>
      <trkpt lat="47.68362" lon="6.04187">
        <ele>278.9</ele>
        <time>2012-06-14T07:23:30.000Z</time>
      </trkpt>
      <trkpt lat="47.68363" lon="6.04177">
        <ele>279</ele>
        <time>2012-06-14T07:23:32.000Z</time>
      </trkpt>
      <trkpt lat="47.68367" lon="6.0417">
        <ele>278.9</ele>
        <time>2012-06-14T07:23:34.000Z</time>
      </trkpt>
      <trkpt lat="47.68372" lon="6.04167">
        <ele>277</ele>
        <time>2012-06-14T07:23:36.000Z</time>
      </trkpt>
      <trkpt lat="47.68379" lon="6.04166">
        <ele>274.9</ele>
        <time>2012-06-14T07:23:38.000Z</time>
      </trkpt>
      <trkpt lat="47.68386" lon="6.04166">
        <ele>273.2</ele>
        <time>2012-06-14T07:23:40.000Z</time>
      </trkpt>
      <trkpt lat="47.68394" lon="6.04164">
        <ele>270.4</ele>
        <time>2012-06-14T07:23:42.000Z</time>
      </trkpt>
      <trkpt lat="47.68402" lon="6.04163">
        <ele>268.9</ele>
        <time>2012-06-14T07:23:44.000Z</time>
      </trkpt>
      <trkpt lat="47.68409" lon="6.04162">
        <ele>268</ele>
        <time>2012-06-14T07:23:46.000Z</time>
      </trkpt>
      <trkpt lat="47.68417" lon="6.04162">
        <ele>267.1</ele>
        <time>2012-06-14T07:23:48.000Z</time>
      </trkpt>
      <trkpt lat="47.68424" lon="6.04163">
        <ele>266.4</ele>
        <time>2012-06-14T07:23:50.000Z</time>
      </trkpt>
      <trkpt lat="47.68432" lon="6.04163">
        <ele>265.9</ele>
        <time>2012-06-14T07:23:52.000Z</time>
      </trkpt>
      <trkpt lat="47.68439" lon="6.04164">
        <ele>265.6</ele>
        <time>2012-06-14T07:23:54.000Z</time>
      </trkpt>
      <trkpt lat="47.68446" lon="6.04165">
        <ele>265</ele>
        <time>2012-06-14T07:23:56.000Z</time>
      </trkpt>
      <trkpt lat="47.68454" lon="6.04166">
        <ele>264.7</ele>
        <time>2012-06-14T07:23:58.000Z</time>
      </trkpt>
      <trkpt lat="47.68461" lon="6.04166">
        <ele>264.4</ele>
        <time>2012-06-14T07:24:00.000Z</time>
      </trkpt>
      <trkpt lat="47.68468" lon="6.04167">
        <ele>264.1</ele>
        <time>2012-06-14T07:24:02.000Z</time>
      </trkpt>
      <trkpt lat="47.68475" lon="6.04169">
        <ele>263.7</ele>
        <time>2012-06-14T07:24:04.000Z</time>
      </trkpt>
      <trkpt lat="47.68482" lon="6.04169">
        <ele>263.5</ele>
        <time>2012-06-14T07:24:06.000Z</time>
      </trkpt>
      <trkpt lat="47.68489" lon="6.04171">
        <ele>263</ele>
        <time>2012-06-14T07:24:08.000Z</time>
      </trkpt>
      <trkpt lat="47.68496" lon="6.04172">
        <ele>262.8</ele>
        <time>2012-06-14T07:24:10.000Z</time>
      </trkpt>
      <trkpt lat="47.68503" lon="6.04173">
        <ele>262.5</ele>
        <time>2012-06-14T07:24:12.000Z</time>
      </trkpt>
      <trkpt lat="47.68511" lon="6.04173">
        <ele>262.2</ele>
        <time>2012-06-14T07:24:14.000Z</time>
      </trkpt>
      <trkpt lat="47.68518" lon="6.04174">
        <ele>262.3</ele>
        <time>2012-06-14T07:24:16.000Z</time>
      </trkpt>
      <trkpt lat="47.68524" lon="6.04175">
        <ele>262</ele>
        <time>2012-06-14T07:24:18.000Z</time>
      </trkpt>
      <trkpt lat="47.68532" lon="6.04177">
        <ele>261.6</ele>
        <time>2012-06-14T07:24:20.000Z</time>
      </trkpt>
      <trkpt lat="47.6854" lon="6.04178">
        <ele>261.3</ele>
        <time>2012-06-14T07:24:22.000Z</time>
      </trkpt>
      <trkpt lat="47.68547" lon="6.04179">
        <ele>261.2</ele>
        <time>2012-06-14T07:24:24.000Z</time>
      </trkpt>
      <trkpt lat="47.68554" lon="6.04181">
        <ele>261.2</ele>
        <time>2012-06-14T07:24:26.000Z</time>
      </trkpt>
      <trkpt lat="47.6856" lon="6.04182">
        <ele>261.1</ele>
        <time>2012-06-14T07:24:28.000Z</time>
      </trkpt>
      <trkpt lat="47.68567" lon="6.04184">
        <ele>261.4</ele>
        <time>2012-06-14T07:24:30.000Z</time>
      </trkpt>
      <trkpt lat="47.68573" lon="6.04186">
        <ele>261.1</ele>
        <time>2012-06-14T07:24:32.000Z</time>
      </trkpt>
      <trkpt lat="47.6858" lon="6.04188">
        <ele>260.8</ele>
        <time>2012-06-14T07:24:34.000Z</time>
      </trkpt>
      <trkpt lat="47.68586" lon="6.0419">
        <ele>260.8</ele>
        <time>2012-06-14T07:24:36.000Z</time>
      </trkpt>
      <trkpt lat="47.68593" lon="6.04192">
        <ele>260.7</ele>
        <time>2012-06-14T07:24:38.000Z</time>
      </trkpt>
      <trkpt lat="47.68599" lon="6.04193">
        <ele>260.8</ele>
        <time>2012-06-14T07:24:40.000Z</time>
      </trkpt>
      <trkpt lat="47.68606" lon="6.04194">
        <ele>261.3</ele>
        <time>2012-06-14T07:24:42.000Z</time>
      </trkpt>
      <trkpt lat="47.68612" lon="6.04196">
        <ele>261.2</ele>
        <time>2012-06-14T07:24:44.000Z</time>
      </trkpt>
      <trkpt lat="47.68619" lon="6.04198">
        <ele>261.1</ele>
        <time>2012-06-14T07:24:46.000Z</time>
      </trkpt>
      <trkpt lat="47.68626" lon="6.04201">
        <ele>260.9</ele>
        <time>2012-06-14T07:24:48.000Z</time>
      </trkpt>
      <trkpt lat="47.68633" lon="6.04203">
        <ele>260.6</ele>
        <time>2012-06-14T07:24:50.000Z</time>
      </trkpt>
      <trkpt lat="47.6864" lon="6.04205">
        <ele>260.6</ele>
        <time>2012-06-14T07:24:52.000Z</time>
      </trkpt>
      <trkpt lat="47.68647" lon="6.04206">
        <ele>260.5</ele>
        <time>2012-06-14T07:24:54.000Z</time>
      </trkpt>
      <trkpt lat="47.68654" lon="6.04208">
        <ele>260.3</ele>
        <time>2012-06-14T07:24:56.000Z</time>
      </trkpt>
      <trkpt lat="47.68661" lon="6.0421">
        <ele>260.3</ele>
        <time>2012-06-14T07:24:58.000Z</time>
      </trkpt>
      <trkpt lat="47.68667" lon="6.04212">
        <ele>260.2</ele>
        <time>2012-06-14T07:25:00.000Z</time>
      </trkpt>
      <trkpt lat="47.68674" lon="6.04214">
        <ele>260</ele>
        <time>2012-06-14T07:25:02.000Z</time>
      </trkpt>
      <trkpt lat="47.68681" lon="6.04216">
        <ele>259.9</ele>
        <time>2012-06-14T07:25:04.000Z</time>
      </trkpt>
      <trkpt lat="47.6869" lon="6.04218">
        <ele>259.8</ele>
        <time>2012-06-14T07:25:06.000Z</time>
      </trkpt>
      <trkpt lat="47.68698" lon="6.0422">
        <ele>259.8</ele>
        <time>2012-06-14T07:25:08.000Z</time>
      </trkpt>
      <trkpt lat="47.68706" lon="6.04223">
        <ele>259.8</ele>
        <time>2012-06-14T07:25:10.000Z</time>
      </trkpt>
      <trkpt lat="47.68713" lon="6.04225">
        <ele>259.8</ele>
        <time>2012-06-14T07:25:12.000Z</time>
      </trkpt>
      <trkpt lat="47.6872" lon="6.04226">
        <ele>259.9</ele>
        <time>2012-06-14T07:25:14.000Z</time>
      </trkpt>
      <trkpt lat="47.68728" lon="6.04228">
        <ele>259.5</ele>
        <time>2012-06-14T07:25:16.000Z</time>
      </trkpt>
      <trkpt lat="47.68736" lon="6.04228">
        <ele>259.4</ele>
        <time>2012-06-14T07:25:18.000Z</time>
      </trkpt>
      <trkpt lat="47.68744" lon="6.0423">
        <ele>259.5</ele>
        <time>2012-06-14T07:25:20.000Z</time>
      </trkpt>
      <trkpt lat="47.68751" lon="6.04231">
        <ele>259.4</ele>
        <time>2012-06-14T07:25:22.000Z</time>
      </trkpt>
      <trkpt lat="47.68758" lon="6.04232">
        <ele>259.5</ele>
        <time>2012-06-14T07:25:24.000Z</time>
      </trkpt>
      <trkpt lat="47.68764" lon="6.04233">
        <ele>259.5</ele>
        <time>2012-06-14T07:25:26.000Z</time>
      </trkpt>
      <trkpt lat="47.68771" lon="6.04233">
        <ele>259.7</ele>
        <time>2012-06-14T07:25:28.000Z</time>
      </trkpt>
      <trkpt lat="47.68778" lon="6.04234">
        <ele>259.7</ele>
        <time>2012-06-14T07:25:30.000Z</time>
      </trkpt>
      <trkpt lat="47.68786" lon="6.04234">
        <ele>259.6</ele>
        <time>2012-06-14T07:25:32.000Z</time>
      </trkpt>
      <trkpt lat="47.68793" lon="6.04234">
        <ele>260</ele>
        <time>2012-06-14T07:25:34.000Z</time>
      </trkpt>
      <trkpt lat="47.68799" lon="6.04236">
        <ele>260.1</ele>
        <time>2012-06-14T07:25:36.000Z</time>
      </trkpt>
      <trkpt lat="47.68806" lon="6.04236">
        <ele>260.1</ele>
        <time>2012-06-14T07:25:38.000Z</time>
      </trkpt>
      <trkpt lat="47.68812" lon="6.04237">
        <ele>260.2</ele>
        <time>2012-06-14T07:25:40.000Z</time>
      </trkpt>
      <trkpt lat="47.68819" lon="6.04239">
        <ele>260.1</ele>
        <time>2012-06-14T07:25:42.000Z</time>
      </trkpt>
      <trkpt lat="47.68825" lon="6.04239">
        <ele>260.8</ele>
        <time>2012-06-14T07:25:44.000Z</time>
      </trkpt>
      <trkpt lat="47.68831" lon="6.04239">
        <ele>260.9</ele>
        <time>2012-06-14T07:25:46.000Z</time>
      </trkpt>
      <trkpt lat="47.68859" lon="6.04246">
        <ele>261.2</ele>
        <time>2012-06-14T07:25:53.000Z</time>
      </trkpt>
      <trkpt lat="47.68865" lon="6.04247">
        <ele>260.1</ele>
        <time>2012-06-14T07:25:54.000Z</time>
      </trkpt>
      <trkpt lat="47.6887" lon="6.04241">
        <ele>261.2</ele>
        <time>2012-06-14T07:25:58.000Z</time>
      </trkpt>
      <trkpt lat="47.68876" lon="6.04239">
        <ele>261.4</ele>
        <time>2012-06-14T07:26:00.000Z</time>
      </trkpt>
      <trkpt lat="47.68881" lon="6.04236">
        <ele>264</ele>
        <time>2012-06-14T07:26:02.000Z</time>
      </trkpt>
      <trkpt lat="47.68887" lon="6.04235">
        <ele>268.6</ele>
        <time>2012-06-14T07:26:05.000Z</time>
      </trkpt>
      <trkpt lat="47.68893" lon="6.04239">
        <ele>269.5</ele>
        <time>2012-06-14T07:26:08.000Z</time>
      </trkpt>
      <trkpt lat="47.68898" lon="6.04243">
        <ele>268.9</ele>
        <time>2012-06-14T07:26:10.000Z</time>
      </trkpt>
      <trkpt lat="47.68903" lon="6.04247">
        <ele>267.1</ele>
        <time>2012-06-14T07:26:12.000Z</time>
      </trkpt>
      <trkpt lat="47.68908" lon="6.0425">
        <ele>266.8</ele>
        <time>2012-06-14T07:26:15.000Z</time>
      </trkpt>
      <trkpt lat="47.6891" lon="6.04258">
        <ele>265.1</ele>
        <time>2012-06-14T07:26:18.000Z</time>
      </trkpt>
      <trkpt lat="47.68916" lon="6.04255">
        <ele>265.8</ele>
        <time>2012-06-14T07:26:21.000Z</time>
      </trkpt>
      <trkpt lat="47.68918" lon="6.04246">
        <ele>266</ele>
        <time>2012-06-14T07:26:23.000Z</time>
      </trkpt>
      <trkpt lat="47.68921" lon="6.04236">
        <ele>266.3</ele>
        <time>2012-06-14T07:26:25.000Z</time>
      </trkpt>
      <trkpt lat="47.68923" lon="6.04229">
        <ele>266.4</ele>
        <time>2012-06-14T07:26:27.000Z</time>
      </trkpt>
      <trkpt lat="47.68927" lon="6.04222">
        <ele>265.4</ele>
        <time>2012-06-14T07:26:29.000Z</time>
      </trkpt>
      <trkpt lat="47.68932" lon="6.04211">
        <ele>265.4</ele>
        <time>2012-06-14T07:26:31.000Z</time>
      </trkpt>
      <trkpt lat="47.68934" lon="6.04204">
        <ele>265.4</ele>
        <time>2012-06-14T07:26:32.000Z</time>
      </trkpt>
      <trkpt lat="47.68936" lon="6.04198">
        <ele>265.5</ele>
        <time>2012-06-14T07:26:33.000Z</time>
      </trkpt>
      <trkpt lat="47.68937" lon="6.04191">
        <ele>265.5</ele>
        <time>2012-06-14T07:26:34.000Z</time>
      </trkpt>
      <trkpt lat="47.68935" lon="6.0418">
        <ele>265.7</ele>
        <time>2012-06-14T07:26:36.000Z</time>
      </trkpt>
      <trkpt lat="47.68936" lon="6.04174">
        <ele>265.9</ele>
        <time>2012-06-14T07:26:37.000Z</time>
      </trkpt>
      <trkpt lat="47.6894" lon="6.04169">
        <ele>265.8</ele>
        <time>2012-06-14T07:26:38.000Z</time>
      </trkpt>
      <trkpt lat="47.68945" lon="6.0416">
        <ele>265.8</ele>
        <time>2012-06-14T07:26:40.000Z</time>
      </trkpt>
      <trkpt lat="47.6895" lon="6.0415">
        <ele>265.5</ele>
        <time>2012-06-14T07:26:42.000Z</time>
      </trkpt>
      <trkpt lat="47.68958" lon="6.04144">
        <ele>264.7</ele>
        <time>2012-06-14T07:26:44.000Z</time>
      </trkpt>
      <trkpt lat="47.68961" lon="6.04136">
        <ele>264.4</ele>
        <time>2012-06-14T07:26:46.000Z</time>
      </trkpt>
      <trkpt lat="47.68992" lon="6.04074">
        <ele>279.1</ele>
        <time>2012-06-14T07:26:55.000Z</time>
      </trkpt>
      <trkpt lat="47.68995" lon="6.04068">
        <ele>278.7</ele>
        <time>2012-06-14T07:26:57.000Z</time>
      </trkpt>
      <trkpt lat="47.68999" lon="6.04059">
        <ele>278.2</ele>
        <time>2012-06-14T07:26:59.000Z</time>
      </trkpt>
      <trkpt lat="47.69003" lon="6.0405">
        <ele>277.5</ele>
        <time>2012-06-14T07:27:01.000Z</time>
      </trkpt>
      <trkpt lat="47.69006" lon="6.04042">
        <ele>277.1</ele>
        <time>2012-06-14T07:27:03.000Z</time>
      </trkpt>
      <trkpt lat="47.69009" lon="6.04034">
        <ele>277</ele>
        <time>2012-06-14T07:27:05.000Z</time>
      </trkpt>
      <trkpt lat="47.69012" lon="6.04025">
        <ele>277.1</ele>
        <time>2012-06-14T07:27:07.000Z</time>
      </trkpt>
      <trkpt lat="47.69016" lon="6.04014">
        <ele>276.7</ele>
        <time>2012-06-14T07:27:09.000Z</time>
      </trkpt>
      <trkpt lat="47.6902" lon="6.04004">
        <ele>277.7</ele>
        <time>2012-06-14T07:27:11.000Z</time>
      </trkpt>
      <trkpt lat="47.69024" lon="6.03995">
        <ele>277.3</ele>
        <time>2012-06-14T07:27:13.000Z</time>
      </trkpt>
      <trkpt lat="47.69027" lon="6.03987">
        <ele>277.4</ele>
        <time>2012-06-14T07:27:15.000Z</time>
      </trkpt>
      <trkpt lat="47.69031" lon="6.03978">
        <ele>276</ele>
        <time>2012-06-14T07:27:17.000Z</time>
      </trkpt>
      <trkpt lat="47.69036" lon="6.03968">
        <ele>274</ele>
        <time>2012-06-14T07:27:19.000Z</time>
      </trkpt>
      <trkpt lat="47.6904" lon="6.03958">
        <ele>273.4</ele>
        <time>2012-06-14T07:27:21.000Z</time>
      </trkpt>
      <trkpt lat="47.69043" lon="6.03948">
        <ele>272.9</ele>
        <time>2012-06-14T07:27:23.000Z</time>
      </trkpt>
      <trkpt lat="47.69047" lon="6.03939">
        <ele>272.7</ele>
        <time>2012-06-14T07:27:25.000Z</time>
      </trkpt>
      <trkpt lat="47.69051" lon="6.0393">
        <ele>272.1</ele>
        <time>2012-06-14T07:27:27.000Z</time>
      </trkpt>
      <trkpt lat="47.69054" lon="6.03921">
        <ele>272</ele>
        <time>2012-06-14T07:27:29.000Z</time>
      </trkpt>
      <trkpt lat="47.69058" lon="6.03912">
        <ele>271.8</ele>
        <time>2012-06-14T07:27:31.000Z</time>
      </trkpt>
      <trkpt lat="47.69063" lon="6.03901">
        <ele>271.9</ele>
        <time>2012-06-14T07:27:33.000Z</time>
      </trkpt>
      <trkpt lat="47.69065" lon="6.03895">
        <ele>271.9</ele>
        <time>2012-06-14T07:27:34.000Z</time>
      </trkpt>
      <trkpt lat="47.69068" lon="6.03889">
        <ele>271.8</ele>
        <time>2012-06-14T07:27:35.000Z</time>
      </trkpt>
      <trkpt lat="47.6907" lon="6.03883">
        <ele>271.8</ele>
        <time>2012-06-14T07:27:36.000Z</time>
      </trkpt>
      <trkpt lat="47.69073" lon="6.03875">
        <ele>271.6</ele>
        <time>2012-06-14T07:27:37.000Z</time>
      </trkpt>
      <trkpt lat="47.69076" lon="6.03868">
        <ele>271.5</ele>
        <time>2012-06-14T07:27:38.000Z</time>
      </trkpt>
      <trkpt lat="47.69079" lon="6.03861">
        <ele>271.5</ele>
        <time>2012-06-14T07:27:39.000Z</time>
      </trkpt>
      <trkpt lat="47.69081" lon="6.03855">
        <ele>271.5</ele>
        <time>2012-06-14T07:27:40.000Z</time>
      </trkpt>
      <trkpt lat="47.69084" lon="6.03849">
        <ele>271.5</ele>
        <time>2012-06-14T07:27:41.000Z</time>
      </trkpt>
      <trkpt lat="47.69086" lon="6.03843">
        <ele>271.6</ele>
        <time>2012-06-14T07:27:42.000Z</time>
      </trkpt>
      <trkpt lat="47.69089" lon="6.03837">
        <ele>271.4</ele>
        <time>2012-06-14T07:27:43.000Z</time>
      </trkpt>
      <trkpt lat="47.69091" lon="6.0383">
        <ele>271.2</ele>
        <time>2012-06-14T07:27:44.000Z</time>
      </trkpt>
      <trkpt lat="47.69094" lon="6.03824">
        <ele>271</ele>
        <time>2012-06-14T07:27:45.000Z</time>
      </trkpt>
      <trkpt lat="47.69096" lon="6.03818">
        <ele>270.9</ele>
        <time>2012-06-14T07:27:46.000Z</time>
      </trkpt>
      <trkpt lat="47.6912" lon="6.03753">
        <ele>268.7</ele>
        <time>2012-06-14T07:27:54.000Z</time>
      </trkpt>
      <trkpt lat="47.69121" lon="6.03743">
        <ele>271.8</ele>
        <time>2012-06-14T07:27:56.000Z</time>
      </trkpt>
      <trkpt lat="47.69123" lon="6.03735">
        <ele>266.9</ele>
        <time>2012-06-14T07:27:57.000Z</time>
      </trkpt>
      <trkpt lat="47.69125" lon="6.03728">
        <ele>266.4</ele>
        <time>2012-06-14T07:27:58.000Z</time>
      </trkpt>
      <trkpt lat="47.69126" lon="6.03721">
        <ele>266.1</ele>
        <time>2012-06-14T07:27:59.000Z</time>
      </trkpt>
      <trkpt lat="47.69129" lon="6.0371">
        <ele>267.4</ele>
        <time>2012-06-14T07:28:01.000Z</time>
      </trkpt>
      <trkpt lat="47.69131" lon="6.03698">
        <ele>268.4</ele>
        <time>2012-06-14T07:28:03.000Z</time>
      </trkpt>
      <trkpt lat="47.69134" lon="6.03688">
        <ele>268.9</ele>
        <time>2012-06-14T07:28:05.000Z</time>
      </trkpt>
      <trkpt lat="47.69136" lon="6.03677">
        <ele>269.3</ele>
        <time>2012-06-14T07:28:07.000Z</time>
      </trkpt>
      <trkpt lat="47.69139" lon="6.03667">
        <ele>270.5</ele>
        <time>2012-06-14T07:28:09.000Z</time>
      </trkpt>
      <trkpt lat="47.69141" lon="6.03658">
        <ele>271.9</ele>
        <time>2012-06-14T07:28:11.000Z</time>
      </trkpt>
      <trkpt lat="47.69143" lon="6.03653">
        <ele>273.1</ele>
        <time>2012-06-14T07:28:13.000Z</time>
      </trkpt>
      <trkpt lat="47.69146" lon="6.03646">
        <ele>275.6</ele>
        <time>2012-06-14T07:28:15.000Z</time>
      </trkpt>
      <trkpt lat="47.69151" lon="6.03641">
        <ele>278.6</ele>
        <time>2012-06-14T07:28:17.000Z</time>
      </trkpt>
      <trkpt lat="47.69156" lon="6.03644">
        <ele>280</ele>
        <time>2012-06-14T07:28:19.000Z</time>
      </trkpt>
      <trkpt lat="47.6916" lon="6.03648">
        <ele>280.8</ele>
        <time>2012-06-14T07:28:21.000Z</time>
      </trkpt>
      <trkpt lat="47.69165" lon="6.03653">
        <ele>280.1</ele>
        <time>2012-06-14T07:28:24.000Z</time>
      </trkpt>
      <trkpt lat="47.69169" lon="6.03658">
        <ele>279.2</ele>
        <time>2012-06-14T07:28:26.000Z</time>
      </trkpt>
      <trkpt lat="47.69172" lon="6.03663">
        <ele>278.1</ele>
        <time>2012-06-14T07:28:28.000Z</time>
      </trkpt>
      <trkpt lat="47.69177" lon="6.03664">
        <ele>278</ele>
        <time>2012-06-14T07:28:30.000Z</time>
      </trkpt>
      <trkpt lat="47.69183" lon="6.03663">
        <ele>278.1</ele>
        <time>2012-06-14T07:28:33.000Z</time>
      </trkpt>
      <trkpt lat="47.6919" lon="6.03659">
        <ele>277.5</ele>
        <time>2012-06-14T07:28:36.000Z</time>
      </trkpt>
      <trkpt lat="47.69195" lon="6.03657">
        <ele>277.6</ele>
        <time>2012-06-14T07:28:39.000Z</time>
      </trkpt>
      <trkpt lat="47.69199" lon="6.03653">
        <ele>277.7</ele>
        <time>2012-06-14T07:28:42.000Z</time>
      </trkpt>
      <trkpt lat="47.69204" lon="6.03651">
        <ele>277.8</ele>
        <time>2012-06-14T07:28:45.000Z</time>
      </trkpt>
      <trkpt lat="47.69228" lon="6.03652">
        <ele>279</ele>
        <time>2012-06-14T07:28:54.000Z</time>
      </trkpt>
      <trkpt lat="47.69233" lon="6.03649">
        <ele>278.6</ele>
        <time>2012-06-14T07:28:57.000Z</time>
      </trkpt>
      <trkpt lat="47.69239" lon="6.0365">
        <ele>279.5</ele>
        <time>2012-06-14T07:28:59.000Z</time>
      </trkpt>
      <trkpt lat="47.69244" lon="6.03649">
        <ele>281.4</ele>
        <time>2012-06-14T07:29:01.000Z</time>
      </trkpt>
      <trkpt lat="47.69248" lon="6.03648">
        <ele>281</ele>
        <time>2012-06-14T07:29:03.000Z</time>
      </trkpt>
      <trkpt lat="47.69253" lon="6.03644">
        <ele>279.6</ele>
        <time>2012-06-14T07:29:06.000Z</time>
      </trkpt>
      <trkpt lat="47.69258" lon="6.0364">
        <ele>280.2</ele>
        <time>2012-06-14T07:29:09.000Z</time>
      </trkpt>
      <trkpt lat="47.69262" lon="6.03637">
        <ele>280.3</ele>
        <time>2012-06-14T07:29:11.000Z</time>
      </trkpt>
      <trkpt lat="47.6927" lon="6.03633">
        <ele>278.6</ele>
        <time>2012-06-14T07:29:13.000Z</time>
      </trkpt>
      <trkpt lat="47.69275" lon="6.03628">
        <ele>277.5</ele>
        <time>2012-06-14T07:29:16.000Z</time>
      </trkpt>
      <trkpt lat="47.6928" lon="6.03624">
        <ele>279.3</ele>
        <time>2012-06-14T07:29:19.000Z</time>
      </trkpt>
      <trkpt lat="47.69285" lon="6.0362">
        <ele>279.2</ele>
        <time>2012-06-14T07:29:22.000Z</time>
      </trkpt>
      <trkpt lat="47.6929" lon="6.03616">
        <ele>280</ele>
        <time>2012-06-14T07:29:25.000Z</time>
      </trkpt>
      <trkpt lat="47.69294" lon="6.0361">
        <ele>281.4</ele>
        <time>2012-06-14T07:29:28.000Z</time>
      </trkpt>
      <trkpt lat="47.69297" lon="6.03604">
        <ele>282.1</ele>
        <time>2012-06-14T07:29:30.000Z</time>
      </trkpt>
      <trkpt lat="47.69301" lon="6.03597">
        <ele>282.4</ele>
        <time>2012-06-14T07:29:33.000Z</time>
      </trkpt>
      <trkpt lat="47.69305" lon="6.0359">
        <ele>282.6</ele>
        <time>2012-06-14T07:29:36.000Z</time>
      </trkpt>
      <trkpt lat="47.6931" lon="6.03585">
        <ele>282.9</ele>
        <time>2012-06-14T07:29:39.000Z</time>
      </trkpt>
      <trkpt lat="47.69314" lon="6.03582">
        <ele>283</ele>
        <time>2012-06-14T07:29:41.000Z</time>
      </trkpt>
      <trkpt lat="47.69319" lon="6.03579">
        <ele>283.4</ele>
        <time>2012-06-14T07:29:43.000Z</time>
      </trkpt>
      <trkpt lat="47.69324" lon="6.03576">
        <ele>283.7</ele>
        <time>2012-06-14T07:29:45.000Z</time>
      </trkpt>
      <trkpt lat="47.69353" lon="6.03551">
        <ele>299</ele>
        <time>2012-06-14T07:29:58.000Z</time>
      </trkpt>
      <trkpt lat="47.69358" lon="6.03554">
        <ele>295.6</ele>
        <time>2012-06-14T07:30:00.000Z</time>
      </trkpt>
      <trkpt lat="47.69364" lon="6.03554">
        <ele>294.2</ele>
        <time>2012-06-14T07:30:03.000Z</time>
      </trkpt>
      <trkpt lat="47.69369" lon="6.03551">
        <ele>292.1</ele>
        <time>2012-06-14T07:30:07.000Z</time>
      </trkpt>
      <trkpt lat="47.69374" lon="6.03548">
        <ele>291.7</ele>
        <time>2012-06-14T07:30:10.000Z</time>
      </trkpt>
      <trkpt lat="47.69378" lon="6.03544">
        <ele>292</ele>
        <time>2012-06-14T07:30:13.000Z</time>
      </trkpt>
      <trkpt lat="47.69383" lon="6.03542">
        <ele>294.6</ele>
        <time>2012-06-14T07:30:18.000Z</time>
      </trkpt>
      <trkpt lat="47.69387" lon="6.03537">
        <ele>293.9</ele>
        <time>2012-06-14T07:30:20.000Z</time>
      </trkpt>
      <trkpt lat="47.69393" lon="6.03532">
        <ele>293.8</ele>
        <time>2012-06-14T07:30:23.000Z</time>
      </trkpt>
      <trkpt lat="47.69398" lon="6.03529">
        <ele>294.1</ele>
        <time>2012-06-14T07:30:26.000Z</time>
      </trkpt>
      <trkpt lat="47.69404" lon="6.03524">
        <ele>294.6</ele>
        <time>2012-06-14T07:30:29.000Z</time>
      </trkpt>
      <trkpt lat="47.69408" lon="6.0352">
        <ele>294.4</ele>
        <time>2012-06-14T07:30:31.000Z</time>
      </trkpt>
      <trkpt lat="47.69412" lon="6.03516">
        <ele>294.3</ele>
        <time>2012-06-14T07:30:33.000Z</time>
      </trkpt>
      <trkpt lat="47.69416" lon="6.03512">
        <ele>294.6</ele>
        <time>2012-06-14T07:30:36.000Z</time>
      </trkpt>
      <trkpt lat="47.6942" lon="6.03507">
        <ele>294.5</ele>
        <time>2012-06-14T07:30:38.000Z</time>
      </trkpt>
      <trkpt lat="47.69425" lon="6.03503">
        <ele>294.2</ele>
        <time>2012-06-14T07:30:40.000Z</time>
      </trkpt>
      <trkpt lat="47.69429" lon="6.03498">
        <ele>294.3</ele>
        <time>2012-06-14T07:30:43.000Z</time>
      </trkpt>
      <trkpt lat="47.69434" lon="6.03493">
        <ele>294.9</ele>
        <time>2012-06-14T07:30:46.000Z</time>
      </trkpt>
      <trkpt lat="47.69449" lon="6.03483">
        <ele>299.6</ele>
        <time>2012-06-14T07:30:54.000Z</time>
      </trkpt>
      <trkpt lat="47.69455" lon="6.03477">
        <ele>304.3</ele>
        <time>2012-06-14T07:30:58.000Z</time>
      </trkpt>
      <trkpt lat="47.69459" lon="6.03472">
        <ele>303.2</ele>
        <time>2012-06-14T07:31:01.000Z</time>
      </trkpt>
      <trkpt lat="47.69462" lon="6.03468">
        <ele>303.7</ele>
        <time>2012-06-14T07:31:05.000Z</time>
      </trkpt>
      <trkpt lat="47.69468" lon="6.03459">
        <ele>302.5</ele>
        <time>2012-06-14T07:31:09.000Z</time>
      </trkpt>
      <trkpt lat="47.69471" lon="6.03451">
        <ele>298.9</ele>
        <time>2012-06-14T07:31:13.000Z</time>
      </trkpt>
      <trkpt lat="47.69474" lon="6.03446">
        <ele>298.3</ele>
        <time>2012-06-14T07:31:16.000Z</time>
      </trkpt>
      <trkpt lat="47.69478" lon="6.0344">
        <ele>298.1</ele>
        <time>2012-06-14T07:31:19.000Z</time>
      </trkpt>
      <trkpt lat="47.69481" lon="6.03435">
        <ele>298.2</ele>
        <time>2012-06-14T07:31:23.000Z</time>
      </trkpt>
      <trkpt lat="47.69485" lon="6.03429">
        <ele>297.3</ele>
        <time>2012-06-14T07:31:45.000Z</time>
      </trkpt>
      <trkpt lat="47.69501" lon="6.03397">
        <ele>288.8</ele>
        <time>2012-06-14T07:31:54.000Z</time>
      </trkpt>
      <trkpt lat="47.69506" lon="6.03388">
        <ele>288.7</ele>
        <time>2012-06-14T07:31:56.000Z</time>
      </trkpt>
      <trkpt lat="47.6951" lon="6.03382">
        <ele>288.4</ele>
        <time>2012-06-14T07:31:57.000Z</time>
      </trkpt>
      <trkpt lat="47.69514" lon="6.03376">
        <ele>288.3</ele>
        <time>2012-06-14T07:31:58.000Z</time>
      </trkpt>
      <trkpt lat="47.69517" lon="6.03371">
        <ele>288.1</ele>
        <time>2012-06-14T07:31:59.000Z</time>
      </trkpt>
      <trkpt lat="47.69521" lon="6.03364">
        <ele>287.9</ele>
        <time>2012-06-14T07:32:00.000Z</time>
      </trkpt>
      <trkpt lat="47.69524" lon="6.03358">
        <ele>287.6</ele>
        <time>2012-06-14T07:32:01.000Z</time>
      </trkpt>
      <trkpt lat="47.69528" lon="6.03351">
        <ele>287.3</ele>
        <time>2012-06-14T07:32:02.000Z</time>
      </trkpt>
      <trkpt lat="47.69532" lon="6.03344">
        <ele>287.1</ele>
        <time>2012-06-14T07:32:03.000Z</time>
      </trkpt>
      <trkpt lat="47.69536" lon="6.03338">
        <ele>287</ele>
        <time>2012-06-14T07:32:04.000Z</time>
      </trkpt>
      <trkpt lat="47.6954" lon="6.03331">
        <ele>287</ele>
        <time>2012-06-14T07:32:05.000Z</time>
      </trkpt>
      <trkpt lat="47.69543" lon="6.03325">
        <ele>287.1</ele>
        <time>2012-06-14T07:32:06.000Z</time>
      </trkpt>
      <trkpt lat="47.69546" lon="6.03319">
        <ele>287.2</ele>
        <time>2012-06-14T07:32:07.000Z</time>
      </trkpt>
      <trkpt lat="47.69549" lon="6.03312">
        <ele>287.1</ele>
        <time>2012-06-14T07:32:08.000Z</time>
      </trkpt>
      <trkpt lat="47.69552" lon="6.03306">
        <ele>286.9</ele>
        <time>2012-06-14T07:32:09.000Z</time>
      </trkpt>
      <trkpt lat="47.69555" lon="6.033">
        <ele>286.7</ele>
        <time>2012-06-14T07:32:10.000Z</time>
      </trkpt>
      <trkpt lat="47.6956" lon="6.03291">
        <ele>286.7</ele>
        <time>2012-06-14T07:32:12.000Z</time>
      </trkpt>
      <trkpt lat="47.69563" lon="6.03283">
        <ele>287.4</ele>
        <time>2012-06-14T07:32:14.000Z</time>
      </trkpt>
      <trkpt lat="47.69567" lon="6.03276">
        <ele>288</ele>
        <time>2012-06-14T07:32:16.000Z</time>
      </trkpt>
      <trkpt lat="47.6957" lon="6.03268">
        <ele>288.3</ele>
        <time>2012-06-14T07:32:18.000Z</time>
      </trkpt>
      <trkpt lat="47.69574" lon="6.03261">
        <ele>288.7</ele>
        <time>2012-06-14T07:32:20.000Z</time>
      </trkpt>
      <trkpt lat="47.69578" lon="6.03255">
        <ele>288.6</ele>
        <time>2012-06-14T07:32:22.000Z</time>
      </trkpt>
      <trkpt lat="47.69581" lon="6.03249">
        <ele>288.9</ele>
        <time>2012-06-14T07:32:24.000Z</time>
      </trkpt>
      <trkpt lat="47.69585" lon="6.03242">
        <ele>289.3</ele>
        <time>2012-06-14T07:32:27.000Z</time>
      </trkpt>
      <trkpt lat="47.6959" lon="6.03234">
        <ele>289.6</ele>
        <time>2012-06-14T07:32:30.000Z</time>
      </trkpt>
      <trkpt lat="47.69593" lon="6.03228">
        <ele>289.7</ele>
        <time>2012-06-14T07:32:32.000Z</time>
      </trkpt>
      <trkpt lat="47.69596" lon="6.03221">
        <ele>289.7</ele>
        <time>2012-06-14T07:32:34.000Z</time>
      </trkpt>
      <trkpt lat="47.69598" lon="6.03214">
        <ele>289.9</ele>
        <time>2012-06-14T07:32:36.000Z</time>
      </trkpt>
      <trkpt lat="47.69599" lon="6.03207">
        <ele>290.1</ele>
        <time>2012-06-14T07:32:38.000Z</time>
      </trkpt>
      <trkpt lat="47.69598" lon="6.032">
        <ele>290.3</ele>
        <time>2012-06-14T07:32:40.000Z</time>
      </trkpt>
      <trkpt lat="47.69597" lon="6.03192">
        <ele>290.7</ele>
        <time>2012-06-14T07:32:42.000Z</time>
      </trkpt>
      <trkpt lat="47.69596" lon="6.03185">
        <ele>291</ele>
        <time>2012-06-14T07:32:44.000Z</time>
      </trkpt>
      <trkpt lat="47.69594" lon="6.03178">
        <ele>291.3</ele>
        <time>2012-06-14T07:32:46.000Z</time>
      </trkpt>
      <trkpt lat="47.69593" lon="6.0317">
        <ele>291.6</ele>
        <time>2012-06-14T07:32:48.000Z</time>
      </trkpt>
      <trkpt lat="47.69592" lon="6.03163">
        <ele>291.7</ele>
        <time>2012-06-14T07:32:50.000Z</time>
      </trkpt>
      <trkpt lat="47.6959" lon="6.03156">
        <ele>291.9</ele>
        <time>2012-06-14T07:32:52.000Z</time>
      </trkpt>
      <trkpt lat="47.69588" lon="6.03148">
        <ele>292.2</ele>
        <time>2012-06-14T07:32:54.000Z</time>
      </trkpt>
      <trkpt lat="47.69587" lon="6.0314">
        <ele>292.4</ele>
        <time>2012-06-14T07:32:56.000Z</time>
      </trkpt>
      <trkpt lat="47.69585" lon="6.03132">
        <ele>292.2</ele>
        <time>2012-06-14T07:32:58.000Z</time>
      </trkpt>
      <trkpt lat="47.69584" lon="6.03125">
        <ele>292.3</ele>
        <time>2012-06-14T07:33:00.000Z</time>
      </trkpt>
      <trkpt lat="47.69583" lon="6.03118">
        <ele>292.4</ele>
        <time>2012-06-14T07:33:02.000Z</time>
      </trkpt>
      <trkpt lat="47.69581" lon="6.0311">
        <ele>292.6</ele>
        <time>2012-06-14T07:33:04.000Z</time>
      </trkpt>
      <trkpt lat="47.6958" lon="6.03102">
        <ele>292.7</ele>
        <time>2012-06-14T07:33:06.000Z</time>
      </trkpt>
      <trkpt lat="47.69578" lon="6.03094">
        <ele>292.8</ele>
        <time>2012-06-14T07:33:08.000Z</time>
      </trkpt>
      <trkpt lat="47.69576" lon="6.03085">
        <ele>292.9</ele>
        <time>2012-06-14T07:33:10.000Z</time>
      </trkpt>
      <trkpt lat="47.69576" lon="6.03075">
        <ele>292.9</ele>
        <time>2012-06-14T07:33:12.000Z</time>
      </trkpt>
      <trkpt lat="47.69574" lon="6.03066">
        <ele>292.8</ele>
        <time>2012-06-14T07:33:14.000Z</time>
      </trkpt>
      <trkpt lat="47.69573" lon="6.03057">
        <ele>292.8</ele>
        <time>2012-06-14T07:33:16.000Z</time>
      </trkpt>
      <trkpt lat="47.69572" lon="6.03048">
        <ele>293</ele>
        <time>2012-06-14T07:33:18.000Z</time>
      </trkpt>
      <trkpt lat="47.6957" lon="6.03039">
        <ele>293.2</ele>
        <time>2012-06-14T07:33:20.000Z</time>
      </trkpt>
      <trkpt lat="47.69569" lon="6.0303">
        <ele>293.6</ele>
        <time>2012-06-14T07:33:22.000Z</time>
      </trkpt>
      <trkpt lat="47.69567" lon="6.03021">
        <ele>293.8</ele>
        <time>2012-06-14T07:33:24.000Z</time>
      </trkpt>
      <trkpt lat="47.69566" lon="6.03012">
        <ele>293.9</ele>
        <time>2012-06-14T07:33:26.000Z</time>
      </trkpt>
      <trkpt lat="47.69566" lon="6.03004">
        <ele>294</ele>
        <time>2012-06-14T07:33:28.000Z</time>
      </trkpt>
      <trkpt lat="47.69565" lon="6.02995">
        <ele>294</ele>
        <time>2012-06-14T07:33:30.000Z</time>
      </trkpt>
      <trkpt lat="47.69565" lon="6.02986">
        <ele>294.1</ele>
        <time>2012-06-14T07:33:32.000Z</time>
      </trkpt>
      <trkpt lat="47.69564" lon="6.02978">
        <ele>294.3</ele>
        <time>2012-06-14T07:33:34.000Z</time>
      </trkpt>
      <trkpt lat="47.69565" lon="6.02969">
        <ele>294.3</ele>
        <time>2012-06-14T07:33:36.000Z</time>
      </trkpt>
      <trkpt lat="47.69564" lon="6.0296">
        <ele>294.3</ele>
        <time>2012-06-14T07:33:38.000Z</time>
      </trkpt>
      <trkpt lat="47.69564" lon="6.02952">
        <ele>294.5</ele>
        <time>2012-06-14T07:33:40.000Z</time>
      </trkpt>
      <trkpt lat="47.69564" lon="6.02943">
        <ele>294.7</ele>
        <time>2012-06-14T07:33:42.000Z</time>
      </trkpt>
      <trkpt lat="47.69563" lon="6.02934">
        <ele>295</ele>
        <time>2012-06-14T07:33:44.000Z</time>
      </trkpt>
      <trkpt lat="47.69563" lon="6.02924">
        <ele>295</ele>
        <time>2012-06-14T07:33:46.000Z</time>
      </trkpt>
      <trkpt lat="47.69562" lon="6.02914">
        <ele>295.2</ele>
        <time>2012-06-14T07:33:48.000Z</time>
      </trkpt>
      <trkpt lat="47.69562" lon="6.02904">
        <ele>295.4</ele>
        <time>2012-06-14T07:33:50.000Z</time>
      </trkpt>
      <trkpt lat="47.69561" lon="6.02896">
        <ele>295.4</ele>
        <time>2012-06-14T07:33:52.000Z</time>
      </trkpt>
      <trkpt lat="47.6956" lon="6.02887">
        <ele>295.3</ele>
        <time>2012-06-14T07:33:54.000Z</time>
      </trkpt>
      <trkpt lat="47.6956" lon="6.02878">
        <ele>295.2</ele>
        <time>2012-06-14T07:33:56.000Z</time>
      </trkpt>
      <trkpt lat="47.69559" lon="6.0287">
        <ele>295.3</ele>
        <time>2012-06-14T07:33:58.000Z</time>
      </trkpt>
      <trkpt lat="47.69558" lon="6.02862">
        <ele>295.5</ele>
        <time>2012-06-14T07:34:00.000Z</time>
      </trkpt>
      <trkpt lat="47.69558" lon="6.02854">
        <ele>295.4</ele>
        <time>2012-06-14T07:34:02.000Z</time>
      </trkpt>
      <trkpt lat="47.69557" lon="6.02845">
        <ele>295.2</ele>
        <time>2012-06-14T07:34:04.000Z</time>
      </trkpt>
      <trkpt lat="47.69557" lon="6.02836">
        <ele>295.2</ele>
        <time>2012-06-14T07:34:06.000Z</time>
      </trkpt>
      <trkpt lat="47.69556" lon="6.02827">
        <ele>295</ele>
        <time>2012-06-14T07:34:08.000Z</time>
      </trkpt>
      <trkpt lat="47.69554" lon="6.02819">
        <ele>295</ele>
        <time>2012-06-14T07:34:10.000Z</time>
      </trkpt>
      <trkpt lat="47.69553" lon="6.02812">
        <ele>295.2</ele>
        <time>2012-06-14T07:34:12.000Z</time>
      </trkpt>
      <trkpt lat="47.69551" lon="6.02803">
        <ele>295.2</ele>
        <time>2012-06-14T07:34:14.000Z</time>
      </trkpt>
      <trkpt lat="47.69549" lon="6.02797">
        <ele>295.6</ele>
        <time>2012-06-14T07:34:16.000Z</time>
      </trkpt>
      <trkpt lat="47.69548" lon="6.0279">
        <ele>296</ele>
        <time>2012-06-14T07:34:18.000Z</time>
      </trkpt>
      <trkpt lat="47.69545" lon="6.02782">
        <ele>296.3</ele>
        <time>2012-06-14T07:34:21.000Z</time>
      </trkpt>
      <trkpt lat="47.69544" lon="6.02775">
        <ele>296.3</ele>
        <time>2012-06-14T07:34:23.000Z</time>
      </trkpt>
      <trkpt lat="47.69542" lon="6.02768">
        <ele>296.5</ele>
        <time>2012-06-14T07:34:25.000Z</time>
      </trkpt>
      <trkpt lat="47.69539" lon="6.02762">
        <ele>296.8</ele>
        <time>2012-06-14T07:34:27.000Z</time>
      </trkpt>
      <trkpt lat="47.69537" lon="6.02755">
        <ele>297</ele>
        <time>2012-06-14T07:34:29.000Z</time>
      </trkpt>
      <trkpt lat="47.69535" lon="6.02747">
        <ele>297</ele>
        <time>2012-06-14T07:34:31.000Z</time>
      </trkpt>
      <trkpt lat="47.69533" lon="6.0274">
        <ele>297.2</ele>
        <time>2012-06-14T07:34:33.000Z</time>
      </trkpt>
      <trkpt lat="47.69531" lon="6.02733">
        <ele>297.3</ele>
        <time>2012-06-14T07:34:35.000Z</time>
      </trkpt>
      <trkpt lat="47.6953" lon="6.02723">
        <ele>297.2</ele>
        <time>2012-06-14T07:34:38.000Z</time>
      </trkpt>
      <trkpt lat="47.69532" lon="6.02717">
        <ele>297.1</ele>
        <time>2012-06-14T07:34:40.000Z</time>
      </trkpt>
      <trkpt lat="47.69537" lon="6.02712">
        <ele>297.1</ele>
        <time>2012-06-14T07:34:42.000Z</time>
      </trkpt>
      <trkpt lat="47.69543" lon="6.02706">
        <ele>296.9</ele>
        <time>2012-06-14T07:34:44.000Z</time>
      </trkpt>
      <trkpt lat="47.69549" lon="6.02698">
        <ele>296.6</ele>
        <time>2012-06-14T07:34:46.000Z</time>
      </trkpt>
      <trkpt lat="47.69571" lon="6.02634">
        <ele>296.5</ele>
        <time>2012-06-14T07:34:57.000Z</time>
      </trkpt>
      <trkpt lat="47.69573" lon="6.02622">
        <ele>296.5</ele>
        <time>2012-06-14T07:34:59.000Z</time>
      </trkpt>
      <trkpt lat="47.69574" lon="6.02615">
        <ele>296.2</ele>
        <time>2012-06-14T07:35:00.000Z</time>
      </trkpt>
      <trkpt lat="47.69575" lon="6.02603">
        <ele>297.2</ele>
        <time>2012-06-14T07:35:02.000Z</time>
      </trkpt>
      <trkpt lat="47.69577" lon="6.0259">
        <ele>298.2</ele>
        <time>2012-06-14T07:35:04.000Z</time>
      </trkpt>
      <trkpt lat="47.69576" lon="6.0258">
        <ele>300.4</ele>
        <time>2012-06-14T07:35:06.000Z</time>
      </trkpt>
      <trkpt lat="47.69576" lon="6.02567">
        <ele>301.7</ele>
        <time>2012-06-14T07:35:08.000Z</time>
      </trkpt>
      <trkpt lat="47.69577" lon="6.02559">
        <ele>302.2</ele>
        <time>2012-06-14T07:35:09.000Z</time>
      </trkpt>
      <trkpt lat="47.69578" lon="6.02551">
        <ele>302.8</ele>
        <time>2012-06-14T07:35:10.000Z</time>
      </trkpt>
      <trkpt lat="47.6958" lon="6.02543">
        <ele>302.7</ele>
        <time>2012-06-14T07:35:11.000Z</time>
      </trkpt>
      <trkpt lat="47.69581" lon="6.02535">
        <ele>302.3</ele>
        <time>2012-06-14T07:35:12.000Z</time>
      </trkpt>
      <trkpt lat="47.69582" lon="6.02527">
        <ele>302.2</ele>
        <time>2012-06-14T07:35:13.000Z</time>
      </trkpt>
      <trkpt lat="47.69582" lon="6.02518">
        <ele>302.8</ele>
        <time>2012-06-14T07:35:14.000Z</time>
      </trkpt>
      <trkpt lat="47.69582" lon="6.02511">
        <ele>304.7</ele>
        <time>2012-06-14T07:35:15.000Z</time>
      </trkpt>
      <trkpt lat="47.69583" lon="6.02502">
        <ele>306.1</ele>
        <time>2012-06-14T07:35:16.000Z</time>
      </trkpt>
      <trkpt lat="47.69586" lon="6.02491">
        <ele>303.4</ele>
        <time>2012-06-14T07:35:17.000Z</time>
      </trkpt>
      <trkpt lat="47.6959" lon="6.02482">
        <ele>303.7</ele>
        <time>2012-06-14T07:35:18.000Z</time>
      </trkpt>
      <trkpt lat="47.69594" lon="6.02474">
        <ele>302.6</ele>
        <time>2012-06-14T07:35:19.000Z</time>
      </trkpt>
      <trkpt lat="47.69597" lon="6.02466">
        <ele>301.9</ele>
        <time>2012-06-14T07:35:20.000Z</time>
      </trkpt>
      <trkpt lat="47.696" lon="6.02458">
        <ele>301.2</ele>
        <time>2012-06-14T07:35:21.000Z</time>
      </trkpt>
      <trkpt lat="47.69602" lon="6.02451">
        <ele>300.6</ele>
        <time>2012-06-14T07:35:22.000Z</time>
      </trkpt>
      <trkpt lat="47.69605" lon="6.02445">
        <ele>300.3</ele>
        <time>2012-06-14T07:35:23.000Z</time>
      </trkpt>
      <trkpt lat="47.69608" lon="6.02439">
        <ele>299.7</ele>
        <time>2012-06-14T07:35:24.000Z</time>
      </trkpt>
      <trkpt lat="47.6961" lon="6.02432">
        <ele>295.8</ele>
        <time>2012-06-14T07:35:25.000Z</time>
      </trkpt>
      <trkpt lat="47.69612" lon="6.02426">
        <ele>294.1</ele>
        <time>2012-06-14T07:35:26.000Z</time>
      </trkpt>
      <trkpt lat="47.69615" lon="6.02421">
        <ele>292.9</ele>
        <time>2012-06-14T07:35:27.000Z</time>
      </trkpt>
      <trkpt lat="47.6962" lon="6.02411">
        <ele>292.5</ele>
        <time>2012-06-14T07:35:29.000Z</time>
      </trkpt>
      <trkpt lat="47.69625" lon="6.02401">
        <ele>291.4</ele>
        <time>2012-06-14T07:35:31.000Z</time>
      </trkpt>
      <trkpt lat="47.69629" lon="6.02391">
        <ele>290.3</ele>
        <time>2012-06-14T07:35:33.000Z</time>
      </trkpt>
      <trkpt lat="47.69634" lon="6.02383">
        <ele>289.6</ele>
        <time>2012-06-14T07:35:35.000Z</time>
      </trkpt>
      <trkpt lat="47.69639" lon="6.02375">
        <ele>289</ele>
        <time>2012-06-14T07:35:37.000Z</time>
      </trkpt>
      <trkpt lat="47.69644" lon="6.02367">
        <ele>288.7</ele>
        <time>2012-06-14T07:35:39.000Z</time>
      </trkpt>
      <trkpt lat="47.69649" lon="6.02362">
        <ele>288.9</ele>
        <time>2012-06-14T07:35:41.000Z</time>
      </trkpt>
      <trkpt lat="47.69654" lon="6.02356">
        <ele>288.8</ele>
        <time>2012-06-14T07:35:43.000Z</time>
      </trkpt>
      <trkpt lat="47.69658" lon="6.02353">
        <ele>288.8</ele>
        <time>2012-06-14T07:35:45.000Z</time>
      </trkpt>
      <trkpt lat="47.69685" lon="6.02335">
        <ele>287.8</ele>
        <time>2012-06-14T07:35:56.000Z</time>
      </trkpt>
      <trkpt lat="47.69692" lon="6.02332">
        <ele>287.5</ele>
        <time>2012-06-14T07:35:58.000Z</time>
      </trkpt>
      <trkpt lat="47.69696" lon="6.02329">
        <ele>288.4</ele>
        <time>2012-06-14T07:36:00.000Z</time>
      </trkpt>
      <trkpt lat="47.69703" lon="6.02327">
        <ele>289.2</ele>
        <time>2012-06-14T07:36:03.000Z</time>
      </trkpt>
      <trkpt lat="47.69708" lon="6.02325">
        <ele>290.2</ele>
        <time>2012-06-14T07:36:06.000Z</time>
      </trkpt>
      <trkpt lat="47.69714" lon="6.02324">
        <ele>289.6</ele>
        <time>2012-06-14T07:36:08.000Z</time>
      </trkpt>
      <trkpt lat="47.69718" lon="6.02322">
        <ele>289.5</ele>
        <time>2012-06-14T07:36:10.000Z</time>
      </trkpt>
      <trkpt lat="47.69724" lon="6.0232">
        <ele>290.4</ele>
        <time>2012-06-14T07:36:13.000Z</time>
      </trkpt>
      <trkpt lat="47.69731" lon="6.02319">
        <ele>290.2</ele>
        <time>2012-06-14T07:36:16.000Z</time>
      </trkpt>
      <trkpt lat="47.69736" lon="6.02318">
        <ele>290.1</ele>
        <time>2012-06-14T07:36:18.000Z</time>
      </trkpt>
      <trkpt lat="47.69741" lon="6.02316">
        <ele>291.1</ele>
        <time>2012-06-14T07:36:21.000Z</time>
      </trkpt>
      <trkpt lat="47.69748" lon="6.02316">
        <ele>291.4</ele>
        <time>2012-06-14T07:36:24.000Z</time>
      </trkpt>
      <trkpt lat="47.69753" lon="6.02315">
        <ele>291.5</ele>
        <time>2012-06-14T07:36:27.000Z</time>
      </trkpt>
      <trkpt lat="47.69759" lon="6.02314">
        <ele>291.7</ele>
        <time>2012-06-14T07:36:30.000Z</time>
      </trkpt>
      <trkpt lat="47.69764" lon="6.02313">
        <ele>291.8</ele>
        <time>2012-06-14T07:36:32.000Z</time>
      </trkpt>
      <trkpt lat="47.6977" lon="6.02314">
        <ele>292.2</ele>
        <time>2012-06-14T07:36:35.000Z</time>
      </trkpt>
      <trkpt lat="47.69776" lon="6.02313">
        <ele>292.5</ele>
        <time>2012-06-14T07:36:38.000Z</time>
      </trkpt>
      <trkpt lat="47.69781" lon="6.02313">
        <ele>292.7</ele>
        <time>2012-06-14T07:36:40.000Z</time>
      </trkpt>
      <trkpt lat="47.69786" lon="6.02313">
        <ele>292.9</ele>
        <time>2012-06-14T07:36:42.000Z</time>
      </trkpt>
      <trkpt lat="47.6979" lon="6.02312">
        <ele>293.1</ele>
        <time>2012-06-14T07:36:44.000Z</time>
      </trkpt>
      <trkpt lat="47.69795" lon="6.02311">
        <ele>293.3</ele>
        <time>2012-06-14T07:36:46.000Z</time>
      </trkpt>
      <trkpt lat="47.698" lon="6.0231">
        <ele>293.5</ele>
        <time>2012-06-14T07:36:48.000Z</time>
      </trkpt>
      <trkpt lat="47.69805" lon="6.02308">
        <ele>293.8</ele>
        <time>2012-06-14T07:36:50.000Z</time>
      </trkpt>
      <trkpt lat="47.69809" lon="6.02306">
        <ele>294</ele>
        <time>2012-06-14T07:36:52.000Z</time>
      </trkpt>
      <trkpt lat="47.69815" lon="6.02303">
        <ele>294.3</ele>
        <time>2012-06-14T07:36:55.000Z</time>
      </trkpt>
      <trkpt lat="47.6982" lon="6.023">
        <ele>294.5</ele>
        <time>2012-06-14T07:36:57.000Z</time>
      </trkpt>
      <trkpt lat="47.69825" lon="6.02297">
        <ele>294.7</ele>
        <time>2012-06-14T07:36:59.000Z</time>
      </trkpt>
      <trkpt lat="47.69831" lon="6.02294">
        <ele>294.9</ele>
        <time>2012-06-14T07:37:01.000Z</time>
      </trkpt>
      <trkpt lat="47.69836" lon="6.02291">
        <ele>295</ele>
        <time>2012-06-14T07:37:03.000Z</time>
      </trkpt>
      <trkpt lat="47.69842" lon="6.02286">
        <ele>294.9</ele>
        <time>2012-06-14T07:37:05.000Z</time>
      </trkpt>
      <trkpt lat="47.69848" lon="6.02283">
        <ele>294.9</ele>
        <time>2012-06-14T07:37:07.000Z</time>
      </trkpt>
      <trkpt lat="47.69854" lon="6.02278">
        <ele>294.9</ele>
        <time>2012-06-14T07:37:09.000Z</time>
      </trkpt>
      <trkpt lat="47.69859" lon="6.02273">
        <ele>294.9</ele>
        <time>2012-06-14T07:37:11.000Z</time>
      </trkpt>
      <trkpt lat="47.69865" lon="6.02266">
        <ele>294.8</ele>
        <time>2012-06-14T07:37:13.000Z</time>
      </trkpt>
      <trkpt lat="47.69869" lon="6.02259">
        <ele>294.9</ele>
        <time>2012-06-14T07:37:15.000Z</time>
      </trkpt>
      <trkpt lat="47.69873" lon="6.0225">
        <ele>294.9</ele>
        <time>2012-06-14T07:37:17.000Z</time>
      </trkpt>
      <trkpt lat="47.69877" lon="6.02242">
        <ele>294.9</ele>
        <time>2012-06-14T07:37:19.000Z</time>
      </trkpt>
      <trkpt lat="47.69881" lon="6.02233">
        <ele>294.8</ele>
        <time>2012-06-14T07:37:21.000Z</time>
      </trkpt>
      <trkpt lat="47.69884" lon="6.02225">
        <ele>294.8</ele>
        <time>2012-06-14T07:37:23.000Z</time>
      </trkpt>
      <trkpt lat="47.69888" lon="6.02216">
        <ele>294.9</ele>
        <time>2012-06-14T07:37:25.000Z</time>
      </trkpt>
      <trkpt lat="47.69891" lon="6.02208">
        <ele>295</ele>
        <time>2012-06-14T07:37:27.000Z</time>
      </trkpt>
      <trkpt lat="47.69894" lon="6.02197">
        <ele>295.1</ele>
        <time>2012-06-14T07:37:29.000Z</time>
      </trkpt>
      <trkpt lat="47.69896" lon="6.02187">
        <ele>295</ele>
        <time>2012-06-14T07:37:31.000Z</time>
      </trkpt>
      <trkpt lat="47.69897" lon="6.02178">
        <ele>295.1</ele>
        <time>2012-06-14T07:37:33.000Z</time>
      </trkpt>
      <trkpt lat="47.699" lon="6.02168">
        <ele>295.2</ele>
        <time>2012-06-14T07:37:35.000Z</time>
      </trkpt>
      <trkpt lat="47.69902" lon="6.02158">
        <ele>295.2</ele>
        <time>2012-06-14T07:37:37.000Z</time>
      </trkpt>
      <trkpt lat="47.69906" lon="6.02149">
        <ele>295.4</ele>
        <time>2012-06-14T07:37:39.000Z</time>
      </trkpt>
      <trkpt lat="47.69909" lon="6.02143">
        <ele>295.6</ele>
        <time>2012-06-14T07:37:41.000Z</time>
      </trkpt>
      <trkpt lat="47.69913" lon="6.02136">
        <ele>295.8</ele>
        <time>2012-06-14T07:37:44.000Z</time>
      </trkpt>
      <trkpt lat="47.69918" lon="6.0213">
        <ele>296.2</ele>
        <time>2012-06-14T07:37:47.000Z</time>
      </trkpt>
      <trkpt lat="47.69922" lon="6.02123">
        <ele>296.5</ele>
        <time>2012-06-14T07:37:50.000Z</time>
      </trkpt>
      <trkpt lat="47.69926" lon="6.02116">
        <ele>297.1</ele>
        <time>2012-06-14T07:37:53.000Z</time>
      </trkpt>
      <trkpt lat="47.6993" lon="6.02109">
        <ele>297.5</ele>
        <time>2012-06-14T07:37:56.000Z</time>
      </trkpt>
      <trkpt lat="47.69933" lon="6.02105">
        <ele>297.7</ele>
        <time>2012-06-14T07:37:59.000Z</time>
      </trkpt>
      <trkpt lat="47.69936" lon="6.021">
        <ele>298.1</ele>
        <time>2012-06-14T07:38:02.000Z</time>
      </trkpt>
      <trkpt lat="47.69942" lon="6.02094">
        <ele>298.3</ele>
        <time>2012-06-14T07:38:05.000Z</time>
      </trkpt>
      <trkpt lat="47.69948" lon="6.02088">
        <ele>298.4</ele>
        <time>2012-06-14T07:38:07.000Z</time>
      </trkpt>
      <trkpt lat="47.69954" lon="6.02082">
        <ele>298.6</ele>
        <time>2012-06-14T07:38:09.000Z</time>
      </trkpt>
      <trkpt lat="47.6996" lon="6.02077">
        <ele>298.7</ele>
        <time>2012-06-14T07:38:11.000Z</time>
      </trkpt>
      <trkpt lat="47.69966" lon="6.02071">
        <ele>299</ele>
        <time>2012-06-14T07:38:13.000Z</time>
      </trkpt>
      <trkpt lat="47.69972" lon="6.02067">
        <ele>299.4</ele>
        <time>2012-06-14T07:38:15.000Z</time>
      </trkpt>
      <trkpt lat="47.69977" lon="6.02062">
        <ele>299.7</ele>
        <time>2012-06-14T07:38:17.000Z</time>
      </trkpt>
      <trkpt lat="47.69984" lon="6.02053">
        <ele>299.9</ele>
        <time>2012-06-14T07:38:19.000Z</time>
      </trkpt>
      <trkpt lat="47.69988" lon="6.02048">
        <ele>299.8</ele>
        <time>2012-06-14T07:38:20.000Z</time>
      </trkpt>
      <trkpt lat="47.69992" lon="6.02043">
        <ele>299.8</ele>
        <time>2012-06-14T07:38:21.000Z</time>
      </trkpt>
      <trkpt lat="47.69996" lon="6.02038">
        <ele>299.9</ele>
        <time>2012-06-14T07:38:22.000Z</time>
      </trkpt>
      <trkpt lat="47.69999" lon="6.02033">
        <ele>300</ele>
        <time>2012-06-14T07:38:23.000Z</time>
      </trkpt>
      <trkpt lat="47.70003" lon="6.02028">
        <ele>300.1</ele>
        <time>2012-06-14T07:38:24.000Z</time>
      </trkpt>
      <trkpt lat="47.70006" lon="6.02023">
        <ele>300.2</ele>
        <time>2012-06-14T07:38:25.000Z</time>
      </trkpt>
      <trkpt lat="47.70013" lon="6.02011">
        <ele>300.1</ele>
        <time>2012-06-14T07:38:27.000Z</time>
      </trkpt>
      <trkpt lat="47.70017" lon="6.02003">
        <ele>299.9</ele>
        <time>2012-06-14T07:38:28.000Z</time>
      </trkpt>
      <trkpt lat="47.70021" lon="6.01996">
        <ele>299.7</ele>
        <time>2012-06-14T07:38:29.000Z</time>
      </trkpt>
      <trkpt lat="47.70025" lon="6.01989">
        <ele>299.7</ele>
        <time>2012-06-14T07:38:30.000Z</time>
      </trkpt>
      <trkpt lat="47.70029" lon="6.01983">
        <ele>299.6</ele>
        <time>2012-06-14T07:38:31.000Z</time>
      </trkpt>
      <trkpt lat="47.70033" lon="6.01977">
        <ele>299.6</ele>
        <time>2012-06-14T07:38:32.000Z</time>
      </trkpt>
      <trkpt lat="47.70036" lon="6.01972">
        <ele>299.6</ele>
        <time>2012-06-14T07:38:33.000Z</time>
      </trkpt>
      <trkpt lat="47.70039" lon="6.01967">
        <ele>299.6</ele>
        <time>2012-06-14T07:38:34.000Z</time>
      </trkpt>
      <trkpt lat="47.70046" lon="6.01958">
        <ele>299.5</ele>
        <time>2012-06-14T07:38:36.000Z</time>
      </trkpt>
      <trkpt lat="47.70052" lon="6.0195">
        <ele>299.4</ele>
        <time>2012-06-14T07:38:38.000Z</time>
      </trkpt>
      <trkpt lat="47.70058" lon="6.01942">
        <ele>299</ele>
        <time>2012-06-14T07:38:40.000Z</time>
      </trkpt>
      <trkpt lat="47.70063" lon="6.01936">
        <ele>298.8</ele>
        <time>2012-06-14T07:38:42.000Z</time>
      </trkpt>
      <trkpt lat="47.70067" lon="6.01931">
        <ele>298.8</ele>
        <time>2012-06-14T07:38:44.000Z</time>
      </trkpt>
      <trkpt lat="47.70071" lon="6.01926">
        <ele>298.9</ele>
        <time>2012-06-14T07:38:46.000Z</time>
      </trkpt>
      <trkpt lat="47.70086" lon="6.0189">
        <ele>299.1</ele>
        <time>2012-06-14T07:38:57.000Z</time>
      </trkpt>
      <trkpt lat="47.70091" lon="6.01888">
        <ele>291.1</ele>
        <time>2012-06-14T07:38:59.000Z</time>
      </trkpt>
      <trkpt lat="47.70095" lon="6.01883">
        <ele>294.9</ele>
        <time>2012-06-14T07:39:03.000Z</time>
      </trkpt>
      <trkpt lat="47.701" lon="6.01879">
        <ele>301.9</ele>
        <time>2012-06-14T07:39:10.000Z</time>
      </trkpt>
      <trkpt lat="47.70105" lon="6.01875">
        <ele>305.2</ele>
        <time>2012-06-14T07:39:13.000Z</time>
      </trkpt>
      <trkpt lat="47.70109" lon="6.01871">
        <ele>311.4</ele>
        <time>2012-06-14T07:39:17.000Z</time>
      </trkpt>
      <trkpt lat="47.70112" lon="6.01865">
        <ele>312.3</ele>
        <time>2012-06-14T07:39:20.000Z</time>
      </trkpt>
      <trkpt lat="47.70114" lon="6.01859">
        <ele>316</ele>
        <time>2012-06-14T07:39:29.000Z</time>
      </trkpt>
      <trkpt lat="47.70118" lon="6.01852">
        <ele>317.2</ele>
        <time>2012-06-14T07:39:34.000Z</time>
      </trkpt>
      <trkpt lat="47.70122" lon="6.01847">
        <ele>317</ele>
        <time>2012-06-14T07:39:39.000Z</time>
      </trkpt>
      <trkpt lat="47.70126" lon="6.01843">
        <ele>316.7</ele>
        <time>2012-06-14T07:39:42.000Z</time>
      </trkpt>
      <trkpt lat="47.70129" lon="6.01836">
        <ele>316.8</ele>
        <time>2012-06-14T07:39:46.000Z</time>
      </trkpt>
      <trkpt lat="47.70165" lon="6.01794">
        <ele>338.7</ele>
        <time>2012-06-14T07:40:04.000Z</time>
      </trkpt>
      <trkpt lat="47.7017" lon="6.0179">
        <ele>344.3</ele>
        <time>2012-06-14T07:40:08.000Z</time>
      </trkpt>
      <trkpt lat="47.70174" lon="6.01786">
        <ele>342.4</ele>
        <time>2012-06-14T07:40:10.000Z</time>
      </trkpt>
      <trkpt lat="47.70175" lon="6.01778">
        <ele>341.9</ele>
        <time>2012-06-14T07:40:13.000Z</time>
      </trkpt>
      <trkpt lat="47.7018" lon="6.01772">
        <ele>349.5</ele>
        <time>2012-06-14T07:40:16.000Z</time>
      </trkpt>
      <trkpt lat="47.70184" lon="6.01766">
        <ele>348.5</ele>
        <time>2012-06-14T07:40:18.000Z</time>
      </trkpt>
      <trkpt lat="47.70188" lon="6.0176">
        <ele>347.8</ele>
        <time>2012-06-14T07:40:20.000Z</time>
      </trkpt>
      <trkpt lat="47.7019" lon="6.01753">
        <ele>344.4</ele>
        <time>2012-06-14T07:40:23.000Z</time>
      </trkpt>
      <trkpt lat="47.7019" lon="6.01745">
        <ele>341.5</ele>
        <time>2012-06-14T07:40:26.000Z</time>
      </trkpt>
      <trkpt lat="47.70192" lon="6.01737">
        <ele>339.1</ele>
        <time>2012-06-14T07:40:29.000Z</time>
      </trkpt>
      <trkpt lat="47.70194" lon="6.01732">
        <ele>338.1</ele>
        <time>2012-06-14T07:40:31.000Z</time>
      </trkpt>
      <trkpt lat="47.70199" lon="6.01726">
        <ele>335.7</ele>
        <time>2012-06-14T07:40:34.000Z</time>
      </trkpt>
      <trkpt lat="47.70203" lon="6.01721">
        <ele>336</ele>
        <time>2012-06-14T07:40:38.000Z</time>
      </trkpt>
      <trkpt lat="47.70208" lon="6.01721">
        <ele>337.7</ele>
        <time>2012-06-14T07:40:42.000Z</time>
      </trkpt>
      <trkpt lat="47.70213" lon="6.01721">
        <ele>335.2</ele>
        <time>2012-06-14T07:40:46.000Z</time>
      </trkpt>
      <trkpt lat="47.70243" lon="6.01638">
        <ele>340.9</ele>
        <time>2012-06-14T07:41:03.000Z</time>
      </trkpt>
      <trkpt lat="47.70241" lon="6.01632">
        <ele>337.2</ele>
        <time>2012-06-14T07:41:11.000Z</time>
      </trkpt>
      <trkpt lat="47.70245" lon="6.01628">
        <ele>333.7</ele>
        <time>2012-06-14T07:41:15.000Z</time>
      </trkpt>
      <trkpt lat="47.70248" lon="6.01621">
        <ele>333.4</ele>
        <time>2012-06-14T07:41:19.000Z</time>
      </trkpt>
      <trkpt lat="47.70248" lon="6.01614">
        <ele>334.4</ele>
        <time>2012-06-14T07:41:23.000Z</time>
      </trkpt>
      <trkpt lat="47.70252" lon="6.01608">
        <ele>338.2</ele>
        <time>2012-06-14T07:41:27.000Z</time>
      </trkpt>
      <trkpt lat="47.70254" lon="6.01602">
        <ele>338.2</ele>
        <time>2012-06-14T07:41:31.000Z</time>
      </trkpt>
      <trkpt lat="47.70258" lon="6.01596">
        <ele>339.2</ele>
        <time>2012-06-14T07:41:34.000Z</time>
      </trkpt>
      <trkpt lat="47.7026" lon="6.01588">
        <ele>340</ele>
        <time>2012-06-14T07:41:39.000Z</time>
      </trkpt>
      <trkpt lat="47.70262" lon="6.01581">
        <ele>340.5</ele>
        <time>2012-06-14T07:41:42.000Z</time>
      </trkpt>
      <trkpt lat="47.70265" lon="6.01575">
        <ele>341</ele>
        <time>2012-06-14T07:41:46.000Z</time>
      </trkpt>
      <trkpt lat="47.70287" lon="6.01537">
        <ele>333.1</ele>
        <time>2012-06-14T07:42:02.000Z</time>
      </trkpt>
      <trkpt lat="47.70292" lon="6.0153">
        <ele>332.3</ele>
        <time>2012-06-14T07:42:05.000Z</time>
      </trkpt>
      <trkpt lat="47.70294" lon="6.01524">
        <ele>333.1</ele>
        <time>2012-06-14T07:42:08.000Z</time>
      </trkpt>
      <trkpt lat="47.70298" lon="6.01518">
        <ele>334.1</ele>
        <time>2012-06-14T07:42:11.000Z</time>
      </trkpt>
      <trkpt lat="47.70302" lon="6.01517">
        <ele>336.3</ele>
        <time>2012-06-14T07:42:13.000Z</time>
      </trkpt>
      <trkpt lat="47.70307" lon="6.01517">
        <ele>333.8</ele>
        <time>2012-06-14T07:42:17.000Z</time>
      </trkpt>
      <trkpt lat="47.70312" lon="6.01517">
        <ele>332.2</ele>
        <time>2012-06-14T07:42:21.000Z</time>
      </trkpt>
      <trkpt lat="47.70315" lon="6.01511">
        <ele>330</ele>
        <time>2012-06-14T07:42:28.000Z</time>
      </trkpt>
      <trkpt lat="47.70319" lon="6.01506">
        <ele>330.1</ele>
        <time>2012-06-14T07:42:33.000Z</time>
      </trkpt>
      <trkpt lat="47.70317" lon="6.01498">
        <ele>326.4</ele>
        <time>2012-06-14T07:42:37.000Z</time>
      </trkpt>
      <trkpt lat="47.70316" lon="6.01491">
        <ele>324.4</ele>
        <time>2012-06-14T07:42:40.000Z</time>
      </trkpt>
      <trkpt lat="47.7032" lon="6.01483">
        <ele>322.7</ele>
        <time>2012-06-14T07:42:44.000Z</time>
      </trkpt>
      <trkpt lat="47.70327" lon="6.01479">
        <ele>322</ele>
        <time>2012-06-14T07:42:46.000Z</time>
      </trkpt>
      <trkpt lat="47.70329" lon="6.01457">
        <ele>282.1</ele>
        <time>2012-06-14T07:42:55.000Z</time>
      </trkpt>
      <trkpt lat="47.70334" lon="6.01447">
        <ele>280.8</ele>
        <time>2012-06-14T07:42:56.000Z</time>
      </trkpt>
      <trkpt lat="47.70334" lon="6.01447">
        <ele>280.8</ele>
        <time>2012-06-14T07:42:56.000Z</time>
      </trkpt>
      <trkpt lat="47.70334" lon="6.01447">
        <ele>280.8</ele>
        <time>2012-06-14T07:42:59.000Z</time>
      </trkpt>
      <trkpt lat="47.70331" lon="6.01441">
        <ele>304.6</ele>
        <time>2012-06-14T07:43:08.000Z</time>
      </trkpt>
      <trkpt lat="47.70326" lon="6.01437">
        <ele>308.7</ele>
        <time>2012-06-14T07:43:11.000Z</time>
      </trkpt>
      <trkpt lat="47.7032" lon="6.01437">
        <ele>314.5</ele>
        <time>2012-06-14T07:43:15.000Z</time>
      </trkpt>
      <trkpt lat="47.70317" lon="6.01429">
        <ele>323.1</ele>
        <time>2012-06-14T07:43:19.000Z</time>
      </trkpt>
      <trkpt lat="47.70312" lon="6.01425">
        <ele>318</ele>
        <time>2012-06-14T07:43:23.000Z</time>
      </trkpt>
      <trkpt lat="47.70307" lon="6.01422">
        <ele>315.7</ele>
        <time>2012-06-14T07:43:27.000Z</time>
      </trkpt>
      <trkpt lat="47.70301" lon="6.0142">
        <ele>312.6</ele>
        <time>2012-06-14T07:43:32.000Z</time>
      </trkpt>
      <trkpt lat="47.70295" lon="6.01421">
        <ele>310.6</ele>
        <time>2012-06-14T07:43:35.000Z</time>
      </trkpt>
      <trkpt lat="47.70288" lon="6.01422">
        <ele>311.4</ele>
        <time>2012-06-14T07:43:37.000Z</time>
      </trkpt>
      <trkpt lat="47.70283" lon="6.01425">
        <ele>311.3</ele>
        <time>2012-06-14T07:43:39.000Z</time>
      </trkpt>
      <trkpt lat="47.70276" lon="6.01425">
        <ele>310.7</ele>
        <time>2012-06-14T07:43:41.000Z</time>
      </trkpt>
      <trkpt lat="47.70269" lon="6.01423">
        <ele>310.8</ele>
        <time>2012-06-14T07:43:43.000Z</time>
      </trkpt>
      <trkpt lat="47.70264" lon="6.01424">
        <ele>311</ele>
        <time>2012-06-14T07:43:44.000Z</time>
      </trkpt>
      <trkpt lat="47.70256" lon="6.01424">
        <ele>311.1</ele>
        <time>2012-06-14T07:43:46.000Z</time>
      </trkpt>
      <trkpt lat="47.7022" lon="6.01424">
        <ele>316.6</ele>
        <time>2012-06-14T07:43:58.000Z</time>
      </trkpt>
      <trkpt lat="47.70213" lon="6.01423">
        <ele>297.5</ele>
        <time>2012-06-14T07:43:59.000Z</time>
      </trkpt>
      <trkpt lat="47.70208" lon="6.01428">
        <ele>308.3</ele>
        <time>2012-06-14T07:44:03.000Z</time>
      </trkpt>
      <trkpt lat="47.70203" lon="6.01426">
        <ele>314.8</ele>
        <time>2012-06-14T07:44:06.000Z</time>
      </trkpt>
      <trkpt lat="47.70199" lon="6.01423">
        <ele>316.7</ele>
        <time>2012-06-14T07:44:09.000Z</time>
      </trkpt>
      <trkpt lat="47.70196" lon="6.01417">
        <ele>317.2</ele>
        <time>2012-06-14T07:44:12.000Z</time>
      </trkpt>
      <trkpt lat="47.70189" lon="6.01413">
        <ele>324.5</ele>
        <time>2012-06-14T07:44:17.000Z</time>
      </trkpt>
      <trkpt lat="47.70183" lon="6.0141">
        <ele>323.9</ele>
        <time>2012-06-14T07:44:19.000Z</time>
      </trkpt>
      <trkpt lat="47.7018" lon="6.01404">
        <ele>321.4</ele>
        <time>2012-06-14T07:44:22.000Z</time>
      </trkpt>
      <trkpt lat="47.70175" lon="6.01401">
        <ele>319.4</ele>
        <time>2012-06-14T07:44:25.000Z</time>
      </trkpt>
      <trkpt lat="47.7017" lon="6.01399">
        <ele>319.2</ele>
        <time>2012-06-14T07:44:28.000Z</time>
      </trkpt>
      <trkpt lat="47.70165" lon="6.01396">
        <ele>319.6</ele>
        <time>2012-06-14T07:44:31.000Z</time>
      </trkpt>
      <trkpt lat="47.7016" lon="6.01393">
        <ele>319.7</ele>
        <time>2012-06-14T07:44:34.000Z</time>
      </trkpt>
      <trkpt lat="47.70155" lon="6.01392">
        <ele>320.3</ele>
        <time>2012-06-14T07:44:37.000Z</time>
      </trkpt>
      <trkpt lat="47.7015" lon="6.01391">
        <ele>320.2</ele>
        <time>2012-06-14T07:44:40.000Z</time>
      </trkpt>
      <trkpt lat="47.70145" lon="6.0139">
        <ele>320.6</ele>
        <time>2012-06-14T07:44:42.000Z</time>
      </trkpt>
      <trkpt lat="47.7014" lon="6.0139">
        <ele>320.8</ele>
        <time>2012-06-14T07:44:44.000Z</time>
      </trkpt>
      <trkpt lat="47.70136" lon="6.01389">
        <ele>320.8</ele>
        <time>2012-06-14T07:44:46.000Z</time>
      </trkpt>
      <trkpt lat="47.70109" lon="6.01376">
        <ele>326.2</ele>
        <time>2012-06-14T07:44:56.000Z</time>
      </trkpt>
      <trkpt lat="47.70102" lon="6.01383">
        <ele>336.2</ele>
        <time>2012-06-14T07:44:58.000Z</time>
      </trkpt>
      <trkpt lat="47.70098" lon="6.01378">
        <ele>338</ele>
        <time>2012-06-14T07:45:01.000Z</time>
      </trkpt>
      <trkpt lat="47.70098" lon="6.0137">
        <ele>337.2</ele>
        <time>2012-06-14T07:45:03.000Z</time>
      </trkpt>
      <trkpt lat="47.70097" lon="6.01362">
        <ele>337.6</ele>
        <time>2012-06-14T07:45:05.000Z</time>
      </trkpt>
      <trkpt lat="47.70096" lon="6.01355">
        <ele>339</ele>
        <time>2012-06-14T07:45:07.000Z</time>
      </trkpt>
      <trkpt lat="47.70091" lon="6.0135">
        <ele>342.7</ele>
        <time>2012-06-14T07:45:11.000Z</time>
      </trkpt>
      <trkpt lat="47.70087" lon="6.01348">
        <ele>342.2</ele>
        <time>2012-06-14T07:45:14.000Z</time>
      </trkpt>
      <trkpt lat="47.70082" lon="6.01345">
        <ele>340.6</ele>
        <time>2012-06-14T07:45:16.000Z</time>
      </trkpt>
      <trkpt lat="47.70077" lon="6.01339">
        <ele>342.8</ele>
        <time>2012-06-14T07:45:19.000Z</time>
      </trkpt>
      <trkpt lat="47.70073" lon="6.01333">
        <ele>340.8</ele>
        <time>2012-06-14T07:45:22.000Z</time>
      </trkpt>
      <trkpt lat="47.70068" lon="6.01329">
        <ele>341.9</ele>
        <time>2012-06-14T07:45:25.000Z</time>
      </trkpt>
      <trkpt lat="47.70061" lon="6.01327">
        <ele>342.5</ele>
        <time>2012-06-14T07:45:28.000Z</time>
      </trkpt>
      <trkpt lat="47.70055" lon="6.01325">
        <ele>342</ele>
        <time>2012-06-14T07:45:31.000Z</time>
      </trkpt>
      <trkpt lat="47.70051" lon="6.01321">
        <ele>340.5</ele>
        <time>2012-06-14T07:45:34.000Z</time>
      </trkpt>
      <trkpt lat="47.70047" lon="6.01316">
        <ele>339.2</ele>
        <time>2012-06-14T07:45:37.000Z</time>
      </trkpt>
      <trkpt lat="47.70043" lon="6.01312">
        <ele>339.7</ele>
        <time>2012-06-14T07:45:41.000Z</time>
      </trkpt>
      <trkpt lat="47.7004" lon="6.01306">
        <ele>340.1</ele>
        <time>2012-06-14T07:45:47.500Z</time>
      </trkpt>
      <trkpt lat="47.7001" lon="6.01259">
        <ele>346</ele>
        <time>2012-06-14T07:46:05.000Z</time>
      </trkpt>
      <trkpt lat="47.70006" lon="6.01254">
        <ele>346</ele>
        <time>2012-06-14T07:46:08.000Z</time>
      </trkpt>
      <trkpt lat="47.70003" lon="6.01248">
        <ele>347.7</ele>
        <time>2012-06-14T07:46:13.000Z</time>
      </trkpt>
      <trkpt lat="47.7" lon="6.01242">
        <ele>347.9</ele>
        <time>2012-06-14T07:46:18.000Z</time>
      </trkpt>
      <trkpt lat="47.69997" lon="6.01236">
        <ele>347.5</ele>
        <time>2012-06-14T07:46:21.000Z</time>
      </trkpt>
      <trkpt lat="47.69994" lon="6.01228">
        <ele>346.9</ele>
        <time>2012-06-14T07:46:23.000Z</time>
      </trkpt>
      <trkpt lat="47.69992" lon="6.01221">
        <ele>347</ele>
        <time>2012-06-14T07:46:25.000Z</time>
      </trkpt>
      <trkpt lat="47.69988" lon="6.01216">
        <ele>347.2</ele>
        <time>2012-06-14T07:46:28.000Z</time>
      </trkpt>
      <trkpt lat="47.69985" lon="6.0121">
        <ele>347.6</ele>
        <time>2012-06-14T07:46:31.000Z</time>
      </trkpt>
      <trkpt lat="47.69984" lon="6.01203">
        <ele>350.6</ele>
        <time>2012-06-14T07:46:35.000Z</time>
      </trkpt>
      <trkpt lat="47.69982" lon="6.01194">
        <ele>350.7</ele>
        <time>2012-06-14T07:46:38.000Z</time>
      </trkpt>
      <trkpt lat="47.6998" lon="6.01186">
        <ele>349.6</ele>
        <time>2012-06-14T07:46:41.000Z</time>
      </trkpt>
      <trkpt lat="47.69979" lon="6.01178">
        <ele>349.1</ele>
        <time>2012-06-14T07:46:44.000Z</time>
      </trkpt>
      <trkpt lat="47.69976" lon="6.01172">
        <ele>349.5</ele>
        <time>2012-06-14T07:46:46.000Z</time>
      </trkpt>
      <trkpt lat="47.6995" lon="6.01139">
        <ele>370.9</ele>
        <time>2012-06-14T07:47:07.000Z</time>
      </trkpt>
      <trkpt lat="47.69944" lon="6.01134">
        <ele>371.8</ele>
        <time>2012-06-14T07:47:09.000Z</time>
      </trkpt>
      <trkpt lat="47.6994" lon="6.01128">
        <ele>373</ele>
        <time>2012-06-14T07:47:11.000Z</time>
      </trkpt>
      <trkpt lat="47.69935" lon="6.01125">
        <ele>375</ele>
        <time>2012-06-14T07:47:13.000Z</time>
      </trkpt>
      <trkpt lat="47.69929" lon="6.01122">
        <ele>378.6</ele>
        <time>2012-06-14T07:47:16.000Z</time>
      </trkpt>
      <trkpt lat="47.69924" lon="6.01118">
        <ele>376.3</ele>
        <time>2012-06-14T07:47:18.000Z</time>
      </trkpt>
      <trkpt lat="47.69919" lon="6.01112">
        <ele>367.3</ele>
        <time>2012-06-14T07:47:20.000Z</time>
      </trkpt>
      <trkpt lat="47.69915" lon="6.01105">
        <ele>362.6</ele>
        <time>2012-06-14T07:47:23.000Z</time>
      </trkpt>
      <trkpt lat="47.6991" lon="6.01099">
        <ele>360.9</ele>
        <time>2012-06-14T07:47:26.000Z</time>
      </trkpt>
      <trkpt lat="47.69906" lon="6.01094">
        <ele>359.4</ele>
        <time>2012-06-14T07:47:29.000Z</time>
      </trkpt>
      <trkpt lat="47.69903" lon="6.01087">
        <ele>357.7</ele>
        <time>2012-06-14T07:47:32.000Z</time>
      </trkpt>
      <trkpt lat="47.69899" lon="6.01082">
        <ele>356.4</ele>
        <time>2012-06-14T07:47:35.000Z</time>
      </trkpt>
      <trkpt lat="47.69897" lon="6.01074">
        <ele>355</ele>
        <time>2012-06-14T07:47:39.000Z</time>
      </trkpt>
      <trkpt lat="47.69894" lon="6.01066">
        <ele>354.7</ele>
        <time>2012-06-14T07:47:42.000Z</time>
      </trkpt>
      <trkpt lat="47.69892" lon="6.01059">
        <ele>351.5</ele>
        <time>2012-06-14T07:47:44.000Z</time>
      </trkpt>
      <trkpt lat="47.69888" lon="6.01053">
        <ele>350.1</ele>
        <time>2012-06-14T07:47:47.000Z</time>
      </trkpt>
      <trkpt lat="47.69884" lon="6.01046">
        <ele>349.1</ele>
        <time>2012-06-14T07:47:50.000Z</time>
      </trkpt>
      <trkpt lat="47.6988" lon="6.01039">
        <ele>348.2</ele>
        <time>2012-06-14T07:47:53.000Z</time>
      </trkpt>
      <trkpt lat="47.69875" lon="6.01034">
        <ele>348.4</ele>
        <time>2012-06-14T07:47:56.000Z</time>
      </trkpt>
      <trkpt lat="47.69871" lon="6.01029">
        <ele>349.3</ele>
        <time>2012-06-14T07:47:59.000Z</time>
      </trkpt>
      <trkpt lat="47.69866" lon="6.01026">
        <ele>350.3</ele>
        <time>2012-06-14T07:48:02.000Z</time>
      </trkpt>
      <trkpt lat="47.69861" lon="6.01023">
        <ele>350.3</ele>
        <time>2012-06-14T07:48:05.000Z</time>
      </trkpt>
      <trkpt lat="47.69855" lon="6.0102">
        <ele>349.8</ele>
        <time>2012-06-14T07:48:08.000Z</time>
      </trkpt>
      <trkpt lat="47.69851" lon="6.01016">
        <ele>348.6</ele>
        <time>2012-06-14T07:48:10.000Z</time>
      </trkpt>
      <trkpt lat="47.69846" lon="6.01012">
        <ele>348.1</ele>
        <time>2012-06-14T07:48:12.000Z</time>
      </trkpt>
      <trkpt lat="47.69842" lon="6.01007">
        <ele>348.4</ele>
        <time>2012-06-14T07:48:15.000Z</time>
      </trkpt>
      <trkpt lat="47.69835" lon="6.01004">
        <ele>349.4</ele>
        <time>2012-06-14T07:48:18.000Z</time>
      </trkpt>
      <trkpt lat="47.69829" lon="6.01002">
        <ele>349.7</ele>
        <time>2012-06-14T07:48:20.000Z</time>
      </trkpt>
      <trkpt lat="47.69824" lon="6.00999">
        <ele>349.5</ele>
        <time>2012-06-14T07:48:23.000Z</time>
      </trkpt>
      <trkpt lat="47.69818" lon="6.00996">
        <ele>349.6</ele>
        <time>2012-06-14T07:48:26.000Z</time>
      </trkpt>
      <trkpt lat="47.69813" lon="6.00995">
        <ele>349.7</ele>
        <time>2012-06-14T07:48:28.000Z</time>
      </trkpt>
      <trkpt lat="47.69804" lon="6.00989">
        <ele>349.8</ele>
        <time>2012-06-14T07:48:29.000Z</time>
      </trkpt>
      <trkpt lat="47.69803" lon="6.00982">
        <ele>349.8</ele>
        <time>2012-06-14T07:48:31.000Z</time>
      </trkpt>
      <trkpt lat="47.69802" lon="6.00975">
        <ele>349.4</ele>
        <time>2012-06-14T07:48:34.000Z</time>
      </trkpt>
      <trkpt lat="47.69797" lon="6.00969">
        <ele>348.7</ele>
        <time>2012-06-14T07:48:39.000Z</time>
      </trkpt>
      <trkpt lat="47.69792" lon="6.00968">
        <ele>348.8</ele>
        <time>2012-06-14T07:48:42.000Z</time>
      </trkpt>
      <trkpt lat="47.69787" lon="6.00966">
        <ele>348.9</ele>
        <time>2012-06-14T07:48:45.000Z</time>
      </trkpt>
      <trkpt lat="47.69782" lon="6.00963">
        <ele>348.8</ele>
        <time>2012-06-14T07:48:47.000Z</time>
      </trkpt>
      <trkpt lat="47.69777" lon="6.00962">
        <ele>348.4</ele>
        <time>2012-06-14T07:48:50.000Z</time>
      </trkpt>
      <trkpt lat="47.6977" lon="6.00961">
        <ele>348</ele>
        <time>2012-06-14T07:48:53.000Z</time>
      </trkpt>
      <trkpt lat="47.69765" lon="6.00958">
        <ele>347.9</ele>
        <time>2012-06-14T07:48:56.000Z</time>
      </trkpt>
      <trkpt lat="47.69759" lon="6.00953">
        <ele>347.4</ele>
        <time>2012-06-14T07:48:59.000Z</time>
      </trkpt>
      <trkpt lat="47.69756" lon="6.00945">
        <ele>347.8</ele>
        <time>2012-06-14T07:49:02.000Z</time>
      </trkpt>
      <trkpt lat="47.69755" lon="6.00937">
        <ele>349.9</ele>
        <time>2012-06-14T07:49:05.000Z</time>
      </trkpt>
      <trkpt lat="47.69757" lon="6.0093">
        <ele>350.9</ele>
        <time>2012-06-14T07:49:07.000Z</time>
      </trkpt>
      <trkpt lat="47.69757" lon="6.00923">
        <ele>351.5</ele>
        <time>2012-06-14T07:49:09.000Z</time>
      </trkpt>
      <trkpt lat="47.69759" lon="6.00913">
        <ele>351.9</ele>
        <time>2012-06-14T07:49:12.000Z</time>
      </trkpt>
      <trkpt lat="47.69761" lon="6.00903">
        <ele>351.7</ele>
        <time>2012-06-14T07:49:14.000Z</time>
      </trkpt>
      <trkpt lat="47.69763" lon="6.00894">
        <ele>351</ele>
        <time>2012-06-14T07:49:16.000Z</time>
      </trkpt>
      <trkpt lat="47.69763" lon="6.00886">
        <ele>350.8</ele>
        <time>2012-06-14T07:49:18.000Z</time>
      </trkpt>
      <trkpt lat="47.69766" lon="6.00878">
        <ele>350.8</ele>
        <time>2012-06-14T07:49:20.000Z</time>
      </trkpt>
      <trkpt lat="47.69766" lon="6.00871">
        <ele>350.4</ele>
        <time>2012-06-14T07:49:22.000Z</time>
      </trkpt>
      <trkpt lat="47.69768" lon="6.00862">
        <ele>350.8</ele>
        <time>2012-06-14T07:49:25.000Z</time>
      </trkpt>
      <trkpt lat="47.69767" lon="6.00854">
        <ele>351.7</ele>
        <time>2012-06-14T07:49:29.000Z</time>
      </trkpt>
      <trkpt lat="47.69767" lon="6.00844">
        <ele>351.2</ele>
        <time>2012-06-14T07:49:32.000Z</time>
      </trkpt>
      <trkpt lat="47.69768" lon="6.00837">
        <ele>351</ele>
        <time>2012-06-14T07:49:34.000Z</time>
      </trkpt>
      <trkpt lat="47.69768" lon="6.0083">
        <ele>350.7</ele>
        <time>2012-06-14T07:49:37.000Z</time>
      </trkpt>
      <trkpt lat="47.69769" lon="6.00821">
        <ele>351.4</ele>
        <time>2012-06-14T07:49:40.000Z</time>
      </trkpt>
      <trkpt lat="47.69769" lon="6.00813">
        <ele>351.5</ele>
        <time>2012-06-14T07:49:43.000Z</time>
      </trkpt>
      <trkpt lat="47.69768" lon="6.00807">
        <ele>351.7</ele>
        <time>2012-06-14T07:49:47.000Z</time>
      </trkpt>
      <trkpt lat="47.69769" lon="6.00799">
        <ele>351.7</ele>
        <time>2012-06-14T07:49:50.000Z</time>
      </trkpt>
      <trkpt lat="47.69771" lon="6.0079">
        <ele>352</ele>
        <time>2012-06-14T07:49:53.000Z</time>
      </trkpt>
      <trkpt lat="47.69772" lon="6.00782">
        <ele>352.7</ele>
        <time>2012-06-14T07:49:55.000Z</time>
      </trkpt>
      <trkpt lat="47.69773" lon="6.00773">
        <ele>352.2</ele>
        <time>2012-06-14T07:49:58.000Z</time>
      </trkpt>
      <trkpt lat="47.69776" lon="6.00766">
        <ele>352.1</ele>
        <time>2012-06-14T07:50:00.000Z</time>
      </trkpt>
      <trkpt lat="47.69777" lon="6.0076">
        <ele>352.2</ele>
        <time>2012-06-14T07:50:03.000Z</time>
      </trkpt>
      <trkpt lat="47.69779" lon="6.00754">
        <ele>352.1</ele>
        <time>2012-06-14T07:50:05.000Z</time>
      </trkpt>
      <trkpt lat="47.6978" lon="6.00747">
        <ele>351.9</ele>
        <time>2012-06-14T07:50:07.000Z</time>
      </trkpt>
      <trkpt lat="47.69782" lon="6.0074">
        <ele>352</ele>
        <time>2012-06-14T07:50:09.000Z</time>
      </trkpt>
      <trkpt lat="47.69783" lon="6.00734">
        <ele>352</ele>
        <time>2012-06-14T07:50:11.000Z</time>
      </trkpt>
      <trkpt lat="47.69785" lon="6.00725">
        <ele>352.3</ele>
        <time>2012-06-14T07:50:14.000Z</time>
      </trkpt>
      <trkpt lat="47.69788" lon="6.00717">
        <ele>352.8</ele>
        <time>2012-06-14T07:50:18.000Z</time>
      </trkpt>
      <trkpt lat="47.69793" lon="6.00712">
        <ele>352.7</ele>
        <time>2012-06-14T07:50:20.000Z</time>
      </trkpt>
      <trkpt lat="47.69792" lon="6.00703">
        <ele>352.6</ele>
        <time>2012-06-14T07:50:24.000Z</time>
      </trkpt>
      <trkpt lat="47.69792" lon="6.00695">
        <ele>352.6</ele>
        <time>2012-06-14T07:50:29.000Z</time>
      </trkpt>
      <trkpt lat="47.69795" lon="6.00688">
        <ele>353.1</ele>
        <time>2012-06-14T07:50:33.000Z</time>
      </trkpt>
      <trkpt lat="47.69796" lon="6.00681">
        <ele>353.5</ele>
        <time>2012-06-14T07:50:36.000Z</time>
      </trkpt>
      <trkpt lat="47.69797" lon="6.00674">
        <ele>353.8</ele>
        <time>2012-06-14T07:50:40.000Z</time>
      </trkpt>
      <trkpt lat="47.69798" lon="6.00666">
        <ele>354.2</ele>
        <time>2012-06-14T07:50:44.000Z</time>
      </trkpt>
      <trkpt lat="47.69807" lon="6.0064">
        <ele>365.9</ele>
        <time>2012-06-14T07:50:54.000Z</time>
      </trkpt>
      <trkpt lat="47.69807" lon="6.0064">
        <ele>365.9</ele>
        <time>2012-06-14T07:50:54.000Z</time>
      </trkpt>
      <trkpt lat="47.69807" lon="6.0064">
        <ele>365.9</ele>
        <time>2012-06-14T07:50:57.000Z</time>
      </trkpt>
      <trkpt lat="47.69813" lon="6.00631">
        <ele>359.1</ele>
        <time>2012-06-14T07:50:58.000Z</time>
      </trkpt>
      <trkpt lat="47.69817" lon="6.00626">
        <ele>368</ele>
        <time>2012-06-14T07:51:01.000Z</time>
      </trkpt>
      <trkpt lat="47.6982" lon="6.0062">
        <ele>377.6</ele>
        <time>2012-06-14T07:51:05.000Z</time>
      </trkpt>
      <trkpt lat="47.69824" lon="6.00614">
        <ele>386.5</ele>
        <time>2012-06-14T07:51:09.000Z</time>
      </trkpt>
      <trkpt lat="47.69827" lon="6.00606">
        <ele>388</ele>
        <time>2012-06-14T07:51:12.000Z</time>
      </trkpt>
      <trkpt lat="47.69829" lon="6.00598">
        <ele>388.1</ele>
        <time>2012-06-14T07:51:15.000Z</time>
      </trkpt>
      <trkpt lat="47.69832" lon="6.00591">
        <ele>387.9</ele>
        <time>2012-06-14T07:51:17.000Z</time>
      </trkpt>
      <trkpt lat="47.69837" lon="6.00582">
        <ele>385.8</ele>
        <time>2012-06-14T07:51:19.000Z</time>
      </trkpt>
      <trkpt lat="47.6984" lon="6.00572">
        <ele>384.8</ele>
        <time>2012-06-14T07:51:21.000Z</time>
      </trkpt>
      <trkpt lat="47.69843" lon="6.00564">
        <ele>383.3</ele>
        <time>2012-06-14T07:51:23.000Z</time>
      </trkpt>
      <trkpt lat="47.69846" lon="6.00559">
        <ele>382.2</ele>
        <time>2012-06-14T07:51:25.000Z</time>
      </trkpt>
      <trkpt lat="47.69848" lon="6.00552">
        <ele>382.6</ele>
        <time>2012-06-14T07:51:28.000Z</time>
      </trkpt>
      <trkpt lat="47.69852" lon="6.00548">
        <ele>381.1</ele>
        <time>2012-06-14T07:51:32.000Z</time>
      </trkpt>
      <trkpt lat="47.69856" lon="6.00544">
        <ele>379.6</ele>
        <time>2012-06-14T07:51:37.000Z</time>
      </trkpt>
      <trkpt lat="47.69859" lon="6.00536">
        <ele>379.8</ele>
        <time>2012-06-14T07:51:42.000Z</time>
      </trkpt>
      <trkpt lat="47.69861" lon="6.00529">
        <ele>379.6</ele>
        <time>2012-06-14T07:51:45.000Z</time>
      </trkpt>
      <trkpt lat="47.69891" lon="6.00451">
        <ele>358.6</ele>
        <time>2012-06-14T07:52:06.000Z</time>
      </trkpt>
      <trkpt lat="47.69895" lon="6.00445">
        <ele>365.1</ele>
        <time>2012-06-14T07:52:11.000Z</time>
      </trkpt>
      <trkpt lat="47.69899" lon="6.00439">
        <ele>367.8</ele>
        <time>2012-06-14T07:52:14.000Z</time>
      </trkpt>
      <trkpt lat="47.69903" lon="6.00433">
        <ele>369.9</ele>
        <time>2012-06-14T07:52:17.000Z</time>
      </trkpt>
      <trkpt lat="47.69905" lon="6.00426">
        <ele>367.3</ele>
        <time>2012-06-14T07:52:19.000Z</time>
      </trkpt>
      <trkpt lat="47.69908" lon="6.00418">
        <ele>363.4</ele>
        <time>2012-06-14T07:52:22.000Z</time>
      </trkpt>
      <trkpt lat="47.69912" lon="6.00412">
        <ele>363.5</ele>
        <time>2012-06-14T07:52:25.000Z</time>
      </trkpt>
      <trkpt lat="47.69914" lon="6.00406">
        <ele>363.7</ele>
        <time>2012-06-14T07:52:28.000Z</time>
      </trkpt>
      <trkpt lat="47.69916" lon="6.00398">
        <ele>363.6</ele>
        <time>2012-06-14T07:52:33.000Z</time>
      </trkpt>
      <trkpt lat="47.69919" lon="6.00391">
        <ele>362.8</ele>
        <time>2012-06-14T07:52:37.000Z</time>
      </trkpt>
      <trkpt lat="47.69922" lon="6.00383">
        <ele>362.3</ele>
        <time>2012-06-14T07:52:40.000Z</time>
      </trkpt>
      <trkpt lat="47.69925" lon="6.00374">
        <ele>361.5</ele>
        <time>2012-06-14T07:52:43.000Z</time>
      </trkpt>
      <trkpt lat="47.69929" lon="6.00367">
        <ele>361.7</ele>
        <time>2012-06-14T07:52:46.000Z</time>
      </trkpt>
      <trkpt lat="47.69955" lon="6.00325">
        <ele>376.3</ele>
        <time>2012-06-14T07:53:06.000Z</time>
      </trkpt>
      <trkpt lat="47.69959" lon="6.00319">
        <ele>376.9</ele>
        <time>2012-06-14T07:53:08.000Z</time>
      </trkpt>
      <trkpt lat="47.69963" lon="6.00311">
        <ele>378.4</ele>
        <time>2012-06-14T07:53:10.000Z</time>
      </trkpt>
      <trkpt lat="47.69967" lon="6.00306">
        <ele>382.1</ele>
        <time>2012-06-14T07:53:12.000Z</time>
      </trkpt>
      <trkpt lat="47.69972" lon="6.003">
        <ele>382.2</ele>
        <time>2012-06-14T07:53:14.000Z</time>
      </trkpt>
      <trkpt lat="47.69976" lon="6.00296">
        <ele>387.2</ele>
        <time>2012-06-14T07:53:18.000Z</time>
      </trkpt>
      <trkpt lat="47.6998" lon="6.00289">
        <ele>391.1</ele>
        <time>2012-06-14T07:53:24.000Z</time>
      </trkpt>
      <trkpt lat="47.69983" lon="6.00282">
        <ele>388.2</ele>
        <time>2012-06-14T07:53:28.000Z</time>
      </trkpt>
      <trkpt lat="47.69987" lon="6.00276">
        <ele>387.6</ele>
        <time>2012-06-14T07:53:31.000Z</time>
      </trkpt>
      <trkpt lat="47.69991" lon="6.00272">
        <ele>387.1</ele>
        <time>2012-06-14T07:53:33.000Z</time>
      </trkpt>
      <trkpt lat="47.69995" lon="6.00269">
        <ele>385.4</ele>
        <time>2012-06-14T07:53:35.000Z</time>
      </trkpt>
      <trkpt lat="47.7" lon="6.00264">
        <ele>384.6</ele>
        <time>2012-06-14T07:53:38.000Z</time>
      </trkpt>
      <trkpt lat="47.70005" lon="6.00258">
        <ele>382.6</ele>
        <time>2012-06-14T07:53:41.000Z</time>
      </trkpt>
      <trkpt lat="47.70008" lon="6.00254">
        <ele>381</ele>
        <time>2012-06-14T07:53:43.000Z</time>
      </trkpt>
      <trkpt lat="47.70011" lon="6.00248">
        <ele>378.6</ele>
        <time>2012-06-14T07:53:45.000Z</time>
      </trkpt>
      <trkpt lat="47.70009" lon="6.00236">
        <ele>378.5</ele>
        <time>2012-06-14T07:53:52.000Z</time>
      </trkpt>
      <trkpt lat="47.70007" lon="6.00229">
        <ele>366</ele>
        <time>2012-06-14T07:53:53.000Z</time>
      </trkpt>
      <trkpt lat="47.7001" lon="6.00223">
        <ele>348.2</ele>
        <time>2012-06-14T07:54:03.000Z</time>
      </trkpt>
      <trkpt lat="47.70007" lon="6.00229">
        <ele>341.4</ele>
        <time>2012-06-14T07:54:24.000Z</time>
      </trkpt>
      <trkpt lat="47.70007" lon="6.00236">
        <ele>348.1</ele>
        <time>2012-06-14T07:54:29.000Z</time>
      </trkpt>
      <trkpt lat="47.70011" lon="6.00234">
        <ele>354.4</ele>
        <time>2012-06-14T07:54:39.000Z</time>
      </trkpt>
      <trkpt lat="47.70016" lon="6.00235">
        <ele>356.6</ele>
        <time>2012-06-14T07:54:43.000Z</time>
      </trkpt>
      <trkpt lat="47.7002" lon="6.0023">
        <ele>364.7</ele>
        <time>2012-06-14T07:54:54.000Z</time>
      </trkpt>
      <trkpt lat="47.70024" lon="6.00226">
        <ele>369.3</ele>
        <time>2012-06-14T07:55:00.000Z</time>
      </trkpt>
      <trkpt lat="47.70027" lon="6.0022">
        <ele>366.9</ele>
        <time>2012-06-14T07:55:03.000Z</time>
      </trkpt>
      <trkpt lat="47.7003" lon="6.00215">
        <ele>366.2</ele>
        <time>2012-06-14T07:55:08.000Z</time>
      </trkpt>
      <trkpt lat="47.70035" lon="6.0021">
        <ele>366</ele>
        <time>2012-06-14T07:55:10.000Z</time>
      </trkpt>
      <trkpt lat="47.70038" lon="6.00205">
        <ele>365.6</ele>
        <time>2012-06-14T07:55:12.000Z</time>
      </trkpt>
      <trkpt lat="47.70041" lon="6.00198">
        <ele>365.6</ele>
        <time>2012-06-14T07:55:14.000Z</time>
      </trkpt>
      <trkpt lat="47.70043" lon="6.00192">
        <ele>366</ele>
        <time>2012-06-14T07:55:16.000Z</time>
      </trkpt>
      <trkpt lat="47.70047" lon="6.00187">
        <ele>366.2</ele>
        <time>2012-06-14T07:55:18.000Z</time>
      </trkpt>
      <trkpt lat="47.70055" lon="6.00184">
        <ele>365.6</ele>
        <time>2012-06-14T07:55:20.000Z</time>
      </trkpt>
      <trkpt lat="47.70059" lon="6.00177">
        <ele>365.1</ele>
        <time>2012-06-14T07:55:22.000Z</time>
      </trkpt>
      <trkpt lat="47.70062" lon="6.00171">
        <ele>364.7</ele>
        <time>2012-06-14T07:55:24.000Z</time>
      </trkpt>
      <trkpt lat="47.70066" lon="6.00163">
        <ele>364.4</ele>
        <time>2012-06-14T07:55:26.000Z</time>
      </trkpt>
      <trkpt lat="47.7007" lon="6.00155">
        <ele>363.9</ele>
        <time>2012-06-14T07:55:28.000Z</time>
      </trkpt>
      <trkpt lat="47.70075" lon="6.00145">
        <ele>363.3</ele>
        <time>2012-06-14T07:55:30.000Z</time>
      </trkpt>
      <trkpt lat="47.70081" lon="6.00136">
        <ele>362.6</ele>
        <time>2012-06-14T07:55:32.000Z</time>
      </trkpt>
      <trkpt lat="47.70084" lon="6.00131">
        <ele>362.5</ele>
        <time>2012-06-14T07:55:33.000Z</time>
      </trkpt>
      <trkpt lat="47.70088" lon="6.00127">
        <ele>362.4</ele>
        <time>2012-06-14T07:55:34.000Z</time>
      </trkpt>
      <trkpt lat="47.70092" lon="6.00122">
        <ele>362.4</ele>
        <time>2012-06-14T07:55:35.000Z</time>
      </trkpt>
      <trkpt lat="47.70095" lon="6.00116">
        <ele>362.8</ele>
        <time>2012-06-14T07:55:36.000Z</time>
      </trkpt>
      <trkpt lat="47.70098" lon="6.00111">
        <ele>363.2</ele>
        <time>2012-06-14T07:55:37.000Z</time>
      </trkpt>
      <trkpt lat="47.70102" lon="6.00107">
        <ele>363.9</ele>
        <time>2012-06-14T07:55:38.000Z</time>
      </trkpt>
      <trkpt lat="47.70107" lon="6.00101">
        <ele>363.9</ele>
        <time>2012-06-14T07:55:39.000Z</time>
      </trkpt>
      <trkpt lat="47.70111" lon="6.00095">
        <ele>364.1</ele>
        <time>2012-06-14T07:55:40.000Z</time>
      </trkpt>
      <trkpt lat="47.70114" lon="6.00088">
        <ele>364.1</ele>
        <time>2012-06-14T07:55:41.000Z</time>
      </trkpt>
      <trkpt lat="47.70116" lon="6.0008">
        <ele>364.3</ele>
        <time>2012-06-14T07:55:42.000Z</time>
      </trkpt>
      <trkpt lat="47.70119" lon="6.00074">
        <ele>364.3</ele>
        <time>2012-06-14T07:55:43.000Z</time>
      </trkpt>
      <trkpt lat="47.70122" lon="6.00067">
        <ele>364.4</ele>
        <time>2012-06-14T07:55:44.000Z</time>
      </trkpt>
      <trkpt lat="47.70125" lon="6.00061">
        <ele>364.4</ele>
        <time>2012-06-14T07:55:45.000Z</time>
      </trkpt>
      <trkpt lat="47.70128" lon="6.00054">
        <ele>364.5</ele>
        <time>2012-06-14T07:55:46.000Z</time>
      </trkpt>
      <trkpt lat="47.7013" lon="6.00048">
        <ele>364.7</ele>
        <time>2012-06-14T07:55:47.000Z</time>
      </trkpt>
      <trkpt lat="47.70132" lon="6.00041">
        <ele>364.8</ele>
        <time>2012-06-14T07:55:48.000Z</time>
      </trkpt>
      <trkpt lat="47.70135" lon="6.00036">
        <ele>364.9</ele>
        <time>2012-06-14T07:55:49.000Z</time>
      </trkpt>
      <trkpt lat="47.70138" lon="6.0003">
        <ele>364.8</ele>
        <time>2012-06-14T07:55:50.000Z</time>
      </trkpt>
      <trkpt lat="47.70141" lon="6.00022">
        <ele>364.7</ele>
        <time>2012-06-14T07:55:51.000Z</time>
      </trkpt>
      <trkpt lat="47.70143" lon="6.00016">
        <ele>364.5</ele>
        <time>2012-06-14T07:55:52.000Z</time>
      </trkpt>
      <trkpt lat="47.70146" lon="6.00009">
        <ele>364.1</ele>
        <time>2012-06-14T07:55:53.000Z</time>
      </trkpt>
      <trkpt lat="47.70148" lon="6.00002">
        <ele>363.9</ele>
        <time>2012-06-14T07:55:54.000Z</time>
      </trkpt>
      <trkpt lat="47.70151" lon="5.99995">
        <ele>363.5</ele>
        <time>2012-06-14T07:55:55.000Z</time>
      </trkpt>
      <trkpt lat="47.70154" lon="5.99988">
        <ele>363.2</ele>
        <time>2012-06-14T07:55:56.000Z</time>
      </trkpt>
      <trkpt lat="47.70158" lon="5.9998">
        <ele>363</ele>
        <time>2012-06-14T07:55:57.000Z</time>
      </trkpt>
      <trkpt lat="47.70162" lon="5.99972">
        <ele>362.8</ele>
        <time>2012-06-14T07:55:58.000Z</time>
      </trkpt>
      <trkpt lat="47.70166" lon="5.99964">
        <ele>362.8</ele>
        <time>2012-06-14T07:55:59.000Z</time>
      </trkpt>
      <trkpt lat="47.70169" lon="5.99957">
        <ele>363</ele>
        <time>2012-06-14T07:56:00.000Z</time>
      </trkpt>
      <trkpt lat="47.70173" lon="5.99949">
        <ele>362.8</ele>
        <time>2012-06-14T07:56:01.000Z</time>
      </trkpt>
      <trkpt lat="47.70177" lon="5.99942">
        <ele>362.6</ele>
        <time>2012-06-14T07:56:02.000Z</time>
      </trkpt>
      <trkpt lat="47.7018" lon="5.99934">
        <ele>362.5</ele>
        <time>2012-06-14T07:56:03.000Z</time>
      </trkpt>
      <trkpt lat="47.70184" lon="5.99927">
        <ele>362.5</ele>
        <time>2012-06-14T07:56:04.000Z</time>
      </trkpt>
      <trkpt lat="47.70189" lon="5.9992">
        <ele>362.4</ele>
        <time>2012-06-14T07:56:05.000Z</time>
      </trkpt>
      <trkpt lat="47.70194" lon="5.99914">
        <ele>362.2</ele>
        <time>2012-06-14T07:56:06.000Z</time>
      </trkpt>
      <trkpt lat="47.70198" lon="5.99907">
        <ele>362.3</ele>
        <time>2012-06-14T07:56:07.000Z</time>
      </trkpt>
      <trkpt lat="47.70202" lon="5.99902">
        <ele>362.2</ele>
        <time>2012-06-14T07:56:08.000Z</time>
      </trkpt>
      <trkpt lat="47.70208" lon="5.99898">
        <ele>362</ele>
        <time>2012-06-14T07:56:09.000Z</time>
      </trkpt>
      <trkpt lat="47.70214" lon="5.99895">
        <ele>361.6</ele>
        <time>2012-06-14T07:56:10.000Z</time>
      </trkpt>
      <trkpt lat="47.70218" lon="5.99891">
        <ele>361.4</ele>
        <time>2012-06-14T07:56:11.000Z</time>
      </trkpt>
      <trkpt lat="47.70224" lon="5.99888">
        <ele>361.2</ele>
        <time>2012-06-14T07:56:12.000Z</time>
      </trkpt>
      <trkpt lat="47.7023" lon="5.99884">
        <ele>361.1</ele>
        <time>2012-06-14T07:56:13.000Z</time>
      </trkpt>
      <trkpt lat="47.70235" lon="5.99881">
        <ele>360.9</ele>
        <time>2012-06-14T07:56:14.000Z</time>
      </trkpt>
      <trkpt lat="47.7024" lon="5.99873">
        <ele>361.1</ele>
        <time>2012-06-14T07:56:16.000Z</time>
      </trkpt>
      <trkpt lat="47.70247" lon="5.99858">
        <ele>361.2</ele>
        <time>2012-06-14T07:56:18.000Z</time>
      </trkpt>
      <trkpt lat="47.7025" lon="5.99853">
        <ele>361.3</ele>
        <time>2012-06-14T07:56:19.000Z</time>
      </trkpt>
      <trkpt lat="47.70255" lon="5.99846">
        <ele>361.3</ele>
        <time>2012-06-14T07:56:20.000Z</time>
      </trkpt>
      <trkpt lat="47.70258" lon="5.9984">
        <ele>361.2</ele>
        <time>2012-06-14T07:56:21.000Z</time>
      </trkpt>
      <trkpt lat="47.70262" lon="5.99834">
        <ele>361.1</ele>
        <time>2012-06-14T07:56:22.000Z</time>
      </trkpt>
      <trkpt lat="47.70264" lon="5.99825">
        <ele>360.8</ele>
        <time>2012-06-14T07:56:24.000Z</time>
      </trkpt>
      <trkpt lat="47.70266" lon="5.99818">
        <ele>360.8</ele>
        <time>2012-06-14T07:56:26.000Z</time>
      </trkpt>
      <trkpt lat="47.70268" lon="5.9981">
        <ele>360.6</ele>
        <time>2012-06-14T07:56:29.000Z</time>
      </trkpt>
      <trkpt lat="47.70268" lon="5.99802">
        <ele>361</ele>
        <time>2012-06-14T07:56:34.000Z</time>
      </trkpt>
      <trkpt lat="47.7027" lon="5.99794">
        <ele>361.3</ele>
        <time>2012-06-14T07:56:37.000Z</time>
      </trkpt>
      <trkpt lat="47.7027" lon="5.99786">
        <ele>361.2</ele>
        <time>2012-06-14T07:56:41.000Z</time>
      </trkpt>
      <trkpt lat="47.70272" lon="5.99778">
        <ele>361</ele>
        <time>2012-06-14T07:56:44.000Z</time>
      </trkpt>
      <trkpt lat="47.70273" lon="5.99771">
        <ele>360.8</ele>
        <time>2012-06-14T07:56:47.000Z</time>
      </trkpt>
      <trkpt lat="47.70275" lon="5.99763">
        <ele>360.8</ele>
        <time>2012-06-14T07:56:50.000Z</time>
      </trkpt>
      <trkpt lat="47.70277" lon="5.99753">
        <ele>361</ele>
        <time>2012-06-14T07:56:53.000Z</time>
      </trkpt>
      <trkpt lat="47.70277" lon="5.99746">
        <ele>361.1</ele>
        <time>2012-06-14T07:56:55.000Z</time>
      </trkpt>
      <trkpt lat="47.70278" lon="5.99739">
        <ele>361.1</ele>
        <time>2012-06-14T07:56:57.000Z</time>
      </trkpt>
      <trkpt lat="47.70279" lon="5.99732">
        <ele>361</ele>
        <time>2012-06-14T07:56:59.000Z</time>
      </trkpt>
      <trkpt lat="47.70283" lon="5.99728">
        <ele>361.3</ele>
        <time>2012-06-14T07:57:03.000Z</time>
      </trkpt>
      <trkpt lat="47.70288" lon="5.99725">
        <ele>360.9</ele>
        <time>2012-06-14T07:57:07.000Z</time>
      </trkpt>
      <trkpt lat="47.70292" lon="5.9972">
        <ele>360</ele>
        <time>2012-06-14T07:57:12.000Z</time>
      </trkpt>
      <trkpt lat="47.703" lon="5.99716">
        <ele>359.4</ele>
        <time>2012-06-14T07:57:14.000Z</time>
      </trkpt>
      <trkpt lat="47.70304" lon="5.99712">
        <ele>358.6</ele>
        <time>2012-06-14T07:57:16.000Z</time>
      </trkpt>
      <trkpt lat="47.70309" lon="5.9971">
        <ele>358.5</ele>
        <time>2012-06-14T07:57:20.000Z</time>
      </trkpt>
      <trkpt lat="47.70309" lon="5.99702">
        <ele>358.5</ele>
        <time>2012-06-14T07:57:25.000Z</time>
      </trkpt>
      <trkpt lat="47.70311" lon="5.99695">
        <ele>358.7</ele>
        <time>2012-06-14T07:57:28.000Z</time>
      </trkpt>
      <trkpt lat="47.70315" lon="5.99689">
        <ele>358.5</ele>
        <time>2012-06-14T07:57:31.000Z</time>
      </trkpt>
      <trkpt lat="47.70317" lon="5.99681">
        <ele>358.3</ele>
        <time>2012-06-14T07:57:34.000Z</time>
      </trkpt>
      <trkpt lat="47.70318" lon="5.99672">
        <ele>357.7</ele>
        <time>2012-06-14T07:57:37.000Z</time>
      </trkpt>
      <trkpt lat="47.7032" lon="5.99663">
        <ele>357.4</ele>
        <time>2012-06-14T07:57:40.000Z</time>
      </trkpt>
      <trkpt lat="47.70321" lon="5.99654">
        <ele>357.3</ele>
        <time>2012-06-14T07:57:43.000Z</time>
      </trkpt>
      <trkpt lat="47.70323" lon="5.99647">
        <ele>356.8</ele>
        <time>2012-06-14T07:57:46.000Z</time>
      </trkpt>
      <trkpt lat="47.70324" lon="5.99639">
        <ele>356.4</ele>
        <time>2012-06-14T07:57:50.000Z</time>
      </trkpt>
      <trkpt lat="47.70323" lon="5.9963">
        <ele>355.8</ele>
        <time>2012-06-14T07:57:54.000Z</time>
      </trkpt>
      <trkpt lat="47.70324" lon="5.99623">
        <ele>355.5</ele>
        <time>2012-06-14T07:57:57.000Z</time>
      </trkpt>
      <trkpt lat="47.70326" lon="5.99617">
        <ele>355.3</ele>
        <time>2012-06-14T07:58:00.000Z</time>
      </trkpt>
      <trkpt lat="47.70326" lon="5.99609">
        <ele>355.4</ele>
        <time>2012-06-14T07:58:03.000Z</time>
      </trkpt>
      <trkpt lat="47.70326" lon="5.99601">
        <ele>355</ele>
        <time>2012-06-14T07:58:05.000Z</time>
      </trkpt>
      <trkpt lat="47.7033" lon="5.99591">
        <ele>354.9</ele>
        <time>2012-06-14T07:58:07.000Z</time>
      </trkpt>
      <trkpt lat="47.70334" lon="5.99582">
        <ele>354.8</ele>
        <time>2012-06-14T07:58:09.000Z</time>
      </trkpt>
      <trkpt lat="47.70336" lon="5.99575">
        <ele>354.9</ele>
        <time>2012-06-14T07:58:11.000Z</time>
      </trkpt>
      <trkpt lat="47.70337" lon="5.99569">
        <ele>354.9</ele>
        <time>2012-06-14T07:58:13.000Z</time>
      </trkpt>
      <trkpt lat="47.70338" lon="5.99561">
        <ele>354.8</ele>
        <time>2012-06-14T07:58:16.000Z</time>
      </trkpt>
      <trkpt lat="47.70339" lon="5.99552">
        <ele>355.9</ele>
        <time>2012-06-14T07:58:19.000Z</time>
      </trkpt>
      <trkpt lat="47.7034" lon="5.99545">
        <ele>356.7</ele>
        <time>2012-06-14T07:58:22.000Z</time>
      </trkpt>
      <trkpt lat="47.7034" lon="5.99537">
        <ele>357.4</ele>
        <time>2012-06-14T07:58:28.000Z</time>
      </trkpt>
      <trkpt lat="47.70341" lon="5.99529">
        <ele>357.3</ele>
        <time>2012-06-14T07:58:32.000Z</time>
      </trkpt>
      <trkpt lat="47.70343" lon="5.99522">
        <ele>357</ele>
        <time>2012-06-14T07:58:35.000Z</time>
      </trkpt>
      <trkpt lat="47.70345" lon="5.99515">
        <ele>356.4</ele>
        <time>2012-06-14T07:58:38.000Z</time>
      </trkpt>
      <trkpt lat="47.7035" lon="5.99508">
        <ele>355.9</ele>
        <time>2012-06-14T07:58:41.000Z</time>
      </trkpt>
      <trkpt lat="47.70355" lon="5.99504">
        <ele>356</ele>
        <time>2012-06-14T07:58:43.000Z</time>
      </trkpt>
      <trkpt lat="47.70359" lon="5.995">
        <ele>355.9</ele>
        <time>2012-06-14T07:58:46.000Z</time>
      </trkpt>
      <trkpt lat="47.70385" lon="5.99499">
        <ele>375.2</ele>
        <time>2012-06-14T07:59:05.000Z</time>
      </trkpt>
      <trkpt lat="47.70396" lon="5.995">
        <ele>376.2</ele>
        <time>2012-06-14T07:59:08.000Z</time>
      </trkpt>
      <trkpt lat="47.704" lon="5.99499">
        <ele>377.5</ele>
        <time>2012-06-14T07:59:10.000Z</time>
      </trkpt>
      <trkpt lat="47.70407" lon="5.99501">
        <ele>374.9</ele>
        <time>2012-06-14T07:59:12.000Z</time>
      </trkpt>
      <trkpt lat="47.70411" lon="5.99501">
        <ele>384.5</ele>
        <time>2012-06-14T07:59:17.000Z</time>
      </trkpt>
      <trkpt lat="47.70416" lon="5.99498">
        <ele>385.7</ele>
        <time>2012-06-14T07:59:20.000Z</time>
      </trkpt>
      <trkpt lat="47.70421" lon="5.99494">
        <ele>384.4</ele>
        <time>2012-06-14T07:59:23.000Z</time>
      </trkpt>
      <trkpt lat="47.70425" lon="5.99489">
        <ele>381.7</ele>
        <time>2012-06-14T07:59:26.000Z</time>
      </trkpt>
      <trkpt lat="47.70431" lon="5.99484">
        <ele>378.9</ele>
        <time>2012-06-14T07:59:29.000Z</time>
      </trkpt>
      <trkpt lat="47.70435" lon="5.99477">
        <ele>377.2</ele>
        <time>2012-06-14T07:59:32.000Z</time>
      </trkpt>
      <trkpt lat="47.70438" lon="5.99472">
        <ele>375.7</ele>
        <time>2012-06-14T07:59:34.000Z</time>
      </trkpt>
      <trkpt lat="47.70443" lon="5.99467">
        <ele>373.2</ele>
        <time>2012-06-14T07:59:37.000Z</time>
      </trkpt>
      <trkpt lat="47.70447" lon="5.99462">
        <ele>371.7</ele>
        <time>2012-06-14T07:59:39.000Z</time>
      </trkpt>
      <trkpt lat="47.70451" lon="5.99459">
        <ele>370.6</ele>
        <time>2012-06-14T07:59:41.000Z</time>
      </trkpt>
      <trkpt lat="47.70454" lon="5.99455">
        <ele>370.2</ele>
        <time>2012-06-14T07:59:44.000Z</time>
      </trkpt>
      <trkpt lat="47.70459" lon="5.99451">
        <ele>369.6</ele>
        <time>2012-06-14T07:59:47.000Z</time>
      </trkpt>
      <trkpt lat="47.70465" lon="5.99448">
        <ele>368.3</ele>
        <time>2012-06-14T07:59:50.000Z</time>
      </trkpt>
      <trkpt lat="47.7047" lon="5.99444">
        <ele>368</ele>
        <time>2012-06-14T07:59:53.000Z</time>
      </trkpt>
      <trkpt lat="47.70474" lon="5.9944">
        <ele>368.7</ele>
        <time>2012-06-14T07:59:58.000Z</time>
      </trkpt>
      <trkpt lat="47.70476" lon="5.99434">
        <ele>369.3</ele>
        <time>2012-06-14T08:00:02.000Z</time>
      </trkpt>
      <trkpt lat="47.70479" lon="5.99429">
        <ele>369.5</ele>
        <time>2012-06-14T08:00:05.000Z</time>
      </trkpt>
      <trkpt lat="47.70481" lon="5.99421">
        <ele>371.1</ele>
        <time>2012-06-14T08:00:09.000Z</time>
      </trkpt>
      <trkpt lat="47.70486" lon="5.99416">
        <ele>371.6</ele>
        <time>2012-06-14T08:00:13.000Z</time>
      </trkpt>
      <trkpt lat="47.70488" lon="5.9941">
        <ele>372.3</ele>
        <time>2012-06-14T08:00:17.000Z</time>
      </trkpt>
      <trkpt lat="47.70491" lon="5.99403">
        <ele>372.3</ele>
        <time>2012-06-14T08:00:21.000Z</time>
      </trkpt>
      <trkpt lat="47.70491" lon="5.99395">
        <ele>372.4</ele>
        <time>2012-06-14T08:00:24.000Z</time>
      </trkpt>
      <trkpt lat="47.70493" lon="5.99389">
        <ele>372.9</ele>
        <time>2012-06-14T08:00:27.000Z</time>
      </trkpt>
      <trkpt lat="47.70496" lon="5.99384">
        <ele>373.1</ele>
        <time>2012-06-14T08:00:30.000Z</time>
      </trkpt>
      <trkpt lat="47.70504" lon="5.99377">
        <ele>372.5</ele>
        <time>2012-06-14T08:00:33.000Z</time>
      </trkpt>
      <trkpt lat="47.70508" lon="5.99372">
        <ele>372.5</ele>
        <time>2012-06-14T08:00:35.000Z</time>
      </trkpt>
      <trkpt lat="47.70512" lon="5.99365">
        <ele>372.9</ele>
        <time>2012-06-14T08:00:38.000Z</time>
      </trkpt>
      <trkpt lat="47.70515" lon="5.99359">
        <ele>372.7</ele>
        <time>2012-06-14T08:00:40.000Z</time>
      </trkpt>
      <trkpt lat="47.70519" lon="5.99353">
        <ele>372.6</ele>
        <time>2012-06-14T08:00:43.000Z</time>
      </trkpt>
      <trkpt lat="47.70523" lon="5.99349">
        <ele>372.6</ele>
        <time>2012-06-14T08:00:46.000Z</time>
      </trkpt>
      <trkpt lat="47.70526" lon="5.99344">
        <ele>372.7</ele>
        <time>2012-06-14T08:00:49.000Z</time>
      </trkpt>
      <trkpt lat="47.70532" lon="5.99346">
        <ele>372.1</ele>
        <time>2012-06-14T08:00:52.000Z</time>
      </trkpt>
      <trkpt lat="47.70538" lon="5.99344">
        <ele>370.4</ele>
        <time>2012-06-14T08:00:55.000Z</time>
      </trkpt>
      <trkpt lat="47.70543" lon="5.99338">
        <ele>370</ele>
        <time>2012-06-14T08:00:58.000Z</time>
      </trkpt>
      <trkpt lat="47.70546" lon="5.99332">
        <ele>370.3</ele>
        <time>2012-06-14T08:01:01.000Z</time>
      </trkpt>
      <trkpt lat="47.7055" lon="5.99329">
        <ele>370.4</ele>
        <time>2012-06-14T08:01:04.000Z</time>
      </trkpt>
      <trkpt lat="47.70555" lon="5.99327">
        <ele>370.4</ele>
        <time>2012-06-14T08:01:07.000Z</time>
      </trkpt>
      <trkpt lat="47.70562" lon="5.99328">
        <ele>370.7</ele>
        <time>2012-06-14T08:01:10.000Z</time>
      </trkpt>
      <trkpt lat="47.70567" lon="5.9933">
        <ele>370.2</ele>
        <time>2012-06-14T08:01:13.000Z</time>
      </trkpt>
      <trkpt lat="47.70572" lon="5.9933">
        <ele>369.9</ele>
        <time>2012-06-14T08:01:15.000Z</time>
      </trkpt>
      <trkpt lat="47.70579" lon="5.99329">
        <ele>370</ele>
        <time>2012-06-14T08:01:18.000Z</time>
      </trkpt>
      <trkpt lat="47.70585" lon="5.99329">
        <ele>370.2</ele>
        <time>2012-06-14T08:01:21.000Z</time>
      </trkpt>
      <trkpt lat="47.7059" lon="5.99329">
        <ele>370.1</ele>
        <time>2012-06-14T08:01:23.000Z</time>
      </trkpt>
      <trkpt lat="47.70595" lon="5.99327">
        <ele>370</ele>
        <time>2012-06-14T08:01:25.000Z</time>
      </trkpt>
      <trkpt lat="47.706" lon="5.99324">
        <ele>369.5</ele>
        <time>2012-06-14T08:01:27.000Z</time>
      </trkpt>
      <trkpt lat="47.70605" lon="5.99323">
        <ele>369.1</ele>
        <time>2012-06-14T08:01:29.000Z</time>
      </trkpt>
      <trkpt lat="47.7061" lon="5.99322">
        <ele>369.5</ele>
        <time>2012-06-14T08:01:31.000Z</time>
      </trkpt>
      <trkpt lat="47.70615" lon="5.99321">
        <ele>369.9</ele>
        <time>2012-06-14T08:01:33.000Z</time>
      </trkpt>
      <trkpt lat="47.7062" lon="5.99318">
        <ele>370.2</ele>
        <time>2012-06-14T08:01:35.000Z</time>
      </trkpt>
      <trkpt lat="47.70625" lon="5.99316">
        <ele>370.6</ele>
        <time>2012-06-14T08:01:37.000Z</time>
      </trkpt>
      <trkpt lat="47.7063" lon="5.99314">
        <ele>371.1</ele>
        <time>2012-06-14T08:01:39.000Z</time>
      </trkpt>
      <trkpt lat="47.70635" lon="5.99311">
        <ele>371.6</ele>
        <time>2012-06-14T08:01:41.000Z</time>
      </trkpt>
      <trkpt lat="47.70641" lon="5.99309">
        <ele>371.8</ele>
        <time>2012-06-14T08:01:43.000Z</time>
      </trkpt>
      <trkpt lat="47.70646" lon="5.99307">
        <ele>372.1</ele>
        <time>2012-06-14T08:01:45.000Z</time>
      </trkpt>
      <trkpt lat="47.70713" lon="5.99325">
        <ele>370.1</ele>
        <time>2012-06-14T08:02:06.000Z</time>
      </trkpt>
      <trkpt lat="47.70714" lon="5.99318">
        <ele>377.1</ele>
        <time>2012-06-14T08:02:10.000Z</time>
      </trkpt>
      <trkpt lat="47.70713" lon="5.99311">
        <ele>391.6</ele>
        <time>2012-06-14T08:02:20.000Z</time>
      </trkpt>
      <trkpt lat="47.70712" lon="5.99303">
        <ele>389.6</ele>
        <time>2012-06-14T08:02:24.000Z</time>
      </trkpt>
      <trkpt lat="47.70708" lon="5.99297">
        <ele>389</ele>
        <time>2012-06-14T08:02:31.000Z</time>
      </trkpt>
      <trkpt lat="47.70709" lon="5.99288">
        <ele>388.4</ele>
        <time>2012-06-14T08:02:34.000Z</time>
      </trkpt>
      <trkpt lat="47.70708" lon="5.99279">
        <ele>389.2</ele>
        <time>2012-06-14T08:02:38.000Z</time>
      </trkpt>
      <trkpt lat="47.70708" lon="5.99271">
        <ele>388.3</ele>
        <time>2012-06-14T08:02:41.000Z</time>
      </trkpt>
      <trkpt lat="47.70709" lon="5.99263">
        <ele>388.5</ele>
        <time>2012-06-14T08:02:43.000Z</time>
      </trkpt>
      <trkpt lat="47.70709" lon="5.99256">
        <ele>388.6</ele>
        <time>2012-06-14T08:02:47.500Z</time>
      </trkpt>
      <trkpt lat="47.70717" lon="5.99224">
        <ele>409.2</ele>
        <time>2012-06-14T08:03:06.000Z</time>
      </trkpt>
      <trkpt lat="47.70717" lon="5.99217">
        <ele>409.6</ele>
        <time>2012-06-14T08:03:11.000Z</time>
      </trkpt>
      <trkpt lat="47.70714" lon="5.9921">
        <ele>413.8</ele>
        <time>2012-06-14T08:03:15.000Z</time>
      </trkpt>
      <trkpt lat="47.70714" lon="5.99202">
        <ele>412.7</ele>
        <time>2012-06-14T08:03:21.000Z</time>
      </trkpt>
      <trkpt lat="47.7071" lon="5.99197">
        <ele>410.9</ele>
        <time>2012-06-14T08:03:27.000Z</time>
      </trkpt>
      <trkpt lat="47.70707" lon="5.9919">
        <ele>409.3</ele>
        <time>2012-06-14T08:03:31.000Z</time>
      </trkpt>
      <trkpt lat="47.70705" lon="5.99182">
        <ele>408.5</ele>
        <time>2012-06-14T08:03:34.000Z</time>
      </trkpt>
      <trkpt lat="47.70706" lon="5.99176">
        <ele>405.6</ele>
        <time>2012-06-14T08:03:40.000Z</time>
      </trkpt>
      <trkpt lat="47.70708" lon="5.99168">
        <ele>402.7</ele>
        <time>2012-06-14T08:03:45.000Z</time>
      </trkpt>
      <trkpt lat="47.70707" lon="5.99159">
        <ele>401.1</ele>
        <time>2012-06-14T08:03:49.000Z</time>
      </trkpt>
      <trkpt lat="47.70706" lon="5.99152">
        <ele>401</ele>
        <time>2012-06-14T08:03:53.000Z</time>
      </trkpt>
      <trkpt lat="47.70706" lon="5.99144">
        <ele>399.8</ele>
        <time>2012-06-14T08:03:57.000Z</time>
      </trkpt>
      <trkpt lat="47.70705" lon="5.99137">
        <ele>398.1</ele>
        <time>2012-06-14T08:04:01.000Z</time>
      </trkpt>
      <trkpt lat="47.70705" lon="5.9913">
        <ele>398.1</ele>
        <time>2012-06-14T08:04:04.000Z</time>
      </trkpt>
      <trkpt lat="47.70708" lon="5.99124">
        <ele>399.4</ele>
        <time>2012-06-14T08:04:07.000Z</time>
      </trkpt>
      <trkpt lat="47.70713" lon="5.99122">
        <ele>399.2</ele>
        <time>2012-06-14T08:04:10.000Z</time>
      </trkpt>
      <trkpt lat="47.70716" lon="5.99118">
        <ele>399.2</ele>
        <time>2012-06-14T08:04:12.000Z</time>
      </trkpt>
      <trkpt lat="47.70718" lon="5.9911">
        <ele>399</ele>
        <time>2012-06-14T08:04:14.000Z</time>
      </trkpt>
      <trkpt lat="47.70718" lon="5.99102">
        <ele>399.1</ele>
        <time>2012-06-14T08:04:17.000Z</time>
      </trkpt>
      <trkpt lat="47.70719" lon="5.99093">
        <ele>399.3</ele>
        <time>2012-06-14T08:04:20.000Z</time>
      </trkpt>
      <trkpt lat="47.7072" lon="5.99085">
        <ele>399.9</ele>
        <time>2012-06-14T08:04:23.000Z</time>
      </trkpt>
      <trkpt lat="47.7072" lon="5.99078">
        <ele>399.6</ele>
        <time>2012-06-14T08:04:26.000Z</time>
      </trkpt>
      <trkpt lat="47.70721" lon="5.99071">
        <ele>398.9</ele>
        <time>2012-06-14T08:04:31.000Z</time>
      </trkpt>
      <trkpt lat="47.70723" lon="5.99064">
        <ele>399.4</ele>
        <time>2012-06-14T08:04:40.000Z</time>
      </trkpt>
      <trkpt lat="47.70724" lon="5.99058">
        <ele>399.2</ele>
        <time>2012-06-14T08:04:43.000Z</time>
      </trkpt>
      <trkpt lat="47.70723" lon="5.99049">
        <ele>399.5</ele>
        <time>2012-06-14T08:04:46.000Z</time>
      </trkpt>
      <trkpt lat="47.7072" lon="5.98968">
        <ele>383.2</ele>
        <time>2012-06-14T08:05:06.000Z</time>
      </trkpt>
      <trkpt lat="47.70726" lon="5.98963">
        <ele>386.1</ele>
        <time>2012-06-14T08:05:12.000Z</time>
      </trkpt>
      <trkpt lat="47.7073" lon="5.98961">
        <ele>390.9</ele>
        <time>2012-06-14T08:05:17.000Z</time>
      </trkpt>
      <trkpt lat="47.70736" lon="5.9896">
        <ele>395.2</ele>
        <time>2012-06-14T08:05:20.000Z</time>
      </trkpt>
      <trkpt lat="47.70743" lon="5.98957">
        <ele>391.2</ele>
        <time>2012-06-14T08:05:23.000Z</time>
      </trkpt>
      <trkpt lat="47.70749" lon="5.98955">
        <ele>391.1</ele>
        <time>2012-06-14T08:05:26.000Z</time>
      </trkpt>
      <trkpt lat="47.70739" lon="5.98956">
        <ele>379.8</ele>
        <time>2012-06-14T08:05:53.000Z</time>
      </trkpt>
      <trkpt lat="47.70738" lon="5.98963">
        <ele>365.3</ele>
        <time>2012-06-14T08:05:59.000Z</time>
      </trkpt>
      <trkpt lat="47.7074" lon="5.98957">
        <ele>367.7</ele>
        <time>2012-06-14T08:06:23.000Z</time>
      </trkpt>
      <trkpt lat="47.7074" lon="5.98965">
        <ele>368.8</ele>
        <time>2012-06-14T08:06:25.000Z</time>
      </trkpt>
      <trkpt lat="47.70735" lon="5.98967">
        <ele>370.5</ele>
        <time>2012-06-14T08:06:31.000Z</time>
      </trkpt>
      <trkpt lat="47.70734" lon="5.9896">
        <ele>371.7</ele>
        <time>2012-06-14T08:06:37.000Z</time>
      </trkpt>
      <trkpt lat="47.70728" lon="5.98956">
        <ele>372.3</ele>
        <time>2012-06-14T08:06:41.000Z</time>
      </trkpt>
      <trkpt lat="47.70721" lon="5.98958">
        <ele>372.8</ele>
        <time>2012-06-14T08:06:42.000Z</time>
      </trkpt>
      <trkpt lat="47.70714" lon="5.9896">
        <ele>374.5</ele>
        <time>2012-06-14T08:06:45.000Z</time>
      </trkpt>
      <trkpt lat="47.70656" lon="5.98941">
        <ele>402.4</ele>
        <time>2012-06-14T08:07:06.000Z</time>
      </trkpt>
      <trkpt lat="47.7065" lon="5.98938">
        <ele>402.9</ele>
        <time>2012-06-14T08:07:09.000Z</time>
      </trkpt>
      <trkpt lat="47.70647" lon="5.98931">
        <ele>408.7</ele>
        <time>2012-06-14T08:07:14.000Z</time>
      </trkpt>
      <trkpt lat="47.70644" lon="5.98923">
        <ele>409.2</ele>
        <time>2012-06-14T08:07:18.000Z</time>
      </trkpt>
      <trkpt lat="47.70643" lon="5.98917">
        <ele>407.1</ele>
        <time>2012-06-14T08:07:20.000Z</time>
      </trkpt>
      <trkpt lat="47.70642" lon="5.98907">
        <ele>405.7</ele>
        <time>2012-06-14T08:07:23.000Z</time>
      </trkpt>
      <trkpt lat="47.70641" lon="5.98901">
        <ele>405.3</ele>
        <time>2012-06-14T08:07:25.000Z</time>
      </trkpt>
      <trkpt lat="47.7064" lon="5.98893">
        <ele>405.5</ele>
        <time>2012-06-14T08:07:28.000Z</time>
      </trkpt>
      <trkpt lat="47.70637" lon="5.98886">
        <ele>405.6</ele>
        <time>2012-06-14T08:07:31.000Z</time>
      </trkpt>
      <trkpt lat="47.70634" lon="5.98879">
        <ele>405.7</ele>
        <time>2012-06-14T08:07:34.000Z</time>
      </trkpt>
      <trkpt lat="47.70632" lon="5.98871">
        <ele>406.2</ele>
        <time>2012-06-14T08:07:37.000Z</time>
      </trkpt>
      <trkpt lat="47.7063" lon="5.98863">
        <ele>406.2</ele>
        <time>2012-06-14T08:07:39.000Z</time>
      </trkpt>
      <trkpt lat="47.70626" lon="5.98858">
        <ele>406.7</ele>
        <time>2012-06-14T08:07:42.000Z</time>
      </trkpt>
      <trkpt lat="47.70621" lon="5.98854">
        <ele>406.8</ele>
        <time>2012-06-14T08:07:46.000Z</time>
      </trkpt>
      <trkpt lat="47.7062" lon="5.98802">
        <ele>393.7</ele>
        <time>2012-06-14T08:07:57.000Z</time>
      </trkpt>
      <trkpt lat="47.70624" lon="5.98784">
        <ele>404.7</ele>
        <time>2012-06-14T08:08:06.000Z</time>
      </trkpt>
      <trkpt lat="47.70627" lon="5.98779">
        <ele>413.2</ele>
        <time>2012-06-14T08:08:12.000Z</time>
      </trkpt>
      <trkpt lat="47.7063" lon="5.98771">
        <ele>419.9</ele>
        <time>2012-06-14T08:08:17.000Z</time>
      </trkpt>
      <trkpt lat="47.70632" lon="5.98763">
        <ele>416.4</ele>
        <time>2012-06-14T08:08:20.000Z</time>
      </trkpt>
      <trkpt lat="47.70634" lon="5.98752">
        <ele>415.6</ele>
        <time>2012-06-14T08:08:22.000Z</time>
      </trkpt>
      <trkpt lat="47.70637" lon="5.98742">
        <ele>412.9</ele>
        <time>2012-06-14T08:08:24.000Z</time>
      </trkpt>
      <trkpt lat="47.70639" lon="5.98733">
        <ele>410.7</ele>
        <time>2012-06-14T08:08:26.000Z</time>
      </trkpt>
      <trkpt lat="47.7064" lon="5.98725">
        <ele>410.8</ele>
        <time>2012-06-14T08:08:28.000Z</time>
      </trkpt>
      <trkpt lat="47.70642" lon="5.98717">
        <ele>410</ele>
        <time>2012-06-14T08:08:30.000Z</time>
      </trkpt>
      <trkpt lat="47.70642" lon="5.9871">
        <ele>408.9</ele>
        <time>2012-06-14T08:08:32.000Z</time>
      </trkpt>
      <trkpt lat="47.70643" lon="5.98702">
        <ele>408.3</ele>
        <time>2012-06-14T08:08:34.000Z</time>
      </trkpt>
      <trkpt lat="47.70644" lon="5.98694">
        <ele>407.2</ele>
        <time>2012-06-14T08:08:36.000Z</time>
      </trkpt>
      <trkpt lat="47.70645" lon="5.98686">
        <ele>406.5</ele>
        <time>2012-06-14T08:08:38.000Z</time>
      </trkpt>
      <trkpt lat="47.70648" lon="5.98679">
        <ele>406.2</ele>
        <time>2012-06-14T08:08:40.000Z</time>
      </trkpt>
      <trkpt lat="47.70651" lon="5.98673">
        <ele>406.4</ele>
        <time>2012-06-14T08:08:42.000Z</time>
      </trkpt>
      <trkpt lat="47.70656" lon="5.98666">
        <ele>406.2</ele>
        <time>2012-06-14T08:08:45.000Z</time>
      </trkpt>
      <trkpt lat="47.70692" lon="5.98599">
        <ele>402.4</ele>
        <time>2012-06-14T08:09:04.000Z</time>
      </trkpt>
      <trkpt lat="47.70687" lon="5.986">
        <ele>404.5</ele>
        <time>2012-06-14T08:09:11.000Z</time>
      </trkpt>
      <trkpt lat="47.70682" lon="5.98597">
        <ele>392.9</ele>
        <time>2012-06-14T08:09:16.000Z</time>
      </trkpt>
      <trkpt lat="47.70685" lon="5.9859">
        <ele>393.2</ele>
        <time>2012-06-14T08:09:26.000Z</time>
      </trkpt>
      <trkpt lat="47.70688" lon="5.98586">
        <ele>389.6</ele>
        <time>2012-06-14T08:09:33.000Z</time>
      </trkpt>
      <trkpt lat="47.70692" lon="5.98583">
        <ele>390.2</ele>
        <time>2012-06-14T08:09:38.000Z</time>
      </trkpt>
      <trkpt lat="47.70698" lon="5.9858">
        <ele>389.9</ele>
        <time>2012-06-14T08:09:40.000Z</time>
      </trkpt>
      <trkpt lat="47.70704" lon="5.98579">
        <ele>391.5</ele>
        <time>2012-06-14T08:09:42.000Z</time>
      </trkpt>
      <trkpt lat="47.70711" lon="5.98577">
        <ele>392.4</ele>
        <time>2012-06-14T08:09:44.000Z</time>
      </trkpt>
      <trkpt lat="47.70717" lon="5.98578">
        <ele>393.3</ele>
        <time>2012-06-14T08:09:46.000Z</time>
      </trkpt>
      <trkpt lat="47.70725" lon="5.98579">
        <ele>394.9</ele>
        <time>2012-06-14T08:09:49.000Z</time>
      </trkpt>
      <trkpt lat="47.70731" lon="5.98578">
        <ele>396.7</ele>
        <time>2012-06-14T08:09:51.000Z</time>
      </trkpt>
      <trkpt lat="47.70736" lon="5.98577">
        <ele>397.8</ele>
        <time>2012-06-14T08:09:53.000Z</time>
      </trkpt>
      <trkpt lat="47.70743" lon="5.98576">
        <ele>398.5</ele>
        <time>2012-06-14T08:09:56.000Z</time>
      </trkpt>
      <trkpt lat="47.70747" lon="5.98574">
        <ele>399</ele>
        <time>2012-06-14T08:09:58.000Z</time>
      </trkpt>
      <trkpt lat="47.70752" lon="5.98572">
        <ele>400.4</ele>
        <time>2012-06-14T08:10:01.000Z</time>
      </trkpt>
      <trkpt lat="47.70757" lon="5.98573">
        <ele>400.6</ele>
        <time>2012-06-14T08:10:03.000Z</time>
      </trkpt>
      <trkpt lat="47.70763" lon="5.98575">
        <ele>400.6</ele>
        <time>2012-06-14T08:10:05.000Z</time>
      </trkpt>
      <trkpt lat="47.70772" lon="5.98581">
        <ele>400.5</ele>
        <time>2012-06-14T08:10:07.000Z</time>
      </trkpt>
      <trkpt lat="47.70779" lon="5.98585">
        <ele>400.2</ele>
        <time>2012-06-14T08:10:08.000Z</time>
      </trkpt>
      <trkpt lat="47.70784" lon="5.98588">
        <ele>400</ele>
        <time>2012-06-14T08:10:09.000Z</time>
      </trkpt>
      <trkpt lat="47.70789" lon="5.98592">
        <ele>399.8</ele>
        <time>2012-06-14T08:10:10.000Z</time>
      </trkpt>
      <trkpt lat="47.70794" lon="5.98595">
        <ele>399.7</ele>
        <time>2012-06-14T08:10:11.000Z</time>
      </trkpt>
      <trkpt lat="47.70798" lon="5.98597">
        <ele>399.6</ele>
        <time>2012-06-14T08:10:12.000Z</time>
      </trkpt>
      <trkpt lat="47.70804" lon="5.98598">
        <ele>399.4</ele>
        <time>2012-06-14T08:10:14.000Z</time>
      </trkpt>
      <trkpt lat="47.7081" lon="5.98598">
        <ele>399.3</ele>
        <time>2012-06-14T08:10:16.000Z</time>
      </trkpt>
      <trkpt lat="47.70815" lon="5.98597">
        <ele>399.5</ele>
        <time>2012-06-14T08:10:18.000Z</time>
      </trkpt>
      <trkpt lat="47.70825" lon="5.98597">
        <ele>397.6</ele>
        <time>2012-06-14T08:10:21.000Z</time>
      </trkpt>
      <trkpt lat="47.7083" lon="5.986">
        <ele>397.6</ele>
        <time>2012-06-14T08:10:22.000Z</time>
      </trkpt>
      <trkpt lat="47.70838" lon="5.98602">
        <ele>398.1</ele>
        <time>2012-06-14T08:10:24.000Z</time>
      </trkpt>
      <trkpt lat="47.70844" lon="5.98602">
        <ele>398</ele>
        <time>2012-06-14T08:10:25.000Z</time>
      </trkpt>
      <trkpt lat="47.70849" lon="5.98601">
        <ele>398.3</ele>
        <time>2012-06-14T08:10:26.000Z</time>
      </trkpt>
      <trkpt lat="47.70854" lon="5.98601">
        <ele>398.7</ele>
        <time>2012-06-14T08:10:27.000Z</time>
      </trkpt>
      <trkpt lat="47.70859" lon="5.98602">
        <ele>399.2</ele>
        <time>2012-06-14T08:10:28.000Z</time>
      </trkpt>
      <trkpt lat="47.70864" lon="5.98601">
        <ele>399.3</ele>
        <time>2012-06-14T08:10:29.000Z</time>
      </trkpt>
      <trkpt lat="47.70872" lon="5.98597">
        <ele>399.5</ele>
        <time>2012-06-14T08:10:31.000Z</time>
      </trkpt>
      <trkpt lat="47.70876" lon="5.98595">
        <ele>400.1</ele>
        <time>2012-06-14T08:10:32.000Z</time>
      </trkpt>
      <trkpt lat="47.70886" lon="5.98595">
        <ele>400.8</ele>
        <time>2012-06-14T08:10:34.000Z</time>
      </trkpt>
      <trkpt lat="47.70895" lon="5.98594">
        <ele>401.3</ele>
        <time>2012-06-14T08:10:35.000Z</time>
      </trkpt>
      <trkpt lat="47.70909" lon="5.98593">
        <ele>402.3</ele>
        <time>2012-06-14T08:10:36.000Z</time>
      </trkpt>
      <trkpt lat="47.70923" lon="5.9859">
        <ele>403.3</ele>
        <time>2012-06-14T08:10:37.000Z</time>
      </trkpt>
      <trkpt lat="47.70935" lon="5.98586">
        <ele>404.4</ele>
        <time>2012-06-14T08:10:38.000Z</time>
      </trkpt>
      <trkpt lat="47.70945" lon="5.98586">
        <ele>404.7</ele>
        <time>2012-06-14T08:10:39.000Z</time>
      </trkpt>
      <trkpt lat="47.70954" lon="5.98586">
        <ele>404.4</ele>
        <time>2012-06-14T08:10:40.000Z</time>
      </trkpt>
      <trkpt lat="47.70959" lon="5.9858">
        <ele>404.8</ele>
        <time>2012-06-14T08:10:41.000Z</time>
      </trkpt>
      <trkpt lat="47.70967" lon="5.98577">
        <ele>404.9</ele>
        <time>2012-06-14T08:10:42.000Z</time>
      </trkpt>
      <trkpt lat="47.70973" lon="5.98573">
        <ele>405.9</ele>
        <time>2012-06-14T08:10:43.000Z</time>
      </trkpt>
      <trkpt lat="47.70982" lon="5.98565">
        <ele>406.8</ele>
        <time>2012-06-14T08:10:44.000Z</time>
      </trkpt>
      <trkpt lat="47.70991" lon="5.98559">
        <ele>407.6</ele>
        <time>2012-06-14T08:10:45.000Z</time>
      </trkpt>
      <trkpt lat="47.71" lon="5.98548">
        <ele>408.7</ele>
        <time>2012-06-14T08:10:46.000Z</time>
      </trkpt>
      <trkpt lat="47.71107" lon="5.98451">
        <ele>406.2</ele>
        <time>2012-06-14T08:10:58.000Z</time>
      </trkpt>
      <trkpt lat="47.71114" lon="5.98442">
        <ele>397.1</ele>
        <time>2012-06-14T08:10:59.000Z</time>
      </trkpt>
      <trkpt lat="47.71123" lon="5.98435">
        <ele>390.7</ele>
        <time>2012-06-14T08:11:00.000Z</time>
      </trkpt>
      <trkpt lat="47.7113" lon="5.98433">
        <ele>391</ele>
        <time>2012-06-14T08:11:01.000Z</time>
      </trkpt>
      <trkpt lat="47.71136" lon="5.98432">
        <ele>394.1</ele>
        <time>2012-06-14T08:11:02.000Z</time>
      </trkpt>
      <trkpt lat="47.7114" lon="5.98432">
        <ele>397.3</ele>
        <time>2012-06-14T08:11:03.000Z</time>
      </trkpt>
      <trkpt lat="47.71148" lon="5.98431">
        <ele>404.2</ele>
        <time>2012-06-14T08:11:05.000Z</time>
      </trkpt>
      <trkpt lat="47.71154" lon="5.98433">
        <ele>412</ele>
        <time>2012-06-14T08:11:07.000Z</time>
      </trkpt>
      <trkpt lat="47.71159" lon="5.98428">
        <ele>403.9</ele>
        <time>2012-06-14T08:11:09.000Z</time>
      </trkpt>
      <trkpt lat="47.71165" lon="5.98427">
        <ele>392.7</ele>
        <time>2012-06-14T08:11:11.000Z</time>
      </trkpt>
      <trkpt lat="47.71171" lon="5.98435">
        <ele>394.2</ele>
        <time>2012-06-14T08:11:13.000Z</time>
      </trkpt>
      <trkpt lat="47.71175" lon="5.98439">
        <ele>395.4</ele>
        <time>2012-06-14T08:11:14.000Z</time>
      </trkpt>
      <trkpt lat="47.7118" lon="5.98444">
        <ele>398.2</ele>
        <time>2012-06-14T08:11:16.000Z</time>
      </trkpt>
      <trkpt lat="47.71186" lon="5.98453">
        <ele>400.1</ele>
        <time>2012-06-14T08:11:18.000Z</time>
      </trkpt>
      <trkpt lat="47.7119" lon="5.98462">
        <ele>403.7</ele>
        <time>2012-06-14T08:11:20.000Z</time>
      </trkpt>
      <trkpt lat="47.71196" lon="5.98466">
        <ele>405.2</ele>
        <time>2012-06-14T08:11:22.000Z</time>
      </trkpt>
      <trkpt lat="47.71201" lon="5.9847">
        <ele>406.8</ele>
        <time>2012-06-14T08:11:24.000Z</time>
      </trkpt>
      <trkpt lat="47.71207" lon="5.98474">
        <ele>403.9</ele>
        <time>2012-06-14T08:11:26.000Z</time>
      </trkpt>
      <trkpt lat="47.71214" lon="5.98478">
        <ele>397.5</ele>
        <time>2012-06-14T08:11:30.000Z</time>
      </trkpt>
      <trkpt lat="47.71218" lon="5.9848">
        <ele>396.7</ele>
        <time>2012-06-14T08:11:31.000Z</time>
      </trkpt>
      <trkpt lat="47.71225" lon="5.98478">
        <ele>394.8</ele>
        <time>2012-06-14T08:11:33.000Z</time>
      </trkpt>
      <trkpt lat="47.71231" lon="5.98479">
        <ele>392.9</ele>
        <time>2012-06-14T08:11:36.000Z</time>
      </trkpt>
      <trkpt lat="47.71235" lon="5.98483">
        <ele>393</ele>
        <time>2012-06-14T08:11:37.000Z</time>
      </trkpt>
      <trkpt lat="47.7124" lon="5.98488">
        <ele>394</ele>
        <time>2012-06-14T08:11:38.000Z</time>
      </trkpt>
      <trkpt lat="47.71247" lon="5.98492">
        <ele>394.2</ele>
        <time>2012-06-14T08:11:39.000Z</time>
      </trkpt>
      <trkpt lat="47.71254" lon="5.98499">
        <ele>394.6</ele>
        <time>2012-06-14T08:11:40.000Z</time>
      </trkpt>
      <trkpt lat="47.71261" lon="5.98508">
        <ele>393.8</ele>
        <time>2012-06-14T08:11:41.000Z</time>
      </trkpt>
      <trkpt lat="47.71268" lon="5.98517">
        <ele>393.6</ele>
        <time>2012-06-14T08:11:42.000Z</time>
      </trkpt>
      <trkpt lat="47.71278" lon="5.98526">
        <ele>393.8</ele>
        <time>2012-06-14T08:11:43.000Z</time>
      </trkpt>
      <trkpt lat="47.71288" lon="5.98535">
        <ele>393.6</ele>
        <time>2012-06-14T08:11:44.000Z</time>
      </trkpt>
      <trkpt lat="47.713" lon="5.98546">
        <ele>393.9</ele>
        <time>2012-06-14T08:11:45.000Z</time>
      </trkpt>
      <trkpt lat="47.71309" lon="5.98553">
        <ele>394.2</ele>
        <time>2012-06-14T08:11:46.000Z</time>
      </trkpt>
      <trkpt lat="47.71316" lon="5.9856">
        <ele>394.5</ele>
        <time>2012-06-14T08:11:47.000Z</time>
      </trkpt>
      <trkpt lat="47.71325" lon="5.98566">
        <ele>394.8</ele>
        <time>2012-06-14T08:11:48.000Z</time>
      </trkpt>
      <trkpt lat="47.7133" lon="5.98569">
        <ele>395.7</ele>
        <time>2012-06-14T08:11:49.000Z</time>
      </trkpt>
      <trkpt lat="47.71335" lon="5.98573">
        <ele>395.8</ele>
        <time>2012-06-14T08:11:50.000Z</time>
      </trkpt>
      <trkpt lat="47.7134" lon="5.9857">
        <ele>396.4</ele>
        <time>2012-06-14T08:11:53.000Z</time>
      </trkpt>
      <trkpt lat="47.71344" lon="5.98566">
        <ele>397.6</ele>
        <time>2012-06-14T08:11:56.000Z</time>
      </trkpt>
      <trkpt lat="47.71349" lon="5.98566">
        <ele>398.8</ele>
        <time>2012-06-14T08:11:58.000Z</time>
      </trkpt>
      <trkpt lat="47.71355" lon="5.98565">
        <ele>399.8</ele>
        <time>2012-06-14T08:12:00.000Z</time>
      </trkpt>
      <trkpt lat="47.71359" lon="5.98564">
        <ele>400.1</ele>
        <time>2012-06-14T08:12:02.000Z</time>
      </trkpt>
      <trkpt lat="47.71364" lon="5.98563">
        <ele>399.6</ele>
        <time>2012-06-14T08:12:04.000Z</time>
      </trkpt>
      <trkpt lat="47.7137" lon="5.98563">
        <ele>399</ele>
        <time>2012-06-14T08:12:06.000Z</time>
      </trkpt>
      <trkpt lat="47.71376" lon="5.98561">
        <ele>397.7</ele>
        <time>2012-06-14T08:12:09.000Z</time>
      </trkpt>
      <trkpt lat="47.71384" lon="5.98562">
        <ele>396.6</ele>
        <time>2012-06-14T08:12:13.000Z</time>
      </trkpt>
      <trkpt lat="47.71389" lon="5.98563">
        <ele>396.4</ele>
        <time>2012-06-14T08:12:14.000Z</time>
      </trkpt>
      <trkpt lat="47.71394" lon="5.98565">
        <ele>395.9</ele>
        <time>2012-06-14T08:12:16.000Z</time>
      </trkpt>
      <trkpt lat="47.714" lon="5.98565">
        <ele>396.8</ele>
        <time>2012-06-14T08:12:19.000Z</time>
      </trkpt>
      <trkpt lat="47.714" lon="5.98565">
        <ele>396.8</ele>
        <time>2012-06-14T08:12:19.000Z</time>
      </trkpt>
      <trkpt lat="47.714" lon="5.98565">
        <ele>396.8</ele>
        <time>2012-06-14T08:12:26.000Z</time>
      </trkpt>
      <trkpt lat="47.71416" lon="5.98555">
        <ele>398.8</ele>
        <time>2012-06-14T08:12:27.000Z</time>
      </trkpt>
      <trkpt lat="47.71421" lon="5.98555">
        <ele>397.8</ele>
        <time>2012-06-14T08:12:29.000Z</time>
      </trkpt>
      <trkpt lat="47.71426" lon="5.98555">
        <ele>396.7</ele>
        <time>2012-06-14T08:12:31.000Z</time>
      </trkpt>
      <trkpt lat="47.71433" lon="5.98553">
        <ele>396.1</ele>
        <time>2012-06-14T08:12:33.000Z</time>
      </trkpt>
      <trkpt lat="47.71441" lon="5.98549">
        <ele>395.9</ele>
        <time>2012-06-14T08:12:35.000Z</time>
      </trkpt>
      <trkpt lat="47.71447" lon="5.98543">
        <ele>395.8</ele>
        <time>2012-06-14T08:12:37.000Z</time>
      </trkpt>
      <trkpt lat="47.71454" lon="5.98538">
        <ele>396.1</ele>
        <time>2012-06-14T08:12:39.000Z</time>
      </trkpt>
      <trkpt lat="47.71459" lon="5.98535">
        <ele>395.7</ele>
        <time>2012-06-14T08:12:40.000Z</time>
      </trkpt>
      <trkpt lat="47.71465" lon="5.98533">
        <ele>395.6</ele>
        <time>2012-06-14T08:12:41.000Z</time>
      </trkpt>
      <trkpt lat="47.71472" lon="5.98539">
        <ele>394.4</ele>
        <time>2012-06-14T08:12:43.000Z</time>
      </trkpt>
      <trkpt lat="47.71479" lon="5.98535">
        <ele>394.1</ele>
        <time>2012-06-14T08:12:46.000Z</time>
      </trkpt>
      <trkpt lat="47.71519" lon="5.9854">
        <ele>424.2</ele>
        <time>2012-06-14T08:13:06.000Z</time>
      </trkpt>
      <trkpt lat="47.71523" lon="5.98543">
        <ele>426.8</ele>
        <time>2012-06-14T08:13:08.000Z</time>
      </trkpt>
      <trkpt lat="47.71527" lon="5.98546">
        <ele>428.2</ele>
        <time>2012-06-14T08:13:10.000Z</time>
      </trkpt>
      <trkpt lat="47.71532" lon="5.98551">
        <ele>431.3</ele>
        <time>2012-06-14T08:13:13.000Z</time>
      </trkpt>
      <trkpt lat="47.71537" lon="5.98555">
        <ele>432.9</ele>
        <time>2012-06-14T08:13:15.000Z</time>
      </trkpt>
      <trkpt lat="47.71541" lon="5.98559">
        <ele>434.7</ele>
        <time>2012-06-14T08:13:18.000Z</time>
      </trkpt>
      <trkpt lat="47.71546" lon="5.98563">
        <ele>438.8</ele>
        <time>2012-06-14T08:13:21.000Z</time>
      </trkpt>
      <trkpt lat="47.71551" lon="5.98567">
        <ele>437.8</ele>
        <time>2012-06-14T08:13:23.000Z</time>
      </trkpt>
      <trkpt lat="47.71557" lon="5.98571">
        <ele>433.7</ele>
        <time>2012-06-14T08:13:25.000Z</time>
      </trkpt>
      <trkpt lat="47.71562" lon="5.98573">
        <ele>431.6</ele>
        <time>2012-06-14T08:13:26.000Z</time>
      </trkpt>
      <trkpt lat="47.71568" lon="5.98577">
        <ele>428.6</ele>
        <time>2012-06-14T08:13:28.000Z</time>
      </trkpt>
      <trkpt lat="47.71574" lon="5.98579">
        <ele>425.7</ele>
        <time>2012-06-14T08:13:30.000Z</time>
      </trkpt>
      <trkpt lat="47.71578" lon="5.98581">
        <ele>424.4</ele>
        <time>2012-06-14T08:13:31.000Z</time>
      </trkpt>
      <trkpt lat="47.71586" lon="5.98584">
        <ele>422.8</ele>
        <time>2012-06-14T08:13:33.000Z</time>
      </trkpt>
      <trkpt lat="47.71592" lon="5.98589">
        <ele>420.4</ele>
        <time>2012-06-14T08:13:35.000Z</time>
      </trkpt>
      <trkpt lat="47.71598" lon="5.98592">
        <ele>419.5</ele>
        <time>2012-06-14T08:13:37.000Z</time>
      </trkpt>
      <trkpt lat="47.71604" lon="5.98596">
        <ele>418.6</ele>
        <time>2012-06-14T08:13:39.000Z</time>
      </trkpt>
      <trkpt lat="47.71608" lon="5.98599">
        <ele>417.3</ele>
        <time>2012-06-14T08:13:41.000Z</time>
      </trkpt>
      <trkpt lat="47.71613" lon="5.98602">
        <ele>417.8</ele>
        <time>2012-06-14T08:13:43.000Z</time>
      </trkpt>
      <trkpt lat="47.71618" lon="5.98606">
        <ele>416.8</ele>
        <time>2012-06-14T08:13:46.000Z</time>
      </trkpt>
      <trkpt lat="47.71701" lon="5.98667">
        <ele>417.4</ele>
        <time>2012-06-14T08:14:17.000Z</time>
      </trkpt>
      <trkpt lat="47.71706" lon="5.98672">
        <ele>420.3</ele>
        <time>2012-06-14T08:14:19.000Z</time>
      </trkpt>
      <trkpt lat="47.71713" lon="5.98677">
        <ele>417.4</ele>
        <time>2012-06-14T08:14:21.000Z</time>
      </trkpt>
      <trkpt lat="47.7172" lon="5.98681">
        <ele>412</ele>
        <time>2012-06-14T08:14:23.000Z</time>
      </trkpt>
      <trkpt lat="47.71724" lon="5.98684">
        <ele>410.7</ele>
        <time>2012-06-14T08:14:25.000Z</time>
      </trkpt>
      <trkpt lat="47.71729" lon="5.98686">
        <ele>410.4</ele>
        <time>2012-06-14T08:14:27.000Z</time>
      </trkpt>
      <trkpt lat="47.71734" lon="5.98689">
        <ele>409.2</ele>
        <time>2012-06-14T08:14:29.000Z</time>
      </trkpt>
      <trkpt lat="47.71739" lon="5.98694">
        <ele>408.9</ele>
        <time>2012-06-14T08:14:31.000Z</time>
      </trkpt>
      <trkpt lat="47.71746" lon="5.987">
        <ele>408.1</ele>
        <time>2012-06-14T08:14:33.000Z</time>
      </trkpt>
      <trkpt lat="47.71752" lon="5.98707">
        <ele>407.8</ele>
        <time>2012-06-14T08:14:35.000Z</time>
      </trkpt>
      <trkpt lat="47.71756" lon="5.98712">
        <ele>407.8</ele>
        <time>2012-06-14T08:14:36.000Z</time>
      </trkpt>
      <trkpt lat="47.71761" lon="5.9872">
        <ele>407.8</ele>
        <time>2012-06-14T08:14:37.000Z</time>
      </trkpt>
      <trkpt lat="47.71767" lon="5.98726">
        <ele>407.4</ele>
        <time>2012-06-14T08:14:38.000Z</time>
      </trkpt>
      <trkpt lat="47.71773" lon="5.98733">
        <ele>407.4</ele>
        <time>2012-06-14T08:14:39.000Z</time>
      </trkpt>
      <trkpt lat="47.71778" lon="5.9874">
        <ele>407</ele>
        <time>2012-06-14T08:14:40.000Z</time>
      </trkpt>
      <trkpt lat="47.71782" lon="5.98746">
        <ele>406.5</ele>
        <time>2012-06-14T08:14:41.000Z</time>
      </trkpt>
      <trkpt lat="47.71786" lon="5.98752">
        <ele>406.2</ele>
        <time>2012-06-14T08:14:42.000Z</time>
      </trkpt>
      <trkpt lat="47.7179" lon="5.98759">
        <ele>405.4</ele>
        <time>2012-06-14T08:14:43.000Z</time>
      </trkpt>
      <trkpt lat="47.71795" lon="5.98764">
        <ele>405.1</ele>
        <time>2012-06-14T08:14:44.000Z</time>
      </trkpt>
      <trkpt lat="47.718" lon="5.98771">
        <ele>404.9</ele>
        <time>2012-06-14T08:14:45.000Z</time>
      </trkpt>
      <trkpt lat="47.71805" lon="5.98777">
        <ele>404.6</ele>
        <time>2012-06-14T08:14:46.000Z</time>
      </trkpt>
      <trkpt lat="47.71809" lon="5.98783">
        <ele>404.8</ele>
        <time>2012-06-14T08:14:47.000Z</time>
      </trkpt>
      <trkpt lat="47.71813" lon="5.98789">
        <ele>405.1</ele>
        <time>2012-06-14T08:14:48.000Z</time>
      </trkpt>
      <trkpt lat="47.71817" lon="5.98794">
        <ele>405.3</ele>
        <time>2012-06-14T08:14:49.000Z</time>
      </trkpt>
      <trkpt lat="47.71821" lon="5.988">
        <ele>405</ele>
        <time>2012-06-14T08:14:50.000Z</time>
      </trkpt>
      <trkpt lat="47.71825" lon="5.98805">
        <ele>404.9</ele>
        <time>2012-06-14T08:14:51.000Z</time>
      </trkpt>
      <trkpt lat="47.71829" lon="5.98809">
        <ele>404.6</ele>
        <time>2012-06-14T08:14:52.000Z</time>
      </trkpt>
      <trkpt lat="47.71832" lon="5.98814">
        <ele>404.4</ele>
        <time>2012-06-14T08:14:53.000Z</time>
      </trkpt>
      <trkpt lat="47.71838" lon="5.9882">
        <ele>404</ele>
        <time>2012-06-14T08:14:55.000Z</time>
      </trkpt>
      <trkpt lat="47.71844" lon="5.98828">
        <ele>403.6</ele>
        <time>2012-06-14T08:14:57.000Z</time>
      </trkpt>
      <trkpt lat="47.71851" lon="5.98835">
        <ele>402.8</ele>
        <time>2012-06-14T08:14:59.000Z</time>
      </trkpt>
      <trkpt lat="47.71855" lon="5.98841">
        <ele>402</ele>
        <time>2012-06-14T08:15:01.000Z</time>
      </trkpt>
      <trkpt lat="47.71859" lon="5.98846">
        <ele>401.8</ele>
        <time>2012-06-14T08:15:03.000Z</time>
      </trkpt>
      <trkpt lat="47.71862" lon="5.98854">
        <ele>401</ele>
        <time>2012-06-14T08:15:05.000Z</time>
      </trkpt>
      <trkpt lat="47.71867" lon="5.9886">
        <ele>400.2</ele>
        <time>2012-06-14T08:15:07.000Z</time>
      </trkpt>
      <trkpt lat="47.71873" lon="5.98866">
        <ele>399.7</ele>
        <time>2012-06-14T08:15:09.000Z</time>
      </trkpt>
      <trkpt lat="47.71877" lon="5.98869">
        <ele>399.8</ele>
        <time>2012-06-14T08:15:11.000Z</time>
      </trkpt>
      <trkpt lat="47.71881" lon="5.98874">
        <ele>398.9</ele>
        <time>2012-06-14T08:15:15.000Z</time>
      </trkpt>
      <trkpt lat="47.71884" lon="5.98879">
        <ele>399.4</ele>
        <time>2012-06-14T08:15:17.000Z</time>
      </trkpt>
      <trkpt lat="47.71888" lon="5.98886">
        <ele>399.3</ele>
        <time>2012-06-14T08:15:20.000Z</time>
      </trkpt>
      <trkpt lat="47.71892" lon="5.98892">
        <ele>399.2</ele>
        <time>2012-06-14T08:15:23.000Z</time>
      </trkpt>
      <trkpt lat="47.71895" lon="5.98896">
        <ele>398.8</ele>
        <time>2012-06-14T08:15:25.000Z</time>
      </trkpt>
      <trkpt lat="47.71896" lon="5.98903">
        <ele>398.4</ele>
        <time>2012-06-14T08:15:28.000Z</time>
      </trkpt>
      <trkpt lat="47.719" lon="5.98909">
        <ele>398.1</ele>
        <time>2012-06-14T08:15:31.000Z</time>
      </trkpt>
      <trkpt lat="47.71903" lon="5.98916">
        <ele>398.1</ele>
        <time>2012-06-14T08:15:34.000Z</time>
      </trkpt>
      <trkpt lat="47.71906" lon="5.98924">
        <ele>398.2</ele>
        <time>2012-06-14T08:15:37.000Z</time>
      </trkpt>
      <trkpt lat="47.71911" lon="5.9893">
        <ele>398.2</ele>
        <time>2012-06-14T08:15:39.000Z</time>
      </trkpt>
      <trkpt lat="47.71914" lon="5.98936">
        <ele>398.2</ele>
        <time>2012-06-14T08:15:42.000Z</time>
      </trkpt>
      <trkpt lat="47.71918" lon="5.98944">
        <ele>398.8</ele>
        <time>2012-06-14T08:15:45.000Z</time>
      </trkpt>
      <trkpt lat="47.71973" lon="5.99">
        <ele>420.7</ele>
        <time>2012-06-14T08:16:13.000Z</time>
      </trkpt>
      <trkpt lat="47.71978" lon="5.99002">
        <ele>424.2</ele>
        <time>2012-06-14T08:16:15.000Z</time>
      </trkpt>
      <trkpt lat="47.71983" lon="5.99002">
        <ele>425.1</ele>
        <time>2012-06-14T08:16:17.000Z</time>
      </trkpt>
      <trkpt lat="47.71988" lon="5.99004">
        <ele>428.9</ele>
        <time>2012-06-14T08:16:19.000Z</time>
      </trkpt>
      <trkpt lat="47.71993" lon="5.99006">
        <ele>430</ele>
        <time>2012-06-14T08:16:21.000Z</time>
      </trkpt>
      <trkpt lat="47.71998" lon="5.99008">
        <ele>427.2</ele>
        <time>2012-06-14T08:16:23.000Z</time>
      </trkpt>
      <trkpt lat="47.72004" lon="5.9901">
        <ele>424.7</ele>
        <time>2012-06-14T08:16:25.000Z</time>
      </trkpt>
      <trkpt lat="47.7201" lon="5.99013">
        <ele>423.5</ele>
        <time>2012-06-14T08:16:27.000Z</time>
      </trkpt>
      <trkpt lat="47.72016" lon="5.99016">
        <ele>422.9</ele>
        <time>2012-06-14T08:16:29.000Z</time>
      </trkpt>
      <trkpt lat="47.72023" lon="5.9902">
        <ele>422.6</ele>
        <time>2012-06-14T08:16:31.000Z</time>
      </trkpt>
      <trkpt lat="47.7203" lon="5.99026">
        <ele>421.3</ele>
        <time>2012-06-14T08:16:33.000Z</time>
      </trkpt>
      <trkpt lat="47.72037" lon="5.9903">
        <ele>421.2</ele>
        <time>2012-06-14T08:16:35.000Z</time>
      </trkpt>
      <trkpt lat="47.72041" lon="5.99033">
        <ele>421.5</ele>
        <time>2012-06-14T08:16:36.000Z</time>
      </trkpt>
      <trkpt lat="47.72048" lon="5.99036">
        <ele>421.7</ele>
        <time>2012-06-14T08:16:38.000Z</time>
      </trkpt>
      <trkpt lat="47.72056" lon="5.9904">
        <ele>421.3</ele>
        <time>2012-06-14T08:16:40.000Z</time>
      </trkpt>
      <trkpt lat="47.72061" lon="5.99042">
        <ele>421.4</ele>
        <time>2012-06-14T08:16:41.000Z</time>
      </trkpt>
      <trkpt lat="47.72065" lon="5.99045">
        <ele>421.7</ele>
        <time>2012-06-14T08:16:42.000Z</time>
      </trkpt>
      <trkpt lat="47.7207" lon="5.99047">
        <ele>421.8</ele>
        <time>2012-06-14T08:16:43.000Z</time>
      </trkpt>
      <trkpt lat="47.72079" lon="5.99051">
        <ele>421.7</ele>
        <time>2012-06-14T08:16:45.000Z</time>
      </trkpt>
      <trkpt lat="47.72085" lon="5.99056">
        <ele>422</ele>
        <time>2012-06-14T08:16:47.000Z</time>
      </trkpt>
      <trkpt lat="47.72091" lon="5.99058">
        <ele>421.6</ele>
        <time>2012-06-14T08:16:49.000Z</time>
      </trkpt>
      <trkpt lat="47.72096" lon="5.9906">
        <ele>420.6</ele>
        <time>2012-06-14T08:16:51.000Z</time>
      </trkpt>
      <trkpt lat="47.72103" lon="5.99061">
        <ele>420.2</ele>
        <time>2012-06-14T08:16:53.000Z</time>
      </trkpt>
      <trkpt lat="47.72109" lon="5.99063">
        <ele>420.2</ele>
        <time>2012-06-14T08:16:55.000Z</time>
      </trkpt>
      <trkpt lat="47.72116" lon="5.99065">
        <ele>420.3</ele>
        <time>2012-06-14T08:16:57.000Z</time>
      </trkpt>
      <trkpt lat="47.72122" lon="5.99067">
        <ele>419.9</ele>
        <time>2012-06-14T08:16:59.000Z</time>
      </trkpt>
      <trkpt lat="47.72129" lon="5.9907">
        <ele>420</ele>
        <time>2012-06-14T08:17:01.000Z</time>
      </trkpt>
      <trkpt lat="47.72136" lon="5.99073">
        <ele>419.6</ele>
        <time>2012-06-14T08:17:03.000Z</time>
      </trkpt>
      <trkpt lat="47.72144" lon="5.99077">
        <ele>419.2</ele>
        <time>2012-06-14T08:17:05.000Z</time>
      </trkpt>
      <trkpt lat="47.7215" lon="5.99081">
        <ele>418.3</ele>
        <time>2012-06-14T08:17:07.000Z</time>
      </trkpt>
      <trkpt lat="47.72156" lon="5.99083">
        <ele>417.5</ele>
        <time>2012-06-14T08:17:09.000Z</time>
      </trkpt>
      <trkpt lat="47.72164" lon="5.99087">
        <ele>418.3</ele>
        <time>2012-06-14T08:17:11.000Z</time>
      </trkpt>
      <trkpt lat="47.72169" lon="5.9909">
        <ele>419.4</ele>
        <time>2012-06-14T08:17:13.000Z</time>
      </trkpt>
      <trkpt lat="47.72174" lon="5.99094">
        <ele>418.6</ele>
        <time>2012-06-14T08:17:15.000Z</time>
      </trkpt>
      <trkpt lat="47.72179" lon="5.99099">
        <ele>418.5</ele>
        <time>2012-06-14T08:17:17.000Z</time>
      </trkpt>
      <trkpt lat="47.72185" lon="5.99102">
        <ele>417.5</ele>
        <time>2012-06-14T08:17:19.000Z</time>
      </trkpt>
      <trkpt lat="47.72191" lon="5.99107">
        <ele>417.9</ele>
        <time>2012-06-14T08:17:21.000Z</time>
      </trkpt>
      <trkpt lat="47.72197" lon="5.9911">
        <ele>416.2</ele>
        <time>2012-06-14T08:17:24.000Z</time>
      </trkpt>
      <trkpt lat="47.72201" lon="5.99113">
        <ele>415.8</ele>
        <time>2012-06-14T08:17:26.000Z</time>
      </trkpt>
      <trkpt lat="47.72206" lon="5.99116">
        <ele>415.7</ele>
        <time>2012-06-14T08:17:28.000Z</time>
      </trkpt>
      <trkpt lat="47.72211" lon="5.99119">
        <ele>415.1</ele>
        <time>2012-06-14T08:17:30.000Z</time>
      </trkpt>
      <trkpt lat="47.72216" lon="5.99124">
        <ele>414.3</ele>
        <time>2012-06-14T08:17:32.000Z</time>
      </trkpt>
      <trkpt lat="47.72221" lon="5.99129">
        <ele>414.3</ele>
        <time>2012-06-14T08:17:34.000Z</time>
      </trkpt>
      <trkpt lat="47.72226" lon="5.99134">
        <ele>414.6</ele>
        <time>2012-06-14T08:17:36.000Z</time>
      </trkpt>
      <trkpt lat="47.72233" lon="5.99139">
        <ele>414.8</ele>
        <time>2012-06-14T08:17:38.000Z</time>
      </trkpt>
      <trkpt lat="47.72238" lon="5.99143">
        <ele>415.1</ele>
        <time>2012-06-14T08:17:40.000Z</time>
      </trkpt>
      <trkpt lat="47.72244" lon="5.99147">
        <ele>415.4</ele>
        <time>2012-06-14T08:17:42.000Z</time>
      </trkpt>
      <trkpt lat="47.72249" lon="5.99151">
        <ele>415.6</ele>
        <time>2012-06-14T08:17:44.000Z</time>
      </trkpt>
      <trkpt lat="47.72254" lon="5.99156">
        <ele>415.4</ele>
        <time>2012-06-14T08:17:46.000Z</time>
      </trkpt>
      <trkpt lat="47.72333" lon="5.99218">
        <ele>394.4</ele>
        <time>2012-06-14T08:18:06.000Z</time>
      </trkpt>
      <trkpt lat="47.72338" lon="5.99222">
        <ele>399.4</ele>
        <time>2012-06-14T08:18:08.000Z</time>
      </trkpt>
      <trkpt lat="47.72354" lon="5.99234">
        <ele>414.1</ele>
        <time>2012-06-14T08:18:17.000Z</time>
      </trkpt>
      <trkpt lat="47.7236" lon="5.9924">
        <ele>418</ele>
        <time>2012-06-14T08:18:20.000Z</time>
      </trkpt>
      <trkpt lat="47.72364" lon="5.99243">
        <ele>419.3</ele>
        <time>2012-06-14T08:18:21.000Z</time>
      </trkpt>
      <trkpt lat="47.7237" lon="5.99246">
        <ele>416.2</ele>
        <time>2012-06-14T08:18:22.000Z</time>
      </trkpt>
      <trkpt lat="47.72377" lon="5.99249">
        <ele>412.6</ele>
        <time>2012-06-14T08:18:24.000Z</time>
      </trkpt>
      <trkpt lat="47.72385" lon="5.99252">
        <ele>411.1</ele>
        <time>2012-06-14T08:18:26.000Z</time>
      </trkpt>
      <trkpt lat="47.72393" lon="5.99255">
        <ele>411.5</ele>
        <time>2012-06-14T08:18:28.000Z</time>
      </trkpt>
      <trkpt lat="47.72397" lon="5.99256">
        <ele>411.1</ele>
        <time>2012-06-14T08:18:29.000Z</time>
      </trkpt>
      <trkpt lat="47.72402" lon="5.99257">
        <ele>411.1</ele>
        <time>2012-06-14T08:18:30.000Z</time>
      </trkpt>
      <trkpt lat="47.72407" lon="5.99259">
        <ele>410.6</ele>
        <time>2012-06-14T08:18:31.000Z</time>
      </trkpt>
      <trkpt lat="47.72411" lon="5.9926">
        <ele>410.2</ele>
        <time>2012-06-14T08:18:32.000Z</time>
      </trkpt>
      <trkpt lat="47.72419" lon="5.99263">
        <ele>410.8</ele>
        <time>2012-06-14T08:18:34.000Z</time>
      </trkpt>
      <trkpt lat="47.72428" lon="5.99266">
        <ele>410.5</ele>
        <time>2012-06-14T08:18:36.000Z</time>
      </trkpt>
      <trkpt lat="47.72434" lon="5.99269">
        <ele>409.9</ele>
        <time>2012-06-14T08:18:37.000Z</time>
      </trkpt>
      <trkpt lat="47.7244" lon="5.99273">
        <ele>409.5</ele>
        <time>2012-06-14T08:18:38.000Z</time>
      </trkpt>
      <trkpt lat="47.72448" lon="5.99276">
        <ele>409.2</ele>
        <time>2012-06-14T08:18:39.000Z</time>
      </trkpt>
      <trkpt lat="47.72454" lon="5.9928">
        <ele>409</ele>
        <time>2012-06-14T08:18:40.000Z</time>
      </trkpt>
      <trkpt lat="47.72461" lon="5.99284">
        <ele>409.2</ele>
        <time>2012-06-14T08:18:41.000Z</time>
      </trkpt>
      <trkpt lat="47.72467" lon="5.99288">
        <ele>409.5</ele>
        <time>2012-06-14T08:18:42.000Z</time>
      </trkpt>
      <trkpt lat="47.72473" lon="5.99294">
        <ele>409.7</ele>
        <time>2012-06-14T08:18:43.000Z</time>
      </trkpt>
      <trkpt lat="47.72478" lon="5.99297">
        <ele>409.9</ele>
        <time>2012-06-14T08:18:44.000Z</time>
      </trkpt>
      <trkpt lat="47.72483" lon="5.99299">
        <ele>409.7</ele>
        <time>2012-06-14T08:18:45.000Z</time>
      </trkpt>
      <trkpt lat="47.7249" lon="5.99302">
        <ele>409.9</ele>
        <time>2012-06-14T08:18:46.000Z</time>
      </trkpt>
      <trkpt lat="47.72618" lon="5.99373">
        <ele>409.1</ele>
        <time>2012-06-14T08:19:06.000Z</time>
      </trkpt>
      <trkpt lat="47.72623" lon="5.99375">
        <ele>410.2</ele>
        <time>2012-06-14T08:19:08.000Z</time>
      </trkpt>
      <trkpt lat="47.72629" lon="5.99378">
        <ele>414.9</ele>
        <time>2012-06-14T08:19:10.000Z</time>
      </trkpt>
      <trkpt lat="47.72635" lon="5.99381">
        <ele>425.3</ele>
        <time>2012-06-14T08:19:13.000Z</time>
      </trkpt>
      <trkpt lat="47.72642" lon="5.99382">
        <ele>425.7</ele>
        <time>2012-06-14T08:19:15.000Z</time>
      </trkpt>
      <trkpt lat="47.72646" lon="5.99382">
        <ele>429.1</ele>
        <time>2012-06-14T08:19:17.000Z</time>
      </trkpt>
      <trkpt lat="47.72653" lon="5.99383">
        <ele>433.8</ele>
        <time>2012-06-14T08:19:20.000Z</time>
      </trkpt>
      <trkpt lat="47.72658" lon="5.99385">
        <ele>434.9</ele>
        <time>2012-06-14T08:19:22.000Z</time>
      </trkpt>
      <trkpt lat="47.72665" lon="5.99387">
        <ele>432.9</ele>
        <time>2012-06-14T08:19:24.000Z</time>
      </trkpt>
      <trkpt lat="47.7267" lon="5.99386">
        <ele>428.4</ele>
        <time>2012-06-14T08:19:25.000Z</time>
      </trkpt>
      <trkpt lat="47.72677" lon="5.99386">
        <ele>426.7</ele>
        <time>2012-06-14T08:19:27.000Z</time>
      </trkpt>
      <trkpt lat="47.72684" lon="5.99389">
        <ele>425.5</ele>
        <time>2012-06-14T08:19:29.000Z</time>
      </trkpt>
      <trkpt lat="47.72692" lon="5.9939">
        <ele>424.2</ele>
        <time>2012-06-14T08:19:31.000Z</time>
      </trkpt>
      <trkpt lat="47.72698" lon="5.9939">
        <ele>423.5</ele>
        <time>2012-06-14T08:19:33.000Z</time>
      </trkpt>
      <trkpt lat="47.72705" lon="5.9939">
        <ele>422</ele>
        <time>2012-06-14T08:19:35.000Z</time>
      </trkpt>
      <trkpt lat="47.72713" lon="5.99393">
        <ele>418.5</ele>
        <time>2012-06-14T08:19:37.000Z</time>
      </trkpt>
      <trkpt lat="47.72721" lon="5.99396">
        <ele>417.2</ele>
        <time>2012-06-14T08:19:39.000Z</time>
      </trkpt>
      <trkpt lat="47.72725" lon="5.99396">
        <ele>416</ele>
        <time>2012-06-14T08:19:40.000Z</time>
      </trkpt>
      <trkpt lat="47.7273" lon="5.99398">
        <ele>415.8</ele>
        <time>2012-06-14T08:19:41.000Z</time>
      </trkpt>
      <trkpt lat="47.72736" lon="5.99398">
        <ele>415.1</ele>
        <time>2012-06-14T08:19:43.000Z</time>
      </trkpt>
      <trkpt lat="47.72742" lon="5.994">
        <ele>413.4</ele>
        <time>2012-06-14T08:19:45.000Z</time>
      </trkpt>
      <trkpt lat="47.72811" lon="5.99454">
        <ele>386.2</ele>
        <time>2012-06-14T08:19:55.000Z</time>
      </trkpt>
      <trkpt lat="47.72822" lon="5.99454">
        <ele>369.9</ele>
        <time>2012-06-14T08:19:56.000Z</time>
      </trkpt>
      <trkpt lat="47.7282" lon="5.99438">
        <ele>372.3</ele>
        <time>2012-06-14T08:19:57.000Z</time>
      </trkpt>
      <trkpt lat="47.72823" lon="5.99444">
        <ele>370.7</ele>
        <time>2012-06-14T08:19:58.000Z</time>
      </trkpt>
      <trkpt lat="47.72826" lon="5.99428">
        <ele>371.8</ele>
        <time>2012-06-14T08:19:59.000Z</time>
      </trkpt>
      <trkpt lat="47.72819" lon="5.99421">
        <ele>378.1</ele>
        <time>2012-06-14T08:20:00.000Z</time>
      </trkpt>
      <trkpt lat="47.72853" lon="5.99419">
        <ele>397.1</ele>
        <time>2012-06-14T08:20:10.000Z</time>
      </trkpt>
      <trkpt lat="47.72859" lon="5.99419">
        <ele>402.3</ele>
        <time>2012-06-14T08:20:12.000Z</time>
      </trkpt>
      <trkpt lat="47.72866" lon="5.99418">
        <ele>406.9</ele>
        <time>2012-06-14T08:20:14.000Z</time>
      </trkpt>
      <trkpt lat="47.72872" lon="5.99418">
        <ele>411</ele>
        <time>2012-06-14T08:20:16.000Z</time>
      </trkpt>
      <trkpt lat="47.72879" lon="5.99418">
        <ele>417.7</ele>
        <time>2012-06-14T08:20:19.000Z</time>
      </trkpt>
      <trkpt lat="47.72884" lon="5.99418">
        <ele>420.8</ele>
        <time>2012-06-14T08:20:21.000Z</time>
      </trkpt>
      <trkpt lat="47.72891" lon="5.99421">
        <ele>419.2</ele>
        <time>2012-06-14T08:20:23.000Z</time>
      </trkpt>
      <trkpt lat="47.72896" lon="5.99422">
        <ele>417.4</ele>
        <time>2012-06-14T08:20:24.000Z</time>
      </trkpt>
      <trkpt lat="47.72905" lon="5.99424">
        <ele>416.7</ele>
        <time>2012-06-14T08:20:26.000Z</time>
      </trkpt>
      <trkpt lat="47.7291" lon="5.99426">
        <ele>416.9</ele>
        <time>2012-06-14T08:20:27.000Z</time>
      </trkpt>
      <trkpt lat="47.72914" lon="5.99427">
        <ele>415.7</ele>
        <time>2012-06-14T08:20:28.000Z</time>
      </trkpt>
      <trkpt lat="47.72919" lon="5.99429">
        <ele>415.4</ele>
        <time>2012-06-14T08:20:29.000Z</time>
      </trkpt>
      <trkpt lat="47.72928" lon="5.99432">
        <ele>413.4</ele>
        <time>2012-06-14T08:20:31.000Z</time>
      </trkpt>
      <trkpt lat="47.72933" lon="5.99435">
        <ele>412.8</ele>
        <time>2012-06-14T08:20:32.000Z</time>
      </trkpt>
      <trkpt lat="47.72938" lon="5.99438">
        <ele>412.5</ele>
        <time>2012-06-14T08:20:33.000Z</time>
      </trkpt>
      <trkpt lat="47.72944" lon="5.99441">
        <ele>411.6</ele>
        <time>2012-06-14T08:20:34.000Z</time>
      </trkpt>
      <trkpt lat="47.72949" lon="5.99443">
        <ele>410.7</ele>
        <time>2012-06-14T08:20:35.000Z</time>
      </trkpt>
      <trkpt lat="47.72954" lon="5.99445">
        <ele>409.4</ele>
        <time>2012-06-14T08:20:36.000Z</time>
      </trkpt>
      <trkpt lat="47.7296" lon="5.99448">
        <ele>408.4</ele>
        <time>2012-06-14T08:20:37.000Z</time>
      </trkpt>
      <trkpt lat="47.72964" lon="5.99451">
        <ele>408.2</ele>
        <time>2012-06-14T08:20:38.000Z</time>
      </trkpt>
      <trkpt lat="47.72969" lon="5.99454">
        <ele>407.3</ele>
        <time>2012-06-14T08:20:39.000Z</time>
      </trkpt>
      <trkpt lat="47.72974" lon="5.99456">
        <ele>405.4</ele>
        <time>2012-06-14T08:20:40.000Z</time>
      </trkpt>
      <trkpt lat="47.7298" lon="5.99459">
        <ele>404.4</ele>
        <time>2012-06-14T08:20:41.000Z</time>
      </trkpt>
      <trkpt lat="47.72986" lon="5.99464">
        <ele>404.7</ele>
        <time>2012-06-14T08:20:42.000Z</time>
      </trkpt>
      <trkpt lat="47.72992" lon="5.99469">
        <ele>404.4</ele>
        <time>2012-06-14T08:20:43.000Z</time>
      </trkpt>
      <trkpt lat="47.72998" lon="5.99474">
        <ele>404.1</ele>
        <time>2012-06-14T08:20:44.000Z</time>
      </trkpt>
      <trkpt lat="47.73003" lon="5.99477">
        <ele>403.4</ele>
        <time>2012-06-14T08:20:45.000Z</time>
      </trkpt>
      <trkpt lat="47.73008" lon="5.9948">
        <ele>403</ele>
        <time>2012-06-14T08:20:46.000Z</time>
      </trkpt>
      <trkpt lat="47.73013" lon="5.99482">
        <ele>402.2</ele>
        <time>2012-06-14T08:20:47.000Z</time>
      </trkpt>
      <trkpt lat="47.73018" lon="5.99484">
        <ele>401.5</ele>
        <time>2012-06-14T08:20:48.000Z</time>
      </trkpt>
      <trkpt lat="47.73023" lon="5.99487">
        <ele>401.4</ele>
        <time>2012-06-14T08:20:49.000Z</time>
      </trkpt>
      <trkpt lat="47.73029" lon="5.99491">
        <ele>401.7</ele>
        <time>2012-06-14T08:20:50.000Z</time>
      </trkpt>
      <trkpt lat="47.73035" lon="5.99497">
        <ele>401.6</ele>
        <time>2012-06-14T08:20:51.000Z</time>
      </trkpt>
      <trkpt lat="47.73042" lon="5.99503">
        <ele>401.7</ele>
        <time>2012-06-14T08:20:52.000Z</time>
      </trkpt>
      <trkpt lat="47.73049" lon="5.9951">
        <ele>401.5</ele>
        <time>2012-06-14T08:20:53.000Z</time>
      </trkpt>
      <trkpt lat="47.73056" lon="5.99517">
        <ele>401.2</ele>
        <time>2012-06-14T08:20:54.000Z</time>
      </trkpt>
      <trkpt lat="47.73063" lon="5.99524">
        <ele>400.5</ele>
        <time>2012-06-14T08:20:55.000Z</time>
      </trkpt>
      <trkpt lat="47.73071" lon="5.9953">
        <ele>399.7</ele>
        <time>2012-06-14T08:20:56.000Z</time>
      </trkpt>
      <trkpt lat="47.73078" lon="5.99536">
        <ele>398.9</ele>
        <time>2012-06-14T08:20:57.000Z</time>
      </trkpt>
      <trkpt lat="47.73086" lon="5.99542">
        <ele>397.7</ele>
        <time>2012-06-14T08:20:58.000Z</time>
      </trkpt>
      <trkpt lat="47.73095" lon="5.99551">
        <ele>395.6</ele>
        <time>2012-06-14T08:20:59.000Z</time>
      </trkpt>
      <trkpt lat="47.73102" lon="5.99557">
        <ele>394.1</ele>
        <time>2012-06-14T08:21:00.000Z</time>
      </trkpt>
      <trkpt lat="47.73107" lon="5.9956">
        <ele>393.6</ele>
        <time>2012-06-14T08:21:01.000Z</time>
      </trkpt>
      <trkpt lat="47.73112" lon="5.99562">
        <ele>393.2</ele>
        <time>2012-06-14T08:21:02.000Z</time>
      </trkpt>
      <trkpt lat="47.73119" lon="5.99566">
        <ele>392.4</ele>
        <time>2012-06-14T08:21:04.000Z</time>
      </trkpt>
      <trkpt lat="47.73126" lon="5.99569">
        <ele>392.3</ele>
        <time>2012-06-14T08:21:06.000Z</time>
      </trkpt>
      <trkpt lat="47.73134" lon="5.99572">
        <ele>391.6</ele>
        <time>2012-06-14T08:21:08.000Z</time>
      </trkpt>
      <trkpt lat="47.73139" lon="5.99574">
        <ele>391.4</ele>
        <time>2012-06-14T08:21:09.000Z</time>
      </trkpt>
      <trkpt lat="47.73144" lon="5.99575">
        <ele>391.2</ele>
        <time>2012-06-14T08:21:10.000Z</time>
      </trkpt>
      <trkpt lat="47.7315" lon="5.99576">
        <ele>391</ele>
        <time>2012-06-14T08:21:11.000Z</time>
      </trkpt>
      <trkpt lat="47.73155" lon="5.99576">
        <ele>390.9</ele>
        <time>2012-06-14T08:21:12.000Z</time>
      </trkpt>
      <trkpt lat="47.73161" lon="5.99577">
        <ele>390.6</ele>
        <time>2012-06-14T08:21:13.000Z</time>
      </trkpt>
      <trkpt lat="47.73168" lon="5.99578">
        <ele>390.1</ele>
        <time>2012-06-14T08:21:14.000Z</time>
      </trkpt>
      <trkpt lat="47.73175" lon="5.99579">
        <ele>390.3</ele>
        <time>2012-06-14T08:21:15.000Z</time>
      </trkpt>
      <trkpt lat="47.73181" lon="5.99579">
        <ele>390.5</ele>
        <time>2012-06-14T08:21:16.000Z</time>
      </trkpt>
      <trkpt lat="47.73189" lon="5.99578">
        <ele>390.4</ele>
        <time>2012-06-14T08:21:17.000Z</time>
      </trkpt>
      <trkpt lat="47.73195" lon="5.99576">
        <ele>390.3</ele>
        <time>2012-06-14T08:21:18.000Z</time>
      </trkpt>
      <trkpt lat="47.73202" lon="5.99574">
        <ele>390.1</ele>
        <time>2012-06-14T08:21:19.000Z</time>
      </trkpt>
      <trkpt lat="47.73208" lon="5.9957">
        <ele>389.9</ele>
        <time>2012-06-14T08:21:20.000Z</time>
      </trkpt>
      <trkpt lat="47.73214" lon="5.99567">
        <ele>389.8</ele>
        <time>2012-06-14T08:21:21.000Z</time>
      </trkpt>
      <trkpt lat="47.7322" lon="5.99564">
        <ele>389.4</ele>
        <time>2012-06-14T08:21:22.000Z</time>
      </trkpt>
      <trkpt lat="47.73226" lon="5.99562">
        <ele>389.2</ele>
        <time>2012-06-14T08:21:23.000Z</time>
      </trkpt>
      <trkpt lat="47.73232" lon="5.99558">
        <ele>389</ele>
        <time>2012-06-14T08:21:24.000Z</time>
      </trkpt>
      <trkpt lat="47.73239" lon="5.99554">
        <ele>388.8</ele>
        <time>2012-06-14T08:21:25.000Z</time>
      </trkpt>
      <trkpt lat="47.73245" lon="5.9955">
        <ele>388.8</ele>
        <time>2012-06-14T08:21:26.000Z</time>
      </trkpt>
      <trkpt lat="47.73251" lon="5.99547">
        <ele>388.7</ele>
        <time>2012-06-14T08:21:27.000Z</time>
      </trkpt>
      <trkpt lat="47.73257" lon="5.99544">
        <ele>388.6</ele>
        <time>2012-06-14T08:21:28.000Z</time>
      </trkpt>
      <trkpt lat="47.73264" lon="5.99543">
        <ele>388.7</ele>
        <time>2012-06-14T08:21:29.000Z</time>
      </trkpt>
      <trkpt lat="47.7327" lon="5.99543">
        <ele>388.7</ele>
        <time>2012-06-14T08:21:30.000Z</time>
      </trkpt>
      <trkpt lat="47.73277" lon="5.99542">
        <ele>388.6</ele>
        <time>2012-06-14T08:21:31.000Z</time>
      </trkpt>
      <trkpt lat="47.73285" lon="5.99541">
        <ele>388.7</ele>
        <time>2012-06-14T08:21:32.000Z</time>
      </trkpt>
      <trkpt lat="47.73293" lon="5.99541">
        <ele>388.7</ele>
        <time>2012-06-14T08:21:33.000Z</time>
      </trkpt>
      <trkpt lat="47.733" lon="5.99542">
        <ele>388.8</ele>
        <time>2012-06-14T08:21:34.000Z</time>
      </trkpt>
      <trkpt lat="47.73306" lon="5.99545">
        <ele>388.7</ele>
        <time>2012-06-14T08:21:35.000Z</time>
      </trkpt>
      <trkpt lat="47.73311" lon="5.99547">
        <ele>388.7</ele>
        <time>2012-06-14T08:21:36.000Z</time>
      </trkpt>
      <trkpt lat="47.73317" lon="5.9955">
        <ele>389</ele>
        <time>2012-06-14T08:21:37.000Z</time>
      </trkpt>
      <trkpt lat="47.73322" lon="5.99551">
        <ele>389.1</ele>
        <time>2012-06-14T08:21:38.000Z</time>
      </trkpt>
      <trkpt lat="47.73327" lon="5.99554">
        <ele>389.2</ele>
        <time>2012-06-14T08:21:39.000Z</time>
      </trkpt>
      <trkpt lat="47.73332" lon="5.99556">
        <ele>389.6</ele>
        <time>2012-06-14T08:21:40.000Z</time>
      </trkpt>
      <trkpt lat="47.73337" lon="5.99557">
        <ele>389.7</ele>
        <time>2012-06-14T08:21:41.000Z</time>
      </trkpt>
      <trkpt lat="47.73342" lon="5.99559">
        <ele>389.7</ele>
        <time>2012-06-14T08:21:42.000Z</time>
      </trkpt>
      <trkpt lat="47.73347" lon="5.99561">
        <ele>390</ele>
        <time>2012-06-14T08:21:43.000Z</time>
      </trkpt>
      <trkpt lat="47.73352" lon="5.99562">
        <ele>389.9</ele>
        <time>2012-06-14T08:21:44.000Z</time>
      </trkpt>
      <trkpt lat="47.73357" lon="5.99561">
        <ele>390</ele>
        <time>2012-06-14T08:21:45.000Z</time>
      </trkpt>
      <trkpt lat="47.73364" lon="5.9956">
        <ele>390</ele>
        <time>2012-06-14T08:21:46.000Z</time>
      </trkpt>
      <trkpt lat="47.73449" lon="5.9956">
        <ele>357.1</ele>
        <time>2012-06-14T08:21:56.000Z</time>
      </trkpt>
      <trkpt lat="47.73482" lon="5.99554">
        <ele>364.5</ele>
        <time>2012-06-14T08:22:09.000Z</time>
      </trkpt>
      <trkpt lat="47.73489" lon="5.99551">
        <ele>365.6</ele>
        <time>2012-06-14T08:22:11.000Z</time>
      </trkpt>
      <trkpt lat="47.73496" lon="5.99546">
        <ele>364.4</ele>
        <time>2012-06-14T08:22:13.000Z</time>
      </trkpt>
      <trkpt lat="47.73502" lon="5.99545">
        <ele>363.2</ele>
        <time>2012-06-14T08:22:14.000Z</time>
      </trkpt>
      <trkpt lat="47.73507" lon="5.99543">
        <ele>363.9</ele>
        <time>2012-06-14T08:22:15.000Z</time>
      </trkpt>
      <trkpt lat="47.73514" lon="5.99541">
        <ele>363.9</ele>
        <time>2012-06-14T08:22:16.000Z</time>
      </trkpt>
      <trkpt lat="47.73524" lon="5.99544">
        <ele>359.4</ele>
        <time>2012-06-14T08:22:17.000Z</time>
      </trkpt>
      <trkpt lat="47.73534" lon="5.99546">
        <ele>357.5</ele>
        <time>2012-06-14T08:22:18.000Z</time>
      </trkpt>
      <trkpt lat="47.73545" lon="5.99545">
        <ele>354</ele>
        <time>2012-06-14T08:22:19.000Z</time>
      </trkpt>
      <trkpt lat="47.73563" lon="5.99542">
        <ele>354.8</ele>
        <time>2012-06-14T08:22:20.000Z</time>
      </trkpt>
      <trkpt lat="47.73573" lon="5.99542">
        <ele>354.2</ele>
        <time>2012-06-14T08:22:21.000Z</time>
      </trkpt>
      <trkpt lat="47.73582" lon="5.99542">
        <ele>352.6</ele>
        <time>2012-06-14T08:22:22.000Z</time>
      </trkpt>
      <trkpt lat="47.7359" lon="5.99543">
        <ele>351.2</ele>
        <time>2012-06-14T08:22:23.000Z</time>
      </trkpt>
      <trkpt lat="47.73595" lon="5.99544">
        <ele>351.4</ele>
        <time>2012-06-14T08:22:24.000Z</time>
      </trkpt>
      <trkpt lat="47.73601" lon="5.99545">
        <ele>350.6</ele>
        <time>2012-06-14T08:22:25.000Z</time>
      </trkpt>
      <trkpt lat="47.73606" lon="5.99546">
        <ele>349.8</ele>
        <time>2012-06-14T08:22:26.000Z</time>
      </trkpt>
      <trkpt lat="47.73614" lon="5.99546">
        <ele>349.7</ele>
        <time>2012-06-14T08:22:28.000Z</time>
      </trkpt>
      <trkpt lat="47.73623" lon="5.99547">
        <ele>349.6</ele>
        <time>2012-06-14T08:22:30.000Z</time>
      </trkpt>
      <trkpt lat="47.7363" lon="5.9955">
        <ele>350.1</ele>
        <time>2012-06-14T08:22:32.000Z</time>
      </trkpt>
      <trkpt lat="47.73636" lon="5.99554">
        <ele>351</ele>
        <time>2012-06-14T08:22:34.000Z</time>
      </trkpt>
      <trkpt lat="47.73644" lon="5.99559">
        <ele>351.4</ele>
        <time>2012-06-14T08:22:36.000Z</time>
      </trkpt>
      <trkpt lat="47.73648" lon="5.99563">
        <ele>351.9</ele>
        <time>2012-06-14T08:22:37.000Z</time>
      </trkpt>
      <trkpt lat="47.73653" lon="5.9957">
        <ele>352</ele>
        <time>2012-06-14T08:22:39.000Z</time>
      </trkpt>
      <trkpt lat="47.73659" lon="5.99577">
        <ele>351.9</ele>
        <time>2012-06-14T08:22:41.000Z</time>
      </trkpt>
      <trkpt lat="47.73664" lon="5.99583">
        <ele>352.4</ele>
        <time>2012-06-14T08:22:44.000Z</time>
      </trkpt>
      <trkpt lat="47.7367" lon="5.9959">
        <ele>351.9</ele>
        <time>2012-06-14T08:22:46.000Z</time>
      </trkpt>
      <trkpt lat="47.73714" lon="5.99685">
        <ele>351.7</ele>
        <time>2012-06-14T08:23:06.000Z</time>
      </trkpt>
      <trkpt lat="47.73716" lon="5.99692">
        <ele>351.7</ele>
        <time>2012-06-14T08:23:07.000Z</time>
      </trkpt>
      <trkpt lat="47.73718" lon="5.997">
        <ele>351.8</ele>
        <time>2012-06-14T08:23:08.000Z</time>
      </trkpt>
      <trkpt lat="47.7372" lon="5.99708">
        <ele>351.6</ele>
        <time>2012-06-14T08:23:09.000Z</time>
      </trkpt>
      <trkpt lat="47.73722" lon="5.99715">
        <ele>351.4</ele>
        <time>2012-06-14T08:23:10.000Z</time>
      </trkpt>
      <trkpt lat="47.73724" lon="5.99723">
        <ele>351.5</ele>
        <time>2012-06-14T08:23:11.000Z</time>
      </trkpt>
      <trkpt lat="47.73726" lon="5.99735">
        <ele>352.4</ele>
        <time>2012-06-14T08:23:13.000Z</time>
      </trkpt>
      <trkpt lat="47.73728" lon="5.99746">
        <ele>353.1</ele>
        <time>2012-06-14T08:23:15.000Z</time>
      </trkpt>
      <trkpt lat="47.7373" lon="5.99758">
        <ele>352.9</ele>
        <time>2012-06-14T08:23:17.000Z</time>
      </trkpt>
      <trkpt lat="47.73732" lon="5.99769">
        <ele>351.9</ele>
        <time>2012-06-14T08:23:19.000Z</time>
      </trkpt>
      <trkpt lat="47.73734" lon="5.9978">
        <ele>351</ele>
        <time>2012-06-14T08:23:21.000Z</time>
      </trkpt>
      <trkpt lat="47.73736" lon="5.99793">
        <ele>350.8</ele>
        <time>2012-06-14T08:23:23.000Z</time>
      </trkpt>
      <trkpt lat="47.73738" lon="5.99806">
        <ele>350.6</ele>
        <time>2012-06-14T08:23:25.000Z</time>
      </trkpt>
      <trkpt lat="47.73738" lon="5.99813">
        <ele>350.5</ele>
        <time>2012-06-14T08:23:26.000Z</time>
      </trkpt>
      <trkpt lat="47.73739" lon="5.99821">
        <ele>350.4</ele>
        <time>2012-06-14T08:23:27.000Z</time>
      </trkpt>
      <trkpt lat="47.73739" lon="5.99829">
        <ele>350.3</ele>
        <time>2012-06-14T08:23:28.000Z</time>
      </trkpt>
      <trkpt lat="47.73739" lon="5.99836">
        <ele>350.2</ele>
        <time>2012-06-14T08:23:29.000Z</time>
      </trkpt>
      <trkpt lat="47.73738" lon="5.99843">
        <ele>350.2</ele>
        <time>2012-06-14T08:23:30.000Z</time>
      </trkpt>
      <trkpt lat="47.73737" lon="5.99851">
        <ele>350.3</ele>
        <time>2012-06-14T08:23:31.000Z</time>
      </trkpt>
      <trkpt lat="47.73736" lon="5.9986">
        <ele>350.4</ele>
        <time>2012-06-14T08:23:32.000Z</time>
      </trkpt>
      <trkpt lat="47.73735" lon="5.99868">
        <ele>350.5</ele>
        <time>2012-06-14T08:23:33.000Z</time>
      </trkpt>
      <trkpt lat="47.73734" lon="5.99876">
        <ele>350.6</ele>
        <time>2012-06-14T08:23:34.000Z</time>
      </trkpt>
      <trkpt lat="47.73734" lon="5.99885">
        <ele>350.9</ele>
        <time>2012-06-14T08:23:35.000Z</time>
      </trkpt>
      <trkpt lat="47.73734" lon="5.99896">
        <ele>350.7</ele>
        <time>2012-06-14T08:23:36.000Z</time>
      </trkpt>
      <trkpt lat="47.73734" lon="5.99906">
        <ele>350.7</ele>
        <time>2012-06-14T08:23:37.000Z</time>
      </trkpt>
      <trkpt lat="47.73734" lon="5.99916">
        <ele>350.6</ele>
        <time>2012-06-14T08:23:38.000Z</time>
      </trkpt>
      <trkpt lat="47.73732" lon="5.99926">
        <ele>350.6</ele>
        <time>2012-06-14T08:23:39.000Z</time>
      </trkpt>
      <trkpt lat="47.73732" lon="5.99937">
        <ele>350.8</ele>
        <time>2012-06-14T08:23:40.000Z</time>
      </trkpt>
      <trkpt lat="47.73731" lon="5.99947">
        <ele>350.9</ele>
        <time>2012-06-14T08:23:41.000Z</time>
      </trkpt>
      <trkpt lat="47.7373" lon="5.99956">
        <ele>350.7</ele>
        <time>2012-06-14T08:23:42.000Z</time>
      </trkpt>
      <trkpt lat="47.73728" lon="5.99964">
        <ele>350.5</ele>
        <time>2012-06-14T08:23:43.000Z</time>
      </trkpt>
      <trkpt lat="47.73727" lon="5.99973">
        <ele>350.4</ele>
        <time>2012-06-14T08:23:44.000Z</time>
      </trkpt>
      <trkpt lat="47.73726" lon="5.99981">
        <ele>350.2</ele>
        <time>2012-06-14T08:23:45.000Z</time>
      </trkpt>
      <trkpt lat="47.73725" lon="5.99989">
        <ele>350</ele>
        <time>2012-06-14T08:23:46.000Z</time>
      </trkpt>
      <trkpt lat="47.73725" lon="5.99996">
        <ele>349.5</ele>
        <time>2012-06-14T08:23:47.000Z</time>
      </trkpt>
      <trkpt lat="47.73728" lon="6.00006">
        <ele>348.8</ele>
        <time>2012-06-14T08:23:49.000Z</time>
      </trkpt>
      <trkpt lat="47.73736" lon="6.00012">
        <ele>349.2</ele>
        <time>2012-06-14T08:23:51.000Z</time>
      </trkpt>
      <trkpt lat="47.73741" lon="6.00016">
        <ele>349</ele>
        <time>2012-06-14T08:23:52.000Z</time>
      </trkpt>
      <trkpt lat="47.73748" lon="6.0002">
        <ele>348.9</ele>
        <time>2012-06-14T08:23:53.000Z</time>
      </trkpt>
      <trkpt lat="47.73754" lon="6.00024">
        <ele>348.8</ele>
        <time>2012-06-14T08:23:54.000Z</time>
      </trkpt>
      <trkpt lat="47.73763" lon="6.00028">
        <ele>348.4</ele>
        <time>2012-06-14T08:23:55.000Z</time>
      </trkpt>
      <trkpt lat="47.73772" lon="6.00031">
        <ele>348.3</ele>
        <time>2012-06-14T08:23:56.000Z</time>
      </trkpt>
      <trkpt lat="47.73784" lon="6.0004">
        <ele>347.7</ele>
        <time>2012-06-14T08:23:57.000Z</time>
      </trkpt>
      <trkpt lat="47.73794" lon="6.00045">
        <ele>346.4</ele>
        <time>2012-06-14T08:23:58.000Z</time>
      </trkpt>
      <trkpt lat="47.73804" lon="6.0005">
        <ele>345.8</ele>
        <time>2012-06-14T08:23:59.000Z</time>
      </trkpt>
      <trkpt lat="47.73812" lon="6.00052">
        <ele>345.1</ele>
        <time>2012-06-14T08:24:00.000Z</time>
      </trkpt>
      <trkpt lat="47.7382" lon="6.00055">
        <ele>345.1</ele>
        <time>2012-06-14T08:24:01.000Z</time>
      </trkpt>
      <trkpt lat="47.73827" lon="6.00058">
        <ele>344.2</ele>
        <time>2012-06-14T08:24:02.000Z</time>
      </trkpt>
      <trkpt lat="47.73835" lon="6.00062">
        <ele>343.8</ele>
        <time>2012-06-14T08:24:03.000Z</time>
      </trkpt>
      <trkpt lat="47.73842" lon="6.00066">
        <ele>343</ele>
        <time>2012-06-14T08:24:04.000Z</time>
      </trkpt>
      <trkpt lat="47.73849" lon="6.00068">
        <ele>342.4</ele>
        <time>2012-06-14T08:24:05.000Z</time>
      </trkpt>
      <trkpt lat="47.73855" lon="6.00071">
        <ele>342.2</ele>
        <time>2012-06-14T08:24:06.000Z</time>
      </trkpt>
      <trkpt lat="47.73861" lon="6.00074">
        <ele>342.3</ele>
        <time>2012-06-14T08:24:07.000Z</time>
      </trkpt>
      <trkpt lat="47.73866" lon="6.00077">
        <ele>342.4</ele>
        <time>2012-06-14T08:24:08.000Z</time>
      </trkpt>
      <trkpt lat="47.73872" lon="6.0008">
        <ele>342.5</ele>
        <time>2012-06-14T08:24:09.000Z</time>
      </trkpt>
      <trkpt lat="47.73877" lon="6.00083">
        <ele>342.4</ele>
        <time>2012-06-14T08:24:10.000Z</time>
      </trkpt>
      <trkpt lat="47.73881" lon="6.00085">
        <ele>342.2</ele>
        <time>2012-06-14T08:24:11.000Z</time>
      </trkpt>
      <trkpt lat="47.73888" lon="6.00089">
        <ele>341.2</ele>
        <time>2012-06-14T08:24:13.000Z</time>
      </trkpt>
      <trkpt lat="47.73894" lon="6.00092">
        <ele>341</ele>
        <time>2012-06-14T08:24:15.000Z</time>
      </trkpt>
      <trkpt lat="47.73899" lon="6.00096">
        <ele>340.5</ele>
        <time>2012-06-14T08:24:17.000Z</time>
      </trkpt>
      <trkpt lat="47.73906" lon="6.001">
        <ele>339.9</ele>
        <time>2012-06-14T08:24:20.000Z</time>
      </trkpt>
      <trkpt lat="47.73911" lon="6.00102">
        <ele>339.4</ele>
        <time>2012-06-14T08:24:22.000Z</time>
      </trkpt>
      <trkpt lat="47.73916" lon="6.00104">
        <ele>339.4</ele>
        <time>2012-06-14T08:24:24.000Z</time>
      </trkpt>
      <trkpt lat="47.73921" lon="6.00108">
        <ele>339.1</ele>
        <time>2012-06-14T08:24:26.000Z</time>
      </trkpt>
      <trkpt lat="47.73926" lon="6.00112">
        <ele>338.9</ele>
        <time>2012-06-14T08:24:28.000Z</time>
      </trkpt>
      <trkpt lat="47.7393" lon="6.00117">
        <ele>338.7</ele>
        <time>2012-06-14T08:24:30.000Z</time>
      </trkpt>
      <trkpt lat="47.73934" lon="6.00122">
        <ele>338.5</ele>
        <time>2012-06-14T08:24:32.000Z</time>
      </trkpt>
      <trkpt lat="47.73936" lon="6.00128">
        <ele>338.5</ele>
        <time>2012-06-14T08:24:34.000Z</time>
      </trkpt>
      <trkpt lat="47.73939" lon="6.00136">
        <ele>338.2</ele>
        <time>2012-06-14T08:24:36.000Z</time>
      </trkpt>
      <trkpt lat="47.73941" lon="6.00143">
        <ele>338.5</ele>
        <time>2012-06-14T08:24:38.000Z</time>
      </trkpt>
      <trkpt lat="47.73945" lon="6.00152">
        <ele>339.1</ele>
        <time>2012-06-14T08:24:40.000Z</time>
      </trkpt>
      <trkpt lat="47.73945" lon="6.0016">
        <ele>339.1</ele>
        <time>2012-06-14T08:24:42.000Z</time>
      </trkpt>
      <trkpt lat="47.73943" lon="6.00169">
        <ele>339</ele>
        <time>2012-06-14T08:24:44.000Z</time>
      </trkpt>
      <trkpt lat="47.73939" lon="6.00179">
        <ele>339.3</ele>
        <time>2012-06-14T08:24:46.000Z</time>
      </trkpt>
      <trkpt lat="47.73948" lon="6.00267">
        <ele>337.8</ele>
        <time>2012-06-14T08:25:04.000Z</time>
      </trkpt>
      <trkpt lat="47.73943" lon="6.00276">
        <ele>335.4</ele>
        <time>2012-06-14T08:25:06.000Z</time>
      </trkpt>
      <trkpt lat="47.7394" lon="6.00284">
        <ele>336.4</ele>
        <time>2012-06-14T08:25:08.000Z</time>
      </trkpt>
      <trkpt lat="47.73935" lon="6.00295">
        <ele>332.6</ele>
        <time>2012-06-14T08:25:10.000Z</time>
      </trkpt>
      <trkpt lat="47.73931" lon="6.00306">
        <ele>329.1</ele>
        <time>2012-06-14T08:25:12.000Z</time>
      </trkpt>
      <trkpt lat="47.73932" lon="6.00314">
        <ele>327.2</ele>
        <time>2012-06-14T08:25:14.000Z</time>
      </trkpt>
      <trkpt lat="47.73934" lon="6.00321">
        <ele>326.4</ele>
        <time>2012-06-14T08:25:16.000Z</time>
      </trkpt>
      <trkpt lat="47.73938" lon="6.00327">
        <ele>326.9</ele>
        <time>2012-06-14T08:25:18.000Z</time>
      </trkpt>
      <trkpt lat="47.73941" lon="6.00332">
        <ele>328</ele>
        <time>2012-06-14T08:25:20.000Z</time>
      </trkpt>
      <trkpt lat="47.73945" lon="6.00338">
        <ele>328.2</ele>
        <time>2012-06-14T08:25:23.000Z</time>
      </trkpt>
      <trkpt lat="47.7395" lon="6.00343">
        <ele>328.5</ele>
        <time>2012-06-14T08:25:26.000Z</time>
      </trkpt>
      <trkpt lat="47.73955" lon="6.00347">
        <ele>329.1</ele>
        <time>2012-06-14T08:25:29.000Z</time>
      </trkpt>
      <trkpt lat="47.7396" lon="6.00348">
        <ele>330</ele>
        <time>2012-06-14T08:25:36.000Z</time>
      </trkpt>
      <trkpt lat="47.73965" lon="6.00354">
        <ele>330.3</ele>
        <time>2012-06-14T08:25:39.000Z</time>
      </trkpt>
      <trkpt lat="47.73971" lon="6.00359">
        <ele>330.3</ele>
        <time>2012-06-14T08:25:41.000Z</time>
      </trkpt>
      <trkpt lat="47.73975" lon="6.00362">
        <ele>330.4</ele>
        <time>2012-06-14T08:25:43.000Z</time>
      </trkpt>
      <trkpt lat="47.73979" lon="6.00365">
        <ele>330.4</ele>
        <time>2012-06-14T08:25:45.000Z</time>
      </trkpt>
      <trkpt lat="47.73983" lon="6.00369">
        <ele>330.3</ele>
        <time>2012-06-14T08:25:46.000Z</time>
      </trkpt>
      <trkpt lat="47.7399" lon="6.00376">
        <ele>330</ele>
        <time>2012-06-14T08:25:47.000Z</time>
      </trkpt>
      <trkpt lat="47.73994" lon="6.0038">
        <ele>329.8</ele>
        <time>2012-06-14T08:25:49.000Z</time>
      </trkpt>
      <trkpt lat="47.73999" lon="6.00384">
        <ele>330.5</ele>
        <time>2012-06-14T08:25:52.000Z</time>
      </trkpt>
      <trkpt lat="47.74005" lon="6.00385">
        <ele>331.3</ele>
        <time>2012-06-14T08:25:55.000Z</time>
      </trkpt>
      <trkpt lat="47.74013" lon="6.00392">
        <ele>330.6</ele>
        <time>2012-06-14T08:25:57.000Z</time>
      </trkpt>
      <trkpt lat="47.74019" lon="6.00396">
        <ele>330.7</ele>
        <time>2012-06-14T08:25:59.000Z</time>
      </trkpt>
      <trkpt lat="47.74026" lon="6.00397">
        <ele>331</ele>
        <time>2012-06-14T08:26:02.000Z</time>
      </trkpt>
      <trkpt lat="47.74031" lon="6.00399">
        <ele>331.6</ele>
        <time>2012-06-14T08:26:06.000Z</time>
      </trkpt>
      <trkpt lat="47.74038" lon="6.0041">
        <ele>329.2</ele>
        <time>2012-06-14T08:26:09.000Z</time>
      </trkpt>
      <trkpt lat="47.74044" lon="6.00413">
        <ele>329.3</ele>
        <time>2012-06-14T08:26:11.000Z</time>
      </trkpt>
      <trkpt lat="47.7405" lon="6.00416">
        <ele>329.8</ele>
        <time>2012-06-14T08:26:13.000Z</time>
      </trkpt>
      <trkpt lat="47.74056" lon="6.00421">
        <ele>329.9</ele>
        <time>2012-06-14T08:26:15.000Z</time>
      </trkpt>
      <trkpt lat="47.7406" lon="6.00426">
        <ele>330.2</ele>
        <time>2012-06-14T08:26:17.000Z</time>
      </trkpt>
      <trkpt lat="47.74064" lon="6.00431">
        <ele>330.4</ele>
        <time>2012-06-14T08:26:19.000Z</time>
      </trkpt>
      <trkpt lat="47.74069" lon="6.00438">
        <ele>331</ele>
        <time>2012-06-14T08:26:22.000Z</time>
      </trkpt>
      <trkpt lat="47.74073" lon="6.00444">
        <ele>331.2</ele>
        <time>2012-06-14T08:26:24.000Z</time>
      </trkpt>
      <trkpt lat="47.74079" lon="6.00451">
        <ele>331.6</ele>
        <time>2012-06-14T08:26:26.000Z</time>
      </trkpt>
      <trkpt lat="47.74084" lon="6.00456">
        <ele>331.9</ele>
        <time>2012-06-14T08:26:28.000Z</time>
      </trkpt>
      <trkpt lat="47.74088" lon="6.00463">
        <ele>332.2</ele>
        <time>2012-06-14T08:26:30.000Z</time>
      </trkpt>
      <trkpt lat="47.74092" lon="6.00469">
        <ele>332.4</ele>
        <time>2012-06-14T08:26:32.000Z</time>
      </trkpt>
      <trkpt lat="47.74095" lon="6.00479">
        <ele>332.6</ele>
        <time>2012-06-14T08:26:35.000Z</time>
      </trkpt>
      <trkpt lat="47.74098" lon="6.00493">
        <ele>332.8</ele>
        <time>2012-06-14T08:26:37.000Z</time>
      </trkpt>
      <trkpt lat="47.741" lon="6.00503">
        <ele>332.8</ele>
        <time>2012-06-14T08:26:38.000Z</time>
      </trkpt>
      <trkpt lat="47.741" lon="6.00514">
        <ele>332.8</ele>
        <time>2012-06-14T08:26:39.000Z</time>
      </trkpt>
      <trkpt lat="47.741" lon="6.00521">
        <ele>332.8</ele>
        <time>2012-06-14T08:26:40.000Z</time>
      </trkpt>
      <trkpt lat="47.74101" lon="6.0053">
        <ele>332.8</ele>
        <time>2012-06-14T08:26:41.000Z</time>
      </trkpt>
      <trkpt lat="47.74101" lon="6.00538">
        <ele>332.8</ele>
        <time>2012-06-14T08:26:42.000Z</time>
      </trkpt>
      <trkpt lat="47.74101" lon="6.00546">
        <ele>332.8</ele>
        <time>2012-06-14T08:26:43.000Z</time>
      </trkpt>
      <trkpt lat="47.74101" lon="6.00554">
        <ele>332.9</ele>
        <time>2012-06-14T08:26:44.000Z</time>
      </trkpt>
      <trkpt lat="47.74102" lon="6.00565">
        <ele>333.2</ele>
        <time>2012-06-14T08:26:46.000Z</time>
      </trkpt>
      <trkpt lat="47.74103" lon="6.00576">
        <ele>333.4</ele>
        <time>2012-06-14T08:26:48.000Z</time>
      </trkpt>
      <trkpt lat="47.74105" lon="6.00582">
        <ele>333.5</ele>
        <time>2012-06-14T08:26:49.000Z</time>
      </trkpt>
      <trkpt lat="47.74104" lon="6.00589">
        <ele>334</ele>
        <time>2012-06-14T08:27:01.000Z</time>
      </trkpt>
      <trkpt lat="47.74107" lon="6.00595">
        <ele>329.9</ele>
        <time>2012-06-14T08:27:14.000Z</time>
      </trkpt>
      <trkpt lat="47.74102" lon="6.00595">
        <ele>329.8</ele>
        <time>2012-06-14T08:27:26.000Z</time>
      </trkpt>
      <trkpt lat="47.74102" lon="6.00595">
        <ele>329.8</ele>
        <time>2012-06-14T08:27:26.000Z</time>
      </trkpt>
      <trkpt lat="47.74102" lon="6.00595">
        <ele>329.8</ele>
        <time>2012-06-14T08:28:04.000Z</time>
      </trkpt>
      <trkpt lat="47.74098" lon="6.00599">
        <ele>331.6</ele>
        <time>2012-06-14T08:28:20.000Z</time>
      </trkpt>
      <trkpt lat="47.741" lon="6.00606">
        <ele>330.4</ele>
        <time>2012-06-14T08:28:56.000Z</time>
      </trkpt>
      <trkpt lat="47.74106" lon="6.00604">
        <ele>329.4</ele>
        <time>2012-06-14T08:29:03.000Z</time>
      </trkpt>
      <trkpt lat="47.74112" lon="6.00604">
        <ele>329.4</ele>
        <time>2012-06-14T08:29:07.000Z</time>
      </trkpt>
      <trkpt lat="47.74116" lon="6.00602">
        <ele>329.3</ele>
        <time>2012-06-14T08:29:16.000Z</time>
      </trkpt>
      <trkpt lat="47.74116" lon="6.00602">
        <ele>329.3</ele>
        <time>2012-06-14T08:29:16.000Z</time>
      </trkpt>
      <trkpt lat="47.74116" lon="6.00602">
        <ele>329.3</ele>
        <time>2012-06-14T08:29:23.000Z</time>
      </trkpt>
      <trkpt lat="47.74121" lon="6.006">
        <ele>330.6</ele>
        <time>2012-06-14T08:29:26.000Z</time>
      </trkpt>
      <trkpt lat="47.74127" lon="6.00599">
        <ele>330.5</ele>
        <time>2012-06-14T08:29:32.000Z</time>
      </trkpt>
      <trkpt lat="47.74132" lon="6.00593">
        <ele>330.5</ele>
        <time>2012-06-14T08:29:33.000Z</time>
      </trkpt>
      <trkpt lat="47.74127" lon="6.00595">
        <ele>331</ele>
        <time>2012-06-14T08:29:38.000Z</time>
      </trkpt>
      <trkpt lat="47.74122" lon="6.00592">
        <ele>331.8</ele>
        <time>2012-06-14T08:29:44.000Z</time>
      </trkpt>
      <trkpt lat="47.74127" lon="6.00591">
        <ele>331.7</ele>
        <time>2012-06-14T08:29:49.000Z</time>
      </trkpt>
      <trkpt lat="47.74132" lon="6.00592">
        <ele>331.7</ele>
        <time>2012-06-14T08:29:55.000Z</time>
      </trkpt>
      <trkpt lat="47.74126" lon="6.00594">
        <ele>331.5</ele>
        <time>2012-06-14T08:30:08.000Z</time>
      </trkpt>
      <trkpt lat="47.7412" lon="6.00593">
        <ele>331.4</ele>
        <time>2012-06-14T08:30:14.000Z</time>
      </trkpt>
      <trkpt lat="47.74114" lon="6.00592">
        <ele>331.3</ele>
        <time>2012-06-14T08:30:21.000Z</time>
      </trkpt>
      <trkpt lat="47.7411" lon="6.00587">
        <ele>331.4</ele>
        <time>2012-06-14T08:30:25.000Z</time>
      </trkpt>
      <trkpt lat="47.74109" lon="6.00594">
        <ele>331.2</ele>
        <time>2012-06-14T08:30:34.000Z</time>
      </trkpt>
      <trkpt lat="47.74104" lon="6.00592">
        <ele>331.4</ele>
        <time>2012-06-14T08:30:44.000Z</time>
      </trkpt>
      <trkpt lat="47.74109" lon="6.00592">
        <ele>325.7</ele>
        <time>2012-06-14T08:31:27.000Z</time>
      </trkpt>
      <trkpt lat="47.74106" lon="6.00598">
        <ele>326</ele>
        <time>2012-06-14T08:31:35.000Z</time>
      </trkpt>
      <trkpt lat="47.74105" lon="6.00606">
        <ele>326.1</ele>
        <time>2012-06-14T08:31:37.000Z</time>
      </trkpt>
      <trkpt lat="47.74104" lon="6.00614">
        <ele>326.4</ele>
        <time>2012-06-14T08:31:39.000Z</time>
      </trkpt>
      <trkpt lat="47.74103" lon="6.00621">
        <ele>326.6</ele>
        <time>2012-06-14T08:31:40.000Z</time>
      </trkpt>
      <trkpt lat="47.74097" lon="6.00631">
        <ele>326.6</ele>
        <time>2012-06-14T08:31:42.000Z</time>
      </trkpt>
      <trkpt lat="47.7409" lon="6.0064">
        <ele>327.2</ele>
        <time>2012-06-14T08:31:44.000Z</time>
      </trkpt>
      <trkpt lat="47.74086" lon="6.00649">
        <ele>327.6</ele>
        <time>2012-06-14T08:31:45.000Z</time>
      </trkpt>
      <trkpt lat="47.74082" lon="6.00656">
        <ele>328</ele>
        <time>2012-06-14T08:31:46.000Z</time>
      </trkpt>
      <trkpt lat="47.74078" lon="6.00663">
        <ele>328.5</ele>
        <time>2012-06-14T08:31:47.000Z</time>
      </trkpt>
      <trkpt lat="47.74073" lon="6.0067">
        <ele>329</ele>
        <time>2012-06-14T08:31:48.000Z</time>
      </trkpt>
      <trkpt lat="47.74068" lon="6.00678">
        <ele>329.6</ele>
        <time>2012-06-14T08:31:49.000Z</time>
      </trkpt>
      <trkpt lat="47.74063" lon="6.00686">
        <ele>329.9</ele>
        <time>2012-06-14T08:31:50.000Z</time>
      </trkpt>
      <trkpt lat="47.74058" lon="6.00694">
        <ele>330.1</ele>
        <time>2012-06-14T08:31:51.000Z</time>
      </trkpt>
      <trkpt lat="47.74052" lon="6.00702">
        <ele>330.3</ele>
        <time>2012-06-14T08:31:52.000Z</time>
      </trkpt>
      <trkpt lat="47.74047" lon="6.0071">
        <ele>330.6</ele>
        <time>2012-06-14T08:31:53.000Z</time>
      </trkpt>
      <trkpt lat="47.74042" lon="6.00717">
        <ele>330.9</ele>
        <time>2012-06-14T08:31:54.000Z</time>
      </trkpt>
      <trkpt lat="47.74036" lon="6.00724">
        <ele>331</ele>
        <time>2012-06-14T08:31:55.000Z</time>
      </trkpt>
      <trkpt lat="47.74032" lon="6.00731">
        <ele>331</ele>
        <time>2012-06-14T08:31:56.000Z</time>
      </trkpt>
      <trkpt lat="47.74027" lon="6.00737">
        <ele>331.1</ele>
        <time>2012-06-14T08:31:57.000Z</time>
      </trkpt>
      <trkpt lat="47.74023" lon="6.00743">
        <ele>331.1</ele>
        <time>2012-06-14T08:31:58.000Z</time>
      </trkpt>
      <trkpt lat="47.7402" lon="6.00748">
        <ele>331.2</ele>
        <time>2012-06-14T08:31:59.000Z</time>
      </trkpt>
      <trkpt lat="47.74016" lon="6.00754">
        <ele>331.2</ele>
        <time>2012-06-14T08:32:00.000Z</time>
      </trkpt>
      <trkpt lat="47.74012" lon="6.00762">
        <ele>331.1</ele>
        <time>2012-06-14T08:32:01.000Z</time>
      </trkpt>
      <trkpt lat="47.74006" lon="6.00768">
        <ele>330.9</ele>
        <time>2012-06-14T08:32:02.000Z</time>
      </trkpt>
      <trkpt lat="47.74002" lon="6.00774">
        <ele>331</ele>
        <time>2012-06-14T08:32:03.000Z</time>
      </trkpt>
      <trkpt lat="47.73997" lon="6.00779">
        <ele>331</ele>
        <time>2012-06-14T08:32:04.000Z</time>
      </trkpt>
      <trkpt lat="47.73993" lon="6.00784">
        <ele>331</ele>
        <time>2012-06-14T08:32:05.000Z</time>
      </trkpt>
      <trkpt lat="47.73989" lon="6.00789">
        <ele>330.9</ele>
        <time>2012-06-14T08:32:06.000Z</time>
      </trkpt>
      <trkpt lat="47.73983" lon="6.00798">
        <ele>331</ele>
        <time>2012-06-14T08:32:08.000Z</time>
      </trkpt>
      <trkpt lat="47.73979" lon="6.00803">
        <ele>331.1</ele>
        <time>2012-06-14T08:32:09.000Z</time>
      </trkpt>
      <trkpt lat="47.73973" lon="6.00809">
        <ele>330.8</ele>
        <time>2012-06-14T08:32:10.000Z</time>
      </trkpt>
      <trkpt lat="47.73968" lon="6.00816">
        <ele>330.6</ele>
        <time>2012-06-14T08:32:11.000Z</time>
      </trkpt>
      <trkpt lat="47.73963" lon="6.00823">
        <ele>330.5</ele>
        <time>2012-06-14T08:32:12.000Z</time>
      </trkpt>
      <trkpt lat="47.73957" lon="6.00832">
        <ele>330.4</ele>
        <time>2012-06-14T08:32:14.000Z</time>
      </trkpt>
      <trkpt lat="47.73952" lon="6.00841">
        <ele>330.6</ele>
        <time>2012-06-14T08:32:16.000Z</time>
      </trkpt>
      <trkpt lat="47.73946" lon="6.00849">
        <ele>330.6</ele>
        <time>2012-06-14T08:32:18.000Z</time>
      </trkpt>
      <trkpt lat="47.73944" lon="6.00858">
        <ele>331.3</ele>
        <time>2012-06-14T08:32:20.000Z</time>
      </trkpt>
      <trkpt lat="47.73942" lon="6.00869">
        <ele>331.3</ele>
        <time>2012-06-14T08:32:22.000Z</time>
      </trkpt>
      <trkpt lat="47.73941" lon="6.00879">
        <ele>331</ele>
        <time>2012-06-14T08:32:24.000Z</time>
      </trkpt>
      <trkpt lat="47.73941" lon="6.00889">
        <ele>331.1</ele>
        <time>2012-06-14T08:32:26.000Z</time>
      </trkpt>
      <trkpt lat="47.73941" lon="6.00899">
        <ele>331.1</ele>
        <time>2012-06-14T08:32:28.000Z</time>
      </trkpt>
      <trkpt lat="47.73941" lon="6.00908">
        <ele>331</ele>
        <time>2012-06-14T08:32:30.000Z</time>
      </trkpt>
      <trkpt lat="47.73943" lon="6.00919">
        <ele>330.9</ele>
        <time>2012-06-14T08:32:32.000Z</time>
      </trkpt>
      <trkpt lat="47.73944" lon="6.0093">
        <ele>330.5</ele>
        <time>2012-06-14T08:32:34.000Z</time>
      </trkpt>
      <trkpt lat="47.73945" lon="6.00938">
        <ele>330.3</ele>
        <time>2012-06-14T08:32:36.000Z</time>
      </trkpt>
      <trkpt lat="47.73946" lon="6.00947">
        <ele>330.3</ele>
        <time>2012-06-14T08:32:38.000Z</time>
      </trkpt>
      <trkpt lat="47.73948" lon="6.00957">
        <ele>330.5</ele>
        <time>2012-06-14T08:32:40.000Z</time>
      </trkpt>
      <trkpt lat="47.7395" lon="6.00968">
        <ele>330.4</ele>
        <time>2012-06-14T08:32:42.000Z</time>
      </trkpt>
      <trkpt lat="47.73953" lon="6.0098">
        <ele>330.4</ele>
        <time>2012-06-14T08:32:44.000Z</time>
      </trkpt>
      <trkpt lat="47.73955" lon="6.00986">
        <ele>330.3</ele>
        <time>2012-06-14T08:32:45.000Z</time>
      </trkpt>
      <trkpt lat="47.73957" lon="6.00997">
        <ele>330.3</ele>
        <time>2012-06-14T08:32:47.000Z</time>
      </trkpt>
      <trkpt lat="47.73958" lon="6.01009">
        <ele>330.4</ele>
        <time>2012-06-14T08:32:49.000Z</time>
      </trkpt>
      <trkpt lat="47.7396" lon="6.01019">
        <ele>330.9</ele>
        <time>2012-06-14T08:32:51.000Z</time>
      </trkpt>
      <trkpt lat="47.73964" lon="6.0103">
        <ele>331.5</ele>
        <time>2012-06-14T08:32:53.000Z</time>
      </trkpt>
      <trkpt lat="47.73968" lon="6.01042">
        <ele>331.9</ele>
        <time>2012-06-14T08:32:55.000Z</time>
      </trkpt>
      <trkpt lat="47.73969" lon="6.01049">
        <ele>331.9</ele>
        <time>2012-06-14T08:32:56.000Z</time>
      </trkpt>
      <trkpt lat="47.73969" lon="6.01056">
        <ele>331.7</ele>
        <time>2012-06-14T08:32:57.000Z</time>
      </trkpt>
      <trkpt lat="47.73969" lon="6.01063">
        <ele>331.6</ele>
        <time>2012-06-14T08:32:58.000Z</time>
      </trkpt>
      <trkpt lat="47.73969" lon="6.01077">
        <ele>331.3</ele>
        <time>2012-06-14T08:33:00.000Z</time>
      </trkpt>
      <trkpt lat="47.73968" lon="6.01084">
        <ele>331.2</ele>
        <time>2012-06-14T08:33:01.000Z</time>
      </trkpt>
      <trkpt lat="47.73968" lon="6.01093">
        <ele>331</ele>
        <time>2012-06-14T08:33:02.000Z</time>
      </trkpt>
      <trkpt lat="47.73968" lon="6.01103">
        <ele>330.9</ele>
        <time>2012-06-14T08:33:03.000Z</time>
      </trkpt>
      <trkpt lat="47.7397" lon="6.01114">
        <ele>330.8</ele>
        <time>2012-06-14T08:33:04.000Z</time>
      </trkpt>
      <trkpt lat="47.7397" lon="6.01126">
        <ele>330.7</ele>
        <time>2012-06-14T08:33:05.000Z</time>
      </trkpt>
      <trkpt lat="47.73972" lon="6.01137">
        <ele>330.7</ele>
        <time>2012-06-14T08:33:06.000Z</time>
      </trkpt>
      <trkpt lat="47.73972" lon="6.01148">
        <ele>330.7</ele>
        <time>2012-06-14T08:33:07.000Z</time>
      </trkpt>
      <trkpt lat="47.73973" lon="6.01158">
        <ele>330.7</ele>
        <time>2012-06-14T08:33:08.000Z</time>
      </trkpt>
      <trkpt lat="47.73974" lon="6.0117">
        <ele>330.6</ele>
        <time>2012-06-14T08:33:09.000Z</time>
      </trkpt>
      <trkpt lat="47.73973" lon="6.0118">
        <ele>330.6</ele>
        <time>2012-06-14T08:33:10.000Z</time>
      </trkpt>
      <trkpt lat="47.73974" lon="6.0119">
        <ele>330.5</ele>
        <time>2012-06-14T08:33:11.000Z</time>
      </trkpt>
      <trkpt lat="47.73974" lon="6.01202">
        <ele>330.4</ele>
        <time>2012-06-14T08:33:12.000Z</time>
      </trkpt>
      <trkpt lat="47.73973" lon="6.01211">
        <ele>330.5</ele>
        <time>2012-06-14T08:33:13.000Z</time>
      </trkpt>
      <trkpt lat="47.73973" lon="6.01221">
        <ele>330.4</ele>
        <time>2012-06-14T08:33:14.000Z</time>
      </trkpt>
      <trkpt lat="47.73973" lon="6.01231">
        <ele>330.3</ele>
        <time>2012-06-14T08:33:15.000Z</time>
      </trkpt>
      <trkpt lat="47.73972" lon="6.01242">
        <ele>330.1</ele>
        <time>2012-06-14T08:33:16.000Z</time>
      </trkpt>
      <trkpt lat="47.73972" lon="6.01253">
        <ele>330</ele>
        <time>2012-06-14T08:33:17.000Z</time>
      </trkpt>
      <trkpt lat="47.73973" lon="6.01266">
        <ele>329.9</ele>
        <time>2012-06-14T08:33:18.000Z</time>
      </trkpt>
      <trkpt lat="47.73973" lon="6.01279">
        <ele>329.7</ele>
        <time>2012-06-14T08:33:19.000Z</time>
      </trkpt>
      <trkpt lat="47.73974" lon="6.01292">
        <ele>329.4</ele>
        <time>2012-06-14T08:33:20.000Z</time>
      </trkpt>
      <trkpt lat="47.73977" lon="6.01309">
        <ele>329.4</ele>
        <time>2012-06-14T08:33:21.000Z</time>
      </trkpt>
      <trkpt lat="47.7398" lon="6.01324">
        <ele>329</ele>
        <time>2012-06-14T08:33:22.000Z</time>
      </trkpt>
      <trkpt lat="47.73983" lon="6.0134">
        <ele>328.8</ele>
        <time>2012-06-14T08:33:23.000Z</time>
      </trkpt>
      <trkpt lat="47.73985" lon="6.01356">
        <ele>328.3</ele>
        <time>2012-06-14T08:33:24.000Z</time>
      </trkpt>
      <trkpt lat="47.73987" lon="6.01372">
        <ele>327.5</ele>
        <time>2012-06-14T08:33:25.000Z</time>
      </trkpt>
      <trkpt lat="47.73989" lon="6.01386">
        <ele>326.6</ele>
        <time>2012-06-14T08:33:26.000Z</time>
      </trkpt>
      <trkpt lat="47.73992" lon="6.01402">
        <ele>325.7</ele>
        <time>2012-06-14T08:33:27.000Z</time>
      </trkpt>
      <trkpt lat="47.73994" lon="6.01417">
        <ele>324.7</ele>
        <time>2012-06-14T08:33:28.000Z</time>
      </trkpt>
      <trkpt lat="47.73997" lon="6.01432">
        <ele>323.8</ele>
        <time>2012-06-14T08:33:29.000Z</time>
      </trkpt>
      <trkpt lat="47.74" lon="6.01447">
        <ele>323.1</ele>
        <time>2012-06-14T08:33:30.000Z</time>
      </trkpt>
      <trkpt lat="47.74001" lon="6.01462">
        <ele>322.5</ele>
        <time>2012-06-14T08:33:31.000Z</time>
      </trkpt>
      <trkpt lat="47.74004" lon="6.01477">
        <ele>321.5</ele>
        <time>2012-06-14T08:33:32.000Z</time>
      </trkpt>
      <trkpt lat="47.74005" lon="6.01491">
        <ele>320.8</ele>
        <time>2012-06-14T08:33:33.000Z</time>
      </trkpt>
      <trkpt lat="47.74007" lon="6.01506">
        <ele>319.9</ele>
        <time>2012-06-14T08:33:34.000Z</time>
      </trkpt>
      <trkpt lat="47.74009" lon="6.01521">
        <ele>318.6</ele>
        <time>2012-06-14T08:33:35.000Z</time>
      </trkpt>
      <trkpt lat="47.74011" lon="6.01534">
        <ele>316</ele>
        <time>2012-06-14T08:33:36.000Z</time>
      </trkpt>
      <trkpt lat="47.74013" lon="6.01548">
        <ele>314.4</ele>
        <time>2012-06-14T08:33:37.000Z</time>
      </trkpt>
      <trkpt lat="47.74015" lon="6.01562">
        <ele>312.7</ele>
        <time>2012-06-14T08:33:38.000Z</time>
      </trkpt>
      <trkpt lat="47.74017" lon="6.01576">
        <ele>310.5</ele>
        <time>2012-06-14T08:33:39.000Z</time>
      </trkpt>
      <trkpt lat="47.74019" lon="6.0159">
        <ele>309</ele>
        <time>2012-06-14T08:33:40.000Z</time>
      </trkpt>
      <trkpt lat="47.74021" lon="6.01604">
        <ele>307.4</ele>
        <time>2012-06-14T08:33:41.000Z</time>
      </trkpt>
      <trkpt lat="47.74022" lon="6.01618">
        <ele>306.2</ele>
        <time>2012-06-14T08:33:42.000Z</time>
      </trkpt>
      <trkpt lat="47.74024" lon="6.01632">
        <ele>304.9</ele>
        <time>2012-06-14T08:33:43.000Z</time>
      </trkpt>
      <trkpt lat="47.74026" lon="6.01646">
        <ele>303.9</ele>
        <time>2012-06-14T08:33:44.000Z</time>
      </trkpt>
      <trkpt lat="47.74028" lon="6.01661">
        <ele>303</ele>
        <time>2012-06-14T08:33:45.000Z</time>
      </trkpt>
      <trkpt lat="47.7403" lon="6.01675">
        <ele>302.2</ele>
        <time>2012-06-14T08:33:46.000Z</time>
      </trkpt>
      <trkpt lat="47.74047" lon="6.01831">
        <ele>288</ele>
        <time>2012-06-14T08:33:56.000Z</time>
      </trkpt>
      <trkpt lat="47.74046" lon="6.01847">
        <ele>288.7</ele>
        <time>2012-06-14T08:33:57.000Z</time>
      </trkpt>
      <trkpt lat="47.74046" lon="6.01864">
        <ele>287.2</ele>
        <time>2012-06-14T08:33:58.000Z</time>
      </trkpt>
      <trkpt lat="47.74046" lon="6.01881">
        <ele>286.1</ele>
        <time>2012-06-14T08:33:59.000Z</time>
      </trkpt>
      <trkpt lat="47.74046" lon="6.01899">
        <ele>287</ele>
        <time>2012-06-14T08:34:00.000Z</time>
      </trkpt>
      <trkpt lat="47.74045" lon="6.01917">
        <ele>287.4</ele>
        <time>2012-06-14T08:34:01.000Z</time>
      </trkpt>
      <trkpt lat="47.74044" lon="6.01935">
        <ele>287.4</ele>
        <time>2012-06-14T08:34:02.000Z</time>
      </trkpt>
      <trkpt lat="47.74043" lon="6.01953">
        <ele>286.8</ele>
        <time>2012-06-14T08:34:03.000Z</time>
      </trkpt>
      <trkpt lat="47.74042" lon="6.01971">
        <ele>286.4</ele>
        <time>2012-06-14T08:34:04.000Z</time>
      </trkpt>
      <trkpt lat="47.74041" lon="6.0199">
        <ele>285.9</ele>
        <time>2012-06-14T08:34:05.000Z</time>
      </trkpt>
      <trkpt lat="47.74041" lon="6.02008">
        <ele>285.4</ele>
        <time>2012-06-14T08:34:06.000Z</time>
      </trkpt>
      <trkpt lat="47.7404" lon="6.02026">
        <ele>284.7</ele>
        <time>2012-06-14T08:34:07.000Z</time>
      </trkpt>
      <trkpt lat="47.7404" lon="6.02044">
        <ele>284.2</ele>
        <time>2012-06-14T08:34:08.000Z</time>
      </trkpt>
      <trkpt lat="47.74039" lon="6.02063">
        <ele>284.1</ele>
        <time>2012-06-14T08:34:09.000Z</time>
      </trkpt>
      <trkpt lat="47.74038" lon="6.02081">
        <ele>283.2</ele>
        <time>2012-06-14T08:34:10.000Z</time>
      </trkpt>
      <trkpt lat="47.74038" lon="6.02099">
        <ele>282.5</ele>
        <time>2012-06-14T08:34:11.000Z</time>
      </trkpt>
      <trkpt lat="47.74037" lon="6.02118">
        <ele>281.2</ele>
        <time>2012-06-14T08:34:12.000Z</time>
      </trkpt>
      <trkpt lat="47.74037" lon="6.02136">
        <ele>279.9</ele>
        <time>2012-06-14T08:34:13.000Z</time>
      </trkpt>
      <trkpt lat="47.74036" lon="6.02154">
        <ele>279.3</ele>
        <time>2012-06-14T08:34:14.000Z</time>
      </trkpt>
      <trkpt lat="47.74034" lon="6.02172">
        <ele>278.3</ele>
        <time>2012-06-14T08:34:15.000Z</time>
      </trkpt>
      <trkpt lat="47.74033" lon="6.02189">
        <ele>277.9</ele>
        <time>2012-06-14T08:34:16.000Z</time>
      </trkpt>
      <trkpt lat="47.74032" lon="6.02207">
        <ele>277.3</ele>
        <time>2012-06-14T08:34:17.000Z</time>
      </trkpt>
      <trkpt lat="47.7403" lon="6.02224">
        <ele>276.9</ele>
        <time>2012-06-14T08:34:18.000Z</time>
      </trkpt>
      <trkpt lat="47.74027" lon="6.02241">
        <ele>276.5</ele>
        <time>2012-06-14T08:34:19.000Z</time>
      </trkpt>
      <trkpt lat="47.74023" lon="6.02257">
        <ele>276.3</ele>
        <time>2012-06-14T08:34:20.000Z</time>
      </trkpt>
      <trkpt lat="47.74019" lon="6.02272">
        <ele>276.2</ele>
        <time>2012-06-14T08:34:21.000Z</time>
      </trkpt>
      <trkpt lat="47.74015" lon="6.02286">
        <ele>276</ele>
        <time>2012-06-14T08:34:22.000Z</time>
      </trkpt>
      <trkpt lat="47.74011" lon="6.023">
        <ele>275.7</ele>
        <time>2012-06-14T08:34:23.000Z</time>
      </trkpt>
      <trkpt lat="47.74008" lon="6.02314">
        <ele>275.4</ele>
        <time>2012-06-14T08:34:24.000Z</time>
      </trkpt>
      <trkpt lat="47.74004" lon="6.02327">
        <ele>275.7</ele>
        <time>2012-06-14T08:34:25.000Z</time>
      </trkpt>
      <trkpt lat="47.74" lon="6.0234">
        <ele>275.6</ele>
        <time>2012-06-14T08:34:26.000Z</time>
      </trkpt>
      <trkpt lat="47.73996" lon="6.02352">
        <ele>275.5</ele>
        <time>2012-06-14T08:34:27.000Z</time>
      </trkpt>
      <trkpt lat="47.73993" lon="6.02364">
        <ele>275.3</ele>
        <time>2012-06-14T08:34:28.000Z</time>
      </trkpt>
      <trkpt lat="47.7399" lon="6.02375">
        <ele>274.9</ele>
        <time>2012-06-14T08:34:29.000Z</time>
      </trkpt>
      <trkpt lat="47.73987" lon="6.02387">
        <ele>274.6</ele>
        <time>2012-06-14T08:34:30.000Z</time>
      </trkpt>
      <trkpt lat="47.73983" lon="6.02398">
        <ele>274.2</ele>
        <time>2012-06-14T08:34:31.000Z</time>
      </trkpt>
      <trkpt lat="47.73979" lon="6.02408">
        <ele>274</ele>
        <time>2012-06-14T08:34:32.000Z</time>
      </trkpt>
      <trkpt lat="47.73976" lon="6.02419">
        <ele>273.7</ele>
        <time>2012-06-14T08:34:33.000Z</time>
      </trkpt>
      <trkpt lat="47.73973" lon="6.0243">
        <ele>273.6</ele>
        <time>2012-06-14T08:34:34.000Z</time>
      </trkpt>
      <trkpt lat="47.73969" lon="6.0244">
        <ele>273.3</ele>
        <time>2012-06-14T08:34:35.000Z</time>
      </trkpt>
      <trkpt lat="47.73966" lon="6.0245">
        <ele>273.2</ele>
        <time>2012-06-14T08:34:36.000Z</time>
      </trkpt>
      <trkpt lat="47.73964" lon="6.02459">
        <ele>273.2</ele>
        <time>2012-06-14T08:34:37.000Z</time>
      </trkpt>
      <trkpt lat="47.73961" lon="6.02468">
        <ele>273.1</ele>
        <time>2012-06-14T08:34:38.000Z</time>
      </trkpt>
      <trkpt lat="47.73958" lon="6.02477">
        <ele>273</ele>
        <time>2012-06-14T08:34:39.000Z</time>
      </trkpt>
      <trkpt lat="47.73954" lon="6.02485">
        <ele>272.9</ele>
        <time>2012-06-14T08:34:40.000Z</time>
      </trkpt>
      <trkpt lat="47.73952" lon="6.02494">
        <ele>272.9</ele>
        <time>2012-06-14T08:34:41.000Z</time>
      </trkpt>
      <trkpt lat="47.7395" lon="6.02502">
        <ele>273.1</ele>
        <time>2012-06-14T08:34:42.000Z</time>
      </trkpt>
      <trkpt lat="47.73947" lon="6.0251">
        <ele>273.2</ele>
        <time>2012-06-14T08:34:43.000Z</time>
      </trkpt>
      <trkpt lat="47.73944" lon="6.02517">
        <ele>273.3</ele>
        <time>2012-06-14T08:34:44.000Z</time>
      </trkpt>
      <trkpt lat="47.7394" lon="6.02525">
        <ele>273.5</ele>
        <time>2012-06-14T08:34:45.000Z</time>
      </trkpt>
      <trkpt lat="47.73934" lon="6.02532">
        <ele>273.3</ele>
        <time>2012-06-14T08:34:46.000Z</time>
      </trkpt>
      <trkpt lat="47.73892" lon="6.02567">
        <ele>268.9</ele>
        <time>2012-06-14T08:34:54.000Z</time>
      </trkpt>
      <trkpt lat="47.73888" lon="6.02571">
        <ele>266.7</ele>
        <time>2012-06-14T08:34:55.000Z</time>
      </trkpt>
      <trkpt lat="47.73882" lon="6.02576">
        <ele>266</ele>
        <time>2012-06-14T08:34:56.000Z</time>
      </trkpt>
      <trkpt lat="47.73876" lon="6.0258">
        <ele>265.8</ele>
        <time>2012-06-14T08:34:57.000Z</time>
      </trkpt>
      <trkpt lat="47.73871" lon="6.02584">
        <ele>265.6</ele>
        <time>2012-06-14T08:34:58.000Z</time>
      </trkpt>
      <trkpt lat="47.73866" lon="6.02588">
        <ele>265.5</ele>
        <time>2012-06-14T08:34:59.000Z</time>
      </trkpt>
      <trkpt lat="47.7386" lon="6.02592">
        <ele>265.6</ele>
        <time>2012-06-14T08:35:00.000Z</time>
      </trkpt>
      <trkpt lat="47.73855" lon="6.02596">
        <ele>265.9</ele>
        <time>2012-06-14T08:35:01.000Z</time>
      </trkpt>
      <trkpt lat="47.7385" lon="6.026">
        <ele>266.2</ele>
        <time>2012-06-14T08:35:02.000Z</time>
      </trkpt>
      <trkpt lat="47.73845" lon="6.02604">
        <ele>266.2</ele>
        <time>2012-06-14T08:35:03.000Z</time>
      </trkpt>
      <trkpt lat="47.7384" lon="6.02608">
        <ele>266.2</ele>
        <time>2012-06-14T08:35:04.000Z</time>
      </trkpt>
      <trkpt lat="47.73835" lon="6.02611">
        <ele>266.2</ele>
        <time>2012-06-14T08:35:05.000Z</time>
      </trkpt>
      <trkpt lat="47.7383" lon="6.02615">
        <ele>266.2</ele>
        <time>2012-06-14T08:35:06.000Z</time>
      </trkpt>
      <trkpt lat="47.73824" lon="6.02619">
        <ele>266</ele>
        <time>2012-06-14T08:35:07.000Z</time>
      </trkpt>
      <trkpt lat="47.73819" lon="6.02623">
        <ele>265.9</ele>
        <time>2012-06-14T08:35:08.000Z</time>
      </trkpt>
      <trkpt lat="47.73814" lon="6.02627">
        <ele>266</ele>
        <time>2012-06-14T08:35:09.000Z</time>
      </trkpt>
      <trkpt lat="47.7381" lon="6.02631">
        <ele>266.1</ele>
        <time>2012-06-14T08:35:10.000Z</time>
      </trkpt>
      <trkpt lat="47.73805" lon="6.02635">
        <ele>266.1</ele>
        <time>2012-06-14T08:35:11.000Z</time>
      </trkpt>
      <trkpt lat="47.738" lon="6.02639">
        <ele>266.2</ele>
        <time>2012-06-14T08:35:12.000Z</time>
      </trkpt>
      <trkpt lat="47.73795" lon="6.02643">
        <ele>266.3</ele>
        <time>2012-06-14T08:35:13.000Z</time>
      </trkpt>
      <trkpt lat="47.7379" lon="6.02647">
        <ele>266.2</ele>
        <time>2012-06-14T08:35:14.000Z</time>
      </trkpt>
      <trkpt lat="47.73785" lon="6.02651">
        <ele>266</ele>
        <time>2012-06-14T08:35:15.000Z</time>
      </trkpt>
      <trkpt lat="47.7378" lon="6.02655">
        <ele>266.1</ele>
        <time>2012-06-14T08:35:16.000Z</time>
      </trkpt>
      <trkpt lat="47.73776" lon="6.02658">
        <ele>266.1</ele>
        <time>2012-06-14T08:35:17.000Z</time>
      </trkpt>
      <trkpt lat="47.73771" lon="6.02662">
        <ele>266.1</ele>
        <time>2012-06-14T08:35:18.000Z</time>
      </trkpt>
      <trkpt lat="47.73766" lon="6.02665">
        <ele>266</ele>
        <time>2012-06-14T08:35:19.000Z</time>
      </trkpt>
      <trkpt lat="47.73762" lon="6.02669">
        <ele>265.9</ele>
        <time>2012-06-14T08:35:20.000Z</time>
      </trkpt>
      <trkpt lat="47.73758" lon="6.02673">
        <ele>265.8</ele>
        <time>2012-06-14T08:35:21.000Z</time>
      </trkpt>
      <trkpt lat="47.73754" lon="6.02676">
        <ele>265.8</ele>
        <time>2012-06-14T08:35:22.000Z</time>
      </trkpt>
      <trkpt lat="47.7375" lon="6.02679">
        <ele>265.8</ele>
        <time>2012-06-14T08:35:23.000Z</time>
      </trkpt>
      <trkpt lat="47.73746" lon="6.02683">
        <ele>265.8</ele>
        <time>2012-06-14T08:35:24.000Z</time>
      </trkpt>
      <trkpt lat="47.73741" lon="6.02686">
        <ele>265.7</ele>
        <time>2012-06-14T08:35:25.000Z</time>
      </trkpt>
      <trkpt lat="47.73737" lon="6.0269">
        <ele>265.7</ele>
        <time>2012-06-14T08:35:26.000Z</time>
      </trkpt>
      <trkpt lat="47.73733" lon="6.02693">
        <ele>265.7</ele>
        <time>2012-06-14T08:35:27.000Z</time>
      </trkpt>
      <trkpt lat="47.73729" lon="6.02697">
        <ele>265.7</ele>
        <time>2012-06-14T08:35:28.000Z</time>
      </trkpt>
      <trkpt lat="47.73724" lon="6.027">
        <ele>265.7</ele>
        <time>2012-06-14T08:35:29.000Z</time>
      </trkpt>
      <trkpt lat="47.7372" lon="6.02704">
        <ele>265.8</ele>
        <time>2012-06-14T08:35:30.000Z</time>
      </trkpt>
      <trkpt lat="47.73716" lon="6.02708">
        <ele>265.8</ele>
        <time>2012-06-14T08:35:31.000Z</time>
      </trkpt>
      <trkpt lat="47.73711" lon="6.02711">
        <ele>265.7</ele>
        <time>2012-06-14T08:35:32.000Z</time>
      </trkpt>
      <trkpt lat="47.73706" lon="6.02715">
        <ele>265.7</ele>
        <time>2012-06-14T08:35:33.000Z</time>
      </trkpt>
      <trkpt lat="47.73702" lon="6.02719">
        <ele>265.5</ele>
        <time>2012-06-14T08:35:34.000Z</time>
      </trkpt>
      <trkpt lat="47.73697" lon="6.02722">
        <ele>265.5</ele>
        <time>2012-06-14T08:35:35.000Z</time>
      </trkpt>
      <trkpt lat="47.73693" lon="6.02726">
        <ele>265.4</ele>
        <time>2012-06-14T08:35:36.000Z</time>
      </trkpt>
      <trkpt lat="47.73688" lon="6.0273">
        <ele>265.3</ele>
        <time>2012-06-14T08:35:37.000Z</time>
      </trkpt>
      <trkpt lat="47.73683" lon="6.02734">
        <ele>265.3</ele>
        <time>2012-06-14T08:35:38.000Z</time>
      </trkpt>
      <trkpt lat="47.73678" lon="6.02738">
        <ele>265.2</ele>
        <time>2012-06-14T08:35:39.000Z</time>
      </trkpt>
      <trkpt lat="47.73673" lon="6.02742">
        <ele>265.1</ele>
        <time>2012-06-14T08:35:40.000Z</time>
      </trkpt>
      <trkpt lat="47.73668" lon="6.02746">
        <ele>265</ele>
        <time>2012-06-14T08:35:41.000Z</time>
      </trkpt>
      <trkpt lat="47.73664" lon="6.0275">
        <ele>264.9</ele>
        <time>2012-06-14T08:35:42.000Z</time>
      </trkpt>
      <trkpt lat="47.73659" lon="6.02755">
        <ele>264.9</ele>
        <time>2012-06-14T08:35:43.000Z</time>
      </trkpt>
      <trkpt lat="47.73654" lon="6.0276">
        <ele>264.9</ele>
        <time>2012-06-14T08:35:44.000Z</time>
      </trkpt>
      <trkpt lat="47.7365" lon="6.02766">
        <ele>264.8</ele>
        <time>2012-06-14T08:35:45.000Z</time>
      </trkpt>
      <trkpt lat="47.73646" lon="6.02771">
        <ele>264.8</ele>
        <time>2012-06-14T08:35:46.000Z</time>
      </trkpt>
      <trkpt lat="47.73642" lon="6.02777">
        <ele>264.7</ele>
        <time>2012-06-14T08:35:47.000Z</time>
      </trkpt>
      <trkpt lat="47.73639" lon="6.02784">
        <ele>264.8</ele>
        <time>2012-06-14T08:35:48.000Z</time>
      </trkpt>
      <trkpt lat="47.73636" lon="6.0279">
        <ele>264.8</ele>
        <time>2012-06-14T08:35:49.000Z</time>
      </trkpt>
      <trkpt lat="47.73634" lon="6.02797">
        <ele>264.9</ele>
        <time>2012-06-14T08:35:50.000Z</time>
      </trkpt>
      <trkpt lat="47.73632" lon="6.02804">
        <ele>265</ele>
        <time>2012-06-14T08:35:51.000Z</time>
      </trkpt>
      <trkpt lat="47.7363" lon="6.0281">
        <ele>265.1</ele>
        <time>2012-06-14T08:35:52.000Z</time>
      </trkpt>
      <trkpt lat="47.73628" lon="6.02817">
        <ele>265.1</ele>
        <time>2012-06-14T08:35:53.000Z</time>
      </trkpt>
      <trkpt lat="47.73626" lon="6.02824">
        <ele>265.2</ele>
        <time>2012-06-14T08:35:54.000Z</time>
      </trkpt>
      <trkpt lat="47.73625" lon="6.02831">
        <ele>265.6</ele>
        <time>2012-06-14T08:35:55.000Z</time>
      </trkpt>
      <trkpt lat="47.73624" lon="6.02839">
        <ele>266.1</ele>
        <time>2012-06-14T08:35:56.000Z</time>
      </trkpt>
      <trkpt lat="47.73622" lon="6.02846">
        <ele>266.1</ele>
        <time>2012-06-14T08:35:57.000Z</time>
      </trkpt>
      <trkpt lat="47.73621" lon="6.02853">
        <ele>266.3</ele>
        <time>2012-06-14T08:35:58.000Z</time>
      </trkpt>
      <trkpt lat="47.7362" lon="6.0286">
        <ele>266.5</ele>
        <time>2012-06-14T08:35:59.000Z</time>
      </trkpt>
      <trkpt lat="47.73618" lon="6.02867">
        <ele>266.7</ele>
        <time>2012-06-14T08:36:00.000Z</time>
      </trkpt>
      <trkpt lat="47.73618" lon="6.02875">
        <ele>267</ele>
        <time>2012-06-14T08:36:01.000Z</time>
      </trkpt>
      <trkpt lat="47.73617" lon="6.02883">
        <ele>267</ele>
        <time>2012-06-14T08:36:02.000Z</time>
      </trkpt>
      <trkpt lat="47.73616" lon="6.0289">
        <ele>267.3</ele>
        <time>2012-06-14T08:36:03.000Z</time>
      </trkpt>
      <trkpt lat="47.73615" lon="6.02898">
        <ele>267.5</ele>
        <time>2012-06-14T08:36:04.000Z</time>
      </trkpt>
      <trkpt lat="47.73614" lon="6.02906">
        <ele>267.6</ele>
        <time>2012-06-14T08:36:05.000Z</time>
      </trkpt>
      <trkpt lat="47.73614" lon="6.02914">
        <ele>267.7</ele>
        <time>2012-06-14T08:36:06.000Z</time>
      </trkpt>
      <trkpt lat="47.73613" lon="6.02922">
        <ele>267.6</ele>
        <time>2012-06-14T08:36:07.000Z</time>
      </trkpt>
      <trkpt lat="47.73612" lon="6.02931">
        <ele>267.5</ele>
        <time>2012-06-14T08:36:08.000Z</time>
      </trkpt>
      <trkpt lat="47.73611" lon="6.02938">
        <ele>267.5</ele>
        <time>2012-06-14T08:36:09.000Z</time>
      </trkpt>
      <trkpt lat="47.7361" lon="6.02945">
        <ele>267.7</ele>
        <time>2012-06-14T08:36:10.000Z</time>
      </trkpt>
      <trkpt lat="47.7361" lon="6.02953">
        <ele>267.7</ele>
        <time>2012-06-14T08:36:11.000Z</time>
      </trkpt>
      <trkpt lat="47.73608" lon="6.02961">
        <ele>267.8</ele>
        <time>2012-06-14T08:36:12.000Z</time>
      </trkpt>
      <trkpt lat="47.73607" lon="6.02969">
        <ele>268</ele>
        <time>2012-06-14T08:36:13.000Z</time>
      </trkpt>
      <trkpt lat="47.73606" lon="6.02976">
        <ele>268.2</ele>
        <time>2012-06-14T08:36:14.000Z</time>
      </trkpt>
      <trkpt lat="47.73605" lon="6.02984">
        <ele>268.2</ele>
        <time>2012-06-14T08:36:15.000Z</time>
      </trkpt>
      <trkpt lat="47.73604" lon="6.02992">
        <ele>268.2</ele>
        <time>2012-06-14T08:36:16.000Z</time>
      </trkpt>
      <trkpt lat="47.73603" lon="6.03">
        <ele>268.2</ele>
        <time>2012-06-14T08:36:17.000Z</time>
      </trkpt>
      <trkpt lat="47.73602" lon="6.03008">
        <ele>268.3</ele>
        <time>2012-06-14T08:36:18.000Z</time>
      </trkpt>
      <trkpt lat="47.73602" lon="6.03016">
        <ele>268.4</ele>
        <time>2012-06-14T08:36:19.000Z</time>
      </trkpt>
      <trkpt lat="47.73601" lon="6.03024">
        <ele>268.4</ele>
        <time>2012-06-14T08:36:20.000Z</time>
      </trkpt>
      <trkpt lat="47.73599" lon="6.03031">
        <ele>268.4</ele>
        <time>2012-06-14T08:36:21.000Z</time>
      </trkpt>
      <trkpt lat="47.73598" lon="6.03039">
        <ele>268.4</ele>
        <time>2012-06-14T08:36:22.000Z</time>
      </trkpt>
      <trkpt lat="47.73597" lon="6.03046">
        <ele>268.4</ele>
        <time>2012-06-14T08:36:23.000Z</time>
      </trkpt>
      <trkpt lat="47.73596" lon="6.03055">
        <ele>268.4</ele>
        <time>2012-06-14T08:36:24.000Z</time>
      </trkpt>
      <trkpt lat="47.73595" lon="6.03063">
        <ele>268.2</ele>
        <time>2012-06-14T08:36:25.000Z</time>
      </trkpt>
      <trkpt lat="47.73594" lon="6.03071">
        <ele>268.1</ele>
        <time>2012-06-14T08:36:26.000Z</time>
      </trkpt>
      <trkpt lat="47.73594" lon="6.03079">
        <ele>268</ele>
        <time>2012-06-14T08:36:27.000Z</time>
      </trkpt>
      <trkpt lat="47.73593" lon="6.03087">
        <ele>268</ele>
        <time>2012-06-14T08:36:28.000Z</time>
      </trkpt>
      <trkpt lat="47.73593" lon="6.03094">
        <ele>268</ele>
        <time>2012-06-14T08:36:29.000Z</time>
      </trkpt>
      <trkpt lat="47.73593" lon="6.03102">
        <ele>268.2</ele>
        <time>2012-06-14T08:36:30.000Z</time>
      </trkpt>
      <trkpt lat="47.73592" lon="6.03109">
        <ele>268.4</ele>
        <time>2012-06-14T08:36:31.000Z</time>
      </trkpt>
      <trkpt lat="47.73591" lon="6.03115">
        <ele>268.6</ele>
        <time>2012-06-14T08:36:32.000Z</time>
      </trkpt>
      <trkpt lat="47.73592" lon="6.03122">
        <ele>268.6</ele>
        <time>2012-06-14T08:36:33.000Z</time>
      </trkpt>
      <trkpt lat="47.73594" lon="6.03134">
        <ele>268.9</ele>
        <time>2012-06-14T08:36:35.000Z</time>
      </trkpt>
      <trkpt lat="47.73597" lon="6.03142">
        <ele>269</ele>
        <time>2012-06-14T08:36:36.000Z</time>
      </trkpt>
      <trkpt lat="47.73599" lon="6.0315">
        <ele>269</ele>
        <time>2012-06-14T08:36:37.000Z</time>
      </trkpt>
      <trkpt lat="47.73601" lon="6.03159">
        <ele>269</ele>
        <time>2012-06-14T08:36:38.000Z</time>
      </trkpt>
      <trkpt lat="47.73603" lon="6.03169">
        <ele>268.9</ele>
        <time>2012-06-14T08:36:39.000Z</time>
      </trkpt>
      <trkpt lat="47.73604" lon="6.03177">
        <ele>268.8</ele>
        <time>2012-06-14T08:36:40.000Z</time>
      </trkpt>
      <trkpt lat="47.73606" lon="6.03184">
        <ele>268.8</ele>
        <time>2012-06-14T08:36:41.000Z</time>
      </trkpt>
      <trkpt lat="47.7361" lon="6.03194">
        <ele>269.4</ele>
        <time>2012-06-14T08:36:43.000Z</time>
      </trkpt>
      <trkpt lat="47.73613" lon="6.03206">
        <ele>269.8</ele>
        <time>2012-06-14T08:36:45.000Z</time>
      </trkpt>
      <trkpt lat="47.73587" lon="6.03273">
        <ele>265</ele>
        <time>2012-06-14T08:36:55.000Z</time>
      </trkpt>
      <trkpt lat="47.73578" lon="6.03283">
        <ele>257.8</ele>
        <time>2012-06-14T08:36:57.000Z</time>
      </trkpt>
      <trkpt lat="47.73568" lon="6.03292">
        <ele>256.1</ele>
        <time>2012-06-14T08:36:59.000Z</time>
      </trkpt>
      <trkpt lat="47.73564" lon="6.03296">
        <ele>257.2</ele>
        <time>2012-06-14T08:37:00.000Z</time>
      </trkpt>
      <trkpt lat="47.73559" lon="6.03299">
        <ele>256.8</ele>
        <time>2012-06-14T08:37:01.000Z</time>
      </trkpt>
      <trkpt lat="47.73551" lon="6.03306">
        <ele>255.7</ele>
        <time>2012-06-14T08:37:03.000Z</time>
      </trkpt>
      <trkpt lat="47.73547" lon="6.03311">
        <ele>255.6</ele>
        <time>2012-06-14T08:37:04.000Z</time>
      </trkpt>
      <trkpt lat="47.73543" lon="6.03316">
        <ele>255.9</ele>
        <time>2012-06-14T08:37:05.000Z</time>
      </trkpt>
      <trkpt lat="47.73539" lon="6.03322">
        <ele>255.3</ele>
        <time>2012-06-14T08:37:06.000Z</time>
      </trkpt>
      <trkpt lat="47.73536" lon="6.03328">
        <ele>254.9</ele>
        <time>2012-06-14T08:37:07.000Z</time>
      </trkpt>
      <trkpt lat="47.73534" lon="6.03341">
        <ele>255.1</ele>
        <time>2012-06-14T08:37:09.000Z</time>
      </trkpt>
      <trkpt lat="47.73534" lon="6.03348">
        <ele>255.9</ele>
        <time>2012-06-14T08:37:10.000Z</time>
      </trkpt>
      <trkpt lat="47.73534" lon="6.03355">
        <ele>256.1</ele>
        <time>2012-06-14T08:37:11.000Z</time>
      </trkpt>
      <trkpt lat="47.73534" lon="6.03363">
        <ele>256.2</ele>
        <time>2012-06-14T08:37:12.000Z</time>
      </trkpt>
      <trkpt lat="47.73533" lon="6.0337">
        <ele>256.5</ele>
        <time>2012-06-14T08:37:13.000Z</time>
      </trkpt>
      <trkpt lat="47.73533" lon="6.03377">
        <ele>256.7</ele>
        <time>2012-06-14T08:37:14.000Z</time>
      </trkpt>
      <trkpt lat="47.73532" lon="6.03384">
        <ele>257.2</ele>
        <time>2012-06-14T08:37:15.000Z</time>
      </trkpt>
      <trkpt lat="47.73532" lon="6.03392">
        <ele>257.3</ele>
        <time>2012-06-14T08:37:16.000Z</time>
      </trkpt>
      <trkpt lat="47.73531" lon="6.03399">
        <ele>257.7</ele>
        <time>2012-06-14T08:37:17.000Z</time>
      </trkpt>
      <trkpt lat="47.7353" lon="6.03406">
        <ele>258</ele>
        <time>2012-06-14T08:37:18.000Z</time>
      </trkpt>
      <trkpt lat="47.73529" lon="6.03414">
        <ele>258.3</ele>
        <time>2012-06-14T08:37:19.000Z</time>
      </trkpt>
      <trkpt lat="47.73528" lon="6.03421">
        <ele>258.6</ele>
        <time>2012-06-14T08:37:20.000Z</time>
      </trkpt>
      <trkpt lat="47.73527" lon="6.03428">
        <ele>258.9</ele>
        <time>2012-06-14T08:37:21.000Z</time>
      </trkpt>
      <trkpt lat="47.73526" lon="6.03436">
        <ele>259.1</ele>
        <time>2012-06-14T08:37:22.000Z</time>
      </trkpt>
      <trkpt lat="47.73524" lon="6.03443">
        <ele>259.7</ele>
        <time>2012-06-14T08:37:23.000Z</time>
      </trkpt>
      <trkpt lat="47.73522" lon="6.0345">
        <ele>260.5</ele>
        <time>2012-06-14T08:37:24.000Z</time>
      </trkpt>
      <trkpt lat="47.73521" lon="6.03458">
        <ele>261.2</ele>
        <time>2012-06-14T08:37:25.000Z</time>
      </trkpt>
      <trkpt lat="47.73519" lon="6.03465">
        <ele>261.7</ele>
        <time>2012-06-14T08:37:26.000Z</time>
      </trkpt>
      <trkpt lat="47.73518" lon="6.03472">
        <ele>262.2</ele>
        <time>2012-06-14T08:37:27.000Z</time>
      </trkpt>
      <trkpt lat="47.73516" lon="6.03478">
        <ele>262.4</ele>
        <time>2012-06-14T08:37:28.000Z</time>
      </trkpt>
      <trkpt lat="47.73514" lon="6.03485">
        <ele>262.7</ele>
        <time>2012-06-14T08:37:29.000Z</time>
      </trkpt>
      <trkpt lat="47.73512" lon="6.03492">
        <ele>262.9</ele>
        <time>2012-06-14T08:37:30.000Z</time>
      </trkpt>
      <trkpt lat="47.7351" lon="6.03499">
        <ele>263</ele>
        <time>2012-06-14T08:37:31.000Z</time>
      </trkpt>
      <trkpt lat="47.73508" lon="6.03506">
        <ele>263</ele>
        <time>2012-06-14T08:37:32.000Z</time>
      </trkpt>
      <trkpt lat="47.73505" lon="6.03512">
        <ele>263</ele>
        <time>2012-06-14T08:37:33.000Z</time>
      </trkpt>
      <trkpt lat="47.73503" lon="6.03519">
        <ele>263.1</ele>
        <time>2012-06-14T08:37:34.000Z</time>
      </trkpt>
      <trkpt lat="47.73501" lon="6.03525">
        <ele>263.2</ele>
        <time>2012-06-14T08:37:35.000Z</time>
      </trkpt>
      <trkpt lat="47.73499" lon="6.03532">
        <ele>263.3</ele>
        <time>2012-06-14T08:37:36.000Z</time>
      </trkpt>
      <trkpt lat="47.73497" lon="6.03538">
        <ele>263.4</ele>
        <time>2012-06-14T08:37:37.000Z</time>
      </trkpt>
      <trkpt lat="47.73494" lon="6.03551">
        <ele>263.4</ele>
        <time>2012-06-14T08:37:39.000Z</time>
      </trkpt>
      <trkpt lat="47.73492" lon="6.03558">
        <ele>263.5</ele>
        <time>2012-06-14T08:37:40.000Z</time>
      </trkpt>
      <trkpt lat="47.73491" lon="6.03565">
        <ele>263.5</ele>
        <time>2012-06-14T08:37:41.000Z</time>
      </trkpt>
      <trkpt lat="47.73489" lon="6.03572">
        <ele>263.5</ele>
        <time>2012-06-14T08:37:42.000Z</time>
      </trkpt>
      <trkpt lat="47.73486" lon="6.03578">
        <ele>263.5</ele>
        <time>2012-06-14T08:37:43.000Z</time>
      </trkpt>
      <trkpt lat="47.73482" lon="6.0359">
        <ele>263.4</ele>
        <time>2012-06-14T08:37:45.000Z</time>
      </trkpt>
      <trkpt lat="47.73467" lon="6.03632">
        <ele>246.8</ele>
        <time>2012-06-14T08:37:52.000Z</time>
      </trkpt>
      <trkpt lat="47.73466" lon="6.03642">
        <ele>254.1</ele>
        <time>2012-06-14T08:37:53.000Z</time>
      </trkpt>
      <trkpt lat="47.73468" lon="6.0366">
        <ele>256.8</ele>
        <time>2012-06-14T08:37:55.000Z</time>
      </trkpt>
      <trkpt lat="47.73465" lon="6.03665">
        <ele>260</ele>
        <time>2012-06-14T08:37:56.000Z</time>
      </trkpt>
      <trkpt lat="47.73465" lon="6.03672">
        <ele>261.6</ele>
        <time>2012-06-14T08:37:57.000Z</time>
      </trkpt>
      <trkpt lat="47.73461" lon="6.03684">
        <ele>259.9</ele>
        <time>2012-06-14T08:37:59.000Z</time>
      </trkpt>
      <trkpt lat="47.73459" lon="6.0369">
        <ele>260</ele>
        <time>2012-06-14T08:38:00.000Z</time>
      </trkpt>
      <trkpt lat="47.73457" lon="6.03696">
        <ele>260.1</ele>
        <time>2012-06-14T08:38:01.000Z</time>
      </trkpt>
      <trkpt lat="47.73455" lon="6.03703">
        <ele>260.4</ele>
        <time>2012-06-14T08:38:02.000Z</time>
      </trkpt>
      <trkpt lat="47.73453" lon="6.03709">
        <ele>260.7</ele>
        <time>2012-06-14T08:38:03.000Z</time>
      </trkpt>
      <trkpt lat="47.73451" lon="6.03717">
        <ele>261</ele>
        <time>2012-06-14T08:38:04.000Z</time>
      </trkpt>
      <trkpt lat="47.73449" lon="6.03724">
        <ele>261.1</ele>
        <time>2012-06-14T08:38:05.000Z</time>
      </trkpt>
      <trkpt lat="47.73447" lon="6.0373">
        <ele>261</ele>
        <time>2012-06-14T08:38:06.000Z</time>
      </trkpt>
      <trkpt lat="47.73445" lon="6.03738">
        <ele>261.1</ele>
        <time>2012-06-14T08:38:07.000Z</time>
      </trkpt>
      <trkpt lat="47.73442" lon="6.03744">
        <ele>261.5</ele>
        <time>2012-06-14T08:38:08.000Z</time>
      </trkpt>
      <trkpt lat="47.7344" lon="6.03751">
        <ele>261.6</ele>
        <time>2012-06-14T08:38:09.000Z</time>
      </trkpt>
      <trkpt lat="47.73438" lon="6.03758">
        <ele>261.7</ele>
        <time>2012-06-14T08:38:10.000Z</time>
      </trkpt>
      <trkpt lat="47.73436" lon="6.03765">
        <ele>261.8</ele>
        <time>2012-06-14T08:38:11.000Z</time>
      </trkpt>
      <trkpt lat="47.73433" lon="6.03771">
        <ele>262.1</ele>
        <time>2012-06-14T08:38:12.000Z</time>
      </trkpt>
      <trkpt lat="47.7343" lon="6.03778">
        <ele>262.5</ele>
        <time>2012-06-14T08:38:13.000Z</time>
      </trkpt>
      <trkpt lat="47.73428" lon="6.03784">
        <ele>262.7</ele>
        <time>2012-06-14T08:38:14.000Z</time>
      </trkpt>
      <trkpt lat="47.73425" lon="6.03791">
        <ele>262.8</ele>
        <time>2012-06-14T08:38:15.000Z</time>
      </trkpt>
      <trkpt lat="47.73422" lon="6.03797">
        <ele>263.1</ele>
        <time>2012-06-14T08:38:16.000Z</time>
      </trkpt>
      <trkpt lat="47.73418" lon="6.03802">
        <ele>263.5</ele>
        <time>2012-06-14T08:38:17.000Z</time>
      </trkpt>
      <trkpt lat="47.73414" lon="6.03808">
        <ele>263.8</ele>
        <time>2012-06-14T08:38:18.000Z</time>
      </trkpt>
      <trkpt lat="47.73409" lon="6.03813">
        <ele>264</ele>
        <time>2012-06-14T08:38:19.000Z</time>
      </trkpt>
      <trkpt lat="47.73405" lon="6.03818">
        <ele>264</ele>
        <time>2012-06-14T08:38:20.000Z</time>
      </trkpt>
      <trkpt lat="47.734" lon="6.03824">
        <ele>264.2</ele>
        <time>2012-06-14T08:38:21.000Z</time>
      </trkpt>
      <trkpt lat="47.73396" lon="6.03829">
        <ele>264.1</ele>
        <time>2012-06-14T08:38:22.000Z</time>
      </trkpt>
      <trkpt lat="47.73391" lon="6.03835">
        <ele>264.1</ele>
        <time>2012-06-14T08:38:23.000Z</time>
      </trkpt>
      <trkpt lat="47.73387" lon="6.03841">
        <ele>264.2</ele>
        <time>2012-06-14T08:38:24.000Z</time>
      </trkpt>
      <trkpt lat="47.73382" lon="6.03847">
        <ele>264.6</ele>
        <time>2012-06-14T08:38:25.000Z</time>
      </trkpt>
      <trkpt lat="47.73378" lon="6.03854">
        <ele>264.6</ele>
        <time>2012-06-14T08:38:26.000Z</time>
      </trkpt>
      <trkpt lat="47.73374" lon="6.0386">
        <ele>264.1</ele>
        <time>2012-06-14T08:38:27.000Z</time>
      </trkpt>
      <trkpt lat="47.7337" lon="6.03866">
        <ele>263.8</ele>
        <time>2012-06-14T08:38:28.000Z</time>
      </trkpt>
      <trkpt lat="47.73366" lon="6.03872">
        <ele>263.4</ele>
        <time>2012-06-14T08:38:29.000Z</time>
      </trkpt>
      <trkpt lat="47.73363" lon="6.03878">
        <ele>263.3</ele>
        <time>2012-06-14T08:38:30.000Z</time>
      </trkpt>
      <trkpt lat="47.73359" lon="6.03888">
        <ele>263.1</ele>
        <time>2012-06-14T08:38:32.000Z</time>
      </trkpt>
      <trkpt lat="47.73356" lon="6.03894">
        <ele>263.1</ele>
        <time>2012-06-14T08:38:33.000Z</time>
      </trkpt>
      <trkpt lat="47.73354" lon="6.039">
        <ele>263</ele>
        <time>2012-06-14T08:38:34.000Z</time>
      </trkpt>
      <trkpt lat="47.73352" lon="6.03908">
        <ele>262.8</ele>
        <time>2012-06-14T08:38:35.000Z</time>
      </trkpt>
      <trkpt lat="47.73351" lon="6.03915">
        <ele>262.5</ele>
        <time>2012-06-14T08:38:36.000Z</time>
      </trkpt>
      <trkpt lat="47.7335" lon="6.03923">
        <ele>262.2</ele>
        <time>2012-06-14T08:38:37.000Z</time>
      </trkpt>
      <trkpt lat="47.7335" lon="6.0393">
        <ele>262.1</ele>
        <time>2012-06-14T08:38:38.000Z</time>
      </trkpt>
      <trkpt lat="47.73349" lon="6.03937">
        <ele>262.1</ele>
        <time>2012-06-14T08:38:39.000Z</time>
      </trkpt>
      <trkpt lat="47.73347" lon="6.03948">
        <ele>262.2</ele>
        <time>2012-06-14T08:38:41.000Z</time>
      </trkpt>
      <trkpt lat="47.73345" lon="6.03955">
        <ele>262.1</ele>
        <time>2012-06-14T08:38:42.000Z</time>
      </trkpt>
      <trkpt lat="47.73342" lon="6.03961">
        <ele>262.5</ele>
        <time>2012-06-14T08:38:43.000Z</time>
      </trkpt>
      <trkpt lat="47.73341" lon="6.03974">
        <ele>262.9</ele>
        <time>2012-06-14T08:38:45.000Z</time>
      </trkpt>
      <trkpt lat="47.7334" lon="6.0398">
        <ele>263.2</ele>
        <time>2012-06-14T08:38:46.000Z</time>
      </trkpt>
      <trkpt lat="47.73309" lon="6.04055">
        <ele>257.6</ele>
        <time>2012-06-14T08:38:58.000Z</time>
      </trkpt>
      <trkpt lat="47.73303" lon="6.04076">
        <ele>238.9</ele>
        <time>2012-06-14T08:39:00.000Z</time>
      </trkpt>
      <trkpt lat="47.73322" lon="6.04087">
        <ele>302.9</ele>
        <time>2012-06-14T08:39:01.000Z</time>
      </trkpt>
      <trkpt lat="47.73306" lon="6.04094">
        <ele>262.1</ele>
        <time>2012-06-14T08:39:04.000Z</time>
      </trkpt>
      <trkpt lat="47.73293" lon="6.04096">
        <ele>244</ele>
        <time>2012-06-14T08:39:05.000Z</time>
      </trkpt>
      <trkpt lat="47.73305" lon="6.04108">
        <ele>255.2</ele>
        <time>2012-06-14T08:39:08.000Z</time>
      </trkpt>
      <trkpt lat="47.73306" lon="6.04116">
        <ele>261.2</ele>
        <time>2012-06-14T08:39:11.000Z</time>
      </trkpt>
      <trkpt lat="47.73302" lon="6.0412">
        <ele>261.5</ele>
        <time>2012-06-14T08:39:12.000Z</time>
      </trkpt>
      <trkpt lat="47.73303" lon="6.04129">
        <ele>269.9</ele>
        <time>2012-06-14T08:39:16.000Z</time>
      </trkpt>
      <trkpt lat="47.73309" lon="6.04132">
        <ele>278.5</ele>
        <time>2012-06-14T08:39:19.000Z</time>
      </trkpt>
      <trkpt lat="47.73309" lon="6.04139">
        <ele>270.9</ele>
        <time>2012-06-14T08:39:24.000Z</time>
      </trkpt>
      <trkpt lat="47.73314" lon="6.04144">
        <ele>265.7</ele>
        <time>2012-06-14T08:39:26.000Z</time>
      </trkpt>
      <trkpt lat="47.7332" lon="6.04148">
        <ele>263.8</ele>
        <time>2012-06-14T08:39:28.000Z</time>
      </trkpt>
      <trkpt lat="47.73327" lon="6.04152">
        <ele>264.7</ele>
        <time>2012-06-14T08:39:30.000Z</time>
      </trkpt>
      <trkpt lat="47.73332" lon="6.04155">
        <ele>266</ele>
        <time>2012-06-14T08:39:32.000Z</time>
      </trkpt>
      <trkpt lat="47.73339" lon="6.04159">
        <ele>267.1</ele>
        <time>2012-06-14T08:39:34.000Z</time>
      </trkpt>
      <trkpt lat="47.73346" lon="6.04165">
        <ele>267.1</ele>
        <time>2012-06-14T08:39:36.000Z</time>
      </trkpt>
      <trkpt lat="47.73349" lon="6.04177">
        <ele>266.8</ele>
        <time>2012-06-14T08:39:38.000Z</time>
      </trkpt>
      <trkpt lat="47.73349" lon="6.04185">
        <ele>266.5</ele>
        <time>2012-06-14T08:39:39.000Z</time>
      </trkpt>
      <trkpt lat="47.73347" lon="6.04194">
        <ele>266.4</ele>
        <time>2012-06-14T08:39:40.000Z</time>
      </trkpt>
      <trkpt lat="47.73345" lon="6.04202">
        <ele>266.7</ele>
        <time>2012-06-14T08:39:41.000Z</time>
      </trkpt>
      <trkpt lat="47.73342" lon="6.04209">
        <ele>267</ele>
        <time>2012-06-14T08:39:42.000Z</time>
      </trkpt>
      <trkpt lat="47.7334" lon="6.04217">
        <ele>267.2</ele>
        <time>2012-06-14T08:39:43.000Z</time>
      </trkpt>
      <trkpt lat="47.73338" lon="6.04224">
        <ele>267.3</ele>
        <time>2012-06-14T08:39:44.000Z</time>
      </trkpt>
      <trkpt lat="47.73336" lon="6.04231">
        <ele>267.3</ele>
        <time>2012-06-14T08:39:45.000Z</time>
      </trkpt>
      <trkpt lat="47.73333" lon="6.04239">
        <ele>267</ele>
        <time>2012-06-14T08:39:46.000Z</time>
      </trkpt>
      <trkpt lat="47.73331" lon="6.04246">
        <ele>267.1</ele>
        <time>2012-06-14T08:39:47.000Z</time>
      </trkpt>
      <trkpt lat="47.7333" lon="6.04255">
        <ele>266.5</ele>
        <time>2012-06-14T08:39:48.000Z</time>
      </trkpt>
      <trkpt lat="47.73327" lon="6.04264">
        <ele>265.9</ele>
        <time>2012-06-14T08:39:49.000Z</time>
      </trkpt>
      <trkpt lat="47.73326" lon="6.04275">
        <ele>265.4</ele>
        <time>2012-06-14T08:39:50.000Z</time>
      </trkpt>
      <trkpt lat="47.73324" lon="6.04286">
        <ele>265.2</ele>
        <time>2012-06-14T08:39:51.000Z</time>
      </trkpt>
      <trkpt lat="47.73322" lon="6.04296">
        <ele>265.3</ele>
        <time>2012-06-14T08:39:52.000Z</time>
      </trkpt>
      <trkpt lat="47.73321" lon="6.04305">
        <ele>265.5</ele>
        <time>2012-06-14T08:39:53.000Z</time>
      </trkpt>
      <trkpt lat="47.7332" lon="6.04313">
        <ele>265.7</ele>
        <time>2012-06-14T08:39:54.000Z</time>
      </trkpt>
      <trkpt lat="47.73318" lon="6.0432">
        <ele>265.7</ele>
        <time>2012-06-14T08:39:55.000Z</time>
      </trkpt>
      <trkpt lat="47.73316" lon="6.04328">
        <ele>265.7</ele>
        <time>2012-06-14T08:39:56.000Z</time>
      </trkpt>
      <trkpt lat="47.73315" lon="6.04336">
        <ele>265.9</ele>
        <time>2012-06-14T08:39:57.000Z</time>
      </trkpt>
      <trkpt lat="47.73313" lon="6.04343">
        <ele>266</ele>
        <time>2012-06-14T08:39:58.000Z</time>
      </trkpt>
      <trkpt lat="47.73312" lon="6.04351">
        <ele>266.2</ele>
        <time>2012-06-14T08:39:59.000Z</time>
      </trkpt>
      <trkpt lat="47.7331" lon="6.04362">
        <ele>266.5</ele>
        <time>2012-06-14T08:40:01.000Z</time>
      </trkpt>
      <trkpt lat="47.73309" lon="6.0437">
        <ele>267</ele>
        <time>2012-06-14T08:40:03.000Z</time>
      </trkpt>
      <trkpt lat="47.73307" lon="6.0438">
        <ele>267.8</ele>
        <time>2012-06-14T08:40:06.000Z</time>
      </trkpt>
      <trkpt lat="47.73308" lon="6.04388">
        <ele>268.4</ele>
        <time>2012-06-14T08:40:08.000Z</time>
      </trkpt>
      <trkpt lat="47.73307" lon="6.04396">
        <ele>269.1</ele>
        <time>2012-06-14T08:40:10.000Z</time>
      </trkpt>
      <trkpt lat="47.73305" lon="6.04402">
        <ele>269.5</ele>
        <time>2012-06-14T08:40:12.000Z</time>
      </trkpt>
      <trkpt lat="47.73304" lon="6.0441">
        <ele>270</ele>
        <time>2012-06-14T08:40:15.000Z</time>
      </trkpt>
      <trkpt lat="47.73302" lon="6.04419">
        <ele>270.5</ele>
        <time>2012-06-14T08:40:18.000Z</time>
      </trkpt>
      <trkpt lat="47.733" lon="6.04427">
        <ele>270.8</ele>
        <time>2012-06-14T08:40:21.000Z</time>
      </trkpt>
      <trkpt lat="47.733" lon="6.04434">
        <ele>271.1</ele>
        <time>2012-06-14T08:40:24.000Z</time>
      </trkpt>
      <trkpt lat="47.73297" lon="6.04442">
        <ele>271.1</ele>
        <time>2012-06-14T08:40:27.000Z</time>
      </trkpt>
      <trkpt lat="47.73294" lon="6.04451">
        <ele>271.1</ele>
        <time>2012-06-14T08:40:30.000Z</time>
      </trkpt>
      <trkpt lat="47.73293" lon="6.04458">
        <ele>271.1</ele>
        <time>2012-06-14T08:40:33.000Z</time>
      </trkpt>
      <trkpt lat="47.7329" lon="6.04466">
        <ele>271</ele>
        <time>2012-06-14T08:40:36.000Z</time>
      </trkpt>
      <trkpt lat="47.73287" lon="6.04473">
        <ele>270.7</ele>
        <time>2012-06-14T08:40:38.000Z</time>
      </trkpt>
      <trkpt lat="47.73288" lon="6.0448">
        <ele>270.2</ele>
        <time>2012-06-14T08:40:39.000Z</time>
      </trkpt>
      <trkpt lat="47.73284" lon="6.04489">
        <ele>269.8</ele>
        <time>2012-06-14T08:40:41.000Z</time>
      </trkpt>
      <trkpt lat="47.73277" lon="6.045">
        <ele>269.7</ele>
        <time>2012-06-14T08:40:43.000Z</time>
      </trkpt>
      <trkpt lat="47.73273" lon="6.04507">
        <ele>269.6</ele>
        <time>2012-06-14T08:40:44.000Z</time>
      </trkpt>
      <trkpt lat="47.7327" lon="6.04516">
        <ele>269.5</ele>
        <time>2012-06-14T08:40:45.000Z</time>
      </trkpt>
      <trkpt lat="47.73268" lon="6.04523">
        <ele>269.4</ele>
        <time>2012-06-14T08:40:46.000Z</time>
      </trkpt>
      <trkpt lat="47.73251" lon="6.04563">
        <ele>266.4</ele>
        <time>2012-06-14T08:40:54.000Z</time>
      </trkpt>
      <trkpt lat="47.73248" lon="6.04568">
        <ele>266.7</ele>
        <time>2012-06-14T08:40:56.000Z</time>
      </trkpt>
      <trkpt lat="47.73246" lon="6.04574">
        <ele>266.3</ele>
        <time>2012-06-14T08:40:58.000Z</time>
      </trkpt>
      <trkpt lat="47.73242" lon="6.04582">
        <ele>267.3</ele>
        <time>2012-06-14T08:41:01.000Z</time>
      </trkpt>
      <trkpt lat="47.73238" lon="6.04586">
        <ele>268</ele>
        <time>2012-06-14T08:41:03.000Z</time>
      </trkpt>
      <trkpt lat="47.73233" lon="6.04592">
        <ele>270</ele>
        <time>2012-06-14T08:41:06.000Z</time>
      </trkpt>
      <trkpt lat="47.7323" lon="6.04599">
        <ele>270.2</ele>
        <time>2012-06-14T08:41:08.000Z</time>
      </trkpt>
      <trkpt lat="47.73228" lon="6.04606">
        <ele>270.6</ele>
        <time>2012-06-14T08:41:10.000Z</time>
      </trkpt>
      <trkpt lat="47.73225" lon="6.04613">
        <ele>270.6</ele>
        <time>2012-06-14T08:41:12.000Z</time>
      </trkpt>
      <trkpt lat="47.73221" lon="6.04619">
        <ele>270.8</ele>
        <time>2012-06-14T08:41:14.000Z</time>
      </trkpt>
      <trkpt lat="47.73217" lon="6.04626">
        <ele>271</ele>
        <time>2012-06-14T08:41:16.000Z</time>
      </trkpt>
      <trkpt lat="47.73214" lon="6.04633">
        <ele>271.2</ele>
        <time>2012-06-14T08:41:18.000Z</time>
      </trkpt>
      <trkpt lat="47.7321" lon="6.04641">
        <ele>271</ele>
        <time>2012-06-14T08:41:20.000Z</time>
      </trkpt>
      <trkpt lat="47.73206" lon="6.04649">
        <ele>270.9</ele>
        <time>2012-06-14T08:41:22.000Z</time>
      </trkpt>
      <trkpt lat="47.73202" lon="6.04657">
        <ele>270.8</ele>
        <time>2012-06-14T08:41:24.000Z</time>
      </trkpt>
      <trkpt lat="47.73198" lon="6.04664">
        <ele>270.6</ele>
        <time>2012-06-14T08:41:26.000Z</time>
      </trkpt>
      <trkpt lat="47.73194" lon="6.0467">
        <ele>270.3</ele>
        <time>2012-06-14T08:41:28.000Z</time>
      </trkpt>
      <trkpt lat="47.73191" lon="6.04677">
        <ele>270.2</ele>
        <time>2012-06-14T08:41:30.000Z</time>
      </trkpt>
      <trkpt lat="47.73187" lon="6.04684">
        <ele>270.2</ele>
        <time>2012-06-14T08:41:32.000Z</time>
      </trkpt>
      <trkpt lat="47.73185" lon="6.04692">
        <ele>270.3</ele>
        <time>2012-06-14T08:41:34.000Z</time>
      </trkpt>
      <trkpt lat="47.73182" lon="6.04699">
        <ele>271</ele>
        <time>2012-06-14T08:41:36.000Z</time>
      </trkpt>
      <trkpt lat="47.7318" lon="6.04707">
        <ele>271</ele>
        <time>2012-06-14T08:41:38.000Z</time>
      </trkpt>
      <trkpt lat="47.73177" lon="6.04715">
        <ele>271</ele>
        <time>2012-06-14T08:41:40.000Z</time>
      </trkpt>
      <trkpt lat="47.73174" lon="6.04725">
        <ele>271.2</ele>
        <time>2012-06-14T08:41:42.000Z</time>
      </trkpt>
      <trkpt lat="47.73172" lon="6.04734">
        <ele>271.4</ele>
        <time>2012-06-14T08:41:44.000Z</time>
      </trkpt>
      <trkpt lat="47.73168" lon="6.04742">
        <ele>271.3</ele>
        <time>2012-06-14T08:41:46.000Z</time>
      </trkpt>
      <trkpt lat="47.73156" lon="6.04786">
        <ele>258</ele>
        <time>2012-06-14T08:41:52.000Z</time>
      </trkpt>
      <trkpt lat="47.73155" lon="6.04797">
        <ele>260.2</ele>
        <time>2012-06-14T08:41:55.000Z</time>
      </trkpt>
      <trkpt lat="47.73149" lon="6.04796">
        <ele>261.8</ele>
        <time>2012-06-14T08:41:56.000Z</time>
      </trkpt>
      <trkpt lat="47.73145" lon="6.04803">
        <ele>265.9</ele>
        <time>2012-06-14T08:41:58.000Z</time>
      </trkpt>
      <trkpt lat="47.73141" lon="6.04811">
        <ele>266.8</ele>
        <time>2012-06-14T08:42:00.000Z</time>
      </trkpt>
      <trkpt lat="47.73138" lon="6.04819">
        <ele>268</ele>
        <time>2012-06-14T08:42:02.000Z</time>
      </trkpt>
      <trkpt lat="47.73135" lon="6.04828">
        <ele>268.6</ele>
        <time>2012-06-14T08:42:04.000Z</time>
      </trkpt>
      <trkpt lat="47.73129" lon="6.04839">
        <ele>269.5</ele>
        <time>2012-06-14T08:42:06.000Z</time>
      </trkpt>
      <trkpt lat="47.73125" lon="6.04844">
        <ele>269.8</ele>
        <time>2012-06-14T08:42:07.000Z</time>
      </trkpt>
      <trkpt lat="47.73122" lon="6.04848">
        <ele>271</ele>
        <time>2012-06-14T08:42:08.000Z</time>
      </trkpt>
      <trkpt lat="47.73118" lon="6.04853">
        <ele>271.4</ele>
        <time>2012-06-14T08:42:09.000Z</time>
      </trkpt>
      <trkpt lat="47.73114" lon="6.04857">
        <ele>271.9</ele>
        <time>2012-06-14T08:42:10.000Z</time>
      </trkpt>
      <trkpt lat="47.7311" lon="6.04861">
        <ele>272.7</ele>
        <time>2012-06-14T08:42:11.000Z</time>
      </trkpt>
      <trkpt lat="47.73108" lon="6.04867">
        <ele>272.5</ele>
        <time>2012-06-14T08:42:12.000Z</time>
      </trkpt>
      <trkpt lat="47.73105" lon="6.04873">
        <ele>272.4</ele>
        <time>2012-06-14T08:42:13.000Z</time>
      </trkpt>
      <trkpt lat="47.73103" lon="6.0488">
        <ele>272.4</ele>
        <time>2012-06-14T08:42:14.000Z</time>
      </trkpt>
      <trkpt lat="47.731" lon="6.04886">
        <ele>273</ele>
        <time>2012-06-14T08:42:15.000Z</time>
      </trkpt>
      <trkpt lat="47.73099" lon="6.04895">
        <ele>274</ele>
        <time>2012-06-14T08:42:17.000Z</time>
      </trkpt>
      <trkpt lat="47.73101" lon="6.04904">
        <ele>273.9</ele>
        <time>2012-06-14T08:42:19.000Z</time>
      </trkpt>
      <trkpt lat="47.73105" lon="6.0491">
        <ele>274</ele>
        <time>2012-06-14T08:42:21.000Z</time>
      </trkpt>
      <trkpt lat="47.7311" lon="6.04917">
        <ele>274</ele>
        <time>2012-06-14T08:42:23.000Z</time>
      </trkpt>
      <trkpt lat="47.73114" lon="6.04923">
        <ele>274</ele>
        <time>2012-06-14T08:42:25.000Z</time>
      </trkpt>
      <trkpt lat="47.73118" lon="6.04929">
        <ele>273.7</ele>
        <time>2012-06-14T08:42:27.000Z</time>
      </trkpt>
      <trkpt lat="47.73121" lon="6.04938">
        <ele>272.6</ele>
        <time>2012-06-14T08:42:29.000Z</time>
      </trkpt>
      <trkpt lat="47.73124" lon="6.04947">
        <ele>272.1</ele>
        <time>2012-06-14T08:42:31.000Z</time>
      </trkpt>
      <trkpt lat="47.73125" lon="6.04958">
        <ele>271.6</ele>
        <time>2012-06-14T08:42:33.000Z</time>
      </trkpt>
      <trkpt lat="47.73127" lon="6.04964">
        <ele>271.5</ele>
        <time>2012-06-14T08:42:34.000Z</time>
      </trkpt>
      <trkpt lat="47.73126" lon="6.04974">
        <ele>271.6</ele>
        <time>2012-06-14T08:42:36.000Z</time>
      </trkpt>
      <trkpt lat="47.73126" lon="6.04986">
        <ele>271.4</ele>
        <time>2012-06-14T08:42:38.000Z</time>
      </trkpt>
      <trkpt lat="47.73126" lon="6.04994">
        <ele>272</ele>
        <time>2012-06-14T08:42:40.000Z</time>
      </trkpt>
      <trkpt lat="47.73124" lon="6.05002">
        <ele>272.6</ele>
        <time>2012-06-14T08:42:42.000Z</time>
      </trkpt>
      <trkpt lat="47.73123" lon="6.05008">
        <ele>272.6</ele>
        <time>2012-06-14T08:42:44.000Z</time>
      </trkpt>
      <trkpt lat="47.73121" lon="6.05016">
        <ele>272.6</ele>
        <time>2012-06-14T08:42:46.000Z</time>
      </trkpt>
      <trkpt lat="47.7312" lon="6.05027">
        <ele>272.3</ele>
        <time>2012-06-14T08:42:48.000Z</time>
      </trkpt>
      <trkpt lat="47.73118" lon="6.05037">
        <ele>272.1</ele>
        <time>2012-06-14T08:42:50.000Z</time>
      </trkpt>
      <trkpt lat="47.73118" lon="6.05047">
        <ele>271.7</ele>
        <time>2012-06-14T08:42:52.000Z</time>
      </trkpt>
      <trkpt lat="47.73118" lon="6.05058">
        <ele>271.5</ele>
        <time>2012-06-14T08:42:54.000Z</time>
      </trkpt>
      <trkpt lat="47.73117" lon="6.0507">
        <ele>271.2</ele>
        <time>2012-06-14T08:42:56.000Z</time>
      </trkpt>
      <trkpt lat="47.73118" lon="6.05082">
        <ele>271</ele>
        <time>2012-06-14T08:42:58.000Z</time>
      </trkpt>
      <trkpt lat="47.73117" lon="6.05092">
        <ele>271</ele>
        <time>2012-06-14T08:43:00.000Z</time>
      </trkpt>
      <trkpt lat="47.73116" lon="6.05102">
        <ele>270.9</ele>
        <time>2012-06-14T08:43:02.000Z</time>
      </trkpt>
      <trkpt lat="47.73114" lon="6.05113">
        <ele>270.7</ele>
        <time>2012-06-14T08:43:04.000Z</time>
      </trkpt>
      <trkpt lat="47.73113" lon="6.05125">
        <ele>270.6</ele>
        <time>2012-06-14T08:43:06.000Z</time>
      </trkpt>
      <trkpt lat="47.73112" lon="6.05135">
        <ele>270.5</ele>
        <time>2012-06-14T08:43:08.000Z</time>
      </trkpt>
      <trkpt lat="47.7311" lon="6.05144">
        <ele>270.3</ele>
        <time>2012-06-14T08:43:10.000Z</time>
      </trkpt>
      <trkpt lat="47.7311" lon="6.05152">
        <ele>270.2</ele>
        <time>2012-06-14T08:43:12.000Z</time>
      </trkpt>
      <trkpt lat="47.73109" lon="6.05161">
        <ele>269.9</ele>
        <time>2012-06-14T08:43:14.000Z</time>
      </trkpt>
      <trkpt lat="47.73107" lon="6.05172">
        <ele>269.6</ele>
        <time>2012-06-14T08:43:16.000Z</time>
      </trkpt>
      <trkpt lat="47.73105" lon="6.05182">
        <ele>269.4</ele>
        <time>2012-06-14T08:43:18.000Z</time>
      </trkpt>
      <trkpt lat="47.73102" lon="6.0519">
        <ele>269.3</ele>
        <time>2012-06-14T08:43:20.000Z</time>
      </trkpt>
      <trkpt lat="47.731" lon="6.05199">
        <ele>269.1</ele>
        <time>2012-06-14T08:43:22.000Z</time>
      </trkpt>
      <trkpt lat="47.73098" lon="6.05209">
        <ele>268.8</ele>
        <time>2012-06-14T08:43:24.000Z</time>
      </trkpt>
      <trkpt lat="47.73095" lon="6.05218">
        <ele>268.5</ele>
        <time>2012-06-14T08:43:26.000Z</time>
      </trkpt>
      <trkpt lat="47.73093" lon="6.05228">
        <ele>268.6</ele>
        <time>2012-06-14T08:43:28.000Z</time>
      </trkpt>
      <trkpt lat="47.73091" lon="6.05239">
        <ele>268.7</ele>
        <time>2012-06-14T08:43:30.000Z</time>
      </trkpt>
      <trkpt lat="47.73089" lon="6.05249">
        <ele>268.8</ele>
        <time>2012-06-14T08:43:32.000Z</time>
      </trkpt>
      <trkpt lat="47.73087" lon="6.05259">
        <ele>268.7</ele>
        <time>2012-06-14T08:43:34.000Z</time>
      </trkpt>
      <trkpt lat="47.73086" lon="6.05266">
        <ele>268.8</ele>
        <time>2012-06-14T08:43:35.000Z</time>
      </trkpt>
      <trkpt lat="47.73086" lon="6.05273">
        <ele>268.9</ele>
        <time>2012-06-14T08:43:36.000Z</time>
      </trkpt>
      <trkpt lat="47.73084" lon="6.05285">
        <ele>268.6</ele>
        <time>2012-06-14T08:43:38.000Z</time>
      </trkpt>
      <trkpt lat="47.73083" lon="6.05296">
        <ele>268.6</ele>
        <time>2012-06-14T08:43:40.000Z</time>
      </trkpt>
      <trkpt lat="47.73081" lon="6.05305">
        <ele>268.6</ele>
        <time>2012-06-14T08:43:42.000Z</time>
      </trkpt>
      <trkpt lat="47.73079" lon="6.05314">
        <ele>268.4</ele>
        <time>2012-06-14T08:43:44.000Z</time>
      </trkpt>
      <trkpt lat="47.73079" lon="6.05324">
        <ele>268.6</ele>
        <time>2012-06-14T08:43:46.000Z</time>
      </trkpt>
      <trkpt lat="47.73076" lon="6.05334">
        <ele>268.4</ele>
        <time>2012-06-14T08:43:48.000Z</time>
      </trkpt>
      <trkpt lat="47.73072" lon="6.05342">
        <ele>268.5</ele>
        <time>2012-06-14T08:43:50.000Z</time>
      </trkpt>
      <trkpt lat="47.7307" lon="6.05349">
        <ele>268.4</ele>
        <time>2012-06-14T08:43:52.000Z</time>
      </trkpt>
      <trkpt lat="47.73068" lon="6.05357">
        <ele>268.6</ele>
        <time>2012-06-14T08:43:54.000Z</time>
      </trkpt>
      <trkpt lat="47.73065" lon="6.05364">
        <ele>268.4</ele>
        <time>2012-06-14T08:43:56.000Z</time>
      </trkpt>
      <trkpt lat="47.73063" lon="6.0537">
        <ele>268.5</ele>
        <time>2012-06-14T08:43:58.000Z</time>
      </trkpt>
      <trkpt lat="47.7306" lon="6.05378">
        <ele>268.5</ele>
        <time>2012-06-14T08:44:00.000Z</time>
      </trkpt>
      <trkpt lat="47.73057" lon="6.05386">
        <ele>268.3</ele>
        <time>2012-06-14T08:44:02.000Z</time>
      </trkpt>
      <trkpt lat="47.73055" lon="6.05394">
        <ele>268.1</ele>
        <time>2012-06-14T08:44:04.000Z</time>
      </trkpt>
      <trkpt lat="47.73053" lon="6.05404">
        <ele>268</ele>
        <time>2012-06-14T08:44:06.000Z</time>
      </trkpt>
      <trkpt lat="47.73052" lon="6.05413">
        <ele>267.9</ele>
        <time>2012-06-14T08:44:08.000Z</time>
      </trkpt>
      <trkpt lat="47.7305" lon="6.05421">
        <ele>267.7</ele>
        <time>2012-06-14T08:44:10.000Z</time>
      </trkpt>
      <trkpt lat="47.73048" lon="6.05427">
        <ele>267.5</ele>
        <time>2012-06-14T08:44:12.000Z</time>
      </trkpt>
      <trkpt lat="47.73046" lon="6.05435">
        <ele>267.5</ele>
        <time>2012-06-14T08:44:14.000Z</time>
      </trkpt>
      <trkpt lat="47.73044" lon="6.05443">
        <ele>267.5</ele>
        <time>2012-06-14T08:44:16.000Z</time>
      </trkpt>
      <trkpt lat="47.73041" lon="6.05449">
        <ele>267.4</ele>
        <time>2012-06-14T08:44:18.000Z</time>
      </trkpt>
      <trkpt lat="47.73038" lon="6.05456">
        <ele>267.4</ele>
        <time>2012-06-14T08:44:20.000Z</time>
      </trkpt>
      <trkpt lat="47.73036" lon="6.05462">
        <ele>267.4</ele>
        <time>2012-06-14T08:44:23.000Z</time>
      </trkpt>
      <trkpt lat="47.73032" lon="6.05469">
        <ele>267.4</ele>
        <time>2012-06-14T08:44:26.000Z</time>
      </trkpt>
      <trkpt lat="47.73029" lon="6.05477">
        <ele>267.5</ele>
        <time>2012-06-14T08:44:29.000Z</time>
      </trkpt>
      <trkpt lat="47.73026" lon="6.05483">
        <ele>267.7</ele>
        <time>2012-06-14T08:44:31.000Z</time>
      </trkpt>
      <trkpt lat="47.73025" lon="6.0549">
        <ele>267.8</ele>
        <time>2012-06-14T08:44:33.000Z</time>
      </trkpt>
      <trkpt lat="47.73023" lon="6.05498">
        <ele>267.8</ele>
        <time>2012-06-14T08:44:36.000Z</time>
      </trkpt>
      <trkpt lat="47.73023" lon="6.05507">
        <ele>267.8</ele>
        <time>2012-06-14T08:44:39.000Z</time>
      </trkpt>
      <trkpt lat="47.73024" lon="6.05515">
        <ele>268</ele>
        <time>2012-06-14T08:44:42.000Z</time>
      </trkpt>
      <trkpt lat="47.73029" lon="6.05522">
        <ele>268.2</ele>
        <time>2012-06-14T08:44:45.000Z</time>
      </trkpt>
      <trkpt lat="47.73046" lon="6.05532">
        <ele>264.1</ele>
        <time>2012-06-14T08:44:55.000Z</time>
      </trkpt>
      <trkpt lat="47.73056" lon="6.05532">
        <ele>270.3</ele>
        <time>2012-06-14T08:44:57.000Z</time>
      </trkpt>
      <trkpt lat="47.73062" lon="6.05538">
        <ele>270.4</ele>
        <time>2012-06-14T08:44:59.000Z</time>
      </trkpt>
      <trkpt lat="47.73068" lon="6.05541">
        <ele>271.2</ele>
        <time>2012-06-14T08:45:01.000Z</time>
      </trkpt>
      <trkpt lat="47.73074" lon="6.05544">
        <ele>272</ele>
        <time>2012-06-14T08:45:03.000Z</time>
      </trkpt>
      <trkpt lat="47.7308" lon="6.05548">
        <ele>271.8</ele>
        <time>2012-06-14T08:45:05.000Z</time>
      </trkpt>
      <trkpt lat="47.73086" lon="6.05552">
        <ele>272.2</ele>
        <time>2012-06-14T08:45:07.000Z</time>
      </trkpt>
      <trkpt lat="47.73092" lon="6.05556">
        <ele>271.8</ele>
        <time>2012-06-14T08:45:09.000Z</time>
      </trkpt>
      <trkpt lat="47.73099" lon="6.05559">
        <ele>271.4</ele>
        <time>2012-06-14T08:45:11.000Z</time>
      </trkpt>
      <trkpt lat="47.73105" lon="6.05563">
        <ele>271.2</ele>
        <time>2012-06-14T08:45:13.000Z</time>
      </trkpt>
      <trkpt lat="47.73112" lon="6.05567">
        <ele>271.1</ele>
        <time>2012-06-14T08:45:15.000Z</time>
      </trkpt>
      <trkpt lat="47.73118" lon="6.05571">
        <ele>270.9</ele>
        <time>2012-06-14T08:45:17.000Z</time>
      </trkpt>
      <trkpt lat="47.73125" lon="6.05574">
        <ele>270.9</ele>
        <time>2012-06-14T08:45:19.000Z</time>
      </trkpt>
      <trkpt lat="47.73132" lon="6.05578">
        <ele>271</ele>
        <time>2012-06-14T08:45:21.000Z</time>
      </trkpt>
      <trkpt lat="47.73138" lon="6.05582">
        <ele>270.4</ele>
        <time>2012-06-14T08:45:23.000Z</time>
      </trkpt>
      <trkpt lat="47.73145" lon="6.05586">
        <ele>270.4</ele>
        <time>2012-06-14T08:45:25.000Z</time>
      </trkpt>
      <trkpt lat="47.73152" lon="6.05591">
        <ele>270.2</ele>
        <time>2012-06-14T08:45:27.000Z</time>
      </trkpt>
      <trkpt lat="47.73158" lon="6.05595">
        <ele>270.2</ele>
        <time>2012-06-14T08:45:29.000Z</time>
      </trkpt>
      <trkpt lat="47.73165" lon="6.056">
        <ele>270.6</ele>
        <time>2012-06-14T08:45:31.000Z</time>
      </trkpt>
      <trkpt lat="47.73172" lon="6.05606">
        <ele>270.7</ele>
        <time>2012-06-14T08:45:33.000Z</time>
      </trkpt>
      <trkpt lat="47.73178" lon="6.0561">
        <ele>270.9</ele>
        <time>2012-06-14T08:45:35.000Z</time>
      </trkpt>
      <trkpt lat="47.73185" lon="6.05615">
        <ele>271</ele>
        <time>2012-06-14T08:45:37.000Z</time>
      </trkpt>
      <trkpt lat="47.73191" lon="6.0562">
        <ele>271.1</ele>
        <time>2012-06-14T08:45:39.000Z</time>
      </trkpt>
      <trkpt lat="47.73197" lon="6.05625">
        <ele>271.3</ele>
        <time>2012-06-14T08:45:41.000Z</time>
      </trkpt>
      <trkpt lat="47.73203" lon="6.05629">
        <ele>271.1</ele>
        <time>2012-06-14T08:45:43.000Z</time>
      </trkpt>
      <trkpt lat="47.73209" lon="6.05634">
        <ele>271.3</ele>
        <time>2012-06-14T08:45:45.000Z</time>
      </trkpt>
      <trkpt lat="47.73214" lon="6.05639">
        <ele>271.5</ele>
        <time>2012-06-14T08:45:47.000Z</time>
      </trkpt>
      <trkpt lat="47.73221" lon="6.05644">
        <ele>271.1</ele>
        <time>2012-06-14T08:45:49.000Z</time>
      </trkpt>
      <trkpt lat="47.73227" lon="6.0565">
        <ele>270.9</ele>
        <time>2012-06-14T08:45:51.000Z</time>
      </trkpt>
      <trkpt lat="47.73234" lon="6.05655">
        <ele>270.7</ele>
        <time>2012-06-14T08:45:53.000Z</time>
      </trkpt>
      <trkpt lat="47.73239" lon="6.05661">
        <ele>270.4</ele>
        <time>2012-06-14T08:45:55.000Z</time>
      </trkpt>
      <trkpt lat="47.73245" lon="6.05666">
        <ele>270.4</ele>
        <time>2012-06-14T08:45:57.000Z</time>
      </trkpt>
      <trkpt lat="47.73251" lon="6.05671">
        <ele>270.5</ele>
        <time>2012-06-14T08:45:59.000Z</time>
      </trkpt>
      <trkpt lat="47.73257" lon="6.05676">
        <ele>270.6</ele>
        <time>2012-06-14T08:46:01.000Z</time>
      </trkpt>
      <trkpt lat="47.73263" lon="6.05681">
        <ele>270.7</ele>
        <time>2012-06-14T08:46:03.000Z</time>
      </trkpt>
      <trkpt lat="47.73269" lon="6.05686">
        <ele>270.7</ele>
        <time>2012-06-14T08:46:05.000Z</time>
      </trkpt>
      <trkpt lat="47.73275" lon="6.05692">
        <ele>270.7</ele>
        <time>2012-06-14T08:46:07.000Z</time>
      </trkpt>
      <trkpt lat="47.73281" lon="6.05697">
        <ele>270.8</ele>
        <time>2012-06-14T08:46:09.000Z</time>
      </trkpt>
      <trkpt lat="47.73287" lon="6.05702">
        <ele>271</ele>
        <time>2012-06-14T08:46:11.000Z</time>
      </trkpt>
      <trkpt lat="47.73293" lon="6.05708">
        <ele>271.2</ele>
        <time>2012-06-14T08:46:13.000Z</time>
      </trkpt>
      <trkpt lat="47.73299" lon="6.05714">
        <ele>271.2</ele>
        <time>2012-06-14T08:46:15.000Z</time>
      </trkpt>
      <trkpt lat="47.73306" lon="6.05719">
        <ele>271.3</ele>
        <time>2012-06-14T08:46:17.000Z</time>
      </trkpt>
      <trkpt lat="47.73312" lon="6.05725">
        <ele>271.6</ele>
        <time>2012-06-14T08:46:19.000Z</time>
      </trkpt>
      <trkpt lat="47.73319" lon="6.05731">
        <ele>271.3</ele>
        <time>2012-06-14T08:46:21.000Z</time>
      </trkpt>
      <trkpt lat="47.73326" lon="6.05737">
        <ele>271.2</ele>
        <time>2012-06-14T08:46:23.000Z</time>
      </trkpt>
      <trkpt lat="47.73333" lon="6.05743">
        <ele>271.1</ele>
        <time>2012-06-14T08:46:25.000Z</time>
      </trkpt>
      <trkpt lat="47.73339" lon="6.0575">
        <ele>271.2</ele>
        <time>2012-06-14T08:46:27.000Z</time>
      </trkpt>
      <trkpt lat="47.73345" lon="6.05758">
        <ele>271</ele>
        <time>2012-06-14T08:46:29.000Z</time>
      </trkpt>
      <trkpt lat="47.7335" lon="6.05769">
        <ele>270.9</ele>
        <time>2012-06-14T08:46:31.000Z</time>
      </trkpt>
      <trkpt lat="47.73352" lon="6.05775">
        <ele>270.9</ele>
        <time>2012-06-14T08:46:32.000Z</time>
      </trkpt>
      <trkpt lat="47.73356" lon="6.05785">
        <ele>270.6</ele>
        <time>2012-06-14T08:46:34.000Z</time>
      </trkpt>
      <trkpt lat="47.73358" lon="6.05792">
        <ele>270.6</ele>
        <time>2012-06-14T08:46:36.000Z</time>
      </trkpt>
      <trkpt lat="47.73362" lon="6.05799">
        <ele>270.8</ele>
        <time>2012-06-14T08:46:38.000Z</time>
      </trkpt>
      <trkpt lat="47.73366" lon="6.05803">
        <ele>271.1</ele>
        <time>2012-06-14T08:46:40.000Z</time>
      </trkpt>
      <trkpt lat="47.73371" lon="6.05808">
        <ele>271</ele>
        <time>2012-06-14T08:46:42.000Z</time>
      </trkpt>
      <trkpt lat="47.73376" lon="6.05814">
        <ele>271</ele>
        <time>2012-06-14T08:46:44.000Z</time>
      </trkpt>
      <trkpt lat="47.73381" lon="6.05818">
        <ele>271.1</ele>
        <time>2012-06-14T08:46:46.000Z</time>
      </trkpt>
      <trkpt lat="47.73385" lon="6.05822">
        <ele>271.2</ele>
        <time>2012-06-14T08:46:48.000Z</time>
      </trkpt>
      <trkpt lat="47.73392" lon="6.05825">
        <ele>271.6</ele>
        <time>2012-06-14T08:46:51.000Z</time>
      </trkpt>
      <trkpt lat="47.73396" lon="6.05828">
        <ele>271.9</ele>
        <time>2012-06-14T08:46:53.000Z</time>
      </trkpt>
      <trkpt lat="47.73404" lon="6.05833">
        <ele>272.3</ele>
        <time>2012-06-14T08:46:55.000Z</time>
      </trkpt>
      <trkpt lat="47.73408" lon="6.05836">
        <ele>272.4</ele>
        <time>2012-06-14T08:46:56.000Z</time>
      </trkpt>
      <trkpt lat="47.73412" lon="6.05839">
        <ele>272.6</ele>
        <time>2012-06-14T08:46:58.000Z</time>
      </trkpt>
      <trkpt lat="47.73417" lon="6.05844">
        <ele>273</ele>
        <time>2012-06-14T08:47:01.000Z</time>
      </trkpt>
      <trkpt lat="47.73421" lon="6.0585">
        <ele>272.8</ele>
        <time>2012-06-14T08:47:03.000Z</time>
      </trkpt>
      <trkpt lat="47.73425" lon="6.05858">
        <ele>273.1</ele>
        <time>2012-06-14T08:47:05.000Z</time>
      </trkpt>
      <trkpt lat="47.7343" lon="6.05863">
        <ele>273.5</ele>
        <time>2012-06-14T08:47:08.000Z</time>
      </trkpt>
      <trkpt lat="47.73435" lon="6.05866">
        <ele>273.8</ele>
        <time>2012-06-14T08:47:11.000Z</time>
      </trkpt>
      <trkpt lat="47.73437" lon="6.05872">
        <ele>274.1</ele>
        <time>2012-06-14T08:47:13.000Z</time>
      </trkpt>
      <trkpt lat="47.73442" lon="6.05878">
        <ele>274.5</ele>
        <time>2012-06-14T08:47:16.000Z</time>
      </trkpt>
      <trkpt lat="47.73444" lon="6.05884">
        <ele>274.7</ele>
        <time>2012-06-14T08:47:19.000Z</time>
      </trkpt>
      <trkpt lat="47.73448" lon="6.05892">
        <ele>275.1</ele>
        <time>2012-06-14T08:47:22.000Z</time>
      </trkpt>
      <trkpt lat="47.73452" lon="6.05899">
        <ele>275.4</ele>
        <time>2012-06-14T08:47:25.000Z</time>
      </trkpt>
      <trkpt lat="47.73454" lon="6.05904">
        <ele>275.7</ele>
        <time>2012-06-14T08:47:28.000Z</time>
      </trkpt>
      <trkpt lat="47.73457" lon="6.0591">
        <ele>276.3</ele>
        <time>2012-06-14T08:47:31.000Z</time>
      </trkpt>
      <trkpt lat="47.73462" lon="6.05918">
        <ele>276.7</ele>
        <time>2012-06-14T08:47:34.000Z</time>
      </trkpt>
      <trkpt lat="47.73466" lon="6.05925">
        <ele>276.8</ele>
        <time>2012-06-14T08:47:37.000Z</time>
      </trkpt>
      <trkpt lat="47.73468" lon="6.05931">
        <ele>277.1</ele>
        <time>2012-06-14T08:47:39.000Z</time>
      </trkpt>
      <trkpt lat="47.73471" lon="6.05938">
        <ele>277.8</ele>
        <time>2012-06-14T08:47:43.000Z</time>
      </trkpt>
      <trkpt lat="47.73474" lon="6.05946">
        <ele>277.7</ele>
        <time>2012-06-14T08:47:45.000Z</time>
      </trkpt>
      <trkpt lat="47.73477" lon="6.05952">
        <ele>277.7</ele>
        <time>2012-06-14T08:47:48.000Z</time>
      </trkpt>
      <trkpt lat="47.73482" lon="6.05958">
        <ele>278</ele>
        <time>2012-06-14T08:47:52.000Z</time>
      </trkpt>
      <trkpt lat="47.73486" lon="6.05964">
        <ele>278.2</ele>
        <time>2012-06-14T08:47:56.000Z</time>
      </trkpt>
      <trkpt lat="47.73491" lon="6.0597">
        <ele>278.5</ele>
        <time>2012-06-14T08:47:59.000Z</time>
      </trkpt>
      <trkpt lat="47.73496" lon="6.05974">
        <ele>279.1</ele>
        <time>2012-06-14T08:48:03.000Z</time>
      </trkpt>
      <trkpt lat="47.73498" lon="6.05982">
        <ele>279.2</ele>
        <time>2012-06-14T08:48:06.000Z</time>
      </trkpt>
      <trkpt lat="47.73501" lon="6.05988">
        <ele>279.2</ele>
        <time>2012-06-14T08:48:08.000Z</time>
      </trkpt>
      <trkpt lat="47.73504" lon="6.05993">
        <ele>279.4</ele>
        <time>2012-06-14T08:48:11.000Z</time>
      </trkpt>
      <trkpt lat="47.73508" lon="6.06">
        <ele>280.3</ele>
        <time>2012-06-14T08:48:14.000Z</time>
      </trkpt>
      <trkpt lat="47.73511" lon="6.06005">
        <ele>280.6</ele>
        <time>2012-06-14T08:48:16.000Z</time>
      </trkpt>
      <trkpt lat="47.73515" lon="6.06012">
        <ele>281.1</ele>
        <time>2012-06-14T08:48:19.000Z</time>
      </trkpt>
      <trkpt lat="47.73518" lon="6.0602">
        <ele>281.7</ele>
        <time>2012-06-14T08:48:22.000Z</time>
      </trkpt>
      <trkpt lat="47.73522" lon="6.06028">
        <ele>282.6</ele>
        <time>2012-06-14T08:48:25.000Z</time>
      </trkpt>
      <trkpt lat="47.73525" lon="6.06034">
        <ele>283</ele>
        <time>2012-06-14T08:48:28.000Z</time>
      </trkpt>
      <trkpt lat="47.73529" lon="6.0604">
        <ele>283.3</ele>
        <time>2012-06-14T08:48:31.000Z</time>
      </trkpt>
      <trkpt lat="47.73532" lon="6.06049">
        <ele>283.4</ele>
        <time>2012-06-14T08:48:34.000Z</time>
      </trkpt>
      <trkpt lat="47.73534" lon="6.06054">
        <ele>283.6</ele>
        <time>2012-06-14T08:48:36.000Z</time>
      </trkpt>
      <trkpt lat="47.73536" lon="6.06061">
        <ele>283.9</ele>
        <time>2012-06-14T08:48:39.000Z</time>
      </trkpt>
      <trkpt lat="47.73538" lon="6.06068">
        <ele>284</ele>
        <time>2012-06-14T08:48:42.000Z</time>
      </trkpt>
      <trkpt lat="47.73539" lon="6.06076">
        <ele>284</ele>
        <time>2012-06-14T08:48:45.000Z</time>
      </trkpt>
      <trkpt lat="47.73541" lon="6.06082">
        <ele>283.9</ele>
        <time>2012-06-14T08:48:47.000Z</time>
      </trkpt>
      <trkpt lat="47.73544" lon="6.06089">
        <ele>284.1</ele>
        <time>2012-06-14T08:48:49.000Z</time>
      </trkpt>
      <trkpt lat="47.73544" lon="6.06097">
        <ele>284.4</ele>
        <time>2012-06-14T08:48:52.000Z</time>
      </trkpt>
      <trkpt lat="47.73545" lon="6.06105">
        <ele>285</ele>
        <time>2012-06-14T08:48:55.000Z</time>
      </trkpt>
      <trkpt lat="47.73546" lon="6.06115">
        <ele>285.2</ele>
        <time>2012-06-14T08:48:58.000Z</time>
      </trkpt>
      <trkpt lat="47.73545" lon="6.06124">
        <ele>285.4</ele>
        <time>2012-06-14T08:49:01.000Z</time>
      </trkpt>
      <trkpt lat="47.73545" lon="6.06132">
        <ele>285.7</ele>
        <time>2012-06-14T08:49:04.000Z</time>
      </trkpt>
      <trkpt lat="47.73546" lon="6.0614">
        <ele>285.8</ele>
        <time>2012-06-14T08:49:06.000Z</time>
      </trkpt>
      <trkpt lat="47.73548" lon="6.06148">
        <ele>285.8</ele>
        <time>2012-06-14T08:49:08.000Z</time>
      </trkpt>
      <trkpt lat="47.73548" lon="6.06156">
        <ele>286.3</ele>
        <time>2012-06-14T08:49:11.000Z</time>
      </trkpt>
      <trkpt lat="47.73547" lon="6.06164">
        <ele>286.8</ele>
        <time>2012-06-14T08:49:15.000Z</time>
      </trkpt>
      <trkpt lat="47.73549" lon="6.06172">
        <ele>286.8</ele>
        <time>2012-06-14T08:49:18.000Z</time>
      </trkpt>
      <trkpt lat="47.73552" lon="6.06176">
        <ele>287.4</ele>
        <time>2012-06-14T08:49:23.000Z</time>
      </trkpt>
      <trkpt lat="47.73556" lon="6.06182">
        <ele>288.1</ele>
        <time>2012-06-14T08:49:28.000Z</time>
      </trkpt>
      <trkpt lat="47.73561" lon="6.06186">
        <ele>289</ele>
        <time>2012-06-14T08:49:31.000Z</time>
      </trkpt>
      <trkpt lat="47.73565" lon="6.06189">
        <ele>289.8</ele>
        <time>2012-06-14T08:49:36.000Z</time>
      </trkpt>
      <trkpt lat="47.7357" lon="6.0619">
        <ele>290.1</ele>
        <time>2012-06-14T08:49:40.000Z</time>
      </trkpt>
      <trkpt lat="47.73574" lon="6.06191">
        <ele>290.1</ele>
        <time>2012-06-14T08:49:43.000Z</time>
      </trkpt>
      <trkpt lat="47.73578" lon="6.06196">
        <ele>290.5</ele>
        <time>2012-06-14T08:49:45.000Z</time>
      </trkpt>
      <trkpt lat="47.73599" lon="6.06214">
        <ele>297.2</ele>
        <time>2012-06-14T08:49:56.000Z</time>
      </trkpt>
      <trkpt lat="47.73603" lon="6.06219">
        <ele>300.1</ele>
        <time>2012-06-14T08:50:00.000Z</time>
      </trkpt>
      <trkpt lat="47.73607" lon="6.06222">
        <ele>301.4</ele>
        <time>2012-06-14T08:50:03.000Z</time>
      </trkpt>
      <trkpt lat="47.73611" lon="6.0622">
        <ele>303.4</ele>
        <time>2012-06-14T08:50:05.000Z</time>
      </trkpt>
      <trkpt lat="47.73617" lon="6.0622">
        <ele>306.7</ele>
        <time>2012-06-14T08:50:07.000Z</time>
      </trkpt>
      <trkpt lat="47.73623" lon="6.06225">
        <ele>310.1</ele>
        <time>2012-06-14T08:50:09.000Z</time>
      </trkpt>
      <trkpt lat="47.73625" lon="6.06235">
        <ele>311.4</ele>
        <time>2012-06-14T08:50:11.000Z</time>
      </trkpt>
      <trkpt lat="47.73625" lon="6.06247">
        <ele>311.6</ele>
        <time>2012-06-14T08:50:13.000Z</time>
      </trkpt>
      <trkpt lat="47.73624" lon="6.06256">
        <ele>310.2</ele>
        <time>2012-06-14T08:50:15.000Z</time>
      </trkpt>
      <trkpt lat="47.73626" lon="6.06264">
        <ele>310.4</ele>
        <time>2012-06-14T08:50:17.000Z</time>
      </trkpt>
      <trkpt lat="47.73625" lon="6.06272">
        <ele>308.6</ele>
        <time>2012-06-14T08:50:19.000Z</time>
      </trkpt>
      <trkpt lat="47.73625" lon="6.06279">
        <ele>307.7</ele>
        <time>2012-06-14T08:50:21.000Z</time>
      </trkpt>
      <trkpt lat="47.73624" lon="6.06286">
        <ele>305.9</ele>
        <time>2012-06-14T08:50:23.000Z</time>
      </trkpt>
      <trkpt lat="47.73621" lon="6.06294">
        <ele>305.4</ele>
        <time>2012-06-14T08:50:26.000Z</time>
      </trkpt>
      <trkpt lat="47.73616" lon="6.063">
        <ele>304.6</ele>
        <time>2012-06-14T08:50:29.000Z</time>
      </trkpt>
      <trkpt lat="47.73611" lon="6.063">
        <ele>303.8</ele>
        <time>2012-06-14T08:50:33.000Z</time>
      </trkpt>
      <trkpt lat="47.73606" lon="6.06298">
        <ele>303.4</ele>
        <time>2012-06-14T08:50:36.000Z</time>
      </trkpt>
      <trkpt lat="47.736" lon="6.06293">
        <ele>302.4</ele>
        <time>2012-06-14T08:50:39.000Z</time>
      </trkpt>
      <trkpt lat="47.73594" lon="6.06294">
        <ele>302.5</ele>
        <time>2012-06-14T08:50:42.000Z</time>
      </trkpt>
      <trkpt lat="47.7359" lon="6.06299">
        <ele>303</ele>
        <time>2012-06-14T08:50:45.000Z</time>
      </trkpt>
      <trkpt lat="47.73584" lon="6.06303">
        <ele>303</ele>
        <time>2012-06-14T08:50:47.000Z</time>
      </trkpt>
      <trkpt lat="47.7358" lon="6.06306">
        <ele>302.8</ele>
        <time>2012-06-14T08:50:49.000Z</time>
      </trkpt>
      <trkpt lat="47.73574" lon="6.06311">
        <ele>302.8</ele>
        <time>2012-06-14T08:50:52.000Z</time>
      </trkpt>
      <trkpt lat="47.73568" lon="6.06316">
        <ele>303.3</ele>
        <time>2012-06-14T08:50:55.000Z</time>
      </trkpt>
      <trkpt lat="47.73562" lon="6.06321">
        <ele>303.6</ele>
        <time>2012-06-14T08:50:58.000Z</time>
      </trkpt>
      <trkpt lat="47.73557" lon="6.06327">
        <ele>303.8</ele>
        <time>2012-06-14T08:51:01.000Z</time>
      </trkpt>
      <trkpt lat="47.73553" lon="6.06331">
        <ele>304.1</ele>
        <time>2012-06-14T08:51:03.000Z</time>
      </trkpt>
      <trkpt lat="47.73548" lon="6.06335">
        <ele>304.2</ele>
        <time>2012-06-14T08:51:05.000Z</time>
      </trkpt>
      <trkpt lat="47.73542" lon="6.0634">
        <ele>304.1</ele>
        <time>2012-06-14T08:51:07.000Z</time>
      </trkpt>
      <trkpt lat="47.73537" lon="6.06344">
        <ele>303.9</ele>
        <time>2012-06-14T08:51:09.000Z</time>
      </trkpt>
      <trkpt lat="47.73533" lon="6.06349">
        <ele>303.8</ele>
        <time>2012-06-14T08:51:11.000Z</time>
      </trkpt>
      <trkpt lat="47.73528" lon="6.06353">
        <ele>303.8</ele>
        <time>2012-06-14T08:51:13.000Z</time>
      </trkpt>
      <trkpt lat="47.73523" lon="6.06357">
        <ele>303.7</ele>
        <time>2012-06-14T08:51:15.000Z</time>
      </trkpt>
      <trkpt lat="47.73519" lon="6.0636">
        <ele>303.5</ele>
        <time>2012-06-14T08:51:17.000Z</time>
      </trkpt>
      <trkpt lat="47.73515" lon="6.06364">
        <ele>303.5</ele>
        <time>2012-06-14T08:51:19.000Z</time>
      </trkpt>
      <trkpt lat="47.73511" lon="6.06368">
        <ele>303.5</ele>
        <time>2012-06-14T08:51:21.000Z</time>
      </trkpt>
      <trkpt lat="47.73506" lon="6.0637">
        <ele>303.3</ele>
        <time>2012-06-14T08:51:23.000Z</time>
      </trkpt>
      <trkpt lat="47.735" lon="6.06372">
        <ele>303.2</ele>
        <time>2012-06-14T08:51:25.000Z</time>
      </trkpt>
      <trkpt lat="47.73495" lon="6.06375">
        <ele>303.1</ele>
        <time>2012-06-14T08:51:27.000Z</time>
      </trkpt>
      <trkpt lat="47.73489" lon="6.06376">
        <ele>302.6</ele>
        <time>2012-06-14T08:51:29.000Z</time>
      </trkpt>
      <trkpt lat="47.73484" lon="6.06378">
        <ele>302.3</ele>
        <time>2012-06-14T08:51:31.000Z</time>
      </trkpt>
      <trkpt lat="47.73478" lon="6.06378">
        <ele>301.9</ele>
        <time>2012-06-14T08:51:33.000Z</time>
      </trkpt>
      <trkpt lat="47.73472" lon="6.06375">
        <ele>301.5</ele>
        <time>2012-06-14T08:51:35.000Z</time>
      </trkpt>
      <trkpt lat="47.73464" lon="6.06371">
        <ele>301.2</ele>
        <time>2012-06-14T08:51:37.000Z</time>
      </trkpt>
      <trkpt lat="47.7346" lon="6.06366">
        <ele>301.1</ele>
        <time>2012-06-14T08:51:39.000Z</time>
      </trkpt>
      <trkpt lat="47.73452" lon="6.06362">
        <ele>300.7</ele>
        <time>2012-06-14T08:51:41.000Z</time>
      </trkpt>
      <trkpt lat="47.7344" lon="6.06359">
        <ele>300.2</ele>
        <time>2012-06-14T08:51:43.000Z</time>
      </trkpt>
      <trkpt lat="47.73434" lon="6.06357">
        <ele>299.9</ele>
        <time>2012-06-14T08:51:44.000Z</time>
      </trkpt>
      <trkpt lat="47.73429" lon="6.06355">
        <ele>299.8</ele>
        <time>2012-06-14T08:51:45.000Z</time>
      </trkpt>
      <trkpt lat="47.73424" lon="6.06353">
        <ele>299.6</ele>
        <time>2012-06-14T08:51:46.000Z</time>
      </trkpt>
      <trkpt lat="47.73419" lon="6.06352">
        <ele>299.5</ele>
        <time>2012-06-14T08:51:47.000Z</time>
      </trkpt>
      <trkpt lat="47.73414" lon="6.06351">
        <ele>299.5</ele>
        <time>2012-06-14T08:51:48.000Z</time>
      </trkpt>
      <trkpt lat="47.73407" lon="6.06348">
        <ele>299.5</ele>
        <time>2012-06-14T08:51:50.000Z</time>
      </trkpt>
      <trkpt lat="47.734" lon="6.06346">
        <ele>299.5</ele>
        <time>2012-06-14T08:51:52.000Z</time>
      </trkpt>
      <trkpt lat="47.73393" lon="6.06343">
        <ele>299.9</ele>
        <time>2012-06-14T08:51:54.000Z</time>
      </trkpt>
      <trkpt lat="47.73388" lon="6.06342">
        <ele>300.1</ele>
        <time>2012-06-14T08:51:56.000Z</time>
      </trkpt>
      <trkpt lat="47.73382" lon="6.06339">
        <ele>300.5</ele>
        <time>2012-06-14T08:51:59.000Z</time>
      </trkpt>
      <trkpt lat="47.73376" lon="6.06338">
        <ele>300.4</ele>
        <time>2012-06-14T08:52:01.000Z</time>
      </trkpt>
      <trkpt lat="47.73371" lon="6.06336">
        <ele>300.7</ele>
        <time>2012-06-14T08:52:03.000Z</time>
      </trkpt>
      <trkpt lat="47.73366" lon="6.06334">
        <ele>300.5</ele>
        <time>2012-06-14T08:52:05.000Z</time>
      </trkpt>
      <trkpt lat="47.73359" lon="6.06332">
        <ele>300.3</ele>
        <time>2012-06-14T08:52:08.000Z</time>
      </trkpt>
      <trkpt lat="47.73354" lon="6.06328">
        <ele>300.3</ele>
        <time>2012-06-14T08:52:10.000Z</time>
      </trkpt>
      <trkpt lat="47.73349" lon="6.06326">
        <ele>300.2</ele>
        <time>2012-06-14T08:52:12.000Z</time>
      </trkpt>
      <trkpt lat="47.73342" lon="6.06322">
        <ele>300.3</ele>
        <time>2012-06-14T08:52:15.000Z</time>
      </trkpt>
      <trkpt lat="47.73338" lon="6.0632">
        <ele>300.3</ele>
        <time>2012-06-14T08:52:17.000Z</time>
      </trkpt>
      <trkpt lat="47.73334" lon="6.06317">
        <ele>300.2</ele>
        <time>2012-06-14T08:52:19.000Z</time>
      </trkpt>
      <trkpt lat="47.73329" lon="6.06314">
        <ele>300.3</ele>
        <time>2012-06-14T08:52:21.000Z</time>
      </trkpt>
      <trkpt lat="47.73323" lon="6.06309">
        <ele>300.5</ele>
        <time>2012-06-14T08:52:24.000Z</time>
      </trkpt>
      <trkpt lat="47.73319" lon="6.06306">
        <ele>300.6</ele>
        <time>2012-06-14T08:52:26.000Z</time>
      </trkpt>
      <trkpt lat="47.73314" lon="6.06302">
        <ele>300.5</ele>
        <time>2012-06-14T08:52:28.000Z</time>
      </trkpt>
      <trkpt lat="47.73309" lon="6.06299">
        <ele>300.4</ele>
        <time>2012-06-14T08:52:30.000Z</time>
      </trkpt>
      <trkpt lat="47.73304" lon="6.06295">
        <ele>300.3</ele>
        <time>2012-06-14T08:52:32.000Z</time>
      </trkpt>
      <trkpt lat="47.733" lon="6.06291">
        <ele>300.4</ele>
        <time>2012-06-14T08:52:34.000Z</time>
      </trkpt>
      <trkpt lat="47.73295" lon="6.06287">
        <ele>300.4</ele>
        <time>2012-06-14T08:52:36.000Z</time>
      </trkpt>
      <trkpt lat="47.7329" lon="6.06284">
        <ele>300.4</ele>
        <time>2012-06-14T08:52:38.000Z</time>
      </trkpt>
      <trkpt lat="47.73285" lon="6.06279">
        <ele>300.5</ele>
        <time>2012-06-14T08:52:40.000Z</time>
      </trkpt>
      <trkpt lat="47.73279" lon="6.06275">
        <ele>300.5</ele>
        <time>2012-06-14T08:52:42.000Z</time>
      </trkpt>
      <trkpt lat="47.73273" lon="6.0627">
        <ele>300.6</ele>
        <time>2012-06-14T08:52:44.000Z</time>
      </trkpt>
      <trkpt lat="47.73268" lon="6.06265">
        <ele>300.7</ele>
        <time>2012-06-14T08:52:46.000Z</time>
      </trkpt>
      <trkpt lat="47.73262" lon="6.06262">
        <ele>300.6</ele>
        <time>2012-06-14T08:52:48.000Z</time>
      </trkpt>
      <trkpt lat="47.73255" lon="6.06258">
        <ele>300.3</ele>
        <time>2012-06-14T08:52:50.000Z</time>
      </trkpt>
      <trkpt lat="47.73247" lon="6.06257">
        <ele>300.3</ele>
        <time>2012-06-14T08:52:52.000Z</time>
      </trkpt>
      <trkpt lat="47.73238" lon="6.06257">
        <ele>300.1</ele>
        <time>2012-06-14T08:52:54.000Z</time>
      </trkpt>
      <trkpt lat="47.7323" lon="6.06258">
        <ele>300</ele>
        <time>2012-06-14T08:52:56.000Z</time>
      </trkpt>
      <trkpt lat="47.73222" lon="6.06258">
        <ele>299.9</ele>
        <time>2012-06-14T08:52:58.000Z</time>
      </trkpt>
      <trkpt lat="47.73215" lon="6.06257">
        <ele>299.9</ele>
        <time>2012-06-14T08:53:00.000Z</time>
      </trkpt>
      <trkpt lat="47.7321" lon="6.06254">
        <ele>300</ele>
        <time>2012-06-14T08:53:02.000Z</time>
      </trkpt>
      <trkpt lat="47.73204" lon="6.0625">
        <ele>300</ele>
        <time>2012-06-14T08:53:04.000Z</time>
      </trkpt>
      <trkpt lat="47.732" lon="6.06245">
        <ele>300.1</ele>
        <time>2012-06-14T08:53:06.000Z</time>
      </trkpt>
      <trkpt lat="47.73194" lon="6.06239">
        <ele>300.3</ele>
        <time>2012-06-14T08:53:08.000Z</time>
      </trkpt>
      <trkpt lat="47.73189" lon="6.06232">
        <ele>300.5</ele>
        <time>2012-06-14T08:53:10.000Z</time>
      </trkpt>
      <trkpt lat="47.73183" lon="6.06226">
        <ele>300.6</ele>
        <time>2012-06-14T08:53:12.000Z</time>
      </trkpt>
      <trkpt lat="47.73178" lon="6.06221">
        <ele>300.8</ele>
        <time>2012-06-14T08:53:14.000Z</time>
      </trkpt>
      <trkpt lat="47.73174" lon="6.06215">
        <ele>300.9</ele>
        <time>2012-06-14T08:53:16.000Z</time>
      </trkpt>
      <trkpt lat="47.73169" lon="6.0621">
        <ele>300.9</ele>
        <time>2012-06-14T08:53:18.000Z</time>
      </trkpt>
      <trkpt lat="47.73164" lon="6.06206">
        <ele>301</ele>
        <time>2012-06-14T08:53:20.000Z</time>
      </trkpt>
      <trkpt lat="47.73158" lon="6.06203">
        <ele>301.1</ele>
        <time>2012-06-14T08:53:22.000Z</time>
      </trkpt>
      <trkpt lat="47.73152" lon="6.06199">
        <ele>301.3</ele>
        <time>2012-06-14T08:53:24.000Z</time>
      </trkpt>
      <trkpt lat="47.73148" lon="6.06196">
        <ele>301.7</ele>
        <time>2012-06-14T08:53:26.000Z</time>
      </trkpt>
      <trkpt lat="47.73144" lon="6.06193">
        <ele>301.9</ele>
        <time>2012-06-14T08:53:28.000Z</time>
      </trkpt>
      <trkpt lat="47.73139" lon="6.06189">
        <ele>301.9</ele>
        <time>2012-06-14T08:53:30.000Z</time>
      </trkpt>
      <trkpt lat="47.73134" lon="6.06187">
        <ele>302</ele>
        <time>2012-06-14T08:53:32.000Z</time>
      </trkpt>
      <trkpt lat="47.73129" lon="6.06184">
        <ele>301.6</ele>
        <time>2012-06-14T08:53:34.000Z</time>
      </trkpt>
      <trkpt lat="47.73124" lon="6.0618">
        <ele>301.6</ele>
        <time>2012-06-14T08:53:36.000Z</time>
      </trkpt>
      <trkpt lat="47.73118" lon="6.06176">
        <ele>301.6</ele>
        <time>2012-06-14T08:53:38.000Z</time>
      </trkpt>
      <trkpt lat="47.73112" lon="6.06173">
        <ele>301.9</ele>
        <time>2012-06-14T08:53:40.000Z</time>
      </trkpt>
      <trkpt lat="47.73107" lon="6.06169">
        <ele>302.3</ele>
        <time>2012-06-14T08:53:42.000Z</time>
      </trkpt>
      <trkpt lat="47.73101" lon="6.06166">
        <ele>302.2</ele>
        <time>2012-06-14T08:53:44.000Z</time>
      </trkpt>
      <trkpt lat="47.73095" lon="6.06164">
        <ele>302.1</ele>
        <time>2012-06-14T08:53:46.000Z</time>
      </trkpt>
      <trkpt lat="47.73045" lon="6.06155">
        <ele>294.7</ele>
        <time>2012-06-14T08:53:57.000Z</time>
      </trkpt>
      <trkpt lat="47.73036" lon="6.06155">
        <ele>294.9</ele>
        <time>2012-06-14T08:53:59.000Z</time>
      </trkpt>
      <trkpt lat="47.73032" lon="6.06155">
        <ele>294.6</ele>
        <time>2012-06-14T08:54:00.000Z</time>
      </trkpt>
      <trkpt lat="47.73023" lon="6.06156">
        <ele>293.7</ele>
        <time>2012-06-14T08:54:02.000Z</time>
      </trkpt>
      <trkpt lat="47.73015" lon="6.06157">
        <ele>292.9</ele>
        <time>2012-06-14T08:54:04.000Z</time>
      </trkpt>
      <trkpt lat="47.73007" lon="6.06158">
        <ele>292.4</ele>
        <time>2012-06-14T08:54:06.000Z</time>
      </trkpt>
      <trkpt lat="47.73" lon="6.0616">
        <ele>292</ele>
        <time>2012-06-14T08:54:08.000Z</time>
      </trkpt>
      <trkpt lat="47.72991" lon="6.06162">
        <ele>291.4</ele>
        <time>2012-06-14T08:54:10.000Z</time>
      </trkpt>
      <trkpt lat="47.72986" lon="6.06163">
        <ele>291</ele>
        <time>2012-06-14T08:54:11.000Z</time>
      </trkpt>
      <trkpt lat="47.72982" lon="6.06164">
        <ele>290.7</ele>
        <time>2012-06-14T08:54:12.000Z</time>
      </trkpt>
      <trkpt lat="47.72977" lon="6.06165">
        <ele>290.3</ele>
        <time>2012-06-14T08:54:13.000Z</time>
      </trkpt>
      <trkpt lat="47.72972" lon="6.06166">
        <ele>290</ele>
        <time>2012-06-14T08:54:14.000Z</time>
      </trkpt>
      <trkpt lat="47.72966" lon="6.06168">
        <ele>289.8</ele>
        <time>2012-06-14T08:54:15.000Z</time>
      </trkpt>
      <trkpt lat="47.72961" lon="6.06168">
        <ele>289.5</ele>
        <time>2012-06-14T08:54:16.000Z</time>
      </trkpt>
      <trkpt lat="47.72956" lon="6.06169">
        <ele>289.3</ele>
        <time>2012-06-14T08:54:17.000Z</time>
      </trkpt>
      <trkpt lat="47.72952" lon="6.0617">
        <ele>289.1</ele>
        <time>2012-06-14T08:54:18.000Z</time>
      </trkpt>
      <trkpt lat="47.72943" lon="6.06173">
        <ele>288.9</ele>
        <time>2012-06-14T08:54:20.000Z</time>
      </trkpt>
      <trkpt lat="47.72936" lon="6.06176">
        <ele>288.7</ele>
        <time>2012-06-14T08:54:22.000Z</time>
      </trkpt>
      <trkpt lat="47.72931" lon="6.06179">
        <ele>288.7</ele>
        <time>2012-06-14T08:54:24.000Z</time>
      </trkpt>
      <trkpt lat="47.72925" lon="6.06184">
        <ele>288.8</ele>
        <time>2012-06-14T08:54:26.000Z</time>
      </trkpt>
      <trkpt lat="47.72919" lon="6.0619">
        <ele>289</ele>
        <time>2012-06-14T08:54:28.000Z</time>
      </trkpt>
      <trkpt lat="47.72914" lon="6.06196">
        <ele>289.2</ele>
        <time>2012-06-14T08:54:30.000Z</time>
      </trkpt>
      <trkpt lat="47.72906" lon="6.06206">
        <ele>289.4</ele>
        <time>2012-06-14T08:54:32.000Z</time>
      </trkpt>
      <trkpt lat="47.72902" lon="6.06211">
        <ele>289.5</ele>
        <time>2012-06-14T08:54:33.000Z</time>
      </trkpt>
      <trkpt lat="47.72895" lon="6.06217">
        <ele>289.8</ele>
        <time>2012-06-14T08:54:35.000Z</time>
      </trkpt>
      <trkpt lat="47.72903" lon="6.0622">
        <ele>291.7</ele>
        <time>2012-06-14T08:54:44.000Z</time>
      </trkpt>
      <trkpt lat="47.72907" lon="6.06217">
        <ele>292.1</ele>
        <time>2012-06-14T08:54:48.000Z</time>
      </trkpt>
      <trkpt lat="47.72904" lon="6.06224">
        <ele>291.9</ele>
        <time>2012-06-14T08:54:56.000Z</time>
      </trkpt>
      <trkpt lat="47.72901" lon="6.06229">
        <ele>293</ele>
        <time>2012-06-14T08:55:13.000Z</time>
      </trkpt>
      <trkpt lat="47.72899" lon="6.06222">
        <ele>292.4</ele>
        <time>2012-06-14T08:55:27.000Z</time>
      </trkpt>
      <trkpt lat="47.72902" lon="6.06216">
        <ele>290.8</ele>
        <time>2012-06-14T08:55:30.000Z</time>
      </trkpt>
      <trkpt lat="47.72888" lon="6.06251">
        <ele>296.8</ele>
        <time>2012-06-14T08:55:56.000Z</time>
      </trkpt>
      <trkpt lat="47.72884" lon="6.06254">
        <ele>300.2</ele>
        <time>2012-06-14T08:55:58.000Z</time>
      </trkpt>
      <trkpt lat="47.72879" lon="6.06262">
        <ele>306.7</ele>
        <time>2012-06-14T08:56:01.000Z</time>
      </trkpt>
      <trkpt lat="47.72876" lon="6.06268">
        <ele>308.3</ele>
        <time>2012-06-14T08:56:03.000Z</time>
      </trkpt>
      <trkpt lat="47.72873" lon="6.06274">
        <ele>311.6</ele>
        <time>2012-06-14T08:56:05.000Z</time>
      </trkpt>
      <trkpt lat="47.72868" lon="6.0628">
        <ele>319</ele>
        <time>2012-06-14T08:56:08.000Z</time>
      </trkpt>
      <trkpt lat="47.72863" lon="6.06284">
        <ele>324.4</ele>
        <time>2012-06-14T08:56:10.000Z</time>
      </trkpt>
      <trkpt lat="47.7286" lon="6.06294">
        <ele>326</ele>
        <time>2012-06-14T08:56:12.000Z</time>
      </trkpt>
      <trkpt lat="47.72857" lon="6.06305">
        <ele>323.8</ele>
        <time>2012-06-14T08:56:14.000Z</time>
      </trkpt>
      <trkpt lat="47.72855" lon="6.06311">
        <ele>323.4</ele>
        <time>2012-06-14T08:56:15.000Z</time>
      </trkpt>
      <trkpt lat="47.72851" lon="6.06322">
        <ele>323.6</ele>
        <time>2012-06-14T08:56:17.000Z</time>
      </trkpt>
      <trkpt lat="47.72849" lon="6.06328">
        <ele>324.4</ele>
        <time>2012-06-14T08:56:18.000Z</time>
      </trkpt>
      <trkpt lat="47.72844" lon="6.06333">
        <ele>326.1</ele>
        <time>2012-06-14T08:56:19.000Z</time>
      </trkpt>
      <trkpt lat="47.72838" lon="6.06343">
        <ele>322.2</ele>
        <time>2012-06-14T08:56:20.000Z</time>
      </trkpt>
      <trkpt lat="47.72834" lon="6.06349">
        <ele>322.1</ele>
        <time>2012-06-14T08:56:21.000Z</time>
      </trkpt>
      <trkpt lat="47.7283" lon="6.06355">
        <ele>321.8</ele>
        <time>2012-06-14T08:56:22.000Z</time>
      </trkpt>
      <trkpt lat="47.72826" lon="6.0636">
        <ele>321.4</ele>
        <time>2012-06-14T08:56:23.000Z</time>
      </trkpt>
      <trkpt lat="47.72821" lon="6.06362">
        <ele>321.3</ele>
        <time>2012-06-14T08:56:24.000Z</time>
      </trkpt>
      <trkpt lat="47.72817" lon="6.06366">
        <ele>321.3</ele>
        <time>2012-06-14T08:56:25.000Z</time>
      </trkpt>
      <trkpt lat="47.7281" lon="6.06371">
        <ele>321.5</ele>
        <time>2012-06-14T08:56:27.000Z</time>
      </trkpt>
      <trkpt lat="47.72805" lon="6.06376">
        <ele>321.8</ele>
        <time>2012-06-14T08:56:29.000Z</time>
      </trkpt>
      <trkpt lat="47.72802" lon="6.06381">
        <ele>318.2</ele>
        <time>2012-06-14T08:56:32.000Z</time>
      </trkpt>
      <trkpt lat="47.728" lon="6.06387">
        <ele>314.9</ele>
        <time>2012-06-14T08:56:36.000Z</time>
      </trkpt>
      <trkpt lat="47.72796" lon="6.0639">
        <ele>313.8</ele>
        <time>2012-06-14T08:56:39.000Z</time>
      </trkpt>
      <trkpt lat="47.72792" lon="6.06394">
        <ele>312.2</ele>
        <time>2012-06-14T08:56:41.000Z</time>
      </trkpt>
      <trkpt lat="47.72787" lon="6.06396">
        <ele>311.1</ele>
        <time>2012-06-14T08:56:43.000Z</time>
      </trkpt>
      <trkpt lat="47.7278" lon="6.06397">
        <ele>310.1</ele>
        <time>2012-06-14T08:56:45.000Z</time>
      </trkpt>
      <trkpt lat="47.72749" lon="6.06399">
        <ele>296.8</ele>
        <time>2012-06-14T08:56:57.000Z</time>
      </trkpt>
      <trkpt lat="47.72747" lon="6.06406">
        <ele>303.2</ele>
        <time>2012-06-14T08:57:03.000Z</time>
      </trkpt>
      <trkpt lat="47.72743" lon="6.06409">
        <ele>306.3</ele>
        <time>2012-06-14T08:57:12.000Z</time>
      </trkpt>
      <trkpt lat="47.72741" lon="6.06402">
        <ele>311.2</ele>
        <time>2012-06-14T08:57:16.000Z</time>
      </trkpt>
      <trkpt lat="47.72745" lon="6.06399">
        <ele>306.7</ele>
        <time>2012-06-14T08:57:22.000Z</time>
      </trkpt>
      <trkpt lat="47.72742" lon="6.06403">
        <ele>302.9</ele>
        <time>2012-06-14T08:57:30.000Z</time>
      </trkpt>
      <trkpt lat="47.72736" lon="6.06405">
        <ele>299.4</ele>
        <time>2012-06-14T08:57:33.000Z</time>
      </trkpt>
      <trkpt lat="47.7273" lon="6.06408">
        <ele>296.9</ele>
        <time>2012-06-14T08:57:36.000Z</time>
      </trkpt>
      <trkpt lat="47.72726" lon="6.06409">
        <ele>295.9</ele>
        <time>2012-06-14T08:57:42.000Z</time>
      </trkpt>
      <trkpt lat="47.72719" lon="6.0641">
        <ele>295.8</ele>
        <time>2012-06-14T08:57:45.000Z</time>
      </trkpt>
      <trkpt lat="47.72713" lon="6.06407">
        <ele>293.9</ele>
        <time>2012-06-14T08:57:48.000Z</time>
      </trkpt>
      <trkpt lat="47.7271" lon="6.06401">
        <ele>293.6</ele>
        <time>2012-06-14T08:57:51.000Z</time>
      </trkpt>
      <trkpt lat="47.72707" lon="6.06393">
        <ele>294.9</ele>
        <time>2012-06-14T08:57:54.000Z</time>
      </trkpt>
      <trkpt lat="47.72702" lon="6.06384">
        <ele>295.2</ele>
        <time>2012-06-14T08:57:55.000Z</time>
      </trkpt>
      <trkpt lat="47.72698" lon="6.0638">
        <ele>296.6</ele>
        <time>2012-06-14T08:57:58.000Z</time>
      </trkpt>
      <trkpt lat="47.72689" lon="6.06379">
        <ele>297.4</ele>
        <time>2012-06-14T08:58:00.000Z</time>
      </trkpt>
      <trkpt lat="47.72684" lon="6.06378">
        <ele>297.9</ele>
        <time>2012-06-14T08:58:01.000Z</time>
      </trkpt>
      <trkpt lat="47.72679" lon="6.06374">
        <ele>298.5</ele>
        <time>2012-06-14T08:58:04.000Z</time>
      </trkpt>
      <trkpt lat="47.72675" lon="6.06369">
        <ele>298.6</ele>
        <time>2012-06-14T08:58:08.000Z</time>
      </trkpt>
      <trkpt lat="47.7267" lon="6.06367">
        <ele>298.9</ele>
        <time>2012-06-14T08:58:10.000Z</time>
      </trkpt>
      <trkpt lat="47.72665" lon="6.06367">
        <ele>299</ele>
        <time>2012-06-14T08:58:11.000Z</time>
      </trkpt>
      <trkpt lat="47.7266" lon="6.06366">
        <ele>299.1</ele>
        <time>2012-06-14T08:58:13.000Z</time>
      </trkpt>
      <trkpt lat="47.72655" lon="6.06367">
        <ele>299.2</ele>
        <time>2012-06-14T08:58:17.000Z</time>
      </trkpt>
      <trkpt lat="47.7265" lon="6.06361">
        <ele>299.3</ele>
        <time>2012-06-14T08:58:19.000Z</time>
      </trkpt>
      <trkpt lat="47.72646" lon="6.06354">
        <ele>299.4</ele>
        <time>2012-06-14T08:58:21.000Z</time>
      </trkpt>
      <trkpt lat="47.72642" lon="6.06349">
        <ele>299.3</ele>
        <time>2012-06-14T08:58:26.000Z</time>
      </trkpt>
      <trkpt lat="47.72637" lon="6.06349">
        <ele>299.3</ele>
        <time>2012-06-14T08:58:30.000Z</time>
      </trkpt>
      <trkpt lat="47.72632" lon="6.06346">
        <ele>299.2</ele>
        <time>2012-06-14T08:58:34.000Z</time>
      </trkpt>
      <trkpt lat="47.72628" lon="6.06343">
        <ele>299.6</ele>
        <time>2012-06-14T08:58:38.000Z</time>
      </trkpt>
      <trkpt lat="47.72622" lon="6.06339">
        <ele>300.1</ele>
        <time>2012-06-14T08:58:42.000Z</time>
      </trkpt>
      <trkpt lat="47.72618" lon="6.06333">
        <ele>300.7</ele>
        <time>2012-06-14T08:58:45.000Z</time>
      </trkpt>
      <trkpt lat="47.72595" lon="6.063">
        <ele>299.9</ele>
        <time>2012-06-14T08:58:58.000Z</time>
      </trkpt>
      <trkpt lat="47.7259" lon="6.06296">
        <ele>301.2</ele>
        <time>2012-06-14T08:59:01.000Z</time>
      </trkpt>
      <trkpt lat="47.72586" lon="6.06292">
        <ele>302.2</ele>
        <time>2012-06-14T08:59:04.000Z</time>
      </trkpt>
      <trkpt lat="47.72582" lon="6.06288">
        <ele>303.3</ele>
        <time>2012-06-14T08:59:07.000Z</time>
      </trkpt>
      <trkpt lat="47.72578" lon="6.06284">
        <ele>304</ele>
        <time>2012-06-14T08:59:10.000Z</time>
      </trkpt>
      <trkpt lat="47.72572" lon="6.0628">
        <ele>305</ele>
        <time>2012-06-14T08:59:13.000Z</time>
      </trkpt>
      <trkpt lat="47.72567" lon="6.06275">
        <ele>306.2</ele>
        <time>2012-06-14T08:59:16.000Z</time>
      </trkpt>
      <trkpt lat="47.72561" lon="6.06268">
        <ele>306.8</ele>
        <time>2012-06-14T08:59:19.000Z</time>
      </trkpt>
      <trkpt lat="47.72554" lon="6.06264">
        <ele>306.2</ele>
        <time>2012-06-14T08:59:21.000Z</time>
      </trkpt>
      <trkpt lat="47.72546" lon="6.06259">
        <ele>305.5</ele>
        <time>2012-06-14T08:59:23.000Z</time>
      </trkpt>
      <trkpt lat="47.72539" lon="6.06253">
        <ele>305</ele>
        <time>2012-06-14T08:59:25.000Z</time>
      </trkpt>
      <trkpt lat="47.72532" lon="6.06248">
        <ele>304.8</ele>
        <time>2012-06-14T08:59:27.000Z</time>
      </trkpt>
      <trkpt lat="47.72525" lon="6.06242">
        <ele>304.5</ele>
        <time>2012-06-14T08:59:29.000Z</time>
      </trkpt>
      <trkpt lat="47.72518" lon="6.06237">
        <ele>304.4</ele>
        <time>2012-06-14T08:59:31.000Z</time>
      </trkpt>
      <trkpt lat="47.7251" lon="6.06232">
        <ele>304.3</ele>
        <time>2012-06-14T08:59:33.000Z</time>
      </trkpt>
      <trkpt lat="47.72503" lon="6.06226">
        <ele>303.6</ele>
        <time>2012-06-14T08:59:35.000Z</time>
      </trkpt>
      <trkpt lat="47.72495" lon="6.06222">
        <ele>303.5</ele>
        <time>2012-06-14T08:59:37.000Z</time>
      </trkpt>
      <trkpt lat="47.72487" lon="6.06218">
        <ele>303.2</ele>
        <time>2012-06-14T08:59:39.000Z</time>
      </trkpt>
      <trkpt lat="47.7248" lon="6.06213">
        <ele>302.8</ele>
        <time>2012-06-14T08:59:41.000Z</time>
      </trkpt>
      <trkpt lat="47.72472" lon="6.06209">
        <ele>302.4</ele>
        <time>2012-06-14T08:59:43.000Z</time>
      </trkpt>
      <trkpt lat="47.72464" lon="6.06204">
        <ele>302.1</ele>
        <time>2012-06-14T08:59:45.000Z</time>
      </trkpt>
      <trkpt lat="47.72459" lon="6.062">
        <ele>302.2</ele>
        <time>2012-06-14T08:59:47.000Z</time>
      </trkpt>
      <trkpt lat="47.72454" lon="6.06198">
        <ele>302.3</ele>
        <time>2012-06-14T08:59:49.000Z</time>
      </trkpt>
      <trkpt lat="47.72447" lon="6.06194">
        <ele>302</ele>
        <time>2012-06-14T08:59:51.000Z</time>
      </trkpt>
      <trkpt lat="47.72441" lon="6.0619">
        <ele>302</ele>
        <time>2012-06-14T08:59:53.000Z</time>
      </trkpt>
      <trkpt lat="47.72433" lon="6.06188">
        <ele>302.1</ele>
        <time>2012-06-14T08:59:55.000Z</time>
      </trkpt>
      <trkpt lat="47.72426" lon="6.06187">
        <ele>302.1</ele>
        <time>2012-06-14T08:59:57.000Z</time>
      </trkpt>
      <trkpt lat="47.72418" lon="6.06182">
        <ele>302</ele>
        <time>2012-06-14T08:59:59.000Z</time>
      </trkpt>
      <trkpt lat="47.72412" lon="6.06176">
        <ele>302</ele>
        <time>2012-06-14T09:00:01.000Z</time>
      </trkpt>
      <trkpt lat="47.72405" lon="6.06171">
        <ele>302</ele>
        <time>2012-06-14T09:00:03.000Z</time>
      </trkpt>
      <trkpt lat="47.72398" lon="6.06167">
        <ele>301.8</ele>
        <time>2012-06-14T09:00:05.000Z</time>
      </trkpt>
      <trkpt lat="47.72391" lon="6.06163">
        <ele>301.6</ele>
        <time>2012-06-14T09:00:07.000Z</time>
      </trkpt>
      <trkpt lat="47.72385" lon="6.06161">
        <ele>301.7</ele>
        <time>2012-06-14T09:00:09.000Z</time>
      </trkpt>
      <trkpt lat="47.7238" lon="6.06159">
        <ele>302</ele>
        <time>2012-06-14T09:00:11.000Z</time>
      </trkpt>
      <trkpt lat="47.72374" lon="6.06158">
        <ele>302.1</ele>
        <time>2012-06-14T09:00:13.000Z</time>
      </trkpt>
      <trkpt lat="47.72369" lon="6.06157">
        <ele>302.2</ele>
        <time>2012-06-14T09:00:15.000Z</time>
      </trkpt>
      <trkpt lat="47.72364" lon="6.06155">
        <ele>302.4</ele>
        <time>2012-06-14T09:00:17.000Z</time>
      </trkpt>
      <trkpt lat="47.72358" lon="6.06153">
        <ele>302.5</ele>
        <time>2012-06-14T09:00:19.000Z</time>
      </trkpt>
      <trkpt lat="47.72352" lon="6.06151">
        <ele>302.4</ele>
        <time>2012-06-14T09:00:21.000Z</time>
      </trkpt>
      <trkpt lat="47.72344" lon="6.0615">
        <ele>302.4</ele>
        <time>2012-06-14T09:00:23.000Z</time>
      </trkpt>
      <trkpt lat="47.72338" lon="6.06149">
        <ele>302.4</ele>
        <time>2012-06-14T09:00:25.000Z</time>
      </trkpt>
      <trkpt lat="47.72333" lon="6.06148">
        <ele>302.5</ele>
        <time>2012-06-14T09:00:27.000Z</time>
      </trkpt>
      <trkpt lat="47.72327" lon="6.06147">
        <ele>302.6</ele>
        <time>2012-06-14T09:00:29.000Z</time>
      </trkpt>
      <trkpt lat="47.7232" lon="6.06146">
        <ele>302.1</ele>
        <time>2012-06-14T09:00:31.000Z</time>
      </trkpt>
      <trkpt lat="47.72313" lon="6.06144">
        <ele>301.6</ele>
        <time>2012-06-14T09:00:33.000Z</time>
      </trkpt>
      <trkpt lat="47.72306" lon="6.06143">
        <ele>301.5</ele>
        <time>2012-06-14T09:00:35.000Z</time>
      </trkpt>
      <trkpt lat="47.72299" lon="6.06143">
        <ele>301.3</ele>
        <time>2012-06-14T09:00:37.000Z</time>
      </trkpt>
      <trkpt lat="47.72293" lon="6.06144">
        <ele>301.6</ele>
        <time>2012-06-14T09:00:39.000Z</time>
      </trkpt>
      <trkpt lat="47.72288" lon="6.06148">
        <ele>301.9</ele>
        <time>2012-06-14T09:00:41.000Z</time>
      </trkpt>
      <trkpt lat="47.72286" lon="6.06153">
        <ele>302.2</ele>
        <time>2012-06-14T09:00:44.000Z</time>
      </trkpt>
      <trkpt lat="47.7228" lon="6.06153">
        <ele>301.6</ele>
        <time>2012-06-14T09:00:46.000Z</time>
      </trkpt>
      <trkpt lat="47.72274" lon="6.06152">
        <ele>301.2</ele>
        <time>2012-06-14T09:00:48.000Z</time>
      </trkpt>
      <trkpt lat="47.72268" lon="6.06155">
        <ele>301.3</ele>
        <time>2012-06-14T09:00:51.000Z</time>
      </trkpt>
      <trkpt lat="47.72262" lon="6.06157">
        <ele>301.6</ele>
        <time>2012-06-14T09:01:00.000Z</time>
      </trkpt>
      <trkpt lat="47.72256" lon="6.06155">
        <ele>301.4</ele>
        <time>2012-06-14T09:01:03.000Z</time>
      </trkpt>
      <trkpt lat="47.72251" lon="6.06152">
        <ele>301.5</ele>
        <time>2012-06-14T09:01:06.000Z</time>
      </trkpt>
      <trkpt lat="47.72245" lon="6.06149">
        <ele>301.3</ele>
        <time>2012-06-14T09:01:09.000Z</time>
      </trkpt>
      <trkpt lat="47.7224" lon="6.06145">
        <ele>301</ele>
        <time>2012-06-14T09:01:11.000Z</time>
      </trkpt>
      <trkpt lat="47.72234" lon="6.06144">
        <ele>300.8</ele>
        <time>2012-06-14T09:01:14.000Z</time>
      </trkpt>
      <trkpt lat="47.72227" lon="6.06145">
        <ele>300.6</ele>
        <time>2012-06-14T09:01:17.000Z</time>
      </trkpt>
      <trkpt lat="47.7222" lon="6.06142">
        <ele>300.4</ele>
        <time>2012-06-14T09:01:19.000Z</time>
      </trkpt>
      <trkpt lat="47.72216" lon="6.06139">
        <ele>300.1</ele>
        <time>2012-06-14T09:01:20.000Z</time>
      </trkpt>
      <trkpt lat="47.72207" lon="6.06132">
        <ele>299.6</ele>
        <time>2012-06-14T09:01:22.000Z</time>
      </trkpt>
      <trkpt lat="47.722" lon="6.06128">
        <ele>299.2</ele>
        <time>2012-06-14T09:01:24.000Z</time>
      </trkpt>
      <trkpt lat="47.72193" lon="6.06126">
        <ele>298.9</ele>
        <time>2012-06-14T09:01:26.000Z</time>
      </trkpt>
      <trkpt lat="47.72186" lon="6.06124">
        <ele>298.8</ele>
        <time>2012-06-14T09:01:28.000Z</time>
      </trkpt>
      <trkpt lat="47.72178" lon="6.06118">
        <ele>298.3</ele>
        <time>2012-06-14T09:01:30.000Z</time>
      </trkpt>
      <trkpt lat="47.72169" lon="6.06115">
        <ele>298.2</ele>
        <time>2012-06-14T09:01:31.000Z</time>
      </trkpt>
      <trkpt lat="47.72163" lon="6.0611">
        <ele>298</ele>
        <time>2012-06-14T09:01:33.000Z</time>
      </trkpt>
      <trkpt lat="47.72157" lon="6.06106">
        <ele>298.2</ele>
        <time>2012-06-14T09:01:35.000Z</time>
      </trkpt>
      <trkpt lat="47.72152" lon="6.06103">
        <ele>298.3</ele>
        <time>2012-06-14T09:01:37.000Z</time>
      </trkpt>
      <trkpt lat="47.72149" lon="6.06096">
        <ele>298.7</ele>
        <time>2012-06-14T09:01:41.000Z</time>
      </trkpt>
      <trkpt lat="47.72145" lon="6.06093">
        <ele>299.3</ele>
        <time>2012-06-14T09:01:46.000Z</time>
      </trkpt>
      <trkpt lat="47.7214" lon="6.06092">
        <ele>299.2</ele>
        <time>2012-06-14T09:01:51.000Z</time>
      </trkpt>
      <trkpt lat="47.72139" lon="6.06084">
        <ele>298.8</ele>
        <time>2012-06-14T09:01:56.000Z</time>
      </trkpt>
      <trkpt lat="47.72137" lon="6.06076">
        <ele>299</ele>
        <time>2012-06-14T09:01:59.000Z</time>
      </trkpt>
      <trkpt lat="47.72134" lon="6.0607">
        <ele>299.2</ele>
        <time>2012-06-14T09:02:01.000Z</time>
      </trkpt>
      <trkpt lat="47.7213" lon="6.06066">
        <ele>298.9</ele>
        <time>2012-06-14T09:02:04.000Z</time>
      </trkpt>
      <trkpt lat="47.72125" lon="6.06065">
        <ele>298.6</ele>
        <time>2012-06-14T09:02:07.000Z</time>
      </trkpt>
      <trkpt lat="47.72121" lon="6.06063">
        <ele>298.4</ele>
        <time>2012-06-14T09:02:09.000Z</time>
      </trkpt>
      <trkpt lat="47.72114" lon="6.06058">
        <ele>299.6</ele>
        <time>2012-06-14T09:02:12.000Z</time>
      </trkpt>
      <trkpt lat="47.72103" lon="6.06041">
        <ele>300.4</ele>
        <time>2012-06-14T09:02:14.000Z</time>
      </trkpt>
      <trkpt lat="47.721" lon="6.06036">
        <ele>301.2</ele>
        <time>2012-06-14T09:02:16.000Z</time>
      </trkpt>
      <trkpt lat="47.72094" lon="6.0603">
        <ele>301.9</ele>
        <time>2012-06-14T09:02:19.000Z</time>
      </trkpt>
      <trkpt lat="47.7209" lon="6.06027">
        <ele>301.8</ele>
        <time>2012-06-14T09:02:21.000Z</time>
      </trkpt>
      <trkpt lat="47.72086" lon="6.06022">
        <ele>301.5</ele>
        <time>2012-06-14T09:02:25.000Z</time>
      </trkpt>
      <trkpt lat="47.72083" lon="6.06016">
        <ele>301.1</ele>
        <time>2012-06-14T09:02:30.000Z</time>
      </trkpt>
      <trkpt lat="47.72083" lon="6.06009">
        <ele>302</ele>
        <time>2012-06-14T09:02:35.000Z</time>
      </trkpt>
      <trkpt lat="47.7208" lon="6.06001">
        <ele>302.3</ele>
        <time>2012-06-14T09:02:39.000Z</time>
      </trkpt>
      <trkpt lat="47.72075" lon="6.05997">
        <ele>302.6</ele>
        <time>2012-06-14T09:02:42.000Z</time>
      </trkpt>
      <trkpt lat="47.72071" lon="6.05992">
        <ele>302.8</ele>
        <time>2012-06-14T09:02:45.000Z</time>
      </trkpt>
      <trkpt lat="47.72066" lon="6.05989">
        <ele>303.2</ele>
        <time>2012-06-14T09:02:48.000Z</time>
      </trkpt>
      <trkpt lat="47.72058" lon="6.05986">
        <ele>304.4</ele>
        <time>2012-06-14T09:02:50.000Z</time>
      </trkpt>
      <trkpt lat="47.72054" lon="6.05981">
        <ele>304.8</ele>
        <time>2012-06-14T09:02:52.000Z</time>
      </trkpt>
      <trkpt lat="47.72051" lon="6.05974">
        <ele>305.2</ele>
        <time>2012-06-14T09:02:57.000Z</time>
      </trkpt>
      <trkpt lat="47.72046" lon="6.0597">
        <ele>305.5</ele>
        <time>2012-06-14T09:02:59.000Z</time>
      </trkpt>
      <trkpt lat="47.7204" lon="6.05966">
        <ele>305.9</ele>
        <time>2012-06-14T09:03:01.000Z</time>
      </trkpt>
      <trkpt lat="47.72035" lon="6.05964">
        <ele>306.7</ele>
        <time>2012-06-14T09:03:04.000Z</time>
      </trkpt>
      <trkpt lat="47.72029" lon="6.05963">
        <ele>307.3</ele>
        <time>2012-06-14T09:03:07.000Z</time>
      </trkpt>
      <trkpt lat="47.72024" lon="6.05962">
        <ele>307.6</ele>
        <time>2012-06-14T09:03:10.000Z</time>
      </trkpt>
      <trkpt lat="47.72018" lon="6.05958">
        <ele>308</ele>
        <time>2012-06-14T09:03:14.000Z</time>
      </trkpt>
      <trkpt lat="47.72014" lon="6.05956">
        <ele>308</ele>
        <time>2012-06-14T09:03:17.000Z</time>
      </trkpt>
      <trkpt lat="47.72007" lon="6.05956">
        <ele>307.6</ele>
        <time>2012-06-14T09:03:19.000Z</time>
      </trkpt>
      <trkpt lat="47.72001" lon="6.05958">
        <ele>307.7</ele>
        <time>2012-06-14T09:03:23.000Z</time>
      </trkpt>
      <trkpt lat="47.71996" lon="6.05957">
        <ele>308.2</ele>
        <time>2012-06-14T09:03:26.000Z</time>
      </trkpt>
      <trkpt lat="47.71991" lon="6.05956">
        <ele>308.6</ele>
        <time>2012-06-14T09:03:30.000Z</time>
      </trkpt>
      <trkpt lat="47.71984" lon="6.05954">
        <ele>308.7</ele>
        <time>2012-06-14T09:03:34.000Z</time>
      </trkpt>
      <trkpt lat="47.71979" lon="6.05953">
        <ele>308.6</ele>
        <time>2012-06-14T09:03:36.000Z</time>
      </trkpt>
      <trkpt lat="47.71974" lon="6.05952">
        <ele>308.2</ele>
        <time>2012-06-14T09:03:39.000Z</time>
      </trkpt>
      <trkpt lat="47.7197" lon="6.05949">
        <ele>307.8</ele>
        <time>2012-06-14T09:03:42.000Z</time>
      </trkpt>
      <trkpt lat="47.71965" lon="6.05946">
        <ele>308.1</ele>
        <time>2012-06-14T09:03:45.000Z</time>
      </trkpt>
      <trkpt lat="47.71961" lon="6.05944">
        <ele>308.4</ele>
        <time>2012-06-14T09:03:48.000Z</time>
      </trkpt>
      <trkpt lat="47.71953" lon="6.05945">
        <ele>308.9</ele>
        <time>2012-06-14T09:03:51.000Z</time>
      </trkpt>
      <trkpt lat="47.71946" lon="6.05944">
        <ele>308.8</ele>
        <time>2012-06-14T09:03:53.000Z</time>
      </trkpt>
      <trkpt lat="47.7194" lon="6.05944">
        <ele>308.9</ele>
        <time>2012-06-14T09:03:56.000Z</time>
      </trkpt>
      <trkpt lat="47.71934" lon="6.05942">
        <ele>308.8</ele>
        <time>2012-06-14T09:03:59.000Z</time>
      </trkpt>
      <trkpt lat="47.7193" lon="6.05939">
        <ele>308.9</ele>
        <time>2012-06-14T09:04:01.000Z</time>
      </trkpt>
      <trkpt lat="47.71924" lon="6.05937">
        <ele>308.5</ele>
        <time>2012-06-14T09:04:03.000Z</time>
      </trkpt>
      <trkpt lat="47.7192" lon="6.05932">
        <ele>308.5</ele>
        <time>2012-06-14T09:04:05.000Z</time>
      </trkpt>
      <trkpt lat="47.71914" lon="6.05928">
        <ele>308.6</ele>
        <time>2012-06-14T09:04:07.000Z</time>
      </trkpt>
      <trkpt lat="47.71908" lon="6.05923">
        <ele>308.6</ele>
        <time>2012-06-14T09:04:09.000Z</time>
      </trkpt>
      <trkpt lat="47.71902" lon="6.05918">
        <ele>308.7</ele>
        <time>2012-06-14T09:04:11.000Z</time>
      </trkpt>
      <trkpt lat="47.71897" lon="6.05912">
        <ele>308.9</ele>
        <time>2012-06-14T09:04:13.000Z</time>
      </trkpt>
      <trkpt lat="47.71892" lon="6.05909">
        <ele>308.7</ele>
        <time>2012-06-14T09:04:15.000Z</time>
      </trkpt>
      <trkpt lat="47.71885" lon="6.05903">
        <ele>310.8</ele>
        <time>2012-06-14T09:04:18.000Z</time>
      </trkpt>
      <trkpt lat="47.71879" lon="6.059">
        <ele>310.9</ele>
        <time>2012-06-14T09:04:20.000Z</time>
      </trkpt>
      <trkpt lat="47.71873" lon="6.05897">
        <ele>310.8</ele>
        <time>2012-06-14T09:04:22.000Z</time>
      </trkpt>
      <trkpt lat="47.71867" lon="6.05898">
        <ele>310.9</ele>
        <time>2012-06-14T09:04:24.000Z</time>
      </trkpt>
      <trkpt lat="47.7186" lon="6.05899">
        <ele>311.1</ele>
        <time>2012-06-14T09:04:27.000Z</time>
      </trkpt>
      <trkpt lat="47.71857" lon="6.05894">
        <ele>311.1</ele>
        <time>2012-06-14T09:04:29.000Z</time>
      </trkpt>
      <trkpt lat="47.71852" lon="6.0589">
        <ele>311</ele>
        <time>2012-06-14T09:04:31.000Z</time>
      </trkpt>
      <trkpt lat="47.71848" lon="6.05885">
        <ele>311.6</ele>
        <time>2012-06-14T09:04:33.000Z</time>
      </trkpt>
      <trkpt lat="47.71844" lon="6.0588">
        <ele>311.7</ele>
        <time>2012-06-14T09:04:35.000Z</time>
      </trkpt>
      <trkpt lat="47.71841" lon="6.05875">
        <ele>311.7</ele>
        <time>2012-06-14T09:04:37.000Z</time>
      </trkpt>
      <trkpt lat="47.71838" lon="6.0587">
        <ele>312.1</ele>
        <time>2012-06-14T09:04:40.000Z</time>
      </trkpt>
      <trkpt lat="47.71835" lon="6.05864">
        <ele>312.6</ele>
        <time>2012-06-14T09:04:43.000Z</time>
      </trkpt>
      <trkpt lat="47.71833" lon="6.05857">
        <ele>313.2</ele>
        <time>2012-06-14T09:04:46.000Z</time>
      </trkpt>
      <trkpt lat="47.71829" lon="6.05847">
        <ele>312.7</ele>
        <time>2012-06-14T09:04:50.000Z</time>
      </trkpt>
      <trkpt lat="47.71827" lon="6.0584">
        <ele>312.9</ele>
        <time>2012-06-14T09:04:52.000Z</time>
      </trkpt>
      <trkpt lat="47.71822" lon="6.05837">
        <ele>311.8</ele>
        <time>2012-06-14T09:04:54.000Z</time>
      </trkpt>
      <trkpt lat="47.71818" lon="6.05831">
        <ele>311.5</ele>
        <time>2012-06-14T09:04:56.000Z</time>
      </trkpt>
      <trkpt lat="47.71814" lon="6.05823">
        <ele>311.7</ele>
        <time>2012-06-14T09:04:58.000Z</time>
      </trkpt>
      <trkpt lat="47.71808" lon="6.05821">
        <ele>312.6</ele>
        <time>2012-06-14T09:05:02.000Z</time>
      </trkpt>
      <trkpt lat="47.71803" lon="6.05818">
        <ele>313.6</ele>
        <time>2012-06-14T09:05:08.000Z</time>
      </trkpt>
      <trkpt lat="47.71798" lon="6.05817">
        <ele>311.8</ele>
        <time>2012-06-14T09:05:15.000Z</time>
      </trkpt>
      <trkpt lat="47.71794" lon="6.05812">
        <ele>311.8</ele>
        <time>2012-06-14T09:05:21.000Z</time>
      </trkpt>
      <trkpt lat="47.71793" lon="6.05804">
        <ele>311.7</ele>
        <time>2012-06-14T09:05:24.000Z</time>
      </trkpt>
      <trkpt lat="47.71792" lon="6.05798">
        <ele>312</ele>
        <time>2012-06-14T09:05:28.000Z</time>
      </trkpt>
      <trkpt lat="47.71787" lon="6.05796">
        <ele>312.5</ele>
        <time>2012-06-14T09:05:33.000Z</time>
      </trkpt>
      <trkpt lat="47.71782" lon="6.05796">
        <ele>313.7</ele>
        <time>2012-06-14T09:05:38.000Z</time>
      </trkpt>
      <trkpt lat="47.71778" lon="6.05793">
        <ele>314.1</ele>
        <time>2012-06-14T09:05:42.000Z</time>
      </trkpt>
      <trkpt lat="47.7176" lon="6.05761">
        <ele>323.9</ele>
        <time>2012-06-14T09:06:01.000Z</time>
      </trkpt>
      <trkpt lat="47.71755" lon="6.05763">
        <ele>327.1</ele>
        <time>2012-06-14T09:06:05.000Z</time>
      </trkpt>
      <trkpt lat="47.71749" lon="6.05765">
        <ele>321.8</ele>
        <time>2012-06-14T09:06:12.000Z</time>
      </trkpt>
      <trkpt lat="47.71744" lon="6.05764">
        <ele>325.5</ele>
        <time>2012-06-14T09:06:18.000Z</time>
      </trkpt>
      <trkpt lat="47.71739" lon="6.05764">
        <ele>325.6</ele>
        <time>2012-06-14T09:06:23.000Z</time>
      </trkpt>
      <trkpt lat="47.71734" lon="6.05763">
        <ele>324.7</ele>
        <time>2012-06-14T09:06:25.000Z</time>
      </trkpt>
      <trkpt lat="47.71728" lon="6.05766">
        <ele>318.9</ele>
        <time>2012-06-14T09:06:31.000Z</time>
      </trkpt>
      <trkpt lat="47.71723" lon="6.05762">
        <ele>318.7</ele>
        <time>2012-06-14T09:06:35.000Z</time>
      </trkpt>
      <trkpt lat="47.71719" lon="6.0576">
        <ele>317.5</ele>
        <time>2012-06-14T09:06:38.000Z</time>
      </trkpt>
      <trkpt lat="47.71701" lon="6.05754">
        <ele>322.3</ele>
        <time>2012-06-14T09:07:01.000Z</time>
      </trkpt>
      <trkpt lat="47.71696" lon="6.05754">
        <ele>322.7</ele>
        <time>2012-06-14T09:07:07.000Z</time>
      </trkpt>
      <trkpt lat="47.71691" lon="6.05748">
        <ele>323.1</ele>
        <time>2012-06-14T09:07:12.000Z</time>
      </trkpt>
      <trkpt lat="47.71689" lon="6.05741">
        <ele>321.8</ele>
        <time>2012-06-14T09:07:14.000Z</time>
      </trkpt>
      <trkpt lat="47.71683" lon="6.05739">
        <ele>321.8</ele>
        <time>2012-06-14T09:07:17.000Z</time>
      </trkpt>
      <trkpt lat="47.71678" lon="6.05741">
        <ele>320.8</ele>
        <time>2012-06-14T09:07:19.000Z</time>
      </trkpt>
      <trkpt lat="47.71672" lon="6.05743">
        <ele>320.7</ele>
        <time>2012-06-14T09:07:22.000Z</time>
      </trkpt>
      <trkpt lat="47.71667" lon="6.05746">
        <ele>320.7</ele>
        <time>2012-06-14T09:07:24.000Z</time>
      </trkpt>
      <trkpt lat="47.7166" lon="6.0575">
        <ele>319.1</ele>
        <time>2012-06-14T09:07:26.000Z</time>
      </trkpt>
      <trkpt lat="47.71655" lon="6.0575">
        <ele>318</ele>
        <time>2012-06-14T09:07:28.000Z</time>
      </trkpt>
      <trkpt lat="47.7165" lon="6.05749">
        <ele>317.5</ele>
        <time>2012-06-14T09:07:30.000Z</time>
      </trkpt>
      <trkpt lat="47.71644" lon="6.05747">
        <ele>317.6</ele>
        <time>2012-06-14T09:07:33.000Z</time>
      </trkpt>
      <trkpt lat="47.71639" lon="6.05744">
        <ele>317.4</ele>
        <time>2012-06-14T09:07:36.000Z</time>
      </trkpt>
      <trkpt lat="47.71635" lon="6.0574">
        <ele>318</ele>
        <time>2012-06-14T09:07:40.000Z</time>
      </trkpt>
      <trkpt lat="47.7163" lon="6.05738">
        <ele>317.4</ele>
        <time>2012-06-14T09:07:46.000Z</time>
      </trkpt>
      <trkpt lat="47.71627" lon="6.05733">
        <ele>314.6</ele>
        <time>2012-06-14T09:07:51.000Z</time>
      </trkpt>
      <trkpt lat="47.71622" lon="6.05729">
        <ele>309.8</ele>
        <time>2012-06-14T09:08:00.000Z</time>
      </trkpt>
      <trkpt lat="47.71616" lon="6.05732">
        <ele>309.4</ele>
        <time>2012-06-14T09:08:06.000Z</time>
      </trkpt>
      <trkpt lat="47.71612" lon="6.05738">
        <ele>309.1</ele>
        <time>2012-06-14T09:08:11.000Z</time>
      </trkpt>
      <trkpt lat="47.71609" lon="6.05744">
        <ele>309.2</ele>
        <time>2012-06-14T09:08:15.000Z</time>
      </trkpt>
      <trkpt lat="47.71604" lon="6.05747">
        <ele>305.9</ele>
        <time>2012-06-14T09:08:18.000Z</time>
      </trkpt>
      <trkpt lat="47.71597" lon="6.05746">
        <ele>300.8</ele>
        <time>2012-06-14T09:08:36.000Z</time>
      </trkpt>
      <trkpt lat="47.7159" lon="6.05744">
        <ele>300.8</ele>
        <time>2012-06-14T09:08:38.000Z</time>
      </trkpt>
      <trkpt lat="47.71585" lon="6.05739">
        <ele>301</ele>
        <time>2012-06-14T09:08:39.000Z</time>
      </trkpt>
      <trkpt lat="47.7158" lon="6.05737">
        <ele>301.5</ele>
        <time>2012-06-14T09:08:42.000Z</time>
      </trkpt>
      <trkpt lat="47.71576" lon="6.05735">
        <ele>303</ele>
        <time>2012-06-14T09:08:48.000Z</time>
      </trkpt>
      <trkpt lat="47.71572" lon="6.0573">
        <ele>303.3</ele>
        <time>2012-06-14T09:08:53.000Z</time>
      </trkpt>
      <trkpt lat="47.71567" lon="6.05732">
        <ele>304.1</ele>
        <time>2012-06-14T09:08:58.000Z</time>
      </trkpt>
      <trkpt lat="47.71561" lon="6.05731">
        <ele>304.3</ele>
        <time>2012-06-14T09:09:01.000Z</time>
      </trkpt>
      <trkpt lat="47.71556" lon="6.0573">
        <ele>304.6</ele>
        <time>2012-06-14T09:09:06.000Z</time>
      </trkpt>
      <trkpt lat="47.71551" lon="6.05729">
        <ele>305.5</ele>
        <time>2012-06-14T09:09:10.000Z</time>
      </trkpt>
      <trkpt lat="47.71542" lon="6.05729">
        <ele>306.8</ele>
        <time>2012-06-14T09:09:14.000Z</time>
      </trkpt>
      <trkpt lat="47.71536" lon="6.05729">
        <ele>307.1</ele>
        <time>2012-06-14T09:09:16.000Z</time>
      </trkpt>
      <trkpt lat="47.7153" lon="6.05729">
        <ele>307.6</ele>
        <time>2012-06-14T09:09:18.000Z</time>
      </trkpt>
      <trkpt lat="47.71523" lon="6.0573">
        <ele>308</ele>
        <time>2012-06-14T09:09:20.000Z</time>
      </trkpt>
      <trkpt lat="47.71516" lon="6.0573">
        <ele>308.3</ele>
        <time>2012-06-14T09:09:22.000Z</time>
      </trkpt>
      <trkpt lat="47.7151" lon="6.05728">
        <ele>308.5</ele>
        <time>2012-06-14T09:09:24.000Z</time>
      </trkpt>
      <trkpt lat="47.71505" lon="6.05727">
        <ele>308.8</ele>
        <time>2012-06-14T09:09:26.000Z</time>
      </trkpt>
      <trkpt lat="47.715" lon="6.05725">
        <ele>309.2</ele>
        <time>2012-06-14T09:09:28.000Z</time>
      </trkpt>
      <trkpt lat="47.71493" lon="6.05724">
        <ele>309.6</ele>
        <time>2012-06-14T09:09:31.000Z</time>
      </trkpt>
      <trkpt lat="47.71488" lon="6.0572">
        <ele>309.8</ele>
        <time>2012-06-14T09:09:33.000Z</time>
      </trkpt>
      <trkpt lat="47.71484" lon="6.05716">
        <ele>309.9</ele>
        <time>2012-06-14T09:09:35.000Z</time>
      </trkpt>
      <trkpt lat="47.71479" lon="6.05712">
        <ele>310.1</ele>
        <time>2012-06-14T09:09:37.000Z</time>
      </trkpt>
      <trkpt lat="47.71474" lon="6.0571">
        <ele>310.3</ele>
        <time>2012-06-14T09:09:39.000Z</time>
      </trkpt>
      <trkpt lat="47.71469" lon="6.05706">
        <ele>310.4</ele>
        <time>2012-06-14T09:09:41.000Z</time>
      </trkpt>
      <trkpt lat="47.71465" lon="6.05704">
        <ele>310.7</ele>
        <time>2012-06-14T09:09:43.000Z</time>
      </trkpt>
      <trkpt lat="47.7146" lon="6.05702">
        <ele>310.9</ele>
        <time>2012-06-14T09:09:45.000Z</time>
      </trkpt>
      <trkpt lat="47.71441" lon="6.05669">
        <ele>312.4</ele>
        <time>2012-06-14T09:09:59.000Z</time>
      </trkpt>
      <trkpt lat="47.71437" lon="6.05663">
        <ele>312.5</ele>
        <time>2012-06-14T09:10:02.000Z</time>
      </trkpt>
      <trkpt lat="47.71431" lon="6.05662">
        <ele>313.6</ele>
        <time>2012-06-14T09:10:07.000Z</time>
      </trkpt>
      <trkpt lat="47.71424" lon="6.05661">
        <ele>316.3</ele>
        <time>2012-06-14T09:10:11.000Z</time>
      </trkpt>
      <trkpt lat="47.7142" lon="6.05662">
        <ele>314</ele>
        <time>2012-06-14T09:10:21.000Z</time>
      </trkpt>
      <trkpt lat="47.71416" lon="6.05666">
        <ele>313.9</ele>
        <time>2012-06-14T09:10:27.000Z</time>
      </trkpt>
      <trkpt lat="47.71412" lon="6.05661">
        <ele>315.4</ele>
        <time>2012-06-14T09:10:31.000Z</time>
      </trkpt>
      <trkpt lat="47.71407" lon="6.0566">
        <ele>314.3</ele>
        <time>2012-06-14T09:10:40.000Z</time>
      </trkpt>
      <trkpt lat="47.71401" lon="6.05657">
        <ele>312.4</ele>
        <time>2012-06-14T09:10:45.000Z</time>
      </trkpt>
      <trkpt lat="47.71396" lon="6.05655">
        <ele>311.6</ele>
        <time>2012-06-14T09:10:49.000Z</time>
      </trkpt>
      <trkpt lat="47.71394" lon="6.05649">
        <ele>312</ele>
        <time>2012-06-14T09:10:52.000Z</time>
      </trkpt>
      <trkpt lat="47.71395" lon="6.05642">
        <ele>311.8</ele>
        <time>2012-06-14T09:10:56.000Z</time>
      </trkpt>
      <trkpt lat="47.7139" lon="6.05642">
        <ele>312.1</ele>
        <time>2012-06-14T09:11:05.000Z</time>
      </trkpt>
      <trkpt lat="47.71383" lon="6.05638">
        <ele>313.9</ele>
        <time>2012-06-14T09:11:07.000Z</time>
      </trkpt>
      <trkpt lat="47.71378" lon="6.05637">
        <ele>315.3</ele>
        <time>2012-06-14T09:11:09.000Z</time>
      </trkpt>
      <trkpt lat="47.71373" lon="6.05635">
        <ele>316.9</ele>
        <time>2012-06-14T09:11:11.000Z</time>
      </trkpt>
      <trkpt lat="47.71368" lon="6.05634">
        <ele>317.1</ele>
        <time>2012-06-14T09:11:13.000Z</time>
      </trkpt>
      <trkpt lat="47.71364" lon="6.0563">
        <ele>317.3</ele>
        <time>2012-06-14T09:11:15.000Z</time>
      </trkpt>
      <trkpt lat="47.71361" lon="6.05624">
        <ele>317.6</ele>
        <time>2012-06-14T09:11:18.000Z</time>
      </trkpt>
      <trkpt lat="47.71357" lon="6.05618">
        <ele>317.5</ele>
        <time>2012-06-14T09:11:22.000Z</time>
      </trkpt>
      <trkpt lat="47.71357" lon="6.0561">
        <ele>317.6</ele>
        <time>2012-06-14T09:11:25.000Z</time>
      </trkpt>
      <trkpt lat="47.71354" lon="6.05602">
        <ele>318.2</ele>
        <time>2012-06-14T09:11:29.000Z</time>
      </trkpt>
      <trkpt lat="47.71348" lon="6.05599">
        <ele>319</ele>
        <time>2012-06-14T09:11:32.000Z</time>
      </trkpt>
      <trkpt lat="47.71342" lon="6.05598">
        <ele>319.4</ele>
        <time>2012-06-14T09:11:34.000Z</time>
      </trkpt>
      <trkpt lat="47.71337" lon="6.05595">
        <ele>319.8</ele>
        <time>2012-06-14T09:11:37.000Z</time>
      </trkpt>
      <trkpt lat="47.71333" lon="6.0559">
        <ele>319.9</ele>
        <time>2012-06-14T09:11:40.000Z</time>
      </trkpt>
      <trkpt lat="47.71328" lon="6.05588">
        <ele>320.2</ele>
        <time>2012-06-14T09:11:44.000Z</time>
      </trkpt>
      <trkpt lat="47.71324" lon="6.05587">
        <ele>320.5</ele>
        <time>2012-06-14T09:11:47.000Z</time>
      </trkpt>
      <trkpt lat="47.71318" lon="6.05587">
        <ele>321</ele>
        <time>2012-06-14T09:11:50.000Z</time>
      </trkpt>
      <trkpt lat="47.71312" lon="6.05581">
        <ele>321.2</ele>
        <time>2012-06-14T09:11:53.000Z</time>
      </trkpt>
      <trkpt lat="47.7131" lon="6.05574">
        <ele>321.2</ele>
        <time>2012-06-14T09:11:56.000Z</time>
      </trkpt>
      <trkpt lat="47.71307" lon="6.05567">
        <ele>320.8</ele>
        <time>2012-06-14T09:12:01.000Z</time>
      </trkpt>
      <trkpt lat="47.71303" lon="6.05562">
        <ele>321.2</ele>
        <time>2012-06-14T09:12:04.000Z</time>
      </trkpt>
      <trkpt lat="47.71298" lon="6.0556">
        <ele>321.3</ele>
        <time>2012-06-14T09:12:08.000Z</time>
      </trkpt>
      <trkpt lat="47.71294" lon="6.0556">
        <ele>320.4</ele>
        <time>2012-06-14T09:12:11.000Z</time>
      </trkpt>
      <trkpt lat="47.71288" lon="6.05558">
        <ele>321.2</ele>
        <time>2012-06-14T09:12:14.000Z</time>
      </trkpt>
      <trkpt lat="47.71283" lon="6.05556">
        <ele>320.9</ele>
        <time>2012-06-14T09:12:17.000Z</time>
      </trkpt>
      <trkpt lat="47.71278" lon="6.05557">
        <ele>321</ele>
        <time>2012-06-14T09:12:20.000Z</time>
      </trkpt>
      <trkpt lat="47.71272" lon="6.05555">
        <ele>321.1</ele>
        <time>2012-06-14T09:12:24.000Z</time>
      </trkpt>
      <trkpt lat="47.71267" lon="6.05551">
        <ele>321.4</ele>
        <time>2012-06-14T09:12:28.000Z</time>
      </trkpt>
      <trkpt lat="47.71262" lon="6.05551">
        <ele>321.4</ele>
        <time>2012-06-14T09:12:31.000Z</time>
      </trkpt>
      <trkpt lat="47.71257" lon="6.0555">
        <ele>321.2</ele>
        <time>2012-06-14T09:12:34.000Z</time>
      </trkpt>
      <trkpt lat="47.71252" lon="6.05548">
        <ele>321.1</ele>
        <time>2012-06-14T09:12:37.000Z</time>
      </trkpt>
      <trkpt lat="47.71247" lon="6.05546">
        <ele>320.9</ele>
        <time>2012-06-14T09:12:40.000Z</time>
      </trkpt>
      <trkpt lat="47.71242" lon="6.05545">
        <ele>320.8</ele>
        <time>2012-06-14T09:12:43.000Z</time>
      </trkpt>
      <trkpt lat="47.71236" lon="6.05545">
        <ele>320.9</ele>
        <time>2012-06-14T09:12:47.000Z</time>
      </trkpt>
      <trkpt lat="47.71231" lon="6.05543">
        <ele>321.3</ele>
        <time>2012-06-14T09:12:51.000Z</time>
      </trkpt>
      <trkpt lat="47.71226" lon="6.05544">
        <ele>321.7</ele>
        <time>2012-06-14T09:12:56.000Z</time>
      </trkpt>
      <trkpt lat="47.71221" lon="6.05541">
        <ele>321.9</ele>
        <time>2012-06-14T09:13:05.000Z</time>
      </trkpt>
      <trkpt lat="47.71217" lon="6.05541">
        <ele>322.5</ele>
        <time>2012-06-14T09:13:09.000Z</time>
      </trkpt>
      <trkpt lat="47.71211" lon="6.05529">
        <ele>323.1</ele>
        <time>2012-06-14T09:13:22.000Z</time>
      </trkpt>
      <trkpt lat="47.71206" lon="6.05527">
        <ele>322.8</ele>
        <time>2012-06-14T09:13:25.000Z</time>
      </trkpt>
      <trkpt lat="47.712" lon="6.05524">
        <ele>322.5</ele>
        <time>2012-06-14T09:13:28.000Z</time>
      </trkpt>
      <trkpt lat="47.71196" lon="6.05521">
        <ele>322.9</ele>
        <time>2012-06-14T09:13:32.000Z</time>
      </trkpt>
      <trkpt lat="47.7119" lon="6.05522">
        <ele>323.5</ele>
        <time>2012-06-14T09:13:36.000Z</time>
      </trkpt>
      <trkpt lat="47.71186" lon="6.05522">
        <ele>323.6</ele>
        <time>2012-06-14T09:13:39.000Z</time>
      </trkpt>
      <trkpt lat="47.71181" lon="6.0552">
        <ele>324.6</ele>
        <time>2012-06-14T09:13:43.000Z</time>
      </trkpt>
      <trkpt lat="47.71144" lon="6.05509">
        <ele>326.9</ele>
        <time>2012-06-14T09:14:02.000Z</time>
      </trkpt>
      <trkpt lat="47.71136" lon="6.05507">
        <ele>332.1</ele>
        <time>2012-06-14T09:14:10.000Z</time>
      </trkpt>
      <trkpt lat="47.71132" lon="6.05506">
        <ele>338.2</ele>
        <time>2012-06-14T09:14:16.000Z</time>
      </trkpt>
      <trkpt lat="47.71126" lon="6.05506">
        <ele>340.6</ele>
        <time>2012-06-14T09:14:21.000Z</time>
      </trkpt>
      <trkpt lat="47.7112" lon="6.05506">
        <ele>341.9</ele>
        <time>2012-06-14T09:14:25.000Z</time>
      </trkpt>
      <trkpt lat="47.71115" lon="6.05504">
        <ele>345.7</ele>
        <time>2012-06-14T09:14:27.000Z</time>
      </trkpt>
      <trkpt lat="47.7111" lon="6.05504">
        <ele>348.5</ele>
        <time>2012-06-14T09:14:30.000Z</time>
      </trkpt>
      <trkpt lat="47.71104" lon="6.05503">
        <ele>349.5</ele>
        <time>2012-06-14T09:14:33.000Z</time>
      </trkpt>
      <trkpt lat="47.71099" lon="6.05502">
        <ele>350.3</ele>
        <time>2012-06-14T09:14:36.000Z</time>
      </trkpt>
      <trkpt lat="47.71094" lon="6.05503">
        <ele>350.6</ele>
        <time>2012-06-14T09:14:39.000Z</time>
      </trkpt>
      <trkpt lat="47.71088" lon="6.05503">
        <ele>351.6</ele>
        <time>2012-06-14T09:14:43.000Z</time>
      </trkpt>
      <trkpt lat="47.71083" lon="6.05505">
        <ele>351.8</ele>
        <time>2012-06-14T09:14:46.000Z</time>
      </trkpt>
      <trkpt lat="47.71076" lon="6.05507">
        <ele>351.9</ele>
        <time>2012-06-14T09:14:50.000Z</time>
      </trkpt>
      <trkpt lat="47.71072" lon="6.05509">
        <ele>351.3</ele>
        <time>2012-06-14T09:14:52.000Z</time>
      </trkpt>
      <trkpt lat="47.71067" lon="6.05511">
        <ele>350.6</ele>
        <time>2012-06-14T09:14:54.000Z</time>
      </trkpt>
      <trkpt lat="47.71062" lon="6.05511">
        <ele>350.1</ele>
        <time>2012-06-14T09:14:58.000Z</time>
      </trkpt>
      <trkpt lat="47.71055" lon="6.05512">
        <ele>349.7</ele>
        <time>2012-06-14T09:15:00.000Z</time>
      </trkpt>
      <trkpt lat="47.71049" lon="6.05513">
        <ele>349.5</ele>
        <time>2012-06-14T09:15:02.000Z</time>
      </trkpt>
      <trkpt lat="47.71044" lon="6.05512">
        <ele>349.4</ele>
        <time>2012-06-14T09:15:04.000Z</time>
      </trkpt>
      <trkpt lat="47.71039" lon="6.0551">
        <ele>349.3</ele>
        <time>2012-06-14T09:15:07.000Z</time>
      </trkpt>
      <trkpt lat="47.71034" lon="6.05507">
        <ele>349.2</ele>
        <time>2012-06-14T09:15:10.000Z</time>
      </trkpt>
      <trkpt lat="47.71029" lon="6.05505">
        <ele>349.2</ele>
        <time>2012-06-14T09:15:12.000Z</time>
      </trkpt>
      <trkpt lat="47.71024" lon="6.05502">
        <ele>348.9</ele>
        <time>2012-06-14T09:15:14.000Z</time>
      </trkpt>
      <trkpt lat="47.7102" lon="6.055">
        <ele>348.6</ele>
        <time>2012-06-14T09:15:16.000Z</time>
      </trkpt>
      <trkpt lat="47.71013" lon="6.05498">
        <ele>348</ele>
        <time>2012-06-14T09:15:19.000Z</time>
      </trkpt>
      <trkpt lat="47.71006" lon="6.05496">
        <ele>348</ele>
        <time>2012-06-14T09:15:21.000Z</time>
      </trkpt>
      <trkpt lat="47.70998" lon="6.05493">
        <ele>346.2</ele>
        <time>2012-06-14T09:15:23.000Z</time>
      </trkpt>
      <trkpt lat="47.70993" lon="6.05491">
        <ele>345.3</ele>
        <time>2012-06-14T09:15:24.000Z</time>
      </trkpt>
      <trkpt lat="47.70988" lon="6.0549">
        <ele>345.1</ele>
        <time>2012-06-14T09:15:25.000Z</time>
      </trkpt>
      <trkpt lat="47.70983" lon="6.05489">
        <ele>344.4</ele>
        <time>2012-06-14T09:15:26.000Z</time>
      </trkpt>
      <trkpt lat="47.70979" lon="6.05488">
        <ele>341.6</ele>
        <time>2012-06-14T09:15:27.000Z</time>
      </trkpt>
      <trkpt lat="47.70973" lon="6.05487">
        <ele>338.7</ele>
        <time>2012-06-14T09:15:28.000Z</time>
      </trkpt>
      <trkpt lat="47.70967" lon="6.05486">
        <ele>336.3</ele>
        <time>2012-06-14T09:15:29.000Z</time>
      </trkpt>
      <trkpt lat="47.70961" lon="6.05486">
        <ele>334.5</ele>
        <time>2012-06-14T09:15:30.000Z</time>
      </trkpt>
      <trkpt lat="47.70955" lon="6.05485">
        <ele>332.3</ele>
        <time>2012-06-14T09:15:31.000Z</time>
      </trkpt>
      <trkpt lat="47.70949" lon="6.05484">
        <ele>331</ele>
        <time>2012-06-14T09:15:32.000Z</time>
      </trkpt>
      <trkpt lat="47.70942" lon="6.05482">
        <ele>329.6</ele>
        <time>2012-06-14T09:15:33.000Z</time>
      </trkpt>
      <trkpt lat="47.70936" lon="6.0548">
        <ele>328.4</ele>
        <time>2012-06-14T09:15:34.000Z</time>
      </trkpt>
      <trkpt lat="47.70931" lon="6.05479">
        <ele>327.3</ele>
        <time>2012-06-14T09:15:35.000Z</time>
      </trkpt>
      <trkpt lat="47.70925" lon="6.05478">
        <ele>326.3</ele>
        <time>2012-06-14T09:15:36.000Z</time>
      </trkpt>
      <trkpt lat="47.7092" lon="6.05476">
        <ele>325.4</ele>
        <time>2012-06-14T09:15:37.000Z</time>
      </trkpt>
      <trkpt lat="47.70914" lon="6.05474">
        <ele>324.6</ele>
        <time>2012-06-14T09:15:38.000Z</time>
      </trkpt>
      <trkpt lat="47.70909" lon="6.05472">
        <ele>323.9</ele>
        <time>2012-06-14T09:15:39.000Z</time>
      </trkpt>
      <trkpt lat="47.70903" lon="6.0547">
        <ele>323.1</ele>
        <time>2012-06-14T09:15:40.000Z</time>
      </trkpt>
      <trkpt lat="47.70898" lon="6.05468">
        <ele>322.5</ele>
        <time>2012-06-14T09:15:41.000Z</time>
      </trkpt>
      <trkpt lat="47.70893" lon="6.05466">
        <ele>321.9</ele>
        <time>2012-06-14T09:15:42.000Z</time>
      </trkpt>
      <trkpt lat="47.70887" lon="6.05464">
        <ele>321.4</ele>
        <time>2012-06-14T09:15:43.000Z</time>
      </trkpt>
      <trkpt lat="47.70882" lon="6.05462">
        <ele>320.9</ele>
        <time>2012-06-14T09:15:44.000Z</time>
      </trkpt>
      <trkpt lat="47.70877" lon="6.0546">
        <ele>320.3</ele>
        <time>2012-06-14T09:15:45.000Z</time>
      </trkpt>
      <trkpt lat="47.70871" lon="6.05458">
        <ele>319.8</ele>
        <time>2012-06-14T09:15:46.000Z</time>
      </trkpt>
      <trkpt lat="47.70784" lon="6.05421">
        <ele>310.1</ele>
        <time>2012-06-14T09:15:59.000Z</time>
      </trkpt>
      <trkpt lat="47.70777" lon="6.05419">
        <ele>310.3</ele>
        <time>2012-06-14T09:16:00.000Z</time>
      </trkpt>
      <trkpt lat="47.70772" lon="6.05417">
        <ele>310.8</ele>
        <time>2012-06-14T09:16:01.000Z</time>
      </trkpt>
      <trkpt lat="47.70766" lon="6.05415">
        <ele>310.9</ele>
        <time>2012-06-14T09:16:02.000Z</time>
      </trkpt>
      <trkpt lat="47.7076" lon="6.05414">
        <ele>311.1</ele>
        <time>2012-06-14T09:16:03.000Z</time>
      </trkpt>
      <trkpt lat="47.70755" lon="6.05414">
        <ele>311.3</ele>
        <time>2012-06-14T09:16:04.000Z</time>
      </trkpt>
      <trkpt lat="47.7075" lon="6.05413">
        <ele>311.4</ele>
        <time>2012-06-14T09:16:05.000Z</time>
      </trkpt>
      <trkpt lat="47.70744" lon="6.05413">
        <ele>311.4</ele>
        <time>2012-06-14T09:16:06.000Z</time>
      </trkpt>
      <trkpt lat="47.70739" lon="6.05412">
        <ele>311.3</ele>
        <time>2012-06-14T09:16:07.000Z</time>
      </trkpt>
      <trkpt lat="47.7073" lon="6.05412">
        <ele>311.2</ele>
        <time>2012-06-14T09:16:09.000Z</time>
      </trkpt>
      <trkpt lat="47.70722" lon="6.05411">
        <ele>311</ele>
        <time>2012-06-14T09:16:11.000Z</time>
      </trkpt>
      <trkpt lat="47.70714" lon="6.05411">
        <ele>311.2</ele>
        <time>2012-06-14T09:16:13.000Z</time>
      </trkpt>
      <trkpt lat="47.70708" lon="6.0541">
        <ele>310.8</ele>
        <time>2012-06-14T09:16:15.000Z</time>
      </trkpt>
      <trkpt lat="47.70703" lon="6.0541">
        <ele>311.3</ele>
        <time>2012-06-14T09:16:17.000Z</time>
      </trkpt>
      <trkpt lat="47.70697" lon="6.05411">
        <ele>311.7</ele>
        <time>2012-06-14T09:16:20.000Z</time>
      </trkpt>
      <trkpt lat="47.70691" lon="6.05412">
        <ele>311.7</ele>
        <time>2012-06-14T09:16:23.000Z</time>
      </trkpt>
      <trkpt lat="47.70686" lon="6.05412">
        <ele>311.3</ele>
        <time>2012-06-14T09:16:26.000Z</time>
      </trkpt>
      <trkpt lat="47.70682" lon="6.05415">
        <ele>308.9</ele>
        <time>2012-06-14T09:16:35.000Z</time>
      </trkpt>
      <trkpt lat="47.70677" lon="6.05419">
        <ele>301.1</ele>
        <time>2012-06-14T09:16:57.000Z</time>
      </trkpt>
      <trkpt lat="47.70677" lon="6.05419">
        <ele>301.1</ele>
        <time>2012-06-14T09:16:57.000Z</time>
      </trkpt>
      <trkpt lat="47.70677" lon="6.05419">
        <ele>301.1</ele>
        <time>2012-06-14T09:17:04.000Z</time>
      </trkpt>
      <trkpt lat="47.7068" lon="6.05415">
        <ele>304.8</ele>
        <time>2012-06-14T09:17:05.000Z</time>
      </trkpt>
      <trkpt lat="47.70675" lon="6.05416">
        <ele>306.9</ele>
        <time>2012-06-14T09:17:11.000Z</time>
      </trkpt>
      <trkpt lat="47.70669" lon="6.05415">
        <ele>307.7</ele>
        <time>2012-06-14T09:17:14.000Z</time>
      </trkpt>
      <trkpt lat="47.70664" lon="6.05412">
        <ele>308.6</ele>
        <time>2012-06-14T09:17:17.000Z</time>
      </trkpt>
      <trkpt lat="47.70658" lon="6.05411">
        <ele>309.3</ele>
        <time>2012-06-14T09:17:20.000Z</time>
      </trkpt>
      <trkpt lat="47.70653" lon="6.05408">
        <ele>309.9</ele>
        <time>2012-06-14T09:17:24.000Z</time>
      </trkpt>
      <trkpt lat="47.70648" lon="6.05405">
        <ele>310.2</ele>
        <time>2012-06-14T09:17:28.000Z</time>
      </trkpt>
      <trkpt lat="47.70643" lon="6.05404">
        <ele>310.9</ele>
        <time>2012-06-14T09:17:31.000Z</time>
      </trkpt>
      <trkpt lat="47.70637" lon="6.05403">
        <ele>311.1</ele>
        <time>2012-06-14T09:17:34.000Z</time>
      </trkpt>
      <trkpt lat="47.70631" lon="6.05402">
        <ele>310.9</ele>
        <time>2012-06-14T09:17:36.000Z</time>
      </trkpt>
      <trkpt lat="47.70627" lon="6.05402">
        <ele>311</ele>
        <time>2012-06-14T09:17:38.000Z</time>
      </trkpt>
      <trkpt lat="47.70619" lon="6.05399">
        <ele>310.1</ele>
        <time>2012-06-14T09:17:40.000Z</time>
      </trkpt>
      <trkpt lat="47.70612" lon="6.05395">
        <ele>309.8</ele>
        <time>2012-06-14T09:17:42.000Z</time>
      </trkpt>
      <trkpt lat="47.70607" lon="6.05392">
        <ele>310</ele>
        <time>2012-06-14T09:17:44.000Z</time>
      </trkpt>
      <trkpt lat="47.70601" lon="6.05388">
        <ele>311</ele>
        <time>2012-06-14T09:17:47.000Z</time>
      </trkpt>
      <trkpt lat="47.70596" lon="6.05386">
        <ele>311.5</ele>
        <time>2012-06-14T09:17:49.000Z</time>
      </trkpt>
      <trkpt lat="47.7059" lon="6.05384">
        <ele>311</ele>
        <time>2012-06-14T09:17:51.000Z</time>
      </trkpt>
      <trkpt lat="47.70585" lon="6.05382">
        <ele>311</ele>
        <time>2012-06-14T09:17:53.000Z</time>
      </trkpt>
      <trkpt lat="47.7058" lon="6.05379">
        <ele>310.9</ele>
        <time>2012-06-14T09:17:55.000Z</time>
      </trkpt>
      <trkpt lat="47.70574" lon="6.05375">
        <ele>311.5</ele>
        <time>2012-06-14T09:17:58.000Z</time>
      </trkpt>
      <trkpt lat="47.70568" lon="6.05372">
        <ele>312</ele>
        <time>2012-06-14T09:18:01.000Z</time>
      </trkpt>
      <trkpt lat="47.70563" lon="6.05371">
        <ele>312.4</ele>
        <time>2012-06-14T09:18:03.000Z</time>
      </trkpt>
      <trkpt lat="47.70558" lon="6.0537">
        <ele>312.8</ele>
        <time>2012-06-14T09:18:05.000Z</time>
      </trkpt>
      <trkpt lat="47.70552" lon="6.05368">
        <ele>313.3</ele>
        <time>2012-06-14T09:18:08.000Z</time>
      </trkpt>
      <trkpt lat="47.70546" lon="6.05365">
        <ele>314.5</ele>
        <time>2012-06-14T09:18:11.000Z</time>
      </trkpt>
      <trkpt lat="47.70541" lon="6.05364">
        <ele>315</ele>
        <time>2012-06-14T09:18:13.000Z</time>
      </trkpt>
      <trkpt lat="47.70535" lon="6.05361">
        <ele>315.5</ele>
        <time>2012-06-14T09:18:16.000Z</time>
      </trkpt>
      <trkpt lat="47.70531" lon="6.0536">
        <ele>316</ele>
        <time>2012-06-14T09:18:19.000Z</time>
      </trkpt>
      <trkpt lat="47.70526" lon="6.05356">
        <ele>316.6</ele>
        <time>2012-06-14T09:18:22.000Z</time>
      </trkpt>
      <trkpt lat="47.7052" lon="6.05354">
        <ele>317.1</ele>
        <time>2012-06-14T09:18:25.000Z</time>
      </trkpt>
      <trkpt lat="47.70515" lon="6.0535">
        <ele>316.8</ele>
        <time>2012-06-14T09:18:27.000Z</time>
      </trkpt>
      <trkpt lat="47.70508" lon="6.05347">
        <ele>316.3</ele>
        <time>2012-06-14T09:18:29.000Z</time>
      </trkpt>
      <trkpt lat="47.70502" lon="6.05344">
        <ele>315.7</ele>
        <time>2012-06-14T09:18:31.000Z</time>
      </trkpt>
      <trkpt lat="47.70496" lon="6.0534">
        <ele>315.3</ele>
        <time>2012-06-14T09:18:33.000Z</time>
      </trkpt>
      <trkpt lat="47.70488" lon="6.05334">
        <ele>315</ele>
        <time>2012-06-14T09:18:35.000Z</time>
      </trkpt>
      <trkpt lat="47.7048" lon="6.05327">
        <ele>314.6</ele>
        <time>2012-06-14T09:18:37.000Z</time>
      </trkpt>
      <trkpt lat="47.70476" lon="6.05323">
        <ele>314.7</ele>
        <time>2012-06-14T09:18:39.000Z</time>
      </trkpt>
      <trkpt lat="47.70471" lon="6.05318">
        <ele>314.5</ele>
        <time>2012-06-14T09:18:41.000Z</time>
      </trkpt>
      <trkpt lat="47.70466" lon="6.05316">
        <ele>314</ele>
        <time>2012-06-14T09:18:42.000Z</time>
      </trkpt>
      <trkpt lat="47.70461" lon="6.05312">
        <ele>313.8</ele>
        <time>2012-06-14T09:18:45.000Z</time>
      </trkpt>
      <trkpt lat="47.70456" lon="6.0531">
        <ele>313.9</ele>
        <time>2012-06-14T09:18:47.000Z</time>
      </trkpt>
      <trkpt lat="47.70451" lon="6.05307">
        <ele>313.9</ele>
        <time>2012-06-14T09:18:49.000Z</time>
      </trkpt>
      <trkpt lat="47.70446" lon="6.05304">
        <ele>315.2</ele>
        <time>2012-06-14T09:18:51.000Z</time>
      </trkpt>
      <trkpt lat="47.70441" lon="6.05302">
        <ele>315.9</ele>
        <time>2012-06-14T09:18:53.000Z</time>
      </trkpt>
      <trkpt lat="47.70435" lon="6.05299">
        <ele>316</ele>
        <time>2012-06-14T09:18:55.000Z</time>
      </trkpt>
      <trkpt lat="47.70428" lon="6.05295">
        <ele>315.9</ele>
        <time>2012-06-14T09:18:57.000Z</time>
      </trkpt>
      <trkpt lat="47.70423" lon="6.05292">
        <ele>316.1</ele>
        <time>2012-06-14T09:18:59.000Z</time>
      </trkpt>
      <trkpt lat="47.70413" lon="6.05287">
        <ele>316.1</ele>
        <time>2012-06-14T09:19:01.000Z</time>
      </trkpt>
      <trkpt lat="47.70408" lon="6.05284">
        <ele>316</ele>
        <time>2012-06-14T09:19:03.000Z</time>
      </trkpt>
      <trkpt lat="47.70402" lon="6.05282">
        <ele>315.8</ele>
        <time>2012-06-14T09:19:05.000Z</time>
      </trkpt>
      <trkpt lat="47.70395" lon="6.05281">
        <ele>315.5</ele>
        <time>2012-06-14T09:19:07.000Z</time>
      </trkpt>
      <trkpt lat="47.70388" lon="6.0528">
        <ele>315.3</ele>
        <time>2012-06-14T09:19:09.000Z</time>
      </trkpt>
      <trkpt lat="47.70382" lon="6.05278">
        <ele>315.2</ele>
        <time>2012-06-14T09:19:11.000Z</time>
      </trkpt>
      <trkpt lat="47.70374" lon="6.05275">
        <ele>315.1</ele>
        <time>2012-06-14T09:19:13.000Z</time>
      </trkpt>
      <trkpt lat="47.70366" lon="6.05273">
        <ele>315.1</ele>
        <time>2012-06-14T09:19:15.000Z</time>
      </trkpt>
      <trkpt lat="47.70358" lon="6.05272">
        <ele>315.1</ele>
        <time>2012-06-14T09:19:17.000Z</time>
      </trkpt>
      <trkpt lat="47.70353" lon="6.05271">
        <ele>315.1</ele>
        <time>2012-06-14T09:19:18.000Z</time>
      </trkpt>
      <trkpt lat="47.70348" lon="6.05271">
        <ele>315.1</ele>
        <time>2012-06-14T09:19:19.000Z</time>
      </trkpt>
      <trkpt lat="47.70344" lon="6.0527">
        <ele>314.9</ele>
        <time>2012-06-14T09:19:20.000Z</time>
      </trkpt>
      <trkpt lat="47.70335" lon="6.05269">
        <ele>314.9</ele>
        <time>2012-06-14T09:19:22.000Z</time>
      </trkpt>
      <trkpt lat="47.70327" lon="6.05268">
        <ele>314.9</ele>
        <time>2012-06-14T09:19:24.000Z</time>
      </trkpt>
      <trkpt lat="47.70321" lon="6.05267">
        <ele>315.2</ele>
        <time>2012-06-14T09:19:26.000Z</time>
      </trkpt>
      <trkpt lat="47.70315" lon="6.05267">
        <ele>315.3</ele>
        <time>2012-06-14T09:19:28.000Z</time>
      </trkpt>
      <trkpt lat="47.70308" lon="6.05267">
        <ele>315.3</ele>
        <time>2012-06-14T09:19:30.000Z</time>
      </trkpt>
      <trkpt lat="47.70299" lon="6.05266">
        <ele>315.2</ele>
        <time>2012-06-14T09:19:32.000Z</time>
      </trkpt>
      <trkpt lat="47.70294" lon="6.05266">
        <ele>315.2</ele>
        <time>2012-06-14T09:19:33.000Z</time>
      </trkpt>
      <trkpt lat="47.7029" lon="6.05266">
        <ele>315.3</ele>
        <time>2012-06-14T09:19:34.000Z</time>
      </trkpt>
      <trkpt lat="47.70281" lon="6.05266">
        <ele>315.2</ele>
        <time>2012-06-14T09:19:36.000Z</time>
      </trkpt>
      <trkpt lat="47.70274" lon="6.05269">
        <ele>315.2</ele>
        <time>2012-06-14T09:19:38.000Z</time>
      </trkpt>
      <trkpt lat="47.70271" lon="6.05274">
        <ele>315.1</ele>
        <time>2012-06-14T09:19:40.000Z</time>
      </trkpt>
      <trkpt lat="47.70268" lon="6.0528">
        <ele>314.9</ele>
        <time>2012-06-14T09:19:42.000Z</time>
      </trkpt>
      <trkpt lat="47.7026" lon="6.05288">
        <ele>315</ele>
        <time>2012-06-14T09:19:44.000Z</time>
      </trkpt>
      <trkpt lat="47.70254" lon="6.05293">
        <ele>314.9</ele>
        <time>2012-06-14T09:19:45.000Z</time>
      </trkpt>
      <trkpt lat="47.70247" lon="6.05301">
        <ele>315</ele>
        <time>2012-06-14T09:19:46.000Z</time>
      </trkpt>
      <trkpt lat="47.70142" lon="6.05348">
        <ele>298.1</ele>
        <time>2012-06-14T09:19:56.000Z</time>
      </trkpt>
      <trkpt lat="47.70135" lon="6.05352">
        <ele>298.2</ele>
        <time>2012-06-14T09:19:58.000Z</time>
      </trkpt>
      <trkpt lat="47.70125" lon="6.05356">
        <ele>298.7</ele>
        <time>2012-06-14T09:20:00.000Z</time>
      </trkpt>
      <trkpt lat="47.7012" lon="6.05359">
        <ele>298.4</ele>
        <time>2012-06-14T09:20:01.000Z</time>
      </trkpt>
      <trkpt lat="47.70114" lon="6.05361">
        <ele>298</ele>
        <time>2012-06-14T09:20:02.000Z</time>
      </trkpt>
      <trkpt lat="47.70109" lon="6.05364">
        <ele>297.6</ele>
        <time>2012-06-14T09:20:03.000Z</time>
      </trkpt>
      <trkpt lat="47.70101" lon="6.05367">
        <ele>297.9</ele>
        <time>2012-06-14T09:20:05.000Z</time>
      </trkpt>
      <trkpt lat="47.70094" lon="6.0537">
        <ele>298.7</ele>
        <time>2012-06-14T09:20:07.000Z</time>
      </trkpt>
      <trkpt lat="47.70089" lon="6.05373">
        <ele>299.5</ele>
        <time>2012-06-14T09:20:09.000Z</time>
      </trkpt>
      <trkpt lat="47.70083" lon="6.05375">
        <ele>300.1</ele>
        <time>2012-06-14T09:20:11.000Z</time>
      </trkpt>
      <trkpt lat="47.70078" lon="6.05377">
        <ele>300.9</ele>
        <time>2012-06-14T09:20:13.000Z</time>
      </trkpt>
      <trkpt lat="47.70072" lon="6.05378">
        <ele>301.1</ele>
        <time>2012-06-14T09:20:15.000Z</time>
      </trkpt>
      <trkpt lat="47.70066" lon="6.05378">
        <ele>301.5</ele>
        <time>2012-06-14T09:20:17.000Z</time>
      </trkpt>
      <trkpt lat="47.70061" lon="6.05378">
        <ele>301.9</ele>
        <time>2012-06-14T09:20:19.000Z</time>
      </trkpt>
      <trkpt lat="47.70055" lon="6.05378">
        <ele>302</ele>
        <time>2012-06-14T09:20:21.000Z</time>
      </trkpt>
      <trkpt lat="47.70049" lon="6.05378">
        <ele>302.2</ele>
        <time>2012-06-14T09:20:23.000Z</time>
      </trkpt>
      <trkpt lat="47.70043" lon="6.05378">
        <ele>302.5</ele>
        <time>2012-06-14T09:20:25.000Z</time>
      </trkpt>
      <trkpt lat="47.70037" lon="6.05377">
        <ele>302.4</ele>
        <time>2012-06-14T09:20:27.000Z</time>
      </trkpt>
      <trkpt lat="47.70032" lon="6.05376">
        <ele>302.7</ele>
        <time>2012-06-14T09:20:29.000Z</time>
      </trkpt>
      <trkpt lat="47.70027" lon="6.05376">
        <ele>302.9</ele>
        <time>2012-06-14T09:20:31.000Z</time>
      </trkpt>
      <trkpt lat="47.7002" lon="6.05376">
        <ele>303</ele>
        <time>2012-06-14T09:20:34.000Z</time>
      </trkpt>
      <trkpt lat="47.70015" lon="6.05376">
        <ele>303.4</ele>
        <time>2012-06-14T09:20:36.000Z</time>
      </trkpt>
      <trkpt lat="47.70009" lon="6.05376">
        <ele>303.8</ele>
        <time>2012-06-14T09:20:38.000Z</time>
      </trkpt>
      <trkpt lat="47.70004" lon="6.05377">
        <ele>304.1</ele>
        <time>2012-06-14T09:20:40.000Z</time>
      </trkpt>
      <trkpt lat="47.69998" lon="6.05378">
        <ele>304.3</ele>
        <time>2012-06-14T09:20:42.000Z</time>
      </trkpt>
      <trkpt lat="47.69992" lon="6.05378">
        <ele>304.4</ele>
        <time>2012-06-14T09:20:44.000Z</time>
      </trkpt>
      <trkpt lat="47.69986" lon="6.05379">
        <ele>304.3</ele>
        <time>2012-06-14T09:20:46.000Z</time>
      </trkpt>
      <trkpt lat="47.69959" lon="6.05384">
        <ele>305.8</ele>
        <time>2012-06-14T09:20:54.000Z</time>
      </trkpt>
      <trkpt lat="47.69955" lon="6.05387">
        <ele>306.4</ele>
        <time>2012-06-14T09:20:56.000Z</time>
      </trkpt>
      <trkpt lat="47.6995" lon="6.0539">
        <ele>306.6</ele>
        <time>2012-06-14T09:20:58.000Z</time>
      </trkpt>
      <trkpt lat="47.69942" lon="6.05394">
        <ele>305.9</ele>
        <time>2012-06-14T09:21:00.000Z</time>
      </trkpt>
      <trkpt lat="47.69934" lon="6.05396">
        <ele>304.9</ele>
        <time>2012-06-14T09:21:02.000Z</time>
      </trkpt>
      <trkpt lat="47.69929" lon="6.054">
        <ele>304.6</ele>
        <time>2012-06-14T09:21:04.000Z</time>
      </trkpt>
      <trkpt lat="47.69924" lon="6.05402">
        <ele>304.6</ele>
        <time>2012-06-14T09:21:06.000Z</time>
      </trkpt>
      <trkpt lat="47.69917" lon="6.05406">
        <ele>304.5</ele>
        <time>2012-06-14T09:21:08.000Z</time>
      </trkpt>
      <trkpt lat="47.6991" lon="6.0541">
        <ele>304.3</ele>
        <time>2012-06-14T09:21:10.000Z</time>
      </trkpt>
      <trkpt lat="47.69902" lon="6.05415">
        <ele>304.2</ele>
        <time>2012-06-14T09:21:12.000Z</time>
      </trkpt>
      <trkpt lat="47.69898" lon="6.05418">
        <ele>304.1</ele>
        <time>2012-06-14T09:21:13.000Z</time>
      </trkpt>
      <trkpt lat="47.69893" lon="6.05421">
        <ele>303.9</ele>
        <time>2012-06-14T09:21:14.000Z</time>
      </trkpt>
      <trkpt lat="47.69889" lon="6.05424">
        <ele>303.8</ele>
        <time>2012-06-14T09:21:15.000Z</time>
      </trkpt>
      <trkpt lat="47.69884" lon="6.05428">
        <ele>303.8</ele>
        <time>2012-06-14T09:21:16.000Z</time>
      </trkpt>
      <trkpt lat="47.6988" lon="6.05432">
        <ele>303.9</ele>
        <time>2012-06-14T09:21:17.000Z</time>
      </trkpt>
      <trkpt lat="47.69873" lon="6.05439">
        <ele>304.3</ele>
        <time>2012-06-14T09:21:19.000Z</time>
      </trkpt>
      <trkpt lat="47.69869" lon="6.05442">
        <ele>304.1</ele>
        <time>2012-06-14T09:21:20.000Z</time>
      </trkpt>
      <trkpt lat="47.69864" lon="6.05445">
        <ele>303.9</ele>
        <time>2012-06-14T09:21:21.000Z</time>
      </trkpt>
      <trkpt lat="47.69856" lon="6.05448">
        <ele>303.1</ele>
        <time>2012-06-14T09:21:22.000Z</time>
      </trkpt>
      <trkpt lat="47.69845" lon="6.0545">
        <ele>302</ele>
        <time>2012-06-14T09:21:23.000Z</time>
      </trkpt>
      <trkpt lat="47.69834" lon="6.05452">
        <ele>301.3</ele>
        <time>2012-06-14T09:21:24.000Z</time>
      </trkpt>
      <trkpt lat="47.6982" lon="6.05455">
        <ele>299.7</ele>
        <time>2012-06-14T09:21:25.000Z</time>
      </trkpt>
      <trkpt lat="47.69807" lon="6.05456">
        <ele>298.4</ele>
        <time>2012-06-14T09:21:26.000Z</time>
      </trkpt>
      <trkpt lat="47.69798" lon="6.05458">
        <ele>298.3</ele>
        <time>2012-06-14T09:21:27.000Z</time>
      </trkpt>
      <trkpt lat="47.69791" lon="6.05461">
        <ele>297.9</ele>
        <time>2012-06-14T09:21:28.000Z</time>
      </trkpt>
      <trkpt lat="47.69785" lon="6.05465">
        <ele>297.8</ele>
        <time>2012-06-14T09:21:29.000Z</time>
      </trkpt>
      <trkpt lat="47.6978" lon="6.05469">
        <ele>297.4</ele>
        <time>2012-06-14T09:21:30.000Z</time>
      </trkpt>
      <trkpt lat="47.69774" lon="6.05474">
        <ele>297.2</ele>
        <time>2012-06-14T09:21:31.000Z</time>
      </trkpt>
      <trkpt lat="47.69768" lon="6.05479">
        <ele>296.8</ele>
        <time>2012-06-14T09:21:32.000Z</time>
      </trkpt>
      <trkpt lat="47.69763" lon="6.05484">
        <ele>296.4</ele>
        <time>2012-06-14T09:21:33.000Z</time>
      </trkpt>
      <trkpt lat="47.69758" lon="6.05489">
        <ele>296.1</ele>
        <time>2012-06-14T09:21:34.000Z</time>
      </trkpt>
      <trkpt lat="47.69753" lon="6.05494">
        <ele>295.9</ele>
        <time>2012-06-14T09:21:35.000Z</time>
      </trkpt>
      <trkpt lat="47.69748" lon="6.05499">
        <ele>295.5</ele>
        <time>2012-06-14T09:21:36.000Z</time>
      </trkpt>
      <trkpt lat="47.69744" lon="6.05504">
        <ele>295.3</ele>
        <time>2012-06-14T09:21:37.000Z</time>
      </trkpt>
      <trkpt lat="47.6974" lon="6.05508">
        <ele>295.3</ele>
        <time>2012-06-14T09:21:38.000Z</time>
      </trkpt>
      <trkpt lat="47.69737" lon="6.05516">
        <ele>295.7</ele>
        <time>2012-06-14T09:21:40.000Z</time>
      </trkpt>
      <trkpt lat="47.69733" lon="6.05522">
        <ele>296.1</ele>
        <time>2012-06-14T09:21:42.000Z</time>
      </trkpt>
      <trkpt lat="47.6973" lon="6.05527">
        <ele>296.3</ele>
        <time>2012-06-14T09:21:44.000Z</time>
      </trkpt>
      <trkpt lat="47.69725" lon="6.05533">
        <ele>296.2</ele>
        <time>2012-06-14T09:21:46.000Z</time>
      </trkpt>
      <trkpt lat="47.69687" lon="6.05564">
        <ele>293.9</ele>
        <time>2012-06-14T09:21:57.000Z</time>
      </trkpt>
      <trkpt lat="47.69682" lon="6.0557">
        <ele>295.4</ele>
        <time>2012-06-14T09:22:00.000Z</time>
      </trkpt>
      <trkpt lat="47.69677" lon="6.05574">
        <ele>295.9</ele>
        <time>2012-06-14T09:22:02.000Z</time>
      </trkpt>
      <trkpt lat="47.69671" lon="6.05578">
        <ele>295.9</ele>
        <time>2012-06-14T09:22:04.000Z</time>
      </trkpt>
      <trkpt lat="47.69666" lon="6.05581">
        <ele>296.5</ele>
        <time>2012-06-14T09:22:06.000Z</time>
      </trkpt>
      <trkpt lat="47.6966" lon="6.05583">
        <ele>298</ele>
        <time>2012-06-14T09:22:09.000Z</time>
      </trkpt>
      <trkpt lat="47.69654" lon="6.05583">
        <ele>298.4</ele>
        <time>2012-06-14T09:22:11.000Z</time>
      </trkpt>
      <trkpt lat="47.69646" lon="6.05584">
        <ele>298.8</ele>
        <time>2012-06-14T09:22:13.000Z</time>
      </trkpt>
      <trkpt lat="47.69641" lon="6.05582">
        <ele>299.2</ele>
        <time>2012-06-14T09:22:15.000Z</time>
      </trkpt>
      <trkpt lat="47.69634" lon="6.05581">
        <ele>299.9</ele>
        <time>2012-06-14T09:22:17.000Z</time>
      </trkpt>
      <trkpt lat="47.69627" lon="6.05579">
        <ele>299.7</ele>
        <time>2012-06-14T09:22:19.000Z</time>
      </trkpt>
      <trkpt lat="47.69621" lon="6.05575">
        <ele>299.6</ele>
        <time>2012-06-14T09:22:21.000Z</time>
      </trkpt>
      <trkpt lat="47.69615" lon="6.05571">
        <ele>299.5</ele>
        <time>2012-06-14T09:22:23.000Z</time>
      </trkpt>
      <trkpt lat="47.69611" lon="6.05568">
        <ele>299.7</ele>
        <time>2012-06-14T09:22:25.000Z</time>
      </trkpt>
      <trkpt lat="47.69606" lon="6.05565">
        <ele>299.9</ele>
        <time>2012-06-14T09:22:27.000Z</time>
      </trkpt>
      <trkpt lat="47.69602" lon="6.05561">
        <ele>300.2</ele>
        <time>2012-06-14T09:22:29.000Z</time>
      </trkpt>
      <trkpt lat="47.69598" lon="6.05557">
        <ele>300.4</ele>
        <time>2012-06-14T09:22:31.000Z</time>
      </trkpt>
      <trkpt lat="47.69594" lon="6.05554">
        <ele>300.4</ele>
        <time>2012-06-14T09:22:33.000Z</time>
      </trkpt>
      <trkpt lat="47.69589" lon="6.0555">
        <ele>300.5</ele>
        <time>2012-06-14T09:22:35.000Z</time>
      </trkpt>
      <trkpt lat="47.69585" lon="6.05547">
        <ele>300.6</ele>
        <time>2012-06-14T09:22:37.000Z</time>
      </trkpt>
      <trkpt lat="47.6958" lon="6.05543">
        <ele>300.7</ele>
        <time>2012-06-14T09:22:39.000Z</time>
      </trkpt>
      <trkpt lat="47.69575" lon="6.0554">
        <ele>300.7</ele>
        <time>2012-06-14T09:22:41.000Z</time>
      </trkpt>
      <trkpt lat="47.6957" lon="6.05537">
        <ele>301.1</ele>
        <time>2012-06-14T09:22:43.000Z</time>
      </trkpt>
      <trkpt lat="47.69565" lon="6.05536">
        <ele>301.3</ele>
        <time>2012-06-14T09:22:45.000Z</time>
      </trkpt>
      <trkpt lat="47.69559" lon="6.05533">
        <ele>302.1</ele>
        <time>2012-06-14T09:22:49.000Z</time>
      </trkpt>
      <trkpt lat="47.69551" lon="6.05532">
        <ele>301.8</ele>
        <time>2012-06-14T09:22:51.000Z</time>
      </trkpt>
      <trkpt lat="47.69546" lon="6.05532">
        <ele>301.9</ele>
        <time>2012-06-14T09:22:53.000Z</time>
      </trkpt>
      <trkpt lat="47.6954" lon="6.0553">
        <ele>302.5</ele>
        <time>2012-06-14T09:22:56.000Z</time>
      </trkpt>
      <trkpt lat="47.69535" lon="6.0553">
        <ele>303</ele>
        <time>2012-06-14T09:22:59.000Z</time>
      </trkpt>
      <trkpt lat="47.6953" lon="6.05528">
        <ele>302.9</ele>
        <time>2012-06-14T09:23:02.000Z</time>
      </trkpt>
      <trkpt lat="47.69524" lon="6.05526">
        <ele>303.3</ele>
        <time>2012-06-14T09:23:06.000Z</time>
      </trkpt>
      <trkpt lat="47.6952" lon="6.05524">
        <ele>303.4</ele>
        <time>2012-06-14T09:23:08.000Z</time>
      </trkpt>
      <trkpt lat="47.69513" lon="6.05518">
        <ele>303.3</ele>
        <time>2012-06-14T09:23:10.000Z</time>
      </trkpt>
      <trkpt lat="47.69505" lon="6.05512">
        <ele>303.1</ele>
        <time>2012-06-14T09:23:12.000Z</time>
      </trkpt>
      <trkpt lat="47.69501" lon="6.05508">
        <ele>303.1</ele>
        <time>2012-06-14T09:23:13.000Z</time>
      </trkpt>
      <trkpt lat="47.69496" lon="6.05505">
        <ele>303</ele>
        <time>2012-06-14T09:23:14.000Z</time>
      </trkpt>
      <trkpt lat="47.69492" lon="6.05501">
        <ele>302.8</ele>
        <time>2012-06-14T09:23:15.000Z</time>
      </trkpt>
      <trkpt lat="47.69487" lon="6.05497">
        <ele>302.6</ele>
        <time>2012-06-14T09:23:16.000Z</time>
      </trkpt>
      <trkpt lat="47.69481" lon="6.05493">
        <ele>302.3</ele>
        <time>2012-06-14T09:23:17.000Z</time>
      </trkpt>
      <trkpt lat="47.69476" lon="6.05488">
        <ele>302.1</ele>
        <time>2012-06-14T09:23:18.000Z</time>
      </trkpt>
      <trkpt lat="47.6947" lon="6.05484">
        <ele>301.9</ele>
        <time>2012-06-14T09:23:19.000Z</time>
      </trkpt>
      <trkpt lat="47.69464" lon="6.05478">
        <ele>301.5</ele>
        <time>2012-06-14T09:23:20.000Z</time>
      </trkpt>
      <trkpt lat="47.69458" lon="6.05473">
        <ele>301.1</ele>
        <time>2012-06-14T09:23:21.000Z</time>
      </trkpt>
      <trkpt lat="47.69452" lon="6.05468">
        <ele>300.8</ele>
        <time>2012-06-14T09:23:22.000Z</time>
      </trkpt>
      <trkpt lat="47.69446" lon="6.05462">
        <ele>300.5</ele>
        <time>2012-06-14T09:23:23.000Z</time>
      </trkpt>
      <trkpt lat="47.69439" lon="6.05456">
        <ele>300.3</ele>
        <time>2012-06-14T09:23:24.000Z</time>
      </trkpt>
      <trkpt lat="47.69433" lon="6.05451">
        <ele>300</ele>
        <time>2012-06-14T09:23:25.000Z</time>
      </trkpt>
      <trkpt lat="47.69427" lon="6.05445">
        <ele>299.8</ele>
        <time>2012-06-14T09:23:26.000Z</time>
      </trkpt>
      <trkpt lat="47.69421" lon="6.05439">
        <ele>299.6</ele>
        <time>2012-06-14T09:23:27.000Z</time>
      </trkpt>
      <trkpt lat="47.69414" lon="6.05434">
        <ele>299.4</ele>
        <time>2012-06-14T09:23:28.000Z</time>
      </trkpt>
      <trkpt lat="47.69408" lon="6.05429">
        <ele>299.4</ele>
        <time>2012-06-14T09:23:29.000Z</time>
      </trkpt>
      <trkpt lat="47.69402" lon="6.05424">
        <ele>299.3</ele>
        <time>2012-06-14T09:23:30.000Z</time>
      </trkpt>
      <trkpt lat="47.69396" lon="6.05419">
        <ele>299.4</ele>
        <time>2012-06-14T09:23:31.000Z</time>
      </trkpt>
      <trkpt lat="47.6939" lon="6.05415">
        <ele>299.2</ele>
        <time>2012-06-14T09:23:32.000Z</time>
      </trkpt>
      <trkpt lat="47.69384" lon="6.05411">
        <ele>299.2</ele>
        <time>2012-06-14T09:23:33.000Z</time>
      </trkpt>
      <trkpt lat="47.69379" lon="6.05406">
        <ele>299.3</ele>
        <time>2012-06-14T09:23:34.000Z</time>
      </trkpt>
      <trkpt lat="47.69374" lon="6.05402">
        <ele>299.3</ele>
        <time>2012-06-14T09:23:35.000Z</time>
      </trkpt>
      <trkpt lat="47.69369" lon="6.05398">
        <ele>299.4</ele>
        <time>2012-06-14T09:23:36.000Z</time>
      </trkpt>
      <trkpt lat="47.69364" lon="6.05394">
        <ele>299.6</ele>
        <time>2012-06-14T09:23:37.000Z</time>
      </trkpt>
      <trkpt lat="47.69358" lon="6.0539">
        <ele>299.7</ele>
        <time>2012-06-14T09:23:38.000Z</time>
      </trkpt>
      <trkpt lat="47.69353" lon="6.05386">
        <ele>299.7</ele>
        <time>2012-06-14T09:23:39.000Z</time>
      </trkpt>
      <trkpt lat="47.69348" lon="6.05381">
        <ele>299.4</ele>
        <time>2012-06-14T09:23:40.000Z</time>
      </trkpt>
      <trkpt lat="47.69342" lon="6.05377">
        <ele>299.1</ele>
        <time>2012-06-14T09:23:41.000Z</time>
      </trkpt>
      <trkpt lat="47.69336" lon="6.05373">
        <ele>299.1</ele>
        <time>2012-06-14T09:23:42.000Z</time>
      </trkpt>
      <trkpt lat="47.69331" lon="6.05369">
        <ele>299.1</ele>
        <time>2012-06-14T09:23:43.000Z</time>
      </trkpt>
      <trkpt lat="47.69325" lon="6.05364">
        <ele>299.2</ele>
        <time>2012-06-14T09:23:44.000Z</time>
      </trkpt>
      <trkpt lat="47.6932" lon="6.0536">
        <ele>299.2</ele>
        <time>2012-06-14T09:23:45.000Z</time>
      </trkpt>
      <trkpt lat="47.69314" lon="6.05355">
        <ele>298.9</ele>
        <time>2012-06-14T09:23:46.000Z</time>
      </trkpt>
      <trkpt lat="47.6927" lon="6.05314">
        <ele>294.6</ele>
        <time>2012-06-14T09:23:54.000Z</time>
      </trkpt>
      <trkpt lat="47.69265" lon="6.05309">
        <ele>294.2</ele>
        <time>2012-06-14T09:23:55.000Z</time>
      </trkpt>
      <trkpt lat="47.6926" lon="6.05305">
        <ele>294.6</ele>
        <time>2012-06-14T09:23:56.000Z</time>
      </trkpt>
      <trkpt lat="47.69255" lon="6.05301">
        <ele>294.9</ele>
        <time>2012-06-14T09:23:57.000Z</time>
      </trkpt>
      <trkpt lat="47.69251" lon="6.05298">
        <ele>295.2</ele>
        <time>2012-06-14T09:23:58.000Z</time>
      </trkpt>
      <trkpt lat="47.69247" lon="6.05294">
        <ele>295.2</ele>
        <time>2012-06-14T09:23:59.000Z</time>
      </trkpt>
      <trkpt lat="47.69241" lon="6.05288">
        <ele>295.8</ele>
        <time>2012-06-14T09:24:01.000Z</time>
      </trkpt>
      <trkpt lat="47.69236" lon="6.05284">
        <ele>295.9</ele>
        <time>2012-06-14T09:24:03.000Z</time>
      </trkpt>
      <trkpt lat="47.69231" lon="6.05279">
        <ele>296</ele>
        <time>2012-06-14T09:24:06.000Z</time>
      </trkpt>
      <trkpt lat="47.69226" lon="6.05274">
        <ele>296.4</ele>
        <time>2012-06-14T09:24:09.000Z</time>
      </trkpt>
      <trkpt lat="47.69222" lon="6.05269">
        <ele>296.9</ele>
        <time>2012-06-14T09:24:12.000Z</time>
      </trkpt>
      <trkpt lat="47.69217" lon="6.05264">
        <ele>296.7</ele>
        <time>2012-06-14T09:24:34.000Z</time>
      </trkpt>
      <trkpt lat="47.69212" lon="6.05259">
        <ele>297.2</ele>
        <time>2012-06-14T09:24:37.000Z</time>
      </trkpt>
      <trkpt lat="47.69207" lon="6.05253">
        <ele>297.4</ele>
        <time>2012-06-14T09:24:39.000Z</time>
      </trkpt>
      <trkpt lat="47.69201" lon="6.05248">
        <ele>297.5</ele>
        <time>2012-06-14T09:24:41.000Z</time>
      </trkpt>
      <trkpt lat="47.69194" lon="6.05242">
        <ele>297.8</ele>
        <time>2012-06-14T09:24:43.000Z</time>
      </trkpt>
      <trkpt lat="47.69188" lon="6.05236">
        <ele>298.2</ele>
        <time>2012-06-14T09:24:45.000Z</time>
      </trkpt>
      <trkpt lat="47.69155" lon="6.05195">
        <ele>298.3</ele>
        <time>2012-06-14T09:24:55.000Z</time>
      </trkpt>
      <trkpt lat="47.69148" lon="6.05188">
        <ele>298.4</ele>
        <time>2012-06-14T09:24:57.000Z</time>
      </trkpt>
      <trkpt lat="47.6914" lon="6.05182">
        <ele>298.4</ele>
        <time>2012-06-14T09:24:59.000Z</time>
      </trkpt>
      <trkpt lat="47.69136" lon="6.05178">
        <ele>298.2</ele>
        <time>2012-06-14T09:25:00.000Z</time>
      </trkpt>
      <trkpt lat="47.69132" lon="6.05174">
        <ele>298</ele>
        <time>2012-06-14T09:25:01.000Z</time>
      </trkpt>
      <trkpt lat="47.69124" lon="6.05168">
        <ele>298</ele>
        <time>2012-06-14T09:25:03.000Z</time>
      </trkpt>
      <trkpt lat="47.69116" lon="6.05161">
        <ele>298.2</ele>
        <time>2012-06-14T09:25:05.000Z</time>
      </trkpt>
      <trkpt lat="47.69112" lon="6.05158">
        <ele>298.5</ele>
        <time>2012-06-14T09:25:06.000Z</time>
      </trkpt>
      <trkpt lat="47.69104" lon="6.05154">
        <ele>299.8</ele>
        <time>2012-06-14T09:25:08.000Z</time>
      </trkpt>
      <trkpt lat="47.69096" lon="6.05148">
        <ele>300.4</ele>
        <time>2012-06-14T09:25:10.000Z</time>
      </trkpt>
      <trkpt lat="47.69092" lon="6.05144">
        <ele>299.9</ele>
        <time>2012-06-14T09:25:11.000Z</time>
      </trkpt>
      <trkpt lat="47.69088" lon="6.0514">
        <ele>300</ele>
        <time>2012-06-14T09:25:12.000Z</time>
      </trkpt>
      <trkpt lat="47.69083" lon="6.05136">
        <ele>299.7</ele>
        <time>2012-06-14T09:25:13.000Z</time>
      </trkpt>
      <trkpt lat="47.69079" lon="6.05133">
        <ele>299.7</ele>
        <time>2012-06-14T09:25:14.000Z</time>
      </trkpt>
      <trkpt lat="47.69074" lon="6.05129">
        <ele>299.6</ele>
        <time>2012-06-14T09:25:15.000Z</time>
      </trkpt>
      <trkpt lat="47.69069" lon="6.05125">
        <ele>298.8</ele>
        <time>2012-06-14T09:25:16.000Z</time>
      </trkpt>
      <trkpt lat="47.69064" lon="6.05121">
        <ele>298.3</ele>
        <time>2012-06-14T09:25:17.000Z</time>
      </trkpt>
      <trkpt lat="47.69059" lon="6.05116">
        <ele>297.7</ele>
        <time>2012-06-14T09:25:18.000Z</time>
      </trkpt>
      <trkpt lat="47.69052" lon="6.05111">
        <ele>296.8</ele>
        <time>2012-06-14T09:25:19.000Z</time>
      </trkpt>
      <trkpt lat="47.69045" lon="6.05107">
        <ele>295.9</ele>
        <time>2012-06-14T09:25:20.000Z</time>
      </trkpt>
      <trkpt lat="47.69038" lon="6.05102">
        <ele>295.1</ele>
        <time>2012-06-14T09:25:21.000Z</time>
      </trkpt>
      <trkpt lat="47.6903" lon="6.05097">
        <ele>293.9</ele>
        <time>2012-06-14T09:25:22.000Z</time>
      </trkpt>
      <trkpt lat="47.69022" lon="6.05092">
        <ele>292.9</ele>
        <time>2012-06-14T09:25:23.000Z</time>
      </trkpt>
      <trkpt lat="47.69015" lon="6.05088">
        <ele>292.3</ele>
        <time>2012-06-14T09:25:24.000Z</time>
      </trkpt>
      <trkpt lat="47.69007" lon="6.05083">
        <ele>292.1</ele>
        <time>2012-06-14T09:25:25.000Z</time>
      </trkpt>
      <trkpt lat="47.68999" lon="6.05078">
        <ele>291.6</ele>
        <time>2012-06-14T09:25:26.000Z</time>
      </trkpt>
      <trkpt lat="47.6899" lon="6.05072">
        <ele>290.9</ele>
        <time>2012-06-14T09:25:27.000Z</time>
      </trkpt>
      <trkpt lat="47.68981" lon="6.05066">
        <ele>290.2</ele>
        <time>2012-06-14T09:25:28.000Z</time>
      </trkpt>
      <trkpt lat="47.68972" lon="6.0506">
        <ele>289.4</ele>
        <time>2012-06-14T09:25:29.000Z</time>
      </trkpt>
      <trkpt lat="47.68962" lon="6.05053">
        <ele>288.7</ele>
        <time>2012-06-14T09:25:30.000Z</time>
      </trkpt>
      <trkpt lat="47.68952" lon="6.05046">
        <ele>287.9</ele>
        <time>2012-06-14T09:25:31.000Z</time>
      </trkpt>
      <trkpt lat="47.68941" lon="6.0504">
        <ele>287.5</ele>
        <time>2012-06-14T09:25:32.000Z</time>
      </trkpt>
      <trkpt lat="47.68932" lon="6.05033">
        <ele>287</ele>
        <time>2012-06-14T09:25:33.000Z</time>
      </trkpt>
      <trkpt lat="47.68922" lon="6.05026">
        <ele>286.1</ele>
        <time>2012-06-14T09:25:34.000Z</time>
      </trkpt>
      <trkpt lat="47.68912" lon="6.05018">
        <ele>285.5</ele>
        <time>2012-06-14T09:25:35.000Z</time>
      </trkpt>
      <trkpt lat="47.68903" lon="6.0501">
        <ele>285</ele>
        <time>2012-06-14T09:25:36.000Z</time>
      </trkpt>
      <trkpt lat="47.68894" lon="6.05002">
        <ele>284.4</ele>
        <time>2012-06-14T09:25:37.000Z</time>
      </trkpt>
      <trkpt lat="47.68886" lon="6.04992">
        <ele>283.8</ele>
        <time>2012-06-14T09:25:38.000Z</time>
      </trkpt>
      <trkpt lat="47.68879" lon="6.04981">
        <ele>283.3</ele>
        <time>2012-06-14T09:25:39.000Z</time>
      </trkpt>
      <trkpt lat="47.68872" lon="6.0497">
        <ele>282.9</ele>
        <time>2012-06-14T09:25:40.000Z</time>
      </trkpt>
      <trkpt lat="47.68866" lon="6.0496">
        <ele>282.7</ele>
        <time>2012-06-14T09:25:41.000Z</time>
      </trkpt>
      <trkpt lat="47.6886" lon="6.04949">
        <ele>282.7</ele>
        <time>2012-06-14T09:25:42.000Z</time>
      </trkpt>
      <trkpt lat="47.68854" lon="6.04939">
        <ele>282.6</ele>
        <time>2012-06-14T09:25:43.000Z</time>
      </trkpt>
      <trkpt lat="47.68848" lon="6.04929">
        <ele>282.3</ele>
        <time>2012-06-14T09:25:44.000Z</time>
      </trkpt>
      <trkpt lat="47.68843" lon="6.04919">
        <ele>282.1</ele>
        <time>2012-06-14T09:25:45.000Z</time>
      </trkpt>
      <trkpt lat="47.68839" lon="6.04911">
        <ele>281.6</ele>
        <time>2012-06-14T09:25:46.000Z</time>
      </trkpt>
      <trkpt lat="47.68817" lon="6.04878">
        <ele>275.2</ele>
        <time>2012-06-14T09:25:55.000Z</time>
      </trkpt>
      <trkpt lat="47.68812" lon="6.04879">
        <ele>276.1</ele>
        <time>2012-06-14T09:25:56.000Z</time>
      </trkpt>
      <trkpt lat="47.68806" lon="6.04878">
        <ele>277.9</ele>
        <time>2012-06-14T09:25:59.000Z</time>
      </trkpt>
      <trkpt lat="47.68801" lon="6.04878">
        <ele>280</ele>
        <time>2012-06-14T09:26:03.000Z</time>
      </trkpt>
      <trkpt lat="47.68797" lon="6.04878">
        <ele>281.6</ele>
        <time>2012-06-14T09:26:06.000Z</time>
      </trkpt>
      <trkpt lat="47.68791" lon="6.04876">
        <ele>283.4</ele>
        <time>2012-06-14T09:26:09.000Z</time>
      </trkpt>
      <trkpt lat="47.68784" lon="6.04872">
        <ele>284</ele>
        <time>2012-06-14T09:26:11.000Z</time>
      </trkpt>
      <trkpt lat="47.68781" lon="6.04866">
        <ele>284.7</ele>
        <time>2012-06-14T09:26:13.000Z</time>
      </trkpt>
      <trkpt lat="47.68778" lon="6.04858">
        <ele>284.4</ele>
        <time>2012-06-14T09:26:15.000Z</time>
      </trkpt>
      <trkpt lat="47.68774" lon="6.04852">
        <ele>285.1</ele>
        <time>2012-06-14T09:26:18.000Z</time>
      </trkpt>
      <trkpt lat="47.6877" lon="6.04846">
        <ele>285</ele>
        <time>2012-06-14T09:26:20.000Z</time>
      </trkpt>
      <trkpt lat="47.68767" lon="6.04832">
        <ele>284.2</ele>
        <time>2012-06-14T09:26:22.000Z</time>
      </trkpt>
      <trkpt lat="47.68767" lon="6.04822">
        <ele>283.4</ele>
        <time>2012-06-14T09:26:23.000Z</time>
      </trkpt>
      <trkpt lat="47.68766" lon="6.04814">
        <ele>282.5</ele>
        <time>2012-06-14T09:26:25.000Z</time>
      </trkpt>
      <trkpt lat="47.68763" lon="6.04806">
        <ele>281.7</ele>
        <time>2012-06-14T09:26:28.000Z</time>
      </trkpt>
      <trkpt lat="47.6876" lon="6.04798">
        <ele>281.6</ele>
        <time>2012-06-14T09:26:31.000Z</time>
      </trkpt>
      <trkpt lat="47.68757" lon="6.04792">
        <ele>281.5</ele>
        <time>2012-06-14T09:26:33.000Z</time>
      </trkpt>
      <trkpt lat="47.68755" lon="6.04786">
        <ele>281.8</ele>
        <time>2012-06-14T09:26:35.000Z</time>
      </trkpt>
      <trkpt lat="47.68753" lon="6.0478">
        <ele>282</ele>
        <time>2012-06-14T09:26:37.000Z</time>
      </trkpt>
      <trkpt lat="47.68749" lon="6.04772">
        <ele>282.7</ele>
        <time>2012-06-14T09:26:40.000Z</time>
      </trkpt>
      <trkpt lat="47.68746" lon="6.04765">
        <ele>283.3</ele>
        <time>2012-06-14T09:26:42.000Z</time>
      </trkpt>
      <trkpt lat="47.68744" lon="6.04756">
        <ele>283.5</ele>
        <time>2012-06-14T09:26:44.000Z</time>
      </trkpt>
      <trkpt lat="47.68742" lon="6.04747">
        <ele>283.6</ele>
        <time>2012-06-14T09:26:46.000Z</time>
      </trkpt>
      <trkpt lat="47.6873" lon="6.04703">
        <ele>285.8</ele>
        <time>2012-06-14T09:26:55.000Z</time>
      </trkpt>
      <trkpt lat="47.68726" lon="6.04699">
        <ele>285.9</ele>
        <time>2012-06-14T09:26:57.000Z</time>
      </trkpt>
      <trkpt lat="47.68722" lon="6.04694">
        <ele>284.4</ele>
        <time>2012-06-14T09:26:59.000Z</time>
      </trkpt>
      <trkpt lat="47.68718" lon="6.04685">
        <ele>283.1</ele>
        <time>2012-06-14T09:27:01.000Z</time>
      </trkpt>
      <trkpt lat="47.68715" lon="6.04677">
        <ele>283.5</ele>
        <time>2012-06-14T09:27:03.000Z</time>
      </trkpt>
      <trkpt lat="47.68711" lon="6.0467">
        <ele>283.8</ele>
        <time>2012-06-14T09:27:05.000Z</time>
      </trkpt>
      <trkpt lat="47.68707" lon="6.04661">
        <ele>283.8</ele>
        <time>2012-06-14T09:27:07.000Z</time>
      </trkpt>
      <trkpt lat="47.68704" lon="6.04653">
        <ele>284.2</ele>
        <time>2012-06-14T09:27:09.000Z</time>
      </trkpt>
      <trkpt lat="47.687" lon="6.04647">
        <ele>285.1</ele>
        <time>2012-06-14T09:27:11.000Z</time>
      </trkpt>
      <trkpt lat="47.68697" lon="6.04641">
        <ele>286.3</ele>
        <time>2012-06-14T09:27:13.000Z</time>
      </trkpt>
      <trkpt lat="47.68693" lon="6.04634">
        <ele>286.6</ele>
        <time>2012-06-14T09:27:15.000Z</time>
      </trkpt>
      <trkpt lat="47.6869" lon="6.04626">
        <ele>286.9</ele>
        <time>2012-06-14T09:27:17.000Z</time>
      </trkpt>
      <trkpt lat="47.68686" lon="6.04618">
        <ele>287.1</ele>
        <time>2012-06-14T09:27:19.000Z</time>
      </trkpt>
      <trkpt lat="47.68683" lon="6.04608">
        <ele>287</ele>
        <time>2012-06-14T09:27:21.000Z</time>
      </trkpt>
      <trkpt lat="47.68681" lon="6.04597">
        <ele>286.5</ele>
        <time>2012-06-14T09:27:23.000Z</time>
      </trkpt>
      <trkpt lat="47.68677" lon="6.04589">
        <ele>286</ele>
        <time>2012-06-14T09:27:25.000Z</time>
      </trkpt>
      <trkpt lat="47.68673" lon="6.0458">
        <ele>286.1</ele>
        <time>2012-06-14T09:27:27.000Z</time>
      </trkpt>
      <trkpt lat="47.68669" lon="6.04571">
        <ele>285.4</ele>
        <time>2012-06-14T09:27:29.000Z</time>
      </trkpt>
      <trkpt lat="47.68663" lon="6.04564">
        <ele>285.4</ele>
        <time>2012-06-14T09:27:31.000Z</time>
      </trkpt>
      <trkpt lat="47.6866" lon="6.04559">
        <ele>285.1</ele>
        <time>2012-06-14T09:27:32.000Z</time>
      </trkpt>
      <trkpt lat="47.68656" lon="6.04554">
        <ele>284.4</ele>
        <time>2012-06-14T09:27:33.000Z</time>
      </trkpt>
      <trkpt lat="47.68652" lon="6.0455">
        <ele>283.9</ele>
        <time>2012-06-14T09:27:34.000Z</time>
      </trkpt>
      <trkpt lat="47.68645" lon="6.04543">
        <ele>283.5</ele>
        <time>2012-06-14T09:27:36.000Z</time>
      </trkpt>
      <trkpt lat="47.68637" lon="6.04538">
        <ele>283.4</ele>
        <time>2012-06-14T09:27:38.000Z</time>
      </trkpt>
      <trkpt lat="47.68628" lon="6.04537">
        <ele>282.2</ele>
        <time>2012-06-14T09:27:40.000Z</time>
      </trkpt>
      <trkpt lat="47.68624" lon="6.04543">
        <ele>282</ele>
        <time>2012-06-14T09:27:42.000Z</time>
      </trkpt>
      <trkpt lat="47.68621" lon="6.04549">
        <ele>284.4</ele>
        <time>2012-06-14T09:28:25.000Z</time>
      </trkpt>
      <trkpt lat="47.68618" lon="6.04555">
        <ele>284.9</ele>
        <time>2012-06-14T09:28:46.000Z</time>
      </trkpt>
      <trkpt lat="47.68618" lon="6.04565">
        <ele>284.8</ele>
        <time>2012-06-14T09:28:51.000Z</time>
      </trkpt>
      <trkpt lat="47.68621" lon="6.04569">
        <ele>284.5</ele>
        <time>2012-06-14T09:28:59.000Z</time>
      </trkpt>
    </trkseg>
  </trk>
</gpx>